<?xml version="1.0" encoding="UTF-8" standalone="no" ?>
<gpx xmlns="http://www.topografix.com/GPX/1/1" xmlns:xsi="http://www.w3.org/2001/XMLSchema-instance" xsi:schemaLocation="http://www.topografix.com/GPX/1/1 http://www.topografix.com/GPX/1/1/gpx.xsd" version="1.1" creator="VisuGPX - https://www.visugpx.com">
  <metadata>
    <name>Bigreen 2015  - parcours vert</name>
    <desc><![CDATA[randonnée Bigreen 2015  - parcours vert
40km Depart Saint Vallier arrivé Grasse]]></desc>
  </metadata>
  <trk>
    <name><![CDATA[Sequence 1]]></name>
    <trkseg>
      <trkpt lat="43.69893" lon="6.85068">
        <ele>728</ele>
        <time>2015-04-06T06:42:44Z</time>
      </trkpt>
      <trkpt lat="43.69896" lon="6.85068">
        <ele>725</ele>
        <time>2015-04-06T06:42:51Z</time>
      </trkpt>
      <trkpt lat="43.69895" lon="6.85068">
        <ele>725</ele>
        <time>2015-04-06T06:42:54Z</time>
      </trkpt>
      <trkpt lat="43.69896" lon="6.85069">
        <ele>724</ele>
        <time>2015-04-06T06:42:59Z</time>
      </trkpt>
      <trkpt lat="43.69899" lon="6.85071">
        <ele>724</ele>
        <time>2015-04-06T06:43:04Z</time>
      </trkpt>
      <trkpt lat="43.69901" lon="6.85073">
        <ele>725</ele>
        <time>2015-04-06T06:43:09Z</time>
      </trkpt>
      <trkpt lat="43.69901" lon="6.85074">
        <ele>725</ele>
        <time>2015-04-06T06:43:14Z</time>
      </trkpt>
      <trkpt lat="43.69904" lon="6.85078">
        <ele>722</ele>
        <time>2015-04-06T06:43:19Z</time>
      </trkpt>
      <trkpt lat="43.69907" lon="6.85087">
        <ele>722</ele>
        <time>2015-04-06T06:43:24Z</time>
      </trkpt>
      <trkpt lat="43.69913" lon="6.85087">
        <ele>722</ele>
        <time>2015-04-06T06:43:29Z</time>
      </trkpt>
      <trkpt lat="43.69914" lon="6.85087">
        <ele>722</ele>
        <time>2015-04-06T06:43:34Z</time>
      </trkpt>
      <trkpt lat="43.69914" lon="6.85087">
        <ele>722</ele>
        <time>2015-04-06T06:43:39Z</time>
      </trkpt>
      <trkpt lat="43.69914" lon="6.85085">
        <ele>723</ele>
        <time>2015-04-06T06:43:45Z</time>
      </trkpt>
      <trkpt lat="43.69918" lon="6.8507">
        <ele>722</ele>
        <time>2015-04-06T06:43:51Z</time>
      </trkpt>
      <trkpt lat="43.69921" lon="6.8506">
        <ele>724</ele>
        <time>2015-04-06T06:43:54Z</time>
      </trkpt>
      <trkpt lat="43.69925" lon="6.85048">
        <ele>722</ele>
        <time>2015-04-06T06:43:59Z</time>
      </trkpt>
      <trkpt lat="43.69931" lon="6.85029">
        <ele>721</ele>
        <time>2015-04-06T06:44:05Z</time>
      </trkpt>
      <trkpt lat="43.69937" lon="6.85011">
        <ele>723</ele>
        <time>2015-04-06T06:44:10Z</time>
      </trkpt>
      <trkpt lat="43.69942" lon="6.84997">
        <ele>722</ele>
        <time>2015-04-06T06:44:14Z</time>
      </trkpt>
      <trkpt lat="43.69947" lon="6.84979">
        <ele>721</ele>
        <time>2015-04-06T06:44:19Z</time>
      </trkpt>
      <trkpt lat="43.69951" lon="6.84962">
        <ele>720</ele>
        <time>2015-04-06T06:44:24Z</time>
      </trkpt>
      <trkpt lat="43.69952" lon="6.84949">
        <ele>721</ele>
        <time>2015-04-06T06:44:29Z</time>
      </trkpt>
      <trkpt lat="43.69952" lon="6.84936">
        <ele>720</ele>
        <time>2015-04-06T06:44:34Z</time>
      </trkpt>
      <trkpt lat="43.69953" lon="6.84931">
        <ele>719</ele>
        <time>2015-04-06T06:44:39Z</time>
      </trkpt>
      <trkpt lat="43.69953" lon="6.8493">
        <ele>720</ele>
        <time>2015-04-06T06:44:44Z</time>
      </trkpt>
      <trkpt lat="43.69953" lon="6.84932">
        <ele>721</ele>
        <time>2015-04-06T06:44:49Z</time>
      </trkpt>
      <trkpt lat="43.69953" lon="6.84931">
        <ele>721</ele>
        <time>2015-04-06T06:44:54Z</time>
      </trkpt>
      <trkpt lat="43.69953" lon="6.84931">
        <ele>721</ele>
        <time>2015-04-06T06:44:59Z</time>
      </trkpt>
      <trkpt lat="43.69955" lon="6.84929">
        <ele>722</ele>
        <time>2015-04-06T06:45:05Z</time>
      </trkpt>
      <trkpt lat="43.69956" lon="6.84927">
        <ele>721</ele>
        <time>2015-04-06T06:45:09Z</time>
      </trkpt>
      <trkpt lat="43.69955" lon="6.84927">
        <ele>720</ele>
        <time>2015-04-06T06:45:14Z</time>
      </trkpt>
      <trkpt lat="43.69954" lon="6.84927">
        <ele>720</ele>
        <time>2015-04-06T06:45:20Z</time>
      </trkpt>
      <trkpt lat="43.69954" lon="6.84927">
        <ele>720</ele>
        <time>2015-04-06T06:45:24Z</time>
      </trkpt>
      <trkpt lat="43.69956" lon="6.8492">
        <ele>720</ele>
        <time>2015-04-06T06:45:29Z</time>
      </trkpt>
      <trkpt lat="43.69967" lon="6.84903">
        <ele>721</ele>
        <time>2015-04-06T06:45:34Z</time>
      </trkpt>
      <trkpt lat="43.69972" lon="6.84889">
        <ele>719</ele>
        <time>2015-04-06T06:45:39Z</time>
      </trkpt>
      <trkpt lat="43.69971" lon="6.84872">
        <ele>719</ele>
        <time>2015-04-06T06:45:44Z</time>
      </trkpt>
      <trkpt lat="43.69974" lon="6.84858">
        <ele>719</ele>
        <time>2015-04-06T06:45:49Z</time>
      </trkpt>
      <trkpt lat="43.6998" lon="6.84853">
        <ele>718</ele>
        <time>2015-04-06T06:45:54Z</time>
      </trkpt>
      <trkpt lat="43.69975" lon="6.84847">
        <ele>718</ele>
        <time>2015-04-06T06:45:59Z</time>
      </trkpt>
      <trkpt lat="43.69955" lon="6.84837">
        <ele>718</ele>
        <time>2015-04-06T06:46:06Z</time>
      </trkpt>
      <trkpt lat="43.69948" lon="6.8483">
        <ele>718</ele>
        <time>2015-04-06T06:46:09Z</time>
      </trkpt>
      <trkpt lat="43.69931" lon="6.84829">
        <ele>717</ele>
        <time>2015-04-06T06:46:14Z</time>
      </trkpt>
      <trkpt lat="43.69913" lon="6.84829">
        <ele>712</ele>
        <time>2015-04-06T06:46:19Z</time>
      </trkpt>
      <trkpt lat="43.69894" lon="6.84821">
        <ele>712</ele>
        <time>2015-04-06T06:46:24Z</time>
      </trkpt>
      <trkpt lat="43.69875" lon="6.84815">
        <ele>712</ele>
        <time>2015-04-06T06:46:29Z</time>
      </trkpt>
      <trkpt lat="43.69847" lon="6.84812">
        <ele>715</ele>
        <time>2015-04-06T06:46:37Z</time>
      </trkpt>
      <trkpt lat="43.69842" lon="6.8482">
        <ele>714</ele>
        <time>2015-04-06T06:46:39Z</time>
      </trkpt>
      <trkpt lat="43.69829" lon="6.84835">
        <ele>713</ele>
        <time>2015-04-06T06:46:44Z</time>
      </trkpt>
      <trkpt lat="43.69793" lon="6.8483">
        <ele>712</ele>
        <time>2015-04-06T06:46:51Z</time>
      </trkpt>
      <trkpt lat="43.69779" lon="6.84831">
        <ele>711</ele>
        <time>2015-04-06T06:46:54Z</time>
      </trkpt>
      <trkpt lat="43.6975" lon="6.84831">
        <ele>712</ele>
        <time>2015-04-06T06:46:59Z</time>
      </trkpt>
      <trkpt lat="43.69725" lon="6.84821">
        <ele>710</ele>
        <time>2015-04-06T06:47:04Z</time>
      </trkpt>
      <trkpt lat="43.69691" lon="6.84831">
        <ele>711</ele>
        <time>2015-04-06T06:47:11Z</time>
      </trkpt>
      <trkpt lat="43.69671" lon="6.8483">
        <ele>713</ele>
        <time>2015-04-06T06:47:15Z</time>
      </trkpt>
      <trkpt lat="43.69635" lon="6.84833">
        <ele>715</ele>
        <time>2015-04-06T06:47:22Z</time>
      </trkpt>
      <trkpt lat="43.69605" lon="6.84823">
        <ele>715</ele>
        <time>2015-04-06T06:47:28Z</time>
      </trkpt>
      <trkpt lat="43.696" lon="6.84822">
        <ele>715</ele>
        <time>2015-04-06T06:47:29Z</time>
      </trkpt>
      <trkpt lat="43.69544" lon="6.84815">
        <ele>716</ele>
        <time>2015-04-06T06:47:38Z</time>
      </trkpt>
      <trkpt lat="43.69533" lon="6.84815">
        <ele>714</ele>
        <time>2015-04-06T06:47:40Z</time>
      </trkpt>
      <trkpt lat="43.695" lon="6.84817">
        <ele>713</ele>
        <time>2015-04-06T06:47:46Z</time>
      </trkpt>
      <trkpt lat="43.69487" lon="6.84817">
        <ele>712</ele>
        <time>2015-04-06T06:47:49Z</time>
      </trkpt>
      <trkpt lat="43.69442" lon="6.84814">
        <ele>710</ele>
        <time>2015-04-06T06:47:58Z</time>
      </trkpt>
      <trkpt lat="43.69421" lon="6.84803">
        <ele>710</ele>
        <time>2015-04-06T06:48:02Z</time>
      </trkpt>
      <trkpt lat="43.69413" lon="6.84791">
        <ele>710</ele>
        <time>2015-04-06T06:48:04Z</time>
      </trkpt>
      <trkpt lat="43.69398" lon="6.84753">
        <ele>705</ele>
        <time>2015-04-06T06:48:09Z</time>
      </trkpt>
      <trkpt lat="43.69357" lon="6.84705">
        <ele>700</ele>
        <time>2015-04-06T06:48:17Z</time>
      </trkpt>
      <trkpt lat="43.69334" lon="6.84689">
        <ele>700</ele>
        <time>2015-04-06T06:48:21Z</time>
      </trkpt>
      <trkpt lat="43.69321" lon="6.84674">
        <ele>698</ele>
        <time>2015-04-06T06:48:24Z</time>
      </trkpt>
      <trkpt lat="43.69301" lon="6.84622">
        <ele>700</ele>
        <time>2015-04-06T06:48:32Z</time>
      </trkpt>
      <trkpt lat="43.69296" lon="6.84591">
        <ele>696</ele>
        <time>2015-04-06T06:48:37Z</time>
      </trkpt>
      <trkpt lat="43.69292" lon="6.84573">
        <ele>695</ele>
        <time>2015-04-06T06:48:40Z</time>
      </trkpt>
      <trkpt lat="43.69281" lon="6.8453">
        <ele>693</ele>
        <time>2015-04-06T06:48:47Z</time>
      </trkpt>
      <trkpt lat="43.69274" lon="6.84515">
        <ele>690</ele>
        <time>2015-04-06T06:48:50Z</time>
      </trkpt>
      <trkpt lat="43.6926" lon="6.84489">
        <ele>690</ele>
        <time>2015-04-06T06:48:56Z</time>
      </trkpt>
      <trkpt lat="43.69251" lon="6.84483">
        <ele>692</ele>
        <time>2015-04-06T06:48:59Z</time>
      </trkpt>
      <trkpt lat="43.69228" lon="6.84459">
        <ele>691</ele>
        <time>2015-04-06T06:49:06Z</time>
      </trkpt>
      <trkpt lat="43.69218" lon="6.84447">
        <ele>690</ele>
        <time>2015-04-06T06:49:09Z</time>
      </trkpt>
      <trkpt lat="43.69202" lon="6.84431">
        <ele>692</ele>
        <time>2015-04-06T06:49:14Z</time>
      </trkpt>
      <trkpt lat="43.69184" lon="6.84418">
        <ele>693</ele>
        <time>2015-04-06T06:49:19Z</time>
      </trkpt>
      <trkpt lat="43.69167" lon="6.84413">
        <ele>693</ele>
        <time>2015-04-06T06:49:24Z</time>
      </trkpt>
      <trkpt lat="43.69152" lon="6.84408">
        <ele>694</ele>
        <time>2015-04-06T06:49:29Z</time>
      </trkpt>
      <trkpt lat="43.69135" lon="6.84399">
        <ele>693</ele>
        <time>2015-04-06T06:49:34Z</time>
      </trkpt>
      <trkpt lat="43.69113" lon="6.84384">
        <ele>693</ele>
        <time>2015-04-06T06:49:39Z</time>
      </trkpt>
      <trkpt lat="43.69087" lon="6.84364">
        <ele>696</ele>
        <time>2015-04-06T06:49:45Z</time>
      </trkpt>
      <trkpt lat="43.69072" lon="6.84353">
        <ele>693</ele>
        <time>2015-04-06T06:49:49Z</time>
      </trkpt>
      <trkpt lat="43.69034" lon="6.84335">
        <ele>694</ele>
        <time>2015-04-06T06:49:57Z</time>
      </trkpt>
      <trkpt lat="43.69024" lon="6.84339">
        <ele>696</ele>
        <time>2015-04-06T06:49:59Z</time>
      </trkpt>
      <trkpt lat="43.68984" lon="6.84359">
        <ele>695</ele>
        <time>2015-04-06T06:50:06Z</time>
      </trkpt>
      <trkpt lat="43.6895" lon="6.84369">
        <ele>695</ele>
        <time>2015-04-06T06:50:13Z</time>
      </trkpt>
      <trkpt lat="43.68945" lon="6.84372">
        <ele>695</ele>
        <time>2015-04-06T06:50:14Z</time>
      </trkpt>
      <trkpt lat="43.68922" lon="6.84378">
        <ele>696</ele>
        <time>2015-04-06T06:50:19Z</time>
      </trkpt>
      <trkpt lat="43.689" lon="6.84384">
        <ele>697</ele>
        <time>2015-04-06T06:50:25Z</time>
      </trkpt>
      <trkpt lat="43.68883" lon="6.84391">
        <ele>695</ele>
        <time>2015-04-06T06:50:29Z</time>
      </trkpt>
      <trkpt lat="43.68859" lon="6.84395">
        <ele>696</ele>
        <time>2015-04-06T06:50:34Z</time>
      </trkpt>
      <trkpt lat="43.68835" lon="6.84395">
        <ele>695</ele>
        <time>2015-04-06T06:50:39Z</time>
      </trkpt>
      <trkpt lat="43.68807" lon="6.84405">
        <ele>695</ele>
        <time>2015-04-06T06:50:45Z</time>
      </trkpt>
      <trkpt lat="43.68791" lon="6.84406">
        <ele>695</ele>
        <time>2015-04-06T06:50:49Z</time>
      </trkpt>
      <trkpt lat="43.68764" lon="6.84411">
        <ele>691</ele>
        <time>2015-04-06T06:50:55Z</time>
      </trkpt>
      <trkpt lat="43.68746" lon="6.84412">
        <ele>689</ele>
        <time>2015-04-06T06:50:59Z</time>
      </trkpt>
      <trkpt lat="43.68699" lon="6.84406">
        <ele>688</ele>
        <time>2015-04-06T06:51:08Z</time>
      </trkpt>
      <trkpt lat="43.68694" lon="6.84403">
        <ele>688</ele>
        <time>2015-04-06T06:51:09Z</time>
      </trkpt>
      <trkpt lat="43.68667" lon="6.84375">
        <ele>685</ele>
        <time>2015-04-06T06:51:17Z</time>
      </trkpt>
      <trkpt lat="43.68666" lon="6.84363">
        <ele>684</ele>
        <time>2015-04-06T06:51:20Z</time>
      </trkpt>
      <trkpt lat="43.68665" lon="6.84343">
        <ele>683</ele>
        <time>2015-04-06T06:51:24Z</time>
      </trkpt>
      <trkpt lat="43.68655" lon="6.84332">
        <ele>684</ele>
        <time>2015-04-06T06:51:29Z</time>
      </trkpt>
      <trkpt lat="43.68634" lon="6.84332">
        <ele>685</ele>
        <time>2015-04-06T06:51:34Z</time>
      </trkpt>
      <trkpt lat="43.68604" lon="6.84329">
        <ele>681</ele>
        <time>2015-04-06T06:51:41Z</time>
      </trkpt>
      <trkpt lat="43.68597" lon="6.84324">
        <ele>680</ele>
        <time>2015-04-06T06:51:44Z</time>
      </trkpt>
      <trkpt lat="43.68582" lon="6.8432">
        <ele>681</ele>
        <time>2015-04-06T06:51:49Z</time>
      </trkpt>
      <trkpt lat="43.6857" lon="6.84318">
        <ele>680</ele>
        <time>2015-04-06T06:51:54Z</time>
      </trkpt>
      <trkpt lat="43.68557" lon="6.84318">
        <ele>682</ele>
        <time>2015-04-06T06:52:00Z</time>
      </trkpt>
      <trkpt lat="43.68548" lon="6.84315">
        <ele>686</ele>
        <time>2015-04-06T06:52:07Z</time>
      </trkpt>
      <trkpt lat="43.68548" lon="6.84316">
        <ele>687</ele>
        <time>2015-04-06T06:52:10Z</time>
      </trkpt>
      <trkpt lat="43.68548" lon="6.84317">
        <ele>688</ele>
        <time>2015-04-06T06:52:14Z</time>
      </trkpt>
      <trkpt lat="43.68548" lon="6.84317">
        <ele>688</ele>
        <time>2015-04-06T06:52:20Z</time>
      </trkpt>
      <trkpt lat="43.68548" lon="6.84317">
        <ele>689</ele>
        <time>2015-04-06T06:52:26Z</time>
      </trkpt>
      <trkpt lat="43.68546" lon="6.84316">
        <ele>689</ele>
        <time>2015-04-06T06:52:32Z</time>
      </trkpt>
      <trkpt lat="43.68544" lon="6.84316">
        <ele>688</ele>
        <time>2015-04-06T06:52:34Z</time>
      </trkpt>
      <trkpt lat="43.68529" lon="6.84313">
        <ele>690</ele>
        <time>2015-04-06T06:52:41Z</time>
      </trkpt>
      <trkpt lat="43.68521" lon="6.8431">
        <ele>691</ele>
        <time>2015-04-06T06:52:44Z</time>
      </trkpt>
      <trkpt lat="43.68511" lon="6.84308">
        <ele>695</ele>
        <time>2015-04-06T06:52:49Z</time>
      </trkpt>
      <trkpt lat="43.68499" lon="6.84303">
        <ele>697</ele>
        <time>2015-04-06T06:52:54Z</time>
      </trkpt>
      <trkpt lat="43.68488" lon="6.84299">
        <ele>697</ele>
        <time>2015-04-06T06:52:59Z</time>
      </trkpt>
      <trkpt lat="43.68488" lon="6.843">
        <ele>699</ele>
        <time>2015-04-06T06:53:04Z</time>
      </trkpt>
      <trkpt lat="43.68487" lon="6.843">
        <ele>699</ele>
        <time>2015-04-06T06:53:09Z</time>
      </trkpt>
      <trkpt lat="43.68487" lon="6.84299">
        <ele>699</ele>
        <time>2015-04-06T06:53:14Z</time>
      </trkpt>
      <trkpt lat="43.68487" lon="6.84299">
        <ele>699</ele>
        <time>2015-04-06T06:53:19Z</time>
      </trkpt>
      <trkpt lat="43.68487" lon="6.84299">
        <ele>699</ele>
        <time>2015-04-06T06:53:24Z</time>
      </trkpt>
      <trkpt lat="43.68487" lon="6.84299">
        <ele>699</ele>
        <time>2015-04-06T06:53:29Z</time>
      </trkpt>
      <trkpt lat="43.68487" lon="6.84299">
        <ele>699</ele>
        <time>2015-04-06T06:53:34Z</time>
      </trkpt>
      <trkpt lat="43.68464" lon="6.8429">
        <ele>694</ele>
        <time>2015-04-06T06:53:42Z</time>
      </trkpt>
      <trkpt lat="43.68458" lon="6.84288">
        <ele>693</ele>
        <time>2015-04-06T06:53:44Z</time>
      </trkpt>
      <trkpt lat="43.68439" lon="6.84283">
        <ele>693</ele>
        <time>2015-04-06T06:53:49Z</time>
      </trkpt>
      <trkpt lat="43.6841" lon="6.84274">
        <ele>692</ele>
        <time>2015-04-06T06:53:54Z</time>
      </trkpt>
      <trkpt lat="43.68383" lon="6.84262">
        <ele>691</ele>
        <time>2015-04-06T06:53:59Z</time>
      </trkpt>
      <trkpt lat="43.68351" lon="6.84251">
        <ele>691</ele>
        <time>2015-04-06T06:54:04Z</time>
      </trkpt>
      <trkpt lat="43.68314" lon="6.84234">
        <ele>691</ele>
        <time>2015-04-06T06:54:13Z</time>
      </trkpt>
      <trkpt lat="43.68312" lon="6.84233">
        <ele>693</ele>
        <time>2015-04-06T06:54:14Z</time>
      </trkpt>
      <trkpt lat="43.683" lon="6.84233">
        <ele>688</ele>
        <time>2015-04-06T06:54:19Z</time>
      </trkpt>
      <trkpt lat="43.68282" lon="6.8423">
        <ele>686</ele>
        <time>2015-04-06T06:54:25Z</time>
      </trkpt>
      <trkpt lat="43.68277" lon="6.84229">
        <ele>685</ele>
        <time>2015-04-06T06:54:29Z</time>
      </trkpt>
      <trkpt lat="43.68268" lon="6.84231">
        <ele>684</ele>
        <time>2015-04-06T06:54:34Z</time>
      </trkpt>
      <trkpt lat="43.68254" lon="6.8423">
        <ele>685</ele>
        <time>2015-04-06T06:54:41Z</time>
      </trkpt>
      <trkpt lat="43.6825" lon="6.84223">
        <ele>683</ele>
        <time>2015-04-06T06:54:44Z</time>
      </trkpt>
      <trkpt lat="43.68246" lon="6.84208">
        <ele>682</ele>
        <time>2015-04-06T06:54:49Z</time>
      </trkpt>
      <trkpt lat="43.68238" lon="6.84197">
        <ele>683</ele>
        <time>2015-04-06T06:54:54Z</time>
      </trkpt>
      <trkpt lat="43.68235" lon="6.84193">
        <ele>686</ele>
        <time>2015-04-06T06:54:59Z</time>
      </trkpt>
      <trkpt lat="43.68229" lon="6.84195">
        <ele>685</ele>
        <time>2015-04-06T06:55:04Z</time>
      </trkpt>
      <trkpt lat="43.68219" lon="6.84196">
        <ele>686</ele>
        <time>2015-04-06T06:55:09Z</time>
      </trkpt>
      <trkpt lat="43.68207" lon="6.84193">
        <ele>681</ele>
        <time>2015-04-06T06:55:14Z</time>
      </trkpt>
      <trkpt lat="43.68187" lon="6.842">
        <ele>674</ele>
        <time>2015-04-06T06:55:21Z</time>
      </trkpt>
      <trkpt lat="43.68175" lon="6.84223">
        <ele>680</ele>
        <time>2015-04-06T06:55:27Z</time>
      </trkpt>
      <trkpt lat="43.68168" lon="6.8423">
        <ele>681</ele>
        <time>2015-04-06T06:55:29Z</time>
      </trkpt>
      <trkpt lat="43.68159" lon="6.84236">
        <ele>681</ele>
        <time>2015-04-06T06:55:35Z</time>
      </trkpt>
      <trkpt lat="43.68157" lon="6.84236">
        <ele>683</ele>
        <time>2015-04-06T06:55:39Z</time>
      </trkpt>
      <trkpt lat="43.68156" lon="6.84237">
        <ele>685</ele>
        <time>2015-04-06T06:55:44Z</time>
      </trkpt>
      <trkpt lat="43.68156" lon="6.84237">
        <ele>686</ele>
        <time>2015-04-06T06:55:49Z</time>
      </trkpt>
      <trkpt lat="43.68149" lon="6.84243">
        <ele>685</ele>
        <time>2015-04-06T06:55:54Z</time>
      </trkpt>
      <trkpt lat="43.68131" lon="6.84245">
        <ele>684</ele>
        <time>2015-04-06T06:55:59Z</time>
      </trkpt>
      <trkpt lat="43.68103" lon="6.84252">
        <ele>683</ele>
        <time>2015-04-06T06:56:07Z</time>
      </trkpt>
      <trkpt lat="43.68097" lon="6.84234">
        <ele>689</ele>
        <time>2015-04-06T06:56:13Z</time>
      </trkpt>
      <trkpt lat="43.68098" lon="6.84231">
        <ele>690</ele>
        <time>2015-04-06T06:56:14Z</time>
      </trkpt>
      <trkpt lat="43.68106" lon="6.84202">
        <ele>691</ele>
        <time>2015-04-06T06:56:22Z</time>
      </trkpt>
      <trkpt lat="43.68108" lon="6.84194">
        <ele>689</ele>
        <time>2015-04-06T06:56:24Z</time>
      </trkpt>
      <trkpt lat="43.68111" lon="6.84169">
        <ele>689</ele>
        <time>2015-04-06T06:56:29Z</time>
      </trkpt>
      <trkpt lat="43.68114" lon="6.84135">
        <ele>689</ele>
        <time>2015-04-06T06:56:34Z</time>
      </trkpt>
      <trkpt lat="43.68119" lon="6.84109">
        <ele>684</ele>
        <time>2015-04-06T06:56:39Z</time>
      </trkpt>
      <trkpt lat="43.68109" lon="6.84095">
        <ele>682</ele>
        <time>2015-04-06T06:56:44Z</time>
      </trkpt>
      <trkpt lat="43.68096" lon="6.84054">
        <ele>676</ele>
        <time>2015-04-06T06:56:53Z</time>
      </trkpt>
      <trkpt lat="43.68098" lon="6.84052">
        <ele>676</ele>
        <time>2015-04-06T06:56:54Z</time>
      </trkpt>
      <trkpt lat="43.68082" lon="6.84035">
        <ele>675</ele>
        <time>2015-04-06T06:57:00Z</time>
      </trkpt>
      <trkpt lat="43.68066" lon="6.84027">
        <ele>675</ele>
        <time>2015-04-06T06:57:04Z</time>
      </trkpt>
      <trkpt lat="43.68047" lon="6.84013">
        <ele>676</ele>
        <time>2015-04-06T06:57:09Z</time>
      </trkpt>
      <trkpt lat="43.68019" lon="6.84015">
        <ele>679</ele>
        <time>2015-04-06T06:57:16Z</time>
      </trkpt>
      <trkpt lat="43.68007" lon="6.8401">
        <ele>679</ele>
        <time>2015-04-06T06:57:19Z</time>
      </trkpt>
      <trkpt lat="43.67983" lon="6.83999">
        <ele>680</ele>
        <time>2015-04-06T06:57:25Z</time>
      </trkpt>
      <trkpt lat="43.67971" lon="6.83985">
        <ele>681</ele>
        <time>2015-04-06T06:57:29Z</time>
      </trkpt>
      <trkpt lat="43.67958" lon="6.83978">
        <ele>679</ele>
        <time>2015-04-06T06:57:34Z</time>
      </trkpt>
      <trkpt lat="43.67955" lon="6.83968">
        <ele>680</ele>
        <time>2015-04-06T06:57:39Z</time>
      </trkpt>
      <trkpt lat="43.67946" lon="6.83959">
        <ele>680</ele>
        <time>2015-04-06T06:57:44Z</time>
      </trkpt>
      <trkpt lat="43.67933" lon="6.83946">
        <ele>685</ele>
        <time>2015-04-06T06:57:49Z</time>
      </trkpt>
      <trkpt lat="43.67918" lon="6.83937">
        <ele>684</ele>
        <time>2015-04-06T06:57:54Z</time>
      </trkpt>
      <trkpt lat="43.67901" lon="6.83925">
        <ele>684</ele>
        <time>2015-04-06T06:58:00Z</time>
      </trkpt>
      <trkpt lat="43.67897" lon="6.83912">
        <ele>681</ele>
        <time>2015-04-06T06:58:04Z</time>
      </trkpt>
      <trkpt lat="43.67903" lon="6.83892">
        <ele>676</ele>
        <time>2015-04-06T06:58:11Z</time>
      </trkpt>
      <trkpt lat="43.67905" lon="6.83895">
        <ele>675</ele>
        <time>2015-04-06T06:58:14Z</time>
      </trkpt>
      <trkpt lat="43.67906" lon="6.83895">
        <ele>676</ele>
        <time>2015-04-06T06:58:23Z</time>
      </trkpt>
      <trkpt lat="43.67906" lon="6.83895">
        <ele>676</ele>
        <time>2015-04-06T06:58:24Z</time>
      </trkpt>
      <trkpt lat="43.67906" lon="6.83895">
        <ele>676</ele>
        <time>2015-04-06T06:58:31Z</time>
      </trkpt>
      <trkpt lat="43.67906" lon="6.83895">
        <ele>676</ele>
        <time>2015-04-06T06:58:34Z</time>
      </trkpt>
      <trkpt lat="43.67906" lon="6.83891">
        <ele>675</ele>
        <time>2015-04-06T06:58:41Z</time>
      </trkpt>
      <trkpt lat="43.67908" lon="6.83882">
        <ele>675</ele>
        <time>2015-04-06T06:58:45Z</time>
      </trkpt>
      <trkpt lat="43.6791" lon="6.83869">
        <ele>674</ele>
        <time>2015-04-06T06:58:49Z</time>
      </trkpt>
      <trkpt lat="43.67922" lon="6.83863">
        <ele>671</ele>
        <time>2015-04-06T06:58:54Z</time>
      </trkpt>
      <trkpt lat="43.67943" lon="6.83861">
        <ele>667</ele>
        <time>2015-04-06T06:58:59Z</time>
      </trkpt>
      <trkpt lat="43.67967" lon="6.83868">
        <ele>669</ele>
        <time>2015-04-06T06:59:08Z</time>
      </trkpt>
      <trkpt lat="43.67969" lon="6.83868">
        <ele>669</ele>
        <time>2015-04-06T06:59:09Z</time>
      </trkpt>
      <trkpt lat="43.67981" lon="6.83849">
        <ele>671</ele>
        <time>2015-04-06T06:59:16Z</time>
      </trkpt>
      <trkpt lat="43.67984" lon="6.83836">
        <ele>673</ele>
        <time>2015-04-06T06:59:19Z</time>
      </trkpt>
      <trkpt lat="43.67989" lon="6.83809">
        <ele>671</ele>
        <time>2015-04-06T06:59:25Z</time>
      </trkpt>
      <trkpt lat="43.67986" lon="6.8379">
        <ele>671</ele>
        <time>2015-04-06T06:59:29Z</time>
      </trkpt>
      <trkpt lat="43.67986" lon="6.83789">
        <ele>671</ele>
        <time>2015-04-06T06:59:34Z</time>
      </trkpt>
      <trkpt lat="43.67986" lon="6.83789">
        <ele>671</ele>
        <time>2015-04-06T06:59:39Z</time>
      </trkpt>
      <trkpt lat="43.67986" lon="6.83789">
        <ele>671</ele>
        <time>2015-04-06T06:59:44Z</time>
      </trkpt>
      <trkpt lat="43.67987" lon="6.83782">
        <ele>672</ele>
        <time>2015-04-06T06:59:52Z</time>
      </trkpt>
      <trkpt lat="43.67987" lon="6.83782">
        <ele>672</ele>
        <time>2015-04-06T06:59:54Z</time>
      </trkpt>
      <trkpt lat="43.67986" lon="6.83782">
        <ele>673</ele>
        <time>2015-04-06T06:59:59Z</time>
      </trkpt>
      <trkpt lat="43.67986" lon="6.83781">
        <ele>673</ele>
        <time>2015-04-06T07:00:06Z</time>
      </trkpt>
      <trkpt lat="43.6798" lon="6.83767">
        <ele>672</ele>
        <time>2015-04-06T07:00:13Z</time>
      </trkpt>
      <trkpt lat="43.6798" lon="6.83764">
        <ele>671</ele>
        <time>2015-04-06T07:00:14Z</time>
      </trkpt>
      <trkpt lat="43.67987" lon="6.83739">
        <ele>669</ele>
        <time>2015-04-06T07:00:22Z</time>
      </trkpt>
      <trkpt lat="43.67988" lon="6.83732">
        <ele>670</ele>
        <time>2015-04-06T07:00:24Z</time>
      </trkpt>
      <trkpt lat="43.67996" lon="6.83699">
        <ele>670</ele>
        <time>2015-04-06T07:00:33Z</time>
      </trkpt>
      <trkpt lat="43.67997" lon="6.83692">
        <ele>671</ele>
        <time>2015-04-06T07:00:35Z</time>
      </trkpt>
      <trkpt lat="43.67999" lon="6.83679">
        <ele>671</ele>
        <time>2015-04-06T07:00:39Z</time>
      </trkpt>
      <trkpt lat="43.68001" lon="6.83662">
        <ele>671</ele>
        <time>2015-04-06T07:00:44Z</time>
      </trkpt>
      <trkpt lat="43.68004" lon="6.83645">
        <ele>674</ele>
        <time>2015-04-06T07:00:49Z</time>
      </trkpt>
      <trkpt lat="43.68001" lon="6.83631">
        <ele>673</ele>
        <time>2015-04-06T07:00:54Z</time>
      </trkpt>
      <trkpt lat="43.6799" lon="6.8362">
        <ele>673</ele>
        <time>2015-04-06T07:01:00Z</time>
      </trkpt>
      <trkpt lat="43.6798" lon="6.83607">
        <ele>675</ele>
        <time>2015-04-06T07:01:04Z</time>
      </trkpt>
      <trkpt lat="43.67972" lon="6.83589">
        <ele>678</ele>
        <time>2015-04-06T07:01:09Z</time>
      </trkpt>
      <trkpt lat="43.67953" lon="6.83576">
        <ele>682</ele>
        <time>2015-04-06T07:01:17Z</time>
      </trkpt>
      <trkpt lat="43.67945" lon="6.83567">
        <ele>683</ele>
        <time>2015-04-06T07:01:21Z</time>
      </trkpt>
      <trkpt lat="43.67942" lon="6.83555">
        <ele>684</ele>
        <time>2015-04-06T07:01:25Z</time>
      </trkpt>
      <trkpt lat="43.67931" lon="6.83538">
        <ele>685</ele>
        <time>2015-04-06T07:01:33Z</time>
      </trkpt>
      <trkpt lat="43.67928" lon="6.83533">
        <ele>685</ele>
        <time>2015-04-06T07:01:35Z</time>
      </trkpt>
      <trkpt lat="43.67921" lon="6.83513">
        <ele>687</ele>
        <time>2015-04-06T07:01:43Z</time>
      </trkpt>
      <trkpt lat="43.67918" lon="6.83505">
        <ele>688</ele>
        <time>2015-04-06T07:01:46Z</time>
      </trkpt>
      <trkpt lat="43.67913" lon="6.83498">
        <ele>688</ele>
        <time>2015-04-06T07:01:49Z</time>
      </trkpt>
      <trkpt lat="43.67901" lon="6.83494">
        <ele>686</ele>
        <time>2015-04-06T07:01:54Z</time>
      </trkpt>
      <trkpt lat="43.67889" lon="6.8349">
        <ele>686</ele>
        <time>2015-04-06T07:01:59Z</time>
      </trkpt>
      <trkpt lat="43.67874" lon="6.83483">
        <ele>686</ele>
        <time>2015-04-06T07:02:06Z</time>
      </trkpt>
      <trkpt lat="43.67867" lon="6.83483">
        <ele>685</ele>
        <time>2015-04-06T07:02:11Z</time>
      </trkpt>
      <trkpt lat="43.67862" lon="6.83482">
        <ele>685</ele>
        <time>2015-04-06T07:02:14Z</time>
      </trkpt>
      <trkpt lat="43.67854" lon="6.83481">
        <ele>685</ele>
        <time>2015-04-06T07:02:19Z</time>
      </trkpt>
      <trkpt lat="43.67853" lon="6.83482">
        <ele>685</ele>
        <time>2015-04-06T07:02:24Z</time>
      </trkpt>
      <trkpt lat="43.67853" lon="6.83482">
        <ele>685</ele>
        <time>2015-04-06T07:02:29Z</time>
      </trkpt>
      <trkpt lat="43.67853" lon="6.83482">
        <ele>685</ele>
        <time>2015-04-06T07:02:34Z</time>
      </trkpt>
      <trkpt lat="43.67853" lon="6.83482">
        <ele>685</ele>
        <time>2015-04-06T07:02:39Z</time>
      </trkpt>
      <trkpt lat="43.67852" lon="6.83482">
        <ele>685</ele>
        <time>2015-04-06T07:02:44Z</time>
      </trkpt>
      <trkpt lat="43.67851" lon="6.83482">
        <ele>685</ele>
        <time>2015-04-06T07:02:50Z</time>
      </trkpt>
      <trkpt lat="43.67851" lon="6.83482">
        <ele>685</ele>
        <time>2015-04-06T07:02:54Z</time>
      </trkpt>
      <trkpt lat="43.67849" lon="6.83482">
        <ele>685</ele>
        <time>2015-04-06T07:02:59Z</time>
      </trkpt>
      <trkpt lat="43.6785" lon="6.83482">
        <ele>685</ele>
        <time>2015-04-06T07:03:04Z</time>
      </trkpt>
      <trkpt lat="43.67849" lon="6.83482">
        <ele>685</ele>
        <time>2015-04-06T07:03:09Z</time>
      </trkpt>
      <trkpt lat="43.67849" lon="6.83482">
        <ele>685</ele>
        <time>2015-04-06T07:03:14Z</time>
      </trkpt>
      <trkpt lat="43.6785" lon="6.83481">
        <ele>684</ele>
        <time>2015-04-06T07:03:19Z</time>
      </trkpt>
      <trkpt lat="43.6785" lon="6.83481">
        <ele>684</ele>
        <time>2015-04-06T07:03:24Z</time>
      </trkpt>
      <trkpt lat="43.6785" lon="6.83481">
        <ele>684</ele>
        <time>2015-04-06T07:03:29Z</time>
      </trkpt>
      <trkpt lat="43.6785" lon="6.83481">
        <ele>684</ele>
        <time>2015-04-06T07:03:34Z</time>
      </trkpt>
      <trkpt lat="43.6785" lon="6.83481">
        <ele>684</ele>
        <time>2015-04-06T07:03:39Z</time>
      </trkpt>
      <trkpt lat="43.6785" lon="6.83481">
        <ele>684</ele>
        <time>2015-04-06T07:03:44Z</time>
      </trkpt>
      <trkpt lat="43.6785" lon="6.83481">
        <ele>684</ele>
        <time>2015-04-06T07:03:49Z</time>
      </trkpt>
      <trkpt lat="43.67851" lon="6.83481">
        <ele>683</ele>
        <time>2015-04-06T07:03:54Z</time>
      </trkpt>
      <trkpt lat="43.67851" lon="6.8348">
        <ele>682</ele>
        <time>2015-04-06T07:03:59Z</time>
      </trkpt>
      <trkpt lat="43.67851" lon="6.8348">
        <ele>682</ele>
        <time>2015-04-06T07:04:04Z</time>
      </trkpt>
      <trkpt lat="43.67851" lon="6.8348">
        <ele>682</ele>
        <time>2015-04-06T07:04:09Z</time>
      </trkpt>
      <trkpt lat="43.67851" lon="6.8348">
        <ele>682</ele>
        <time>2015-04-06T07:04:14Z</time>
      </trkpt>
      <trkpt lat="43.67851" lon="6.8348">
        <ele>682</ele>
        <time>2015-04-06T07:04:19Z</time>
      </trkpt>
      <trkpt lat="43.67851" lon="6.8348">
        <ele>682</ele>
        <time>2015-04-06T07:04:24Z</time>
      </trkpt>
      <trkpt lat="43.67844" lon="6.83479">
        <ele>680</ele>
        <time>2015-04-06T07:04:29Z</time>
      </trkpt>
      <trkpt lat="43.67826" lon="6.83476">
        <ele>682</ele>
        <time>2015-04-06T07:04:34Z</time>
      </trkpt>
      <trkpt lat="43.67809" lon="6.83478">
        <ele>683</ele>
        <time>2015-04-06T07:04:39Z</time>
      </trkpt>
      <trkpt lat="43.67793" lon="6.8348">
        <ele>683</ele>
        <time>2015-04-06T07:04:44Z</time>
      </trkpt>
      <trkpt lat="43.6777" lon="6.8349">
        <ele>685</ele>
        <time>2015-04-06T07:04:52Z</time>
      </trkpt>
      <trkpt lat="43.67764" lon="6.8349">
        <ele>685</ele>
        <time>2015-04-06T07:04:54Z</time>
      </trkpt>
      <trkpt lat="43.67742" lon="6.83491">
        <ele>688</ele>
        <time>2015-04-06T07:05:02Z</time>
      </trkpt>
      <trkpt lat="43.67736" lon="6.8349">
        <ele>688</ele>
        <time>2015-04-06T07:05:04Z</time>
      </trkpt>
      <trkpt lat="43.67725" lon="6.83487">
        <ele>690</ele>
        <time>2015-04-06T07:05:09Z</time>
      </trkpt>
      <trkpt lat="43.67712" lon="6.8349">
        <ele>691</ele>
        <time>2015-04-06T07:05:14Z</time>
      </trkpt>
      <trkpt lat="43.67691" lon="6.83493">
        <ele>692</ele>
        <time>2015-04-06T07:05:22Z</time>
      </trkpt>
      <trkpt lat="43.67685" lon="6.83493">
        <ele>693</ele>
        <time>2015-04-06T07:05:24Z</time>
      </trkpt>
      <trkpt lat="43.6767" lon="6.83494">
        <ele>695</ele>
        <time>2015-04-06T07:05:29Z</time>
      </trkpt>
      <trkpt lat="43.67645" lon="6.83497">
        <ele>701</ele>
        <time>2015-04-06T07:05:38Z</time>
      </trkpt>
      <trkpt lat="43.67637" lon="6.83498">
        <ele>702</ele>
        <time>2015-04-06T07:05:42Z</time>
      </trkpt>
      <trkpt lat="43.6763" lon="6.83498">
        <ele>702</ele>
        <time>2015-04-06T07:05:46Z</time>
      </trkpt>
      <trkpt lat="43.67623" lon="6.835">
        <ele>702</ele>
        <time>2015-04-06T07:05:50Z</time>
      </trkpt>
      <trkpt lat="43.67615" lon="6.83498">
        <ele>705</ele>
        <time>2015-04-06T07:05:54Z</time>
      </trkpt>
      <trkpt lat="43.67604" lon="6.83493">
        <ele>702</ele>
        <time>2015-04-06T07:06:00Z</time>
      </trkpt>
      <trkpt lat="43.67596" lon="6.83491">
        <ele>702</ele>
        <time>2015-04-06T07:06:04Z</time>
      </trkpt>
      <trkpt lat="43.67582" lon="6.83489">
        <ele>701</ele>
        <time>2015-04-06T07:06:09Z</time>
      </trkpt>
      <trkpt lat="43.67578" lon="6.83486">
        <ele>701</ele>
        <time>2015-04-06T07:06:14Z</time>
      </trkpt>
      <trkpt lat="43.67579" lon="6.83485">
        <ele>701</ele>
        <time>2015-04-06T07:06:19Z</time>
      </trkpt>
      <trkpt lat="43.67568" lon="6.83481">
        <ele>699</ele>
        <time>2015-04-06T07:06:24Z</time>
      </trkpt>
      <trkpt lat="43.67546" lon="6.83472">
        <ele>700</ele>
        <time>2015-04-06T07:06:30Z</time>
      </trkpt>
      <trkpt lat="43.67533" lon="6.83468">
        <ele>701</ele>
        <time>2015-04-06T07:06:34Z</time>
      </trkpt>
      <trkpt lat="43.67512" lon="6.83463">
        <ele>697</ele>
        <time>2015-04-06T07:06:40Z</time>
      </trkpt>
      <trkpt lat="43.67499" lon="6.83457">
        <ele>697</ele>
        <time>2015-04-06T07:06:44Z</time>
      </trkpt>
      <trkpt lat="43.67474" lon="6.8345">
        <ele>696</ele>
        <time>2015-04-06T07:06:49Z</time>
      </trkpt>
      <trkpt lat="43.67445" lon="6.8347">
        <ele>693</ele>
        <time>2015-04-06T07:06:54Z</time>
      </trkpt>
      <trkpt lat="43.6741" lon="6.83474">
        <ele>693</ele>
        <time>2015-04-06T07:06:59Z</time>
      </trkpt>
      <trkpt lat="43.67381" lon="6.83484">
        <ele>688</ele>
        <time>2015-04-06T07:07:04Z</time>
      </trkpt>
      <trkpt lat="43.67355" lon="6.83481">
        <ele>682</ele>
        <time>2015-04-06T07:07:09Z</time>
      </trkpt>
      <trkpt lat="43.67335" lon="6.83457">
        <ele>682</ele>
        <time>2015-04-06T07:07:14Z</time>
      </trkpt>
      <trkpt lat="43.67312" lon="6.83435">
        <ele>682</ele>
        <time>2015-04-06T07:07:20Z</time>
      </trkpt>
      <trkpt lat="43.67295" lon="6.83424">
        <ele>681</ele>
        <time>2015-04-06T07:07:24Z</time>
      </trkpt>
      <trkpt lat="43.67255" lon="6.83399">
        <ele>682</ele>
        <time>2015-04-06T07:07:32Z</time>
      </trkpt>
      <trkpt lat="43.67245" lon="6.83387">
        <ele>681</ele>
        <time>2015-04-06T07:07:34Z</time>
      </trkpt>
      <trkpt lat="43.67231" lon="6.83349">
        <ele>680</ele>
        <time>2015-04-06T07:07:40Z</time>
      </trkpt>
      <trkpt lat="43.67229" lon="6.83326">
        <ele>680</ele>
        <time>2015-04-06T07:07:44Z</time>
      </trkpt>
      <trkpt lat="43.67226" lon="6.83301">
        <ele>681</ele>
        <time>2015-04-06T07:07:50Z</time>
      </trkpt>
      <trkpt lat="43.67217" lon="6.83271">
        <ele>677</ele>
        <time>2015-04-06T07:07:58Z</time>
      </trkpt>
      <trkpt lat="43.67213" lon="6.83263">
        <ele>676</ele>
        <time>2015-04-06T07:08:00Z</time>
      </trkpt>
      <trkpt lat="43.67204" lon="6.83234">
        <ele>673</ele>
        <time>2015-04-06T07:08:06Z</time>
      </trkpt>
      <trkpt lat="43.67195" lon="6.83211">
        <ele>673</ele>
        <time>2015-04-06T07:08:10Z</time>
      </trkpt>
      <trkpt lat="43.67176" lon="6.83182">
        <ele>671</ele>
        <time>2015-04-06T07:08:18Z</time>
      </trkpt>
      <trkpt lat="43.67171" lon="6.83174">
        <ele>672</ele>
        <time>2015-04-06T07:08:20Z</time>
      </trkpt>
      <trkpt lat="43.67165" lon="6.83166">
        <ele>671</ele>
        <time>2015-04-06T07:08:24Z</time>
      </trkpt>
      <trkpt lat="43.67157" lon="6.83147">
        <ele>668</ele>
        <time>2015-04-06T07:08:31Z</time>
      </trkpt>
      <trkpt lat="43.67152" lon="6.83135">
        <ele>667</ele>
        <time>2015-04-06T07:08:34Z</time>
      </trkpt>
      <trkpt lat="43.67144" lon="6.83108">
        <ele>664</ele>
        <time>2015-04-06T07:08:41Z</time>
      </trkpt>
      <trkpt lat="43.67141" lon="6.83096">
        <ele>663</ele>
        <time>2015-04-06T07:08:44Z</time>
      </trkpt>
      <trkpt lat="43.67135" lon="6.83081">
        <ele>657</ele>
        <time>2015-04-06T07:08:51Z</time>
      </trkpt>
      <trkpt lat="43.67115" lon="6.83105">
        <ele>653</ele>
        <time>2015-04-06T07:08:57Z</time>
      </trkpt>
      <trkpt lat="43.67111" lon="6.83129">
        <ele>651</ele>
        <time>2015-04-06T07:09:00Z</time>
      </trkpt>
      <trkpt lat="43.67102" lon="6.83159">
        <ele>647</ele>
        <time>2015-04-06T07:09:06Z</time>
      </trkpt>
      <trkpt lat="43.67098" lon="6.83182">
        <ele>641</ele>
        <time>2015-04-06T07:09:10Z</time>
      </trkpt>
      <trkpt lat="43.67094" lon="6.83218">
        <ele>642</ele>
        <time>2015-04-06T07:09:15Z</time>
      </trkpt>
      <trkpt lat="43.67083" lon="6.83243">
        <ele>641</ele>
        <time>2015-04-06T07:09:20Z</time>
      </trkpt>
      <trkpt lat="43.67069" lon="6.83277">
        <ele>640</ele>
        <time>2015-04-06T07:09:26Z</time>
      </trkpt>
      <trkpt lat="43.67062" lon="6.83293">
        <ele>640</ele>
        <time>2015-04-06T07:09:29Z</time>
      </trkpt>
      <trkpt lat="43.67047" lon="6.83316">
        <ele>639</ele>
        <time>2015-04-06T07:09:34Z</time>
      </trkpt>
      <trkpt lat="43.6703" lon="6.83329">
        <ele>635</ele>
        <time>2015-04-06T07:09:39Z</time>
      </trkpt>
      <trkpt lat="43.67011" lon="6.83334">
        <ele>630</ele>
        <time>2015-04-06T07:09:44Z</time>
      </trkpt>
      <trkpt lat="43.66993" lon="6.83336">
        <ele>627</ele>
        <time>2015-04-06T07:09:49Z</time>
      </trkpt>
      <trkpt lat="43.66969" lon="6.83325">
        <ele>625</ele>
        <time>2015-04-06T07:09:54Z</time>
      </trkpt>
      <trkpt lat="43.66931" lon="6.83295">
        <ele>621</ele>
        <time>2015-04-06T07:10:03Z</time>
      </trkpt>
      <trkpt lat="43.66926" lon="6.83292">
        <ele>621</ele>
        <time>2015-04-06T07:10:04Z</time>
      </trkpt>
      <trkpt lat="43.66922" lon="6.83292">
        <ele>621</ele>
        <time>2015-04-06T07:10:10Z</time>
      </trkpt>
      <trkpt lat="43.66922" lon="6.83292">
        <ele>621</ele>
        <time>2015-04-06T07:10:14Z</time>
      </trkpt>
      <trkpt lat="43.66922" lon="6.83292">
        <ele>621</ele>
        <time>2015-04-06T07:10:19Z</time>
      </trkpt>
      <trkpt lat="43.66922" lon="6.83293">
        <ele>621</ele>
        <time>2015-04-06T07:10:24Z</time>
      </trkpt>
      <trkpt lat="43.66922" lon="6.83292">
        <ele>621</ele>
        <time>2015-04-06T07:10:29Z</time>
      </trkpt>
      <trkpt lat="43.66922" lon="6.83292">
        <ele>621</ele>
        <time>2015-04-06T07:10:34Z</time>
      </trkpt>
      <trkpt lat="43.66922" lon="6.83293">
        <ele>621</ele>
        <time>2015-04-06T07:10:39Z</time>
      </trkpt>
      <trkpt lat="43.66922" lon="6.83293">
        <ele>621</ele>
        <time>2015-04-06T07:10:44Z</time>
      </trkpt>
      <trkpt lat="43.66922" lon="6.83293">
        <ele>621</ele>
        <time>2015-04-06T07:10:49Z</time>
      </trkpt>
      <trkpt lat="43.66921" lon="6.833">
        <ele>621</ele>
        <time>2015-04-06T07:10:57Z</time>
      </trkpt>
      <trkpt lat="43.66919" lon="6.83305">
        <ele>621</ele>
        <time>2015-04-06T07:10:59Z</time>
      </trkpt>
      <trkpt lat="43.66908" lon="6.83327">
        <ele>619</ele>
        <time>2015-04-06T07:11:07Z</time>
      </trkpt>
      <trkpt lat="43.66902" lon="6.83325">
        <ele>618</ele>
        <time>2015-04-06T07:11:09Z</time>
      </trkpt>
      <trkpt lat="43.66888" lon="6.83309">
        <ele>617</ele>
        <time>2015-04-06T07:11:14Z</time>
      </trkpt>
      <trkpt lat="43.66872" lon="6.83316">
        <ele>615</ele>
        <time>2015-04-06T07:11:19Z</time>
      </trkpt>
      <trkpt lat="43.66832" lon="6.8335">
        <ele>609</ele>
        <time>2015-04-06T07:11:27Z</time>
      </trkpt>
      <trkpt lat="43.6682" lon="6.83358">
        <ele>608</ele>
        <time>2015-04-06T07:11:29Z</time>
      </trkpt>
      <trkpt lat="43.66791" lon="6.83382">
        <ele>605</ele>
        <time>2015-04-06T07:11:34Z</time>
      </trkpt>
      <trkpt lat="43.66759" lon="6.83411">
        <ele>602</ele>
        <time>2015-04-06T07:11:39Z</time>
      </trkpt>
      <trkpt lat="43.66734" lon="6.83426">
        <ele>599</ele>
        <time>2015-04-06T07:11:44Z</time>
      </trkpt>
      <trkpt lat="43.66722" lon="6.83388">
        <ele>590</ele>
        <time>2015-04-06T07:11:52Z</time>
      </trkpt>
      <trkpt lat="43.66723" lon="6.83377">
        <ele>590</ele>
        <time>2015-04-06T07:11:54Z</time>
      </trkpt>
      <trkpt lat="43.6673" lon="6.83334">
        <ele>587</ele>
        <time>2015-04-06T07:12:01Z</time>
      </trkpt>
      <trkpt lat="43.66735" lon="6.83317">
        <ele>587</ele>
        <time>2015-04-06T07:12:04Z</time>
      </trkpt>
      <trkpt lat="43.66734" lon="6.83285">
        <ele>583</ele>
        <time>2015-04-06T07:12:09Z</time>
      </trkpt>
      <trkpt lat="43.66734" lon="6.83255">
        <ele>582</ele>
        <time>2015-04-06T07:12:14Z</time>
      </trkpt>
      <trkpt lat="43.66717" lon="6.83247">
        <ele>580</ele>
        <time>2015-04-06T07:12:20Z</time>
      </trkpt>
      <trkpt lat="43.66703" lon="6.83257">
        <ele>579</ele>
        <time>2015-04-06T07:12:25Z</time>
      </trkpt>
      <trkpt lat="43.66694" lon="6.83269">
        <ele>580</ele>
        <time>2015-04-06T07:12:30Z</time>
      </trkpt>
      <trkpt lat="43.66687" lon="6.83274">
        <ele>580</ele>
        <time>2015-04-06T07:12:34Z</time>
      </trkpt>
      <trkpt lat="43.66673" lon="6.83282">
        <ele>580</ele>
        <time>2015-04-06T07:12:39Z</time>
      </trkpt>
      <trkpt lat="43.66661" lon="6.8327">
        <ele>581</ele>
        <time>2015-04-06T07:12:44Z</time>
      </trkpt>
      <trkpt lat="43.66639" lon="6.83224">
        <ele>578</ele>
        <time>2015-04-06T07:12:53Z</time>
      </trkpt>
      <trkpt lat="43.66637" lon="6.83219">
        <ele>578</ele>
        <time>2015-04-06T07:12:54Z</time>
      </trkpt>
      <trkpt lat="43.66628" lon="6.83198">
        <ele>575</ele>
        <time>2015-04-06T07:13:01Z</time>
      </trkpt>
      <trkpt lat="43.66619" lon="6.83193">
        <ele>574</ele>
        <time>2015-04-06T07:13:05Z</time>
      </trkpt>
      <trkpt lat="43.66612" lon="6.8319">
        <ele>575</ele>
        <time>2015-04-06T07:13:09Z</time>
      </trkpt>
      <trkpt lat="43.666" lon="6.83194">
        <ele>573</ele>
        <time>2015-04-06T07:13:16Z</time>
      </trkpt>
      <trkpt lat="43.66594" lon="6.83197">
        <ele>573</ele>
        <time>2015-04-06T07:13:19Z</time>
      </trkpt>
      <trkpt lat="43.66594" lon="6.83198">
        <ele>573</ele>
        <time>2015-04-06T07:13:24Z</time>
      </trkpt>
      <trkpt lat="43.66585" lon="6.832">
        <ele>572</ele>
        <time>2015-04-06T07:13:31Z</time>
      </trkpt>
      <trkpt lat="43.66579" lon="6.83201">
        <ele>572</ele>
        <time>2015-04-06T07:13:34Z</time>
      </trkpt>
      <trkpt lat="43.66571" lon="6.83204">
        <ele>571</ele>
        <time>2015-04-06T07:13:39Z</time>
      </trkpt>
      <trkpt lat="43.66559" lon="6.83206">
        <ele>569</ele>
        <time>2015-04-06T07:13:44Z</time>
      </trkpt>
      <trkpt lat="43.66547" lon="6.8321">
        <ele>568</ele>
        <time>2015-04-06T07:13:49Z</time>
      </trkpt>
      <trkpt lat="43.66535" lon="6.83216">
        <ele>570</ele>
        <time>2015-04-06T07:13:54Z</time>
      </trkpt>
      <trkpt lat="43.66518" lon="6.83235">
        <ele>570</ele>
        <time>2015-04-06T07:14:00Z</time>
      </trkpt>
      <trkpt lat="43.66507" lon="6.83264">
        <ele>567</ele>
        <time>2015-04-06T07:14:06Z</time>
      </trkpt>
      <trkpt lat="43.66506" lon="6.83276">
        <ele>568</ele>
        <time>2015-04-06T07:14:09Z</time>
      </trkpt>
      <trkpt lat="43.66502" lon="6.83291">
        <ele>566</ele>
        <time>2015-04-06T07:14:14Z</time>
      </trkpt>
      <trkpt lat="43.6649" lon="6.83293">
        <ele>565</ele>
        <time>2015-04-06T07:14:20Z</time>
      </trkpt>
      <trkpt lat="43.6649" lon="6.83268">
        <ele>567</ele>
        <time>2015-04-06T07:14:28Z</time>
      </trkpt>
      <trkpt lat="43.66489" lon="6.83258">
        <ele>565</ele>
        <time>2015-04-06T07:14:30Z</time>
      </trkpt>
      <trkpt lat="43.66489" lon="6.83231">
        <ele>561</ele>
        <time>2015-04-06T07:14:35Z</time>
      </trkpt>
      <trkpt lat="43.6649" lon="6.83204">
        <ele>561</ele>
        <time>2015-04-06T07:14:40Z</time>
      </trkpt>
      <trkpt lat="43.66484" lon="6.83173">
        <ele>562</ele>
        <time>2015-04-06T07:14:46Z</time>
      </trkpt>
      <trkpt lat="43.66481" lon="6.83158">
        <ele>562</ele>
        <time>2015-04-06T07:14:49Z</time>
      </trkpt>
      <trkpt lat="43.66484" lon="6.83133">
        <ele>561</ele>
        <time>2015-04-06T07:14:54Z</time>
      </trkpt>
      <trkpt lat="43.66496" lon="6.83103">
        <ele>562</ele>
        <time>2015-04-06T07:15:00Z</time>
      </trkpt>
      <trkpt lat="43.6651" lon="6.83083">
        <ele>561</ele>
        <time>2015-04-06T07:15:05Z</time>
      </trkpt>
      <trkpt lat="43.66537" lon="6.83068">
        <ele>561</ele>
        <time>2015-04-06T07:15:12Z</time>
      </trkpt>
      <trkpt lat="43.66545" lon="6.83064">
        <ele>562</ele>
        <time>2015-04-06T07:15:14Z</time>
      </trkpt>
      <trkpt lat="43.66556" lon="6.83048">
        <ele>561</ele>
        <time>2015-04-06T07:15:19Z</time>
      </trkpt>
      <trkpt lat="43.66576" lon="6.83042">
        <ele>562</ele>
        <time>2015-04-06T07:15:24Z</time>
      </trkpt>
      <trkpt lat="43.66596" lon="6.83029">
        <ele>562</ele>
        <time>2015-04-06T07:15:29Z</time>
      </trkpt>
      <trkpt lat="43.66617" lon="6.83015">
        <ele>561</ele>
        <time>2015-04-06T07:15:34Z</time>
      </trkpt>
      <trkpt lat="43.66629" lon="6.83008">
        <ele>559</ele>
        <time>2015-04-06T07:15:39Z</time>
      </trkpt>
      <trkpt lat="43.66646" lon="6.82999">
        <ele>558</ele>
        <time>2015-04-06T07:15:47Z</time>
      </trkpt>
      <trkpt lat="43.66651" lon="6.82996">
        <ele>556</ele>
        <time>2015-04-06T07:15:49Z</time>
      </trkpt>
      <trkpt lat="43.66675" lon="6.8297">
        <ele>554</ele>
        <time>2015-04-06T07:15:58Z</time>
      </trkpt>
      <trkpt lat="43.6668" lon="6.82962">
        <ele>555</ele>
        <time>2015-04-06T07:16:00Z</time>
      </trkpt>
      <trkpt lat="43.66688" lon="6.82945">
        <ele>554</ele>
        <time>2015-04-06T07:16:04Z</time>
      </trkpt>
      <trkpt lat="43.66693" lon="6.8292">
        <ele>553</ele>
        <time>2015-04-06T07:16:09Z</time>
      </trkpt>
      <trkpt lat="43.66695" lon="6.82895">
        <ele>553</ele>
        <time>2015-04-06T07:16:14Z</time>
      </trkpt>
      <trkpt lat="43.66696" lon="6.82878">
        <ele>552</ele>
        <time>2015-04-06T07:16:19Z</time>
      </trkpt>
      <trkpt lat="43.66695" lon="6.82855">
        <ele>552</ele>
        <time>2015-04-06T07:16:24Z</time>
      </trkpt>
      <trkpt lat="43.6669" lon="6.8284">
        <ele>553</ele>
        <time>2015-04-06T07:16:29Z</time>
      </trkpt>
      <trkpt lat="43.66697" lon="6.82827">
        <ele>554</ele>
        <time>2015-04-06T07:16:34Z</time>
      </trkpt>
      <trkpt lat="43.66699" lon="6.82809">
        <ele>551</ele>
        <time>2015-04-06T07:16:39Z</time>
      </trkpt>
      <trkpt lat="43.66699" lon="6.82787">
        <ele>553</ele>
        <time>2015-04-06T07:16:44Z</time>
      </trkpt>
      <trkpt lat="43.66706" lon="6.82759">
        <ele>552</ele>
        <time>2015-04-06T07:16:51Z</time>
      </trkpt>
      <trkpt lat="43.66712" lon="6.82744">
        <ele>553</ele>
        <time>2015-04-06T07:16:55Z</time>
      </trkpt>
      <trkpt lat="43.66719" lon="6.82732">
        <ele>551</ele>
        <time>2015-04-06T07:17:01Z</time>
      </trkpt>
      <trkpt lat="43.66718" lon="6.82732">
        <ele>551</ele>
        <time>2015-04-06T07:17:04Z</time>
      </trkpt>
      <trkpt lat="43.66718" lon="6.82731">
        <ele>551</ele>
        <time>2015-04-06T07:17:09Z</time>
      </trkpt>
      <trkpt lat="43.66717" lon="6.82731">
        <ele>551</ele>
        <time>2015-04-06T07:17:14Z</time>
      </trkpt>
      <trkpt lat="43.66717" lon="6.82731">
        <ele>551</ele>
        <time>2015-04-06T07:17:19Z</time>
      </trkpt>
      <trkpt lat="43.66717" lon="6.82731">
        <ele>551</ele>
        <time>2015-04-06T07:17:24Z</time>
      </trkpt>
      <trkpt lat="43.66717" lon="6.82731">
        <ele>551</ele>
        <time>2015-04-06T07:17:29Z</time>
      </trkpt>
      <trkpt lat="43.66717" lon="6.82731">
        <ele>551</ele>
        <time>2015-04-06T07:17:34Z</time>
      </trkpt>
      <trkpt lat="43.66718" lon="6.8273">
        <ele>551</ele>
        <time>2015-04-06T07:17:39Z</time>
      </trkpt>
      <trkpt lat="43.66721" lon="6.82717">
        <ele>552</ele>
        <time>2015-04-06T07:17:47Z</time>
      </trkpt>
      <trkpt lat="43.66721" lon="6.82715">
        <ele>553</ele>
        <time>2015-04-06T07:17:51Z</time>
      </trkpt>
      <trkpt lat="43.66721" lon="6.82715">
        <ele>553</ele>
        <time>2015-04-06T07:17:54Z</time>
      </trkpt>
      <trkpt lat="43.6672" lon="6.82715">
        <ele>553</ele>
        <time>2015-04-06T07:17:59Z</time>
      </trkpt>
      <trkpt lat="43.66722" lon="6.82709">
        <ele>553</ele>
        <time>2015-04-06T07:18:05Z</time>
      </trkpt>
      <trkpt lat="43.66722" lon="6.82698">
        <ele>553</ele>
        <time>2015-04-06T07:18:09Z</time>
      </trkpt>
      <trkpt lat="43.66728" lon="6.82668">
        <ele>552</ele>
        <time>2015-04-06T07:18:17Z</time>
      </trkpt>
      <trkpt lat="43.6674" lon="6.82649">
        <ele>550</ele>
        <time>2015-04-06T07:18:22Z</time>
      </trkpt>
      <trkpt lat="43.66747" lon="6.82624">
        <ele>551</ele>
        <time>2015-04-06T07:18:27Z</time>
      </trkpt>
      <trkpt lat="43.66746" lon="6.82613">
        <ele>550</ele>
        <time>2015-04-06T07:18:29Z</time>
      </trkpt>
      <trkpt lat="43.66749" lon="6.82586">
        <ele>550</ele>
        <time>2015-04-06T07:18:34Z</time>
      </trkpt>
      <trkpt lat="43.66752" lon="6.82561">
        <ele>551</ele>
        <time>2015-04-06T07:18:39Z</time>
      </trkpt>
      <trkpt lat="43.66755" lon="6.82539">
        <ele>548</ele>
        <time>2015-04-06T07:18:44Z</time>
      </trkpt>
      <trkpt lat="43.66782" lon="6.82491">
        <ele>550</ele>
        <time>2015-04-06T07:18:53Z</time>
      </trkpt>
      <trkpt lat="43.66783" lon="6.82484">
        <ele>550</ele>
        <time>2015-04-06T07:18:54Z</time>
      </trkpt>
      <trkpt lat="43.66787" lon="6.8244">
        <ele>553</ele>
        <time>2015-04-06T07:19:00Z</time>
      </trkpt>
      <trkpt lat="43.66789" lon="6.82408">
        <ele>552</ele>
        <time>2015-04-06T07:19:06Z</time>
      </trkpt>
      <trkpt lat="43.66795" lon="6.82394">
        <ele>551</ele>
        <time>2015-04-06T07:19:09Z</time>
      </trkpt>
      <trkpt lat="43.66807" lon="6.82363">
        <ele>550</ele>
        <time>2015-04-06T07:19:14Z</time>
      </trkpt>
      <trkpt lat="43.66817" lon="6.8234">
        <ele>548</ele>
        <time>2015-04-06T07:19:20Z</time>
      </trkpt>
      <trkpt lat="43.66821" lon="6.82325">
        <ele>549</ele>
        <time>2015-04-06T07:19:25Z</time>
      </trkpt>
      <trkpt lat="43.66819" lon="6.82311">
        <ele>548</ele>
        <time>2015-04-06T07:19:30Z</time>
      </trkpt>
      <trkpt lat="43.66819" lon="6.823">
        <ele>551</ele>
        <time>2015-04-06T07:19:34Z</time>
      </trkpt>
      <trkpt lat="43.66817" lon="6.82281">
        <ele>550</ele>
        <time>2015-04-06T07:19:39Z</time>
      </trkpt>
      <trkpt lat="43.66815" lon="6.82266">
        <ele>550</ele>
        <time>2015-04-06T07:19:44Z</time>
      </trkpt>
      <trkpt lat="43.66814" lon="6.82249">
        <ele>549</ele>
        <time>2015-04-06T07:19:49Z</time>
      </trkpt>
      <trkpt lat="43.6681" lon="6.82228">
        <ele>550</ele>
        <time>2015-04-06T07:19:56Z</time>
      </trkpt>
      <trkpt lat="43.66812" lon="6.82216">
        <ele>552</ele>
        <time>2015-04-06T07:20:00Z</time>
      </trkpt>
      <trkpt lat="43.66815" lon="6.82203">
        <ele>552</ele>
        <time>2015-04-06T07:20:04Z</time>
      </trkpt>
      <trkpt lat="43.66814" lon="6.82187">
        <ele>553</ele>
        <time>2015-04-06T07:20:09Z</time>
      </trkpt>
      <trkpt lat="43.66818" lon="6.82167">
        <ele>552</ele>
        <time>2015-04-06T07:20:16Z</time>
      </trkpt>
      <trkpt lat="43.66825" lon="6.8216">
        <ele>551</ele>
        <time>2015-04-06T07:20:19Z</time>
      </trkpt>
      <trkpt lat="43.66837" lon="6.82138">
        <ele>550</ele>
        <time>2015-04-06T07:20:24Z</time>
      </trkpt>
      <trkpt lat="43.6684" lon="6.82113">
        <ele>550</ele>
        <time>2015-04-06T07:20:30Z</time>
      </trkpt>
      <trkpt lat="43.66841" lon="6.82097">
        <ele>550</ele>
        <time>2015-04-06T07:20:35Z</time>
      </trkpt>
      <trkpt lat="43.6684" lon="6.82083">
        <ele>550</ele>
        <time>2015-04-06T07:20:39Z</time>
      </trkpt>
      <trkpt lat="43.66842" lon="6.82066">
        <ele>546</ele>
        <time>2015-04-06T07:20:45Z</time>
      </trkpt>
      <trkpt lat="43.66847" lon="6.82055">
        <ele>545</ele>
        <time>2015-04-06T07:20:49Z</time>
      </trkpt>
      <trkpt lat="43.66843" lon="6.82039">
        <ele>547</ele>
        <time>2015-04-06T07:20:54Z</time>
      </trkpt>
      <trkpt lat="43.66843" lon="6.82023">
        <ele>550</ele>
        <time>2015-04-06T07:20:59Z</time>
      </trkpt>
      <trkpt lat="43.66846" lon="6.82009">
        <ele>551</ele>
        <time>2015-04-06T07:21:04Z</time>
      </trkpt>
      <trkpt lat="43.66846" lon="6.82009">
        <ele>551</ele>
        <time>2015-04-06T07:21:09Z</time>
      </trkpt>
      <trkpt lat="43.66846" lon="6.82008">
        <ele>551</ele>
        <time>2015-04-06T07:21:15Z</time>
      </trkpt>
      <trkpt lat="43.66845" lon="6.82008">
        <ele>551</ele>
        <time>2015-04-06T07:21:19Z</time>
      </trkpt>
      <trkpt lat="43.66846" lon="6.82005">
        <ele>551</ele>
        <time>2015-04-06T07:21:24Z</time>
      </trkpt>
      <trkpt lat="43.66854" lon="6.81991">
        <ele>553</ele>
        <time>2015-04-06T07:21:29Z</time>
      </trkpt>
      <trkpt lat="43.66863" lon="6.81979">
        <ele>554</ele>
        <time>2015-04-06T07:21:34Z</time>
      </trkpt>
      <trkpt lat="43.66874" lon="6.8197">
        <ele>553</ele>
        <time>2015-04-06T07:21:39Z</time>
      </trkpt>
      <trkpt lat="43.66886" lon="6.81965">
        <ele>553</ele>
        <time>2015-04-06T07:21:44Z</time>
      </trkpt>
      <trkpt lat="43.66913" lon="6.81937">
        <ele>544</ele>
        <time>2015-04-06T07:21:52Z</time>
      </trkpt>
      <trkpt lat="43.6692" lon="6.8193">
        <ele>541</ele>
        <time>2015-04-06T07:21:54Z</time>
      </trkpt>
      <trkpt lat="43.66934" lon="6.81921">
        <ele>542</ele>
        <time>2015-04-06T07:21:59Z</time>
      </trkpt>
      <trkpt lat="43.66935" lon="6.81897">
        <ele>540</ele>
        <time>2015-04-06T07:22:04Z</time>
      </trkpt>
      <trkpt lat="43.6694" lon="6.81868">
        <ele>537</ele>
        <time>2015-04-06T07:22:09Z</time>
      </trkpt>
      <trkpt lat="43.66947" lon="6.81825">
        <ele>537</ele>
        <time>2015-04-06T07:22:16Z</time>
      </trkpt>
      <trkpt lat="43.66953" lon="6.81809">
        <ele>539</ele>
        <time>2015-04-06T07:22:19Z</time>
      </trkpt>
      <trkpt lat="43.66973" lon="6.81775">
        <ele>535</ele>
        <time>2015-04-06T07:22:27Z</time>
      </trkpt>
      <trkpt lat="43.66978" lon="6.81766">
        <ele>536</ele>
        <time>2015-04-06T07:22:29Z</time>
      </trkpt>
      <trkpt lat="43.6699" lon="6.8174">
        <ele>535</ele>
        <time>2015-04-06T07:22:35Z</time>
      </trkpt>
      <trkpt lat="43.66995" lon="6.81719">
        <ele>537</ele>
        <time>2015-04-06T07:22:40Z</time>
      </trkpt>
      <trkpt lat="43.67005" lon="6.8169">
        <ele>538</ele>
        <time>2015-04-06T07:22:45Z</time>
      </trkpt>
      <trkpt lat="43.67012" lon="6.81666">
        <ele>537</ele>
        <time>2015-04-06T07:22:49Z</time>
      </trkpt>
      <trkpt lat="43.67024" lon="6.8164">
        <ele>540</ele>
        <time>2015-04-06T07:22:54Z</time>
      </trkpt>
      <trkpt lat="43.67036" lon="6.81617">
        <ele>540</ele>
        <time>2015-04-06T07:22:59Z</time>
      </trkpt>
      <trkpt lat="43.67046" lon="6.81587">
        <ele>538</ele>
        <time>2015-04-06T07:23:07Z</time>
      </trkpt>
      <trkpt lat="43.67049" lon="6.8157">
        <ele>537</ele>
        <time>2015-04-06T07:23:12Z</time>
      </trkpt>
      <trkpt lat="43.67052" lon="6.81564">
        <ele>536</ele>
        <time>2015-04-06T07:23:14Z</time>
      </trkpt>
      <trkpt lat="43.67061" lon="6.81545">
        <ele>535</ele>
        <time>2015-04-06T07:23:21Z</time>
      </trkpt>
      <trkpt lat="43.67058" lon="6.81533">
        <ele>535</ele>
        <time>2015-04-06T07:23:24Z</time>
      </trkpt>
      <trkpt lat="43.67053" lon="6.81525">
        <ele>535</ele>
        <time>2015-04-06T07:23:33Z</time>
      </trkpt>
      <trkpt lat="43.67052" lon="6.81524">
        <ele>536</ele>
        <time>2015-04-06T07:23:34Z</time>
      </trkpt>
      <trkpt lat="43.67047" lon="6.81512">
        <ele>535</ele>
        <time>2015-04-06T07:23:41Z</time>
      </trkpt>
      <trkpt lat="43.67048" lon="6.81506">
        <ele>534</ele>
        <time>2015-04-06T07:23:44Z</time>
      </trkpt>
      <trkpt lat="43.6705" lon="6.81493">
        <ele>531</ele>
        <time>2015-04-06T07:23:49Z</time>
      </trkpt>
      <trkpt lat="43.67046" lon="6.81475">
        <ele>532</ele>
        <time>2015-04-06T07:23:55Z</time>
      </trkpt>
      <trkpt lat="43.67047" lon="6.81473">
        <ele>533</ele>
        <time>2015-04-06T07:23:59Z</time>
      </trkpt>
      <trkpt lat="43.67046" lon="6.81472">
        <ele>534</ele>
        <time>2015-04-06T07:24:04Z</time>
      </trkpt>
      <trkpt lat="43.67046" lon="6.81472">
        <ele>534</ele>
        <time>2015-04-06T07:24:09Z</time>
      </trkpt>
      <trkpt lat="43.67046" lon="6.81472">
        <ele>534</ele>
        <time>2015-04-06T07:24:14Z</time>
      </trkpt>
      <trkpt lat="43.67046" lon="6.81465">
        <ele>535</ele>
        <time>2015-04-06T07:24:19Z</time>
      </trkpt>
      <trkpt lat="43.67049" lon="6.81449">
        <ele>533</ele>
        <time>2015-04-06T07:24:25Z</time>
      </trkpt>
      <trkpt lat="43.67047" lon="6.81439">
        <ele>536</ele>
        <time>2015-04-06T07:24:29Z</time>
      </trkpt>
      <trkpt lat="43.67041" lon="6.81427">
        <ele>534</ele>
        <time>2015-04-06T07:24:34Z</time>
      </trkpt>
      <trkpt lat="43.67038" lon="6.81424">
        <ele>535</ele>
        <time>2015-04-06T07:24:39Z</time>
      </trkpt>
      <trkpt lat="43.67037" lon="6.81422">
        <ele>535</ele>
        <time>2015-04-06T07:24:44Z</time>
      </trkpt>
      <trkpt lat="43.6703" lon="6.81403">
        <ele>537</ele>
        <time>2015-04-06T07:24:52Z</time>
      </trkpt>
      <trkpt lat="43.67024" lon="6.81392">
        <ele>538</ele>
        <time>2015-04-06T07:24:57Z</time>
      </trkpt>
      <trkpt lat="43.67022" lon="6.81387">
        <ele>538</ele>
        <time>2015-04-06T07:24:59Z</time>
      </trkpt>
      <trkpt lat="43.67013" lon="6.81373">
        <ele>538</ele>
        <time>2015-04-06T07:25:04Z</time>
      </trkpt>
      <trkpt lat="43.67006" lon="6.81358">
        <ele>536</ele>
        <time>2015-04-06T07:25:09Z</time>
      </trkpt>
      <trkpt lat="43.67004" lon="6.81343">
        <ele>533</ele>
        <time>2015-04-06T07:25:14Z</time>
      </trkpt>
      <trkpt lat="43.67002" lon="6.81326">
        <ele>535</ele>
        <time>2015-04-06T07:25:19Z</time>
      </trkpt>
      <trkpt lat="43.66994" lon="6.81306">
        <ele>536</ele>
        <time>2015-04-06T07:25:24Z</time>
      </trkpt>
      <trkpt lat="43.66984" lon="6.81286">
        <ele>533</ele>
        <time>2015-04-06T07:25:29Z</time>
      </trkpt>
      <trkpt lat="43.66976" lon="6.81265">
        <ele>532</ele>
        <time>2015-04-06T07:25:34Z</time>
      </trkpt>
      <trkpt lat="43.66973" lon="6.81241">
        <ele>532</ele>
        <time>2015-04-06T07:25:39Z</time>
      </trkpt>
      <trkpt lat="43.66972" lon="6.81215">
        <ele>527</ele>
        <time>2015-04-06T07:25:48Z</time>
      </trkpt>
      <trkpt lat="43.66971" lon="6.81207">
        <ele>530</ele>
        <time>2015-04-06T07:25:52Z</time>
      </trkpt>
      <trkpt lat="43.66971" lon="6.81202">
        <ele>530</ele>
        <time>2015-04-06T07:25:55Z</time>
      </trkpt>
      <trkpt lat="43.66972" lon="6.81187">
        <ele>531</ele>
        <time>2015-04-06T07:26:03Z</time>
      </trkpt>
      <trkpt lat="43.66971" lon="6.81184">
        <ele>530</ele>
        <time>2015-04-06T07:26:06Z</time>
      </trkpt>
      <trkpt lat="43.6697" lon="6.81183">
        <ele>531</ele>
        <time>2015-04-06T07:26:09Z</time>
      </trkpt>
      <trkpt lat="43.6697" lon="6.81183">
        <ele>531</ele>
        <time>2015-04-06T07:26:14Z</time>
      </trkpt>
      <trkpt lat="43.66969" lon="6.81182">
        <ele>532</ele>
        <time>2015-04-06T07:26:19Z</time>
      </trkpt>
      <trkpt lat="43.66969" lon="6.81182">
        <ele>532</ele>
        <time>2015-04-06T07:26:24Z</time>
      </trkpt>
      <trkpt lat="43.66969" lon="6.81182">
        <ele>532</ele>
        <time>2015-04-06T07:26:29Z</time>
      </trkpt>
      <trkpt lat="43.66969" lon="6.8118">
        <ele>531</ele>
        <time>2015-04-06T07:26:34Z</time>
      </trkpt>
      <trkpt lat="43.6697" lon="6.81173">
        <ele>532</ele>
        <time>2015-04-06T07:26:41Z</time>
      </trkpt>
      <trkpt lat="43.6697" lon="6.81168">
        <ele>530</ele>
        <time>2015-04-06T07:26:44Z</time>
      </trkpt>
      <trkpt lat="43.66967" lon="6.81152">
        <ele>527</ele>
        <time>2015-04-06T07:26:49Z</time>
      </trkpt>
      <trkpt lat="43.6696" lon="6.81121">
        <ele>529</ele>
        <time>2015-04-06T07:26:58Z</time>
      </trkpt>
      <trkpt lat="43.66959" lon="6.81118">
        <ele>530</ele>
        <time>2015-04-06T07:26:59Z</time>
      </trkpt>
      <trkpt lat="43.66954" lon="6.8109">
        <ele>530</ele>
        <time>2015-04-06T07:27:08Z</time>
      </trkpt>
      <trkpt lat="43.66953" lon="6.81078">
        <ele>529</ele>
        <time>2015-04-06T07:27:11Z</time>
      </trkpt>
      <trkpt lat="43.66954" lon="6.81069">
        <ele>528</ele>
        <time>2015-04-06T07:27:14Z</time>
      </trkpt>
      <trkpt lat="43.66953" lon="6.81056">
        <ele>526</ele>
        <time>2015-04-06T07:27:19Z</time>
      </trkpt>
      <trkpt lat="43.66953" lon="6.81044">
        <ele>527</ele>
        <time>2015-04-06T07:27:24Z</time>
      </trkpt>
      <trkpt lat="43.66954" lon="6.81035">
        <ele>526</ele>
        <time>2015-04-06T07:27:29Z</time>
      </trkpt>
      <trkpt lat="43.66956" lon="6.81026">
        <ele>526</ele>
        <time>2015-04-06T07:27:34Z</time>
      </trkpt>
      <trkpt lat="43.66952" lon="6.80996">
        <ele>528</ele>
        <time>2015-04-06T07:27:43Z</time>
      </trkpt>
      <trkpt lat="43.66951" lon="6.80993">
        <ele>528</ele>
        <time>2015-04-06T07:27:44Z</time>
      </trkpt>
      <trkpt lat="43.66941" lon="6.80974">
        <ele>528</ele>
        <time>2015-04-06T07:27:50Z</time>
      </trkpt>
      <trkpt lat="43.66934" lon="6.80961">
        <ele>528</ele>
        <time>2015-04-06T07:27:54Z</time>
      </trkpt>
      <trkpt lat="43.66929" lon="6.80943">
        <ele>529</ele>
        <time>2015-04-06T07:27:59Z</time>
      </trkpt>
      <trkpt lat="43.66926" lon="6.80913">
        <ele>533</ele>
        <time>2015-04-06T07:28:07Z</time>
      </trkpt>
      <trkpt lat="43.66925" lon="6.80905">
        <ele>535</ele>
        <time>2015-04-06T07:28:09Z</time>
      </trkpt>
      <trkpt lat="43.66923" lon="6.80877">
        <ele>532</ele>
        <time>2015-04-06T07:28:18Z</time>
      </trkpt>
      <trkpt lat="43.66921" lon="6.80866">
        <ele>533</ele>
        <time>2015-04-06T07:28:22Z</time>
      </trkpt>
      <trkpt lat="43.66913" lon="6.80856">
        <ele>535</ele>
        <time>2015-04-06T07:28:27Z</time>
      </trkpt>
      <trkpt lat="43.66907" lon="6.80845">
        <ele>535</ele>
        <time>2015-04-06T07:28:32Z</time>
      </trkpt>
      <trkpt lat="43.66904" lon="6.80841">
        <ele>536</ele>
        <time>2015-04-06T07:28:34Z</time>
      </trkpt>
      <trkpt lat="43.66898" lon="6.80831">
        <ele>537</ele>
        <time>2015-04-06T07:28:39Z</time>
      </trkpt>
      <trkpt lat="43.66891" lon="6.80811">
        <ele>538</ele>
        <time>2015-04-06T07:28:47Z</time>
      </trkpt>
      <trkpt lat="43.66888" lon="6.80804">
        <ele>541</ele>
        <time>2015-04-06T07:28:50Z</time>
      </trkpt>
      <trkpt lat="43.66883" lon="6.80795">
        <ele>542</ele>
        <time>2015-04-06T07:28:54Z</time>
      </trkpt>
      <trkpt lat="43.66872" lon="6.80788">
        <ele>539</ele>
        <time>2015-04-06T07:28:59Z</time>
      </trkpt>
      <trkpt lat="43.66859" lon="6.80791">
        <ele>539</ele>
        <time>2015-04-06T07:29:04Z</time>
      </trkpt>
      <trkpt lat="43.66839" lon="6.80788">
        <ele>535</ele>
        <time>2015-04-06T07:29:11Z</time>
      </trkpt>
      <trkpt lat="43.66832" lon="6.80781">
        <ele>535</ele>
        <time>2015-04-06T07:29:14Z</time>
      </trkpt>
      <trkpt lat="43.66815" lon="6.80762">
        <ele>535</ele>
        <time>2015-04-06T07:29:19Z</time>
      </trkpt>
      <trkpt lat="43.66799" lon="6.80761">
        <ele>536</ele>
        <time>2015-04-06T07:29:24Z</time>
      </trkpt>
      <trkpt lat="43.66791" lon="6.80749">
        <ele>535</ele>
        <time>2015-04-06T07:29:29Z</time>
      </trkpt>
      <trkpt lat="43.66786" lon="6.80735">
        <ele>535</ele>
        <time>2015-04-06T07:29:34Z</time>
      </trkpt>
      <trkpt lat="43.66778" lon="6.80718">
        <ele>536</ele>
        <time>2015-04-06T07:29:39Z</time>
      </trkpt>
      <trkpt lat="43.66776" lon="6.80695">
        <ele>533</ele>
        <time>2015-04-06T07:29:45Z</time>
      </trkpt>
      <trkpt lat="43.66768" lon="6.80659">
        <ele>534</ele>
        <time>2015-04-06T07:29:52Z</time>
      </trkpt>
      <trkpt lat="43.66766" lon="6.80649">
        <ele>533</ele>
        <time>2015-04-06T07:29:54Z</time>
      </trkpt>
      <trkpt lat="43.6676" lon="6.80625">
        <ele>534</ele>
        <time>2015-04-06T07:30:01Z</time>
      </trkpt>
      <trkpt lat="43.66758" lon="6.80624">
        <ele>535</ele>
        <time>2015-04-06T07:30:08Z</time>
      </trkpt>
      <trkpt lat="43.66758" lon="6.80625">
        <ele>535</ele>
        <time>2015-04-06T07:30:09Z</time>
      </trkpt>
      <trkpt lat="43.66759" lon="6.80625">
        <ele>535</ele>
        <time>2015-04-06T07:30:14Z</time>
      </trkpt>
      <trkpt lat="43.66758" lon="6.80624">
        <ele>535</ele>
        <time>2015-04-06T07:30:20Z</time>
      </trkpt>
      <trkpt lat="43.66758" lon="6.80624">
        <ele>535</ele>
        <time>2015-04-06T07:30:24Z</time>
      </trkpt>
      <trkpt lat="43.66758" lon="6.80624">
        <ele>535</ele>
        <time>2015-04-06T07:30:29Z</time>
      </trkpt>
      <trkpt lat="43.66758" lon="6.80624">
        <ele>535</ele>
        <time>2015-04-06T07:30:34Z</time>
      </trkpt>
      <trkpt lat="43.66758" lon="6.80623">
        <ele>535</ele>
        <time>2015-04-06T07:30:39Z</time>
      </trkpt>
      <trkpt lat="43.66758" lon="6.80623">
        <ele>535</ele>
        <time>2015-04-06T07:30:44Z</time>
      </trkpt>
      <trkpt lat="43.66758" lon="6.80623">
        <ele>535</ele>
        <time>2015-04-06T07:30:49Z</time>
      </trkpt>
      <trkpt lat="43.66757" lon="6.80623">
        <ele>535</ele>
        <time>2015-04-06T07:30:54Z</time>
      </trkpt>
      <trkpt lat="43.66758" lon="6.80623">
        <ele>535</ele>
        <time>2015-04-06T07:30:59Z</time>
      </trkpt>
      <trkpt lat="43.66758" lon="6.80622">
        <ele>537</ele>
        <time>2015-04-06T07:31:04Z</time>
      </trkpt>
      <trkpt lat="43.6676" lon="6.80614">
        <ele>534</ele>
        <time>2015-04-06T07:31:09Z</time>
      </trkpt>
      <trkpt lat="43.66753" lon="6.80589">
        <ele>532</ele>
        <time>2015-04-06T07:31:15Z</time>
      </trkpt>
      <trkpt lat="43.6675" lon="6.80572">
        <ele>535</ele>
        <time>2015-04-06T07:31:19Z</time>
      </trkpt>
      <trkpt lat="43.66733" lon="6.80544">
        <ele>535</ele>
        <time>2015-04-06T07:31:27Z</time>
      </trkpt>
      <trkpt lat="43.6673" lon="6.80535">
        <ele>534</ele>
        <time>2015-04-06T07:31:30Z</time>
      </trkpt>
      <trkpt lat="43.66724" lon="6.80522">
        <ele>533</ele>
        <time>2015-04-06T07:31:34Z</time>
      </trkpt>
      <trkpt lat="43.66715" lon="6.805">
        <ele>531</ele>
        <time>2015-04-06T07:31:39Z</time>
      </trkpt>
      <trkpt lat="43.66708" lon="6.8048">
        <ele>530</ele>
        <time>2015-04-06T07:31:44Z</time>
      </trkpt>
      <trkpt lat="43.66704" lon="6.80454">
        <ele>529</ele>
        <time>2015-04-06T07:31:50Z</time>
      </trkpt>
      <trkpt lat="43.66705" lon="6.80427">
        <ele>529</ele>
        <time>2015-04-06T07:31:54Z</time>
      </trkpt>
      <trkpt lat="43.66702" lon="6.804">
        <ele>528</ele>
        <time>2015-04-06T07:31:59Z</time>
      </trkpt>
      <trkpt lat="43.66703" lon="6.80394">
        <ele>528</ele>
        <time>2015-04-06T07:32:04Z</time>
      </trkpt>
      <trkpt lat="43.66705" lon="6.8039">
        <ele>531</ele>
        <time>2015-04-06T07:32:09Z</time>
      </trkpt>
      <trkpt lat="43.66708" lon="6.80374">
        <ele>531</ele>
        <time>2015-04-06T07:32:14Z</time>
      </trkpt>
      <trkpt lat="43.66715" lon="6.80353">
        <ele>532</ele>
        <time>2015-04-06T07:32:19Z</time>
      </trkpt>
      <trkpt lat="43.66707" lon="6.80335">
        <ele>529</ele>
        <time>2015-04-06T07:32:24Z</time>
      </trkpt>
      <trkpt lat="43.66697" lon="6.80302">
        <ele>526</ele>
        <time>2015-04-06T07:32:31Z</time>
      </trkpt>
      <trkpt lat="43.66688" lon="6.80282">
        <ele>526</ele>
        <time>2015-04-06T07:32:34Z</time>
      </trkpt>
      <trkpt lat="43.66676" lon="6.80262">
        <ele>525</ele>
        <time>2015-04-06T07:32:39Z</time>
      </trkpt>
      <trkpt lat="43.6667" lon="6.80251">
        <ele>524</ele>
        <time>2015-04-06T07:32:47Z</time>
      </trkpt>
      <trkpt lat="43.66669" lon="6.80245">
        <ele>522</ele>
        <time>2015-04-06T07:32:49Z</time>
      </trkpt>
      <trkpt lat="43.66668" lon="6.80226">
        <ele>521</ele>
        <time>2015-04-06T07:32:54Z</time>
      </trkpt>
      <trkpt lat="43.66667" lon="6.80211">
        <ele>522</ele>
        <time>2015-04-06T07:32:59Z</time>
      </trkpt>
      <trkpt lat="43.66667" lon="6.80206">
        <ele>523</ele>
        <time>2015-04-06T07:33:04Z</time>
      </trkpt>
      <trkpt lat="43.66666" lon="6.802">
        <ele>524</ele>
        <time>2015-04-06T07:33:11Z</time>
      </trkpt>
      <trkpt lat="43.66665" lon="6.80198">
        <ele>524</ele>
        <time>2015-04-06T07:33:14Z</time>
      </trkpt>
      <trkpt lat="43.66664" lon="6.80196">
        <ele>524</ele>
        <time>2015-04-06T07:33:19Z</time>
      </trkpt>
      <trkpt lat="43.66664" lon="6.80196">
        <ele>524</ele>
        <time>2015-04-06T07:33:24Z</time>
      </trkpt>
      <trkpt lat="43.66664" lon="6.80196">
        <ele>524</ele>
        <time>2015-04-06T07:33:29Z</time>
      </trkpt>
      <trkpt lat="43.66664" lon="6.80196">
        <ele>524</ele>
        <time>2015-04-06T07:33:34Z</time>
      </trkpt>
      <trkpt lat="43.66664" lon="6.80196">
        <ele>524</ele>
        <time>2015-04-06T07:33:39Z</time>
      </trkpt>
      <trkpt lat="43.66659" lon="6.80189">
        <ele>524</ele>
        <time>2015-04-06T07:33:47Z</time>
      </trkpt>
      <trkpt lat="43.66656" lon="6.80185">
        <ele>524</ele>
        <time>2015-04-06T07:33:50Z</time>
      </trkpt>
      <trkpt lat="43.66652" lon="6.8018">
        <ele>524</ele>
        <time>2015-04-06T07:33:54Z</time>
      </trkpt>
      <trkpt lat="43.66652" lon="6.80163">
        <ele>526</ele>
        <time>2015-04-06T07:34:00Z</time>
      </trkpt>
      <trkpt lat="43.66651" lon="6.80148">
        <ele>526</ele>
        <time>2015-04-06T07:34:04Z</time>
      </trkpt>
      <trkpt lat="43.6665" lon="6.80128">
        <ele>526</ele>
        <time>2015-04-06T07:34:09Z</time>
      </trkpt>
      <trkpt lat="43.66644" lon="6.80096">
        <ele>526</ele>
        <time>2015-04-06T07:34:16Z</time>
      </trkpt>
      <trkpt lat="43.66644" lon="6.80076">
        <ele>524</ele>
        <time>2015-04-06T07:34:20Z</time>
      </trkpt>
      <trkpt lat="43.66643" lon="6.80035">
        <ele>524</ele>
        <time>2015-04-06T07:34:27Z</time>
      </trkpt>
      <trkpt lat="43.66643" lon="6.80023">
        <ele>522</ele>
        <time>2015-04-06T07:34:29Z</time>
      </trkpt>
      <trkpt lat="43.66644" lon="6.79994">
        <ele>522</ele>
        <time>2015-04-06T07:34:34Z</time>
      </trkpt>
      <trkpt lat="43.66644" lon="6.79972">
        <ele>521</ele>
        <time>2015-04-06T07:34:39Z</time>
      </trkpt>
      <trkpt lat="43.6661" lon="6.7995">
        <ele>517</ele>
        <time>2015-04-06T07:34:46Z</time>
      </trkpt>
      <trkpt lat="43.66586" lon="6.79917">
        <ele>513</ele>
        <time>2015-04-06T07:34:52Z</time>
      </trkpt>
      <trkpt lat="43.6657" lon="6.79905">
        <ele>511</ele>
        <time>2015-04-06T07:34:55Z</time>
      </trkpt>
      <trkpt lat="43.66542" lon="6.79887">
        <ele>506</ele>
        <time>2015-04-06T07:35:00Z</time>
      </trkpt>
      <trkpt lat="43.66515" lon="6.7988">
        <ele>504</ele>
        <time>2015-04-06T07:35:04Z</time>
      </trkpt>
      <trkpt lat="43.66496" lon="6.79862">
        <ele>502</ele>
        <time>2015-04-06T07:35:09Z</time>
      </trkpt>
      <trkpt lat="43.66467" lon="6.79816">
        <ele>495</ele>
        <time>2015-04-06T07:35:16Z</time>
      </trkpt>
      <trkpt lat="43.66457" lon="6.79794">
        <ele>492</ele>
        <time>2015-04-06T07:35:19Z</time>
      </trkpt>
      <trkpt lat="43.66431" lon="6.79717">
        <ele>485</ele>
        <time>2015-04-06T07:35:27Z</time>
      </trkpt>
      <trkpt lat="43.66425" lon="6.797">
        <ele>483</ele>
        <time>2015-04-06T07:35:29Z</time>
      </trkpt>
      <trkpt lat="43.66392" lon="6.79686">
        <ele>482</ele>
        <time>2015-04-06T07:35:34Z</time>
      </trkpt>
      <trkpt lat="43.66358" lon="6.7967">
        <ele>481</ele>
        <time>2015-04-06T07:35:39Z</time>
      </trkpt>
      <trkpt lat="43.66327" lon="6.79654">
        <ele>480</ele>
        <time>2015-04-06T07:35:44Z</time>
      </trkpt>
      <trkpt lat="43.66284" lon="6.79626">
        <ele>477</ele>
        <time>2015-04-06T07:35:51Z</time>
      </trkpt>
      <trkpt lat="43.66259" lon="6.79614">
        <ele>475</ele>
        <time>2015-04-06T07:35:55Z</time>
      </trkpt>
      <trkpt lat="43.66234" lon="6.79605">
        <ele>475</ele>
        <time>2015-04-06T07:35:59Z</time>
      </trkpt>
      <trkpt lat="43.66199" lon="6.7959">
        <ele>475</ele>
        <time>2015-04-06T07:36:05Z</time>
      </trkpt>
      <trkpt lat="43.66181" lon="6.79578">
        <ele>475</ele>
        <time>2015-04-06T07:36:09Z</time>
      </trkpt>
      <trkpt lat="43.66168" lon="6.79607">
        <ele>474</ele>
        <time>2015-04-06T07:36:16Z</time>
      </trkpt>
      <trkpt lat="43.66163" lon="6.79634">
        <ele>473</ele>
        <time>2015-04-06T07:36:23Z</time>
      </trkpt>
      <trkpt lat="43.66162" lon="6.79637">
        <ele>473</ele>
        <time>2015-04-06T07:36:24Z</time>
      </trkpt>
      <trkpt lat="43.66159" lon="6.79655">
        <ele>472</ele>
        <time>2015-04-06T07:36:29Z</time>
      </trkpt>
      <trkpt lat="43.66152" lon="6.79666">
        <ele>473</ele>
        <time>2015-04-06T07:36:34Z</time>
      </trkpt>
      <trkpt lat="43.6615" lon="6.79666">
        <ele>471</ele>
        <time>2015-04-06T07:36:39Z</time>
      </trkpt>
      <trkpt lat="43.66151" lon="6.79666">
        <ele>471</ele>
        <time>2015-04-06T07:36:44Z</time>
      </trkpt>
      <trkpt lat="43.66151" lon="6.79665">
        <ele>471</ele>
        <time>2015-04-06T07:36:49Z</time>
      </trkpt>
      <trkpt lat="43.66148" lon="6.79667">
        <ele>471</ele>
        <time>2015-04-06T07:36:54Z</time>
      </trkpt>
      <trkpt lat="43.66133" lon="6.79667">
        <ele>471</ele>
        <time>2015-04-06T07:37:01Z</time>
      </trkpt>
      <trkpt lat="43.66104" lon="6.79659">
        <ele>470</ele>
        <time>2015-04-06T07:37:07Z</time>
      </trkpt>
      <trkpt lat="43.66094" lon="6.79658">
        <ele>470</ele>
        <time>2015-04-06T07:37:09Z</time>
      </trkpt>
      <trkpt lat="43.66069" lon="6.7965">
        <ele>470</ele>
        <time>2015-04-06T07:37:14Z</time>
      </trkpt>
      <trkpt lat="43.66043" lon="6.7963">
        <ele>467</ele>
        <time>2015-04-06T07:37:20Z</time>
      </trkpt>
      <trkpt lat="43.66026" lon="6.796">
        <ele>467</ele>
        <time>2015-04-06T07:37:25Z</time>
      </trkpt>
      <trkpt lat="43.65999" lon="6.79576">
        <ele>466</ele>
        <time>2015-04-06T07:37:31Z</time>
      </trkpt>
      <trkpt lat="43.65967" lon="6.79555">
        <ele>466</ele>
        <time>2015-04-06T07:37:37Z</time>
      </trkpt>
      <trkpt lat="43.65948" lon="6.79532">
        <ele>463</ele>
        <time>2015-04-06T07:37:41Z</time>
      </trkpt>
      <trkpt lat="43.65936" lon="6.79513">
        <ele>463</ele>
        <time>2015-04-06T07:37:44Z</time>
      </trkpt>
      <trkpt lat="43.65895" lon="6.7946">
        <ele>460</ele>
        <time>2015-04-06T07:37:53Z</time>
      </trkpt>
      <trkpt lat="43.65884" lon="6.7945">
        <ele>460</ele>
        <time>2015-04-06T07:37:55Z</time>
      </trkpt>
      <trkpt lat="43.65855" lon="6.79431">
        <ele>460</ele>
        <time>2015-04-06T07:38:00Z</time>
      </trkpt>
      <trkpt lat="43.65824" lon="6.79417">
        <ele>460</ele>
        <time>2015-04-06T07:38:05Z</time>
      </trkpt>
      <trkpt lat="43.65791" lon="6.79389">
        <ele>458</ele>
        <time>2015-04-06T07:38:11Z</time>
      </trkpt>
      <trkpt lat="43.65772" lon="6.79394">
        <ele>456</ele>
        <time>2015-04-06T07:38:14Z</time>
      </trkpt>
      <trkpt lat="43.65735" lon="6.79392">
        <ele>455</ele>
        <time>2015-04-06T07:38:20Z</time>
      </trkpt>
      <trkpt lat="43.65712" lon="6.79401">
        <ele>454</ele>
        <time>2015-04-06T07:38:25Z</time>
      </trkpt>
      <trkpt lat="43.65701" lon="6.79433">
        <ele>454</ele>
        <time>2015-04-06T07:38:30Z</time>
      </trkpt>
      <trkpt lat="43.65678" lon="6.79443">
        <ele>454</ele>
        <time>2015-04-06T07:38:34Z</time>
      </trkpt>
      <trkpt lat="43.65638" lon="6.79465">
        <ele>455</ele>
        <time>2015-04-06T07:38:41Z</time>
      </trkpt>
      <trkpt lat="43.65609" lon="6.79487">
        <ele>454</ele>
        <time>2015-04-06T07:38:46Z</time>
      </trkpt>
      <trkpt lat="43.6559" lon="6.79499">
        <ele>453</ele>
        <time>2015-04-06T07:38:49Z</time>
      </trkpt>
      <trkpt lat="43.65553" lon="6.79523">
        <ele>453</ele>
        <time>2015-04-06T07:38:55Z</time>
      </trkpt>
      <trkpt lat="43.65531" lon="6.79543">
        <ele>452</ele>
        <time>2015-04-06T07:38:59Z</time>
      </trkpt>
      <trkpt lat="43.6548" lon="6.79577">
        <ele>451</ele>
        <time>2015-04-06T07:39:07Z</time>
      </trkpt>
      <trkpt lat="43.65467" lon="6.79585">
        <ele>450</ele>
        <time>2015-04-06T07:39:09Z</time>
      </trkpt>
      <trkpt lat="43.65431" lon="6.79598">
        <ele>450</ele>
        <time>2015-04-06T07:39:14Z</time>
      </trkpt>
      <trkpt lat="43.65399" lon="6.79619">
        <ele>448</ele>
        <time>2015-04-06T07:39:19Z</time>
      </trkpt>
      <trkpt lat="43.65368" lon="6.79647">
        <ele>446</ele>
        <time>2015-04-06T07:39:24Z</time>
      </trkpt>
      <trkpt lat="43.65343" lon="6.79704">
        <ele>447</ele>
        <time>2015-04-06T07:39:30Z</time>
      </trkpt>
      <trkpt lat="43.65325" lon="6.79737">
        <ele>447</ele>
        <time>2015-04-06T07:39:34Z</time>
      </trkpt>
      <trkpt lat="43.65276" lon="6.79761">
        <ele>445</ele>
        <time>2015-04-06T07:39:41Z</time>
      </trkpt>
      <trkpt lat="43.65247" lon="6.79761">
        <ele>445</ele>
        <time>2015-04-06T07:39:45Z</time>
      </trkpt>
      <trkpt lat="43.65215" lon="6.79766">
        <ele>445</ele>
        <time>2015-04-06T07:39:50Z</time>
      </trkpt>
      <trkpt lat="43.65189" lon="6.79773">
        <ele>445</ele>
        <time>2015-04-06T07:39:55Z</time>
      </trkpt>
      <trkpt lat="43.65163" lon="6.79776">
        <ele>446</ele>
        <time>2015-04-06T07:40:00Z</time>
      </trkpt>
      <trkpt lat="43.65143" lon="6.7979">
        <ele>445</ele>
        <time>2015-04-06T07:40:05Z</time>
      </trkpt>
      <trkpt lat="43.65141" lon="6.79821">
        <ele>446</ele>
        <time>2015-04-06T07:40:10Z</time>
      </trkpt>
      <trkpt lat="43.65146" lon="6.7984">
        <ele>446</ele>
        <time>2015-04-06T07:40:14Z</time>
      </trkpt>
      <trkpt lat="43.65146" lon="6.7984">
        <ele>447</ele>
        <time>2015-04-06T07:40:19Z</time>
      </trkpt>
      <trkpt lat="43.65146" lon="6.79842">
        <ele>448</ele>
        <time>2015-04-06T07:40:25Z</time>
      </trkpt>
      <trkpt lat="43.65146" lon="6.79842">
        <ele>448</ele>
        <time>2015-04-06T07:40:29Z</time>
      </trkpt>
      <trkpt lat="43.65146" lon="6.79842">
        <ele>448</ele>
        <time>2015-04-06T07:40:34Z</time>
      </trkpt>
      <trkpt lat="43.65146" lon="6.79843">
        <ele>448</ele>
        <time>2015-04-06T07:40:41Z</time>
      </trkpt>
      <trkpt lat="43.65146" lon="6.79844">
        <ele>447</ele>
        <time>2015-04-06T07:40:44Z</time>
      </trkpt>
      <trkpt lat="43.65147" lon="6.79844">
        <ele>447</ele>
        <time>2015-04-06T07:40:49Z</time>
      </trkpt>
      <trkpt lat="43.65147" lon="6.79845">
        <ele>447</ele>
        <time>2015-04-06T07:40:54Z</time>
      </trkpt>
      <trkpt lat="43.65147" lon="6.79845">
        <ele>447</ele>
        <time>2015-04-06T07:41:01Z</time>
      </trkpt>
      <trkpt lat="43.65147" lon="6.79845">
        <ele>447</ele>
        <time>2015-04-06T07:41:04Z</time>
      </trkpt>
      <trkpt lat="43.65147" lon="6.79845">
        <ele>446</ele>
        <time>2015-04-06T07:41:09Z</time>
      </trkpt>
      <trkpt lat="43.65146" lon="6.79843">
        <ele>446</ele>
        <time>2015-04-06T07:41:14Z</time>
      </trkpt>
      <trkpt lat="43.65149" lon="6.79845">
        <ele>444</ele>
        <time>2015-04-06T07:41:21Z</time>
      </trkpt>
      <trkpt lat="43.6515" lon="6.79845">
        <ele>443</ele>
        <time>2015-04-06T07:41:27Z</time>
      </trkpt>
      <trkpt lat="43.6515" lon="6.79845">
        <ele>443</ele>
        <time>2015-04-06T07:41:29Z</time>
      </trkpt>
      <trkpt lat="43.6515" lon="6.79844">
        <ele>444</ele>
        <time>2015-04-06T07:41:34Z</time>
      </trkpt>
      <trkpt lat="43.65151" lon="6.79847">
        <ele>445</ele>
        <time>2015-04-06T07:41:39Z</time>
      </trkpt>
      <trkpt lat="43.65155" lon="6.79853">
        <ele>445</ele>
        <time>2015-04-06T07:41:47Z</time>
      </trkpt>
      <trkpt lat="43.65155" lon="6.79854">
        <ele>445</ele>
        <time>2015-04-06T07:41:49Z</time>
      </trkpt>
      <trkpt lat="43.65155" lon="6.79855">
        <ele>445</ele>
        <time>2015-04-06T07:41:54Z</time>
      </trkpt>
      <trkpt lat="43.65156" lon="6.79855">
        <ele>445</ele>
        <time>2015-04-06T07:41:59Z</time>
      </trkpt>
      <trkpt lat="43.65156" lon="6.79855">
        <ele>445</ele>
        <time>2015-04-06T07:42:04Z</time>
      </trkpt>
      <trkpt lat="43.65156" lon="6.79855">
        <ele>445</ele>
        <time>2015-04-06T07:42:09Z</time>
      </trkpt>
      <trkpt lat="43.65156" lon="6.79856">
        <ele>446</ele>
        <time>2015-04-06T07:42:14Z</time>
      </trkpt>
      <trkpt lat="43.65157" lon="6.79855">
        <ele>447</ele>
        <time>2015-04-06T07:42:21Z</time>
      </trkpt>
      <trkpt lat="43.65156" lon="6.79855">
        <ele>447</ele>
        <time>2015-04-06T07:42:24Z</time>
      </trkpt>
      <trkpt lat="43.65156" lon="6.79855">
        <ele>446</ele>
        <time>2015-04-06T07:42:29Z</time>
      </trkpt>
      <trkpt lat="43.65157" lon="6.79856">
        <ele>446</ele>
        <time>2015-04-06T07:42:34Z</time>
      </trkpt>
      <trkpt lat="43.65157" lon="6.79856">
        <ele>446</ele>
        <time>2015-04-06T07:42:39Z</time>
      </trkpt>
      <trkpt lat="43.65157" lon="6.79855">
        <ele>447</ele>
        <time>2015-04-06T07:42:44Z</time>
      </trkpt>
      <trkpt lat="43.65156" lon="6.79856">
        <ele>445</ele>
        <time>2015-04-06T07:42:51Z</time>
      </trkpt>
      <trkpt lat="43.65157" lon="6.79857">
        <ele>445</ele>
        <time>2015-04-06T07:42:54Z</time>
      </trkpt>
      <trkpt lat="43.65156" lon="6.79857">
        <ele>444</ele>
        <time>2015-04-06T07:42:59Z</time>
      </trkpt>
      <trkpt lat="43.65156" lon="6.79857">
        <ele>445</ele>
        <time>2015-04-06T07:43:04Z</time>
      </trkpt>
      <trkpt lat="43.65156" lon="6.79857">
        <ele>445</ele>
        <time>2015-04-06T07:43:09Z</time>
      </trkpt>
      <trkpt lat="43.65156" lon="6.79857">
        <ele>445</ele>
        <time>2015-04-06T07:43:14Z</time>
      </trkpt>
      <trkpt lat="43.65156" lon="6.79857">
        <ele>445</ele>
        <time>2015-04-06T07:43:20Z</time>
      </trkpt>
      <trkpt lat="43.65156" lon="6.79857">
        <ele>445</ele>
        <time>2015-04-06T07:43:24Z</time>
      </trkpt>
      <trkpt lat="43.65156" lon="6.79857">
        <ele>445</ele>
        <time>2015-04-06T07:43:29Z</time>
      </trkpt>
      <trkpt lat="43.65156" lon="6.79857">
        <ele>445</ele>
        <time>2015-04-06T07:43:34Z</time>
      </trkpt>
      <trkpt lat="43.65156" lon="6.79857">
        <ele>445</ele>
        <time>2015-04-06T07:43:39Z</time>
      </trkpt>
      <trkpt lat="43.65156" lon="6.79857">
        <ele>445</ele>
        <time>2015-04-06T07:43:44Z</time>
      </trkpt>
      <trkpt lat="43.65156" lon="6.79857">
        <ele>445</ele>
        <time>2015-04-06T07:43:49Z</time>
      </trkpt>
      <trkpt lat="43.65156" lon="6.79857">
        <ele>445</ele>
        <time>2015-04-06T07:43:54Z</time>
      </trkpt>
      <trkpt lat="43.65156" lon="6.79857">
        <ele>445</ele>
        <time>2015-04-06T07:43:59Z</time>
      </trkpt>
      <trkpt lat="43.65156" lon="6.79857">
        <ele>445</ele>
        <time>2015-04-06T07:44:04Z</time>
      </trkpt>
      <trkpt lat="43.65156" lon="6.79857">
        <ele>445</ele>
        <time>2015-04-06T07:44:09Z</time>
      </trkpt>
      <trkpt lat="43.65156" lon="6.79857">
        <ele>445</ele>
        <time>2015-04-06T07:44:14Z</time>
      </trkpt>
      <trkpt lat="43.65156" lon="6.79858">
        <ele>445</ele>
        <time>2015-04-06T07:44:19Z</time>
      </trkpt>
      <trkpt lat="43.65157" lon="6.79858">
        <ele>444</ele>
        <time>2015-04-06T07:44:24Z</time>
      </trkpt>
      <trkpt lat="43.65156" lon="6.79858">
        <ele>444</ele>
        <time>2015-04-06T07:44:30Z</time>
      </trkpt>
      <trkpt lat="43.65156" lon="6.79858">
        <ele>444</ele>
        <time>2015-04-06T07:44:34Z</time>
      </trkpt>
      <trkpt lat="43.65156" lon="6.79858">
        <ele>444</ele>
        <time>2015-04-06T07:44:39Z</time>
      </trkpt>
      <trkpt lat="43.65156" lon="6.79858">
        <ele>444</ele>
        <time>2015-04-06T07:44:44Z</time>
      </trkpt>
      <trkpt lat="43.65156" lon="6.79858">
        <ele>444</ele>
        <time>2015-04-06T07:44:49Z</time>
      </trkpt>
      <trkpt lat="43.65156" lon="6.79858">
        <ele>444</ele>
        <time>2015-04-06T07:44:54Z</time>
      </trkpt>
      <trkpt lat="43.65156" lon="6.79858">
        <ele>444</ele>
        <time>2015-04-06T07:44:59Z</time>
      </trkpt>
      <trkpt lat="43.65156" lon="6.79858">
        <ele>444</ele>
        <time>2015-04-06T07:45:04Z</time>
      </trkpt>
      <trkpt lat="43.65156" lon="6.79858">
        <ele>444</ele>
        <time>2015-04-06T07:45:10Z</time>
      </trkpt>
      <trkpt lat="43.65156" lon="6.79858">
        <ele>444</ele>
        <time>2015-04-06T07:45:14Z</time>
      </trkpt>
      <trkpt lat="43.65156" lon="6.79858">
        <ele>444</ele>
        <time>2015-04-06T07:45:19Z</time>
      </trkpt>
      <trkpt lat="43.65155" lon="6.79861">
        <ele>445</ele>
        <time>2015-04-06T07:45:26Z</time>
      </trkpt>
      <trkpt lat="43.65156" lon="6.79861">
        <ele>445</ele>
        <time>2015-04-06T07:45:31Z</time>
      </trkpt>
      <trkpt lat="43.65156" lon="6.79861">
        <ele>446</ele>
        <time>2015-04-06T07:45:34Z</time>
      </trkpt>
      <trkpt lat="43.65155" lon="6.79862">
        <ele>446</ele>
        <time>2015-04-06T07:45:40Z</time>
      </trkpt>
      <trkpt lat="43.65155" lon="6.79862">
        <ele>446</ele>
        <time>2015-04-06T07:45:44Z</time>
      </trkpt>
      <trkpt lat="43.65155" lon="6.79861">
        <ele>445</ele>
        <time>2015-04-06T07:45:49Z</time>
      </trkpt>
      <trkpt lat="43.65154" lon="6.79861">
        <ele>444</ele>
        <time>2015-04-06T07:45:54Z</time>
      </trkpt>
      <trkpt lat="43.65153" lon="6.7986">
        <ele>445</ele>
        <time>2015-04-06T07:45:59Z</time>
      </trkpt>
      <trkpt lat="43.65153" lon="6.7986">
        <ele>445</ele>
        <time>2015-04-06T07:46:04Z</time>
      </trkpt>
      <trkpt lat="43.65153" lon="6.7986">
        <ele>445</ele>
        <time>2015-04-06T07:46:09Z</time>
      </trkpt>
      <trkpt lat="43.65153" lon="6.7986">
        <ele>445</ele>
        <time>2015-04-06T07:46:14Z</time>
      </trkpt>
      <trkpt lat="43.65153" lon="6.7986">
        <ele>445</ele>
        <time>2015-04-06T07:46:20Z</time>
      </trkpt>
      <trkpt lat="43.65153" lon="6.7986">
        <ele>444</ele>
        <time>2015-04-06T07:46:24Z</time>
      </trkpt>
      <trkpt lat="43.65153" lon="6.7986">
        <ele>445</ele>
        <time>2015-04-06T07:46:29Z</time>
      </trkpt>
      <trkpt lat="43.65153" lon="6.7986">
        <ele>445</ele>
        <time>2015-04-06T07:46:34Z</time>
      </trkpt>
      <trkpt lat="43.65152" lon="6.79857">
        <ele>443</ele>
        <time>2015-04-06T07:46:40Z</time>
      </trkpt>
      <trkpt lat="43.6515" lon="6.7985">
        <ele>444</ele>
        <time>2015-04-06T07:46:46Z</time>
      </trkpt>
      <trkpt lat="43.65148" lon="6.79846">
        <ele>443</ele>
        <time>2015-04-06T07:46:50Z</time>
      </trkpt>
      <trkpt lat="43.65147" lon="6.79843">
        <ele>444</ele>
        <time>2015-04-06T07:46:54Z</time>
      </trkpt>
      <trkpt lat="43.65147" lon="6.79842">
        <ele>444</ele>
        <time>2015-04-06T07:47:00Z</time>
      </trkpt>
      <trkpt lat="43.65147" lon="6.79842">
        <ele>445</ele>
        <time>2015-04-06T07:47:04Z</time>
      </trkpt>
      <trkpt lat="43.65145" lon="6.79848">
        <ele>447</ele>
        <time>2015-04-06T07:47:10Z</time>
      </trkpt>
      <trkpt lat="43.65145" lon="6.79852">
        <ele>447</ele>
        <time>2015-04-06T07:47:14Z</time>
      </trkpt>
      <trkpt lat="43.65147" lon="6.79862">
        <ele>446</ele>
        <time>2015-04-06T07:47:20Z</time>
      </trkpt>
      <trkpt lat="43.65147" lon="6.79868">
        <ele>446</ele>
        <time>2015-04-06T07:47:24Z</time>
      </trkpt>
      <trkpt lat="43.65149" lon="6.79877">
        <ele>445</ele>
        <time>2015-04-06T07:47:30Z</time>
      </trkpt>
      <trkpt lat="43.65151" lon="6.79884">
        <ele>445</ele>
        <time>2015-04-06T07:47:34Z</time>
      </trkpt>
      <trkpt lat="43.65151" lon="6.79899">
        <ele>444</ele>
        <time>2015-04-06T07:47:40Z</time>
      </trkpt>
      <trkpt lat="43.6515" lon="6.79914">
        <ele>445</ele>
        <time>2015-04-06T07:47:44Z</time>
      </trkpt>
      <trkpt lat="43.65142" lon="6.79946">
        <ele>445</ele>
        <time>2015-04-06T07:47:52Z</time>
      </trkpt>
      <trkpt lat="43.65139" lon="6.79954">
        <ele>444</ele>
        <time>2015-04-06T07:47:54Z</time>
      </trkpt>
      <trkpt lat="43.65128" lon="6.79979">
        <ele>445</ele>
        <time>2015-04-06T07:48:00Z</time>
      </trkpt>
      <trkpt lat="43.65113" lon="6.80013">
        <ele>441</ele>
        <time>2015-04-06T07:48:08Z</time>
      </trkpt>
      <trkpt lat="43.65105" lon="6.8003">
        <ele>440</ele>
        <time>2015-04-06T07:48:12Z</time>
      </trkpt>
      <trkpt lat="43.65093" lon="6.80043">
        <ele>439</ele>
        <time>2015-04-06T07:48:16Z</time>
      </trkpt>
      <trkpt lat="43.65077" lon="6.80044">
        <ele>440</ele>
        <time>2015-04-06T07:48:20Z</time>
      </trkpt>
      <trkpt lat="43.65063" lon="6.80042">
        <ele>442</ele>
        <time>2015-04-06T07:48:24Z</time>
      </trkpt>
      <trkpt lat="43.65044" lon="6.80042">
        <ele>441</ele>
        <time>2015-04-06T07:48:30Z</time>
      </trkpt>
      <trkpt lat="43.65042" lon="6.80084">
        <ele>440</ele>
        <time>2015-04-06T07:48:37Z</time>
      </trkpt>
      <trkpt lat="43.65043" lon="6.80117">
        <ele>440</ele>
        <time>2015-04-06T07:48:41Z</time>
      </trkpt>
      <trkpt lat="43.65039" lon="6.80156">
        <ele>442</ele>
        <time>2015-04-06T07:48:46Z</time>
      </trkpt>
      <trkpt lat="43.65036" lon="6.80184">
        <ele>443</ele>
        <time>2015-04-06T07:48:50Z</time>
      </trkpt>
      <trkpt lat="43.65032" lon="6.80208">
        <ele>444</ele>
        <time>2015-04-06T07:48:54Z</time>
      </trkpt>
      <trkpt lat="43.65024" lon="6.8024">
        <ele>446</ele>
        <time>2015-04-06T07:49:00Z</time>
      </trkpt>
      <trkpt lat="43.65016" lon="6.8026">
        <ele>446</ele>
        <time>2015-04-06T07:49:04Z</time>
      </trkpt>
      <trkpt lat="43.65003" lon="6.8029">
        <ele>446</ele>
        <time>2015-04-06T07:49:10Z</time>
      </trkpt>
      <trkpt lat="43.64995" lon="6.80322">
        <ele>446</ele>
        <time>2015-04-06T07:49:16Z</time>
      </trkpt>
      <trkpt lat="43.64991" lon="6.80345">
        <ele>447</ele>
        <time>2015-04-06T07:49:20Z</time>
      </trkpt>
      <trkpt lat="43.64987" lon="6.80364">
        <ele>448</ele>
        <time>2015-04-06T07:49:24Z</time>
      </trkpt>
      <trkpt lat="43.64977" lon="6.80366">
        <ele>448</ele>
        <time>2015-04-06T07:49:30Z</time>
      </trkpt>
      <trkpt lat="43.64974" lon="6.80367">
        <ele>450</ele>
        <time>2015-04-06T07:49:38Z</time>
      </trkpt>
      <trkpt lat="43.64973" lon="6.80368">
        <ele>450</ele>
        <time>2015-04-06T07:49:39Z</time>
      </trkpt>
      <trkpt lat="43.64964" lon="6.80372">
        <ele>449</ele>
        <time>2015-04-06T07:49:44Z</time>
      </trkpt>
      <trkpt lat="43.64951" lon="6.80378">
        <ele>449</ele>
        <time>2015-04-06T07:49:50Z</time>
      </trkpt>
      <trkpt lat="43.64942" lon="6.80382">
        <ele>450</ele>
        <time>2015-04-06T07:49:54Z</time>
      </trkpt>
      <trkpt lat="43.64929" lon="6.80388">
        <ele>451</ele>
        <time>2015-04-06T07:50:00Z</time>
      </trkpt>
      <trkpt lat="43.64917" lon="6.80395">
        <ele>451</ele>
        <time>2015-04-06T07:50:07Z</time>
      </trkpt>
      <trkpt lat="43.64913" lon="6.80397">
        <ele>449</ele>
        <time>2015-04-06T07:50:09Z</time>
      </trkpt>
      <trkpt lat="43.649" lon="6.80403">
        <ele>446</ele>
        <time>2015-04-06T07:50:14Z</time>
      </trkpt>
      <trkpt lat="43.64885" lon="6.80407">
        <ele>447</ele>
        <time>2015-04-06T07:50:20Z</time>
      </trkpt>
      <trkpt lat="43.64875" lon="6.80407">
        <ele>447</ele>
        <time>2015-04-06T07:50:24Z</time>
      </trkpt>
      <trkpt lat="43.64858" lon="6.80409">
        <ele>449</ele>
        <time>2015-04-06T07:50:30Z</time>
      </trkpt>
      <trkpt lat="43.64845" lon="6.8041">
        <ele>452</ele>
        <time>2015-04-06T07:50:34Z</time>
      </trkpt>
      <trkpt lat="43.64819" lon="6.80411">
        <ele>454</ele>
        <time>2015-04-06T07:50:42Z</time>
      </trkpt>
      <trkpt lat="43.64801" lon="6.80411">
        <ele>454</ele>
        <time>2015-04-06T07:50:47Z</time>
      </trkpt>
      <trkpt lat="43.64797" lon="6.80408">
        <ele>454</ele>
        <time>2015-04-06T07:50:49Z</time>
      </trkpt>
      <trkpt lat="43.64785" lon="6.80381">
        <ele>453</ele>
        <time>2015-04-06T07:50:55Z</time>
      </trkpt>
      <trkpt lat="43.64761" lon="6.80346">
        <ele>452</ele>
        <time>2015-04-06T07:51:02Z</time>
      </trkpt>
      <trkpt lat="43.64754" lon="6.80323">
        <ele>452</ele>
        <time>2015-04-06T07:51:06Z</time>
      </trkpt>
      <trkpt lat="43.64752" lon="6.80311">
        <ele>453</ele>
        <time>2015-04-06T07:51:10Z</time>
      </trkpt>
      <trkpt lat="43.64741" lon="6.80294">
        <ele>452</ele>
        <time>2015-04-06T07:51:17Z</time>
      </trkpt>
      <trkpt lat="43.64737" lon="6.8029">
        <ele>453</ele>
        <time>2015-04-06T07:51:19Z</time>
      </trkpt>
      <trkpt lat="43.64723" lon="6.80278">
        <ele>455</ele>
        <time>2015-04-06T07:51:26Z</time>
      </trkpt>
      <trkpt lat="43.64708" lon="6.80268">
        <ele>458</ele>
        <time>2015-04-06T07:51:33Z</time>
      </trkpt>
      <trkpt lat="43.64706" lon="6.80267">
        <ele>459</ele>
        <time>2015-04-06T07:51:34Z</time>
      </trkpt>
      <trkpt lat="43.64695" lon="6.80262">
        <ele>460</ele>
        <time>2015-04-06T07:51:39Z</time>
      </trkpt>
      <trkpt lat="43.64684" lon="6.80257">
        <ele>462</ele>
        <time>2015-04-06T07:51:44Z</time>
      </trkpt>
      <trkpt lat="43.64673" lon="6.80253">
        <ele>463</ele>
        <time>2015-04-06T07:51:50Z</time>
      </trkpt>
      <trkpt lat="43.64666" lon="6.80253">
        <ele>464</ele>
        <time>2015-04-06T07:51:54Z</time>
      </trkpt>
      <trkpt lat="43.64657" lon="6.80254">
        <ele>464</ele>
        <time>2015-04-06T07:51:59Z</time>
      </trkpt>
      <trkpt lat="43.64648" lon="6.80255">
        <ele>466</ele>
        <time>2015-04-06T07:52:04Z</time>
      </trkpt>
      <trkpt lat="43.6464" lon="6.80258">
        <ele>466</ele>
        <time>2015-04-06T07:52:09Z</time>
      </trkpt>
      <trkpt lat="43.64624" lon="6.80263">
        <ele>469</ele>
        <time>2015-04-06T07:52:17Z</time>
      </trkpt>
      <trkpt lat="43.64619" lon="6.80259">
        <ele>470</ele>
        <time>2015-04-06T07:52:20Z</time>
      </trkpt>
      <trkpt lat="43.64619" lon="6.80255">
        <ele>470</ele>
        <time>2015-04-06T07:52:24Z</time>
      </trkpt>
      <trkpt lat="43.64619" lon="6.80256">
        <ele>470</ele>
        <time>2015-04-06T07:52:29Z</time>
      </trkpt>
      <trkpt lat="43.64619" lon="6.80256">
        <ele>470</ele>
        <time>2015-04-06T07:52:34Z</time>
      </trkpt>
      <trkpt lat="43.64619" lon="6.80256">
        <ele>470</ele>
        <time>2015-04-06T07:52:39Z</time>
      </trkpt>
      <trkpt lat="43.64617" lon="6.80253">
        <ele>470</ele>
        <time>2015-04-06T07:52:46Z</time>
      </trkpt>
      <trkpt lat="43.64613" lon="6.80245">
        <ele>470</ele>
        <time>2015-04-06T07:52:50Z</time>
      </trkpt>
      <trkpt lat="43.64609" lon="6.80232">
        <ele>470</ele>
        <time>2015-04-06T07:52:54Z</time>
      </trkpt>
      <trkpt lat="43.64612" lon="6.80214">
        <ele>470</ele>
        <time>2015-04-06T07:53:00Z</time>
      </trkpt>
      <trkpt lat="43.64612" lon="6.80201">
        <ele>470</ele>
        <time>2015-04-06T07:53:05Z</time>
      </trkpt>
      <trkpt lat="43.64611" lon="6.8019">
        <ele>470</ele>
        <time>2015-04-06T07:53:09Z</time>
      </trkpt>
      <trkpt lat="43.6461" lon="6.80177">
        <ele>471</ele>
        <time>2015-04-06T07:53:14Z</time>
      </trkpt>
      <trkpt lat="43.64612" lon="6.8016">
        <ele>473</ele>
        <time>2015-04-06T07:53:20Z</time>
      </trkpt>
      <trkpt lat="43.64612" lon="6.80149">
        <ele>475</ele>
        <time>2015-04-06T07:53:24Z</time>
      </trkpt>
      <trkpt lat="43.64613" lon="6.80135">
        <ele>474</ele>
        <time>2015-04-06T07:53:30Z</time>
      </trkpt>
      <trkpt lat="43.64612" lon="6.80124">
        <ele>474</ele>
        <time>2015-04-06T07:53:34Z</time>
      </trkpt>
      <trkpt lat="43.64612" lon="6.8011">
        <ele>477</ele>
        <time>2015-04-06T07:53:40Z</time>
      </trkpt>
      <trkpt lat="43.64612" lon="6.801">
        <ele>476</ele>
        <time>2015-04-06T07:53:44Z</time>
      </trkpt>
      <trkpt lat="43.64614" lon="6.80081">
        <ele>477</ele>
        <time>2015-04-06T07:53:52Z</time>
      </trkpt>
      <trkpt lat="43.64616" lon="6.80071">
        <ele>477</ele>
        <time>2015-04-06T07:53:56Z</time>
      </trkpt>
      <trkpt lat="43.64615" lon="6.80056">
        <ele>476</ele>
        <time>2015-04-06T07:54:00Z</time>
      </trkpt>
      <trkpt lat="43.64611" lon="6.80036">
        <ele>475</ele>
        <time>2015-04-06T07:54:06Z</time>
      </trkpt>
      <trkpt lat="43.64602" lon="6.80022">
        <ele>476</ele>
        <time>2015-04-06T07:54:12Z</time>
      </trkpt>
      <trkpt lat="43.64596" lon="6.80022">
        <ele>476</ele>
        <time>2015-04-06T07:54:14Z</time>
      </trkpt>
      <trkpt lat="43.64575" lon="6.80024">
        <ele>477</ele>
        <time>2015-04-06T07:54:20Z</time>
      </trkpt>
      <trkpt lat="43.64559" lon="6.80028">
        <ele>478</ele>
        <time>2015-04-06T07:54:24Z</time>
      </trkpt>
      <trkpt lat="43.64527" lon="6.80045">
        <ele>477</ele>
        <time>2015-04-06T07:54:32Z</time>
      </trkpt>
      <trkpt lat="43.64519" lon="6.80057">
        <ele>476</ele>
        <time>2015-04-06T07:54:34Z</time>
      </trkpt>
      <trkpt lat="43.64497" lon="6.80079">
        <ele>474</ele>
        <time>2015-04-06T07:54:40Z</time>
      </trkpt>
      <trkpt lat="43.64475" lon="6.80102">
        <ele>473</ele>
        <time>2015-04-06T07:54:45Z</time>
      </trkpt>
      <trkpt lat="43.64461" lon="6.80133">
        <ele>473</ele>
        <time>2015-04-06T07:54:49Z</time>
      </trkpt>
      <trkpt lat="43.64446" lon="6.80167">
        <ele>472</ele>
        <time>2015-04-06T07:54:54Z</time>
      </trkpt>
      <trkpt lat="43.64425" lon="6.80188">
        <ele>471</ele>
        <time>2015-04-06T07:54:59Z</time>
      </trkpt>
      <trkpt lat="43.64398" lon="6.80225">
        <ele>469</ele>
        <time>2015-04-06T07:55:05Z</time>
      </trkpt>
      <trkpt lat="43.64385" lon="6.8026">
        <ele>467</ele>
        <time>2015-04-06T07:55:09Z</time>
      </trkpt>
      <trkpt lat="43.64389" lon="6.80298">
        <ele>464</ele>
        <time>2015-04-06T07:55:15Z</time>
      </trkpt>
      <trkpt lat="43.64407" lon="6.80319">
        <ele>465</ele>
        <time>2015-04-06T07:55:21Z</time>
      </trkpt>
      <trkpt lat="43.64408" lon="6.80347">
        <ele>463</ele>
        <time>2015-04-06T07:55:25Z</time>
      </trkpt>
      <trkpt lat="43.64412" lon="6.80395">
        <ele>465</ele>
        <time>2015-04-06T07:55:32Z</time>
      </trkpt>
      <trkpt lat="43.64414" lon="6.80413">
        <ele>465</ele>
        <time>2015-04-06T07:55:35Z</time>
      </trkpt>
      <trkpt lat="43.64417" lon="6.80434">
        <ele>466</ele>
        <time>2015-04-06T07:55:39Z</time>
      </trkpt>
      <trkpt lat="43.64418" lon="6.80465">
        <ele>465</ele>
        <time>2015-04-06T07:55:45Z</time>
      </trkpt>
      <trkpt lat="43.64415" lon="6.80494">
        <ele>465</ele>
        <time>2015-04-06T07:55:50Z</time>
      </trkpt>
      <trkpt lat="43.64406" lon="6.80524">
        <ele>463</ele>
        <time>2015-04-06T07:55:54Z</time>
      </trkpt>
      <trkpt lat="43.64389" lon="6.80569">
        <ele>461</ele>
        <time>2015-04-06T07:55:59Z</time>
      </trkpt>
      <trkpt lat="43.64375" lon="6.80651">
        <ele>458</ele>
        <time>2015-04-06T07:56:07Z</time>
      </trkpt>
      <trkpt lat="43.6437" lon="6.80671">
        <ele>455</ele>
        <time>2015-04-06T07:56:09Z</time>
      </trkpt>
      <trkpt lat="43.64349" lon="6.80718">
        <ele>451</ele>
        <time>2015-04-06T07:56:14Z</time>
      </trkpt>
      <trkpt lat="43.64311" lon="6.8079">
        <ele>447</ele>
        <time>2015-04-06T07:56:23Z</time>
      </trkpt>
      <trkpt lat="43.64303" lon="6.80795">
        <ele>446</ele>
        <time>2015-04-06T07:56:24Z</time>
      </trkpt>
      <trkpt lat="43.64267" lon="6.80826">
        <ele>444</ele>
        <time>2015-04-06T07:56:29Z</time>
      </trkpt>
      <trkpt lat="43.64245" lon="6.80908">
        <ele>437</ele>
        <time>2015-04-06T07:56:37Z</time>
      </trkpt>
      <trkpt lat="43.64233" lon="6.80926">
        <ele>435</ele>
        <time>2015-04-06T07:56:39Z</time>
      </trkpt>
      <trkpt lat="43.64192" lon="6.81018">
        <ele>433</ele>
        <time>2015-04-06T07:56:48Z</time>
      </trkpt>
      <trkpt lat="43.64191" lon="6.81023">
        <ele>434</ele>
        <time>2015-04-06T07:56:49Z</time>
      </trkpt>
      <trkpt lat="43.64186" lon="6.81043">
        <ele>434</ele>
        <time>2015-04-06T07:56:54Z</time>
      </trkpt>
      <trkpt lat="43.64175" lon="6.81062">
        <ele>432</ele>
        <time>2015-04-06T07:57:00Z</time>
      </trkpt>
      <trkpt lat="43.64165" lon="6.81082">
        <ele>430</ele>
        <time>2015-04-06T07:57:06Z</time>
      </trkpt>
      <trkpt lat="43.64157" lon="6.81096">
        <ele>430</ele>
        <time>2015-04-06T07:57:10Z</time>
      </trkpt>
      <trkpt lat="43.64148" lon="6.81114">
        <ele>430</ele>
        <time>2015-04-06T07:57:14Z</time>
      </trkpt>
      <trkpt lat="43.64134" lon="6.8114">
        <ele>429</ele>
        <time>2015-04-06T07:57:20Z</time>
      </trkpt>
      <trkpt lat="43.64111" lon="6.81177">
        <ele>427</ele>
        <time>2015-04-06T07:57:28Z</time>
      </trkpt>
      <trkpt lat="43.64093" lon="6.81204">
        <ele>425</ele>
        <time>2015-04-06T07:57:33Z</time>
      </trkpt>
      <trkpt lat="43.64089" lon="6.81211">
        <ele>424</ele>
        <time>2015-04-06T07:57:34Z</time>
      </trkpt>
      <trkpt lat="43.64056" lon="6.81276">
        <ele>421</ele>
        <time>2015-04-06T07:57:43Z</time>
      </trkpt>
      <trkpt lat="43.64047" lon="6.81291">
        <ele>420</ele>
        <time>2015-04-06T07:57:45Z</time>
      </trkpt>
      <trkpt lat="43.64009" lon="6.81345">
        <ele>417</ele>
        <time>2015-04-06T07:57:52Z</time>
      </trkpt>
      <trkpt lat="43.63973" lon="6.81387">
        <ele>415</ele>
        <time>2015-04-06T07:57:57Z</time>
      </trkpt>
      <trkpt lat="43.63961" lon="6.81408">
        <ele>414</ele>
        <time>2015-04-06T07:57:59Z</time>
      </trkpt>
      <trkpt lat="43.63938" lon="6.81459">
        <ele>413</ele>
        <time>2015-04-06T07:58:04Z</time>
      </trkpt>
      <trkpt lat="43.63917" lon="6.81502">
        <ele>411</ele>
        <time>2015-04-06T07:58:09Z</time>
      </trkpt>
      <trkpt lat="43.63884" lon="6.81538">
        <ele>408</ele>
        <time>2015-04-06T07:58:18Z</time>
      </trkpt>
      <trkpt lat="43.63882" lon="6.81533">
        <ele>407</ele>
        <time>2015-04-06T07:58:19Z</time>
      </trkpt>
      <trkpt lat="43.63866" lon="6.81515">
        <ele>405</ele>
        <time>2015-04-06T07:58:24Z</time>
      </trkpt>
      <trkpt lat="43.6384" lon="6.81501">
        <ele>405</ele>
        <time>2015-04-06T07:58:29Z</time>
      </trkpt>
      <trkpt lat="43.6379" lon="6.81462">
        <ele>396</ele>
        <time>2015-04-06T07:58:38Z</time>
      </trkpt>
      <trkpt lat="43.63784" lon="6.81454">
        <ele>394</ele>
        <time>2015-04-06T07:58:39Z</time>
      </trkpt>
      <trkpt lat="43.63752" lon="6.81408">
        <ele>386</ele>
        <time>2015-04-06T07:58:44Z</time>
      </trkpt>
      <trkpt lat="43.63719" lon="6.81347">
        <ele>380</ele>
        <time>2015-04-06T07:58:51Z</time>
      </trkpt>
      <trkpt lat="43.63713" lon="6.81335">
        <ele>377</ele>
        <time>2015-04-06T07:58:54Z</time>
      </trkpt>
      <trkpt lat="43.637" lon="6.81329">
        <ele>375</ele>
        <time>2015-04-06T07:59:00Z</time>
      </trkpt>
      <trkpt lat="43.63693" lon="6.81321">
        <ele>373</ele>
        <time>2015-04-06T07:59:04Z</time>
      </trkpt>
      <trkpt lat="43.63692" lon="6.81322">
        <ele>373</ele>
        <time>2015-04-06T07:59:09Z</time>
      </trkpt>
      <trkpt lat="43.63692" lon="6.81322">
        <ele>373</ele>
        <time>2015-04-06T07:59:14Z</time>
      </trkpt>
      <trkpt lat="43.63687" lon="6.81321">
        <ele>372</ele>
        <time>2015-04-06T07:59:20Z</time>
      </trkpt>
      <trkpt lat="43.63684" lon="6.81321">
        <ele>370</ele>
        <time>2015-04-06T07:59:25Z</time>
      </trkpt>
      <trkpt lat="43.63683" lon="6.81321">
        <ele>370</ele>
        <time>2015-04-06T07:59:31Z</time>
      </trkpt>
      <trkpt lat="43.63682" lon="6.8132">
        <ele>370</ele>
        <time>2015-04-06T07:59:34Z</time>
      </trkpt>
      <trkpt lat="43.6368" lon="6.81321">
        <ele>370</ele>
        <time>2015-04-06T07:59:39Z</time>
      </trkpt>
      <trkpt lat="43.63678" lon="6.81319">
        <ele>369</ele>
        <time>2015-04-06T07:59:44Z</time>
      </trkpt>
      <trkpt lat="43.63677" lon="6.81317">
        <ele>369</ele>
        <time>2015-04-06T07:59:50Z</time>
      </trkpt>
      <trkpt lat="43.63677" lon="6.81316">
        <ele>369</ele>
        <time>2015-04-06T07:59:54Z</time>
      </trkpt>
      <trkpt lat="43.63675" lon="6.8131">
        <ele>368</ele>
        <time>2015-04-06T07:59:59Z</time>
      </trkpt>
      <trkpt lat="43.63667" lon="6.8131">
        <ele>364</ele>
        <time>2015-04-06T08:00:07Z</time>
      </trkpt>
      <trkpt lat="43.63666" lon="6.8131">
        <ele>364</ele>
        <time>2015-04-06T08:00:09Z</time>
      </trkpt>
      <trkpt lat="43.63664" lon="6.8131">
        <ele>362</ele>
        <time>2015-04-06T08:00:14Z</time>
      </trkpt>
      <trkpt lat="43.63657" lon="6.81311">
        <ele>360</ele>
        <time>2015-04-06T08:00:23Z</time>
      </trkpt>
      <trkpt lat="43.63657" lon="6.81312">
        <ele>360</ele>
        <time>2015-04-06T08:00:24Z</time>
      </trkpt>
      <trkpt lat="43.63654" lon="6.81312">
        <ele>360</ele>
        <time>2015-04-06T08:00:31Z</time>
      </trkpt>
      <trkpt lat="43.63652" lon="6.81313">
        <ele>360</ele>
        <time>2015-04-06T08:00:38Z</time>
      </trkpt>
      <trkpt lat="43.63651" lon="6.81314">
        <ele>360</ele>
        <time>2015-04-06T08:00:40Z</time>
      </trkpt>
      <trkpt lat="43.63649" lon="6.81315">
        <ele>361</ele>
        <time>2015-04-06T08:00:44Z</time>
      </trkpt>
      <trkpt lat="43.63644" lon="6.81318">
        <ele>360</ele>
        <time>2015-04-06T08:00:51Z</time>
      </trkpt>
      <trkpt lat="43.63641" lon="6.81319">
        <ele>361</ele>
        <time>2015-04-06T08:00:54Z</time>
      </trkpt>
      <trkpt lat="43.6363" lon="6.81335">
        <ele>358</ele>
        <time>2015-04-06T08:01:00Z</time>
      </trkpt>
      <trkpt lat="43.63619" lon="6.81351">
        <ele>357</ele>
        <time>2015-04-06T08:01:04Z</time>
      </trkpt>
      <trkpt lat="43.63608" lon="6.8137">
        <ele>357</ele>
        <time>2015-04-06T08:01:09Z</time>
      </trkpt>
      <trkpt lat="43.63601" lon="6.81384">
        <ele>356</ele>
        <time>2015-04-06T08:01:14Z</time>
      </trkpt>
      <trkpt lat="43.63598" lon="6.8139">
        <ele>355</ele>
        <time>2015-04-06T08:01:21Z</time>
      </trkpt>
      <trkpt lat="43.63589" lon="6.81397">
        <ele>354</ele>
        <time>2015-04-06T08:01:27Z</time>
      </trkpt>
      <trkpt lat="43.63588" lon="6.81396">
        <ele>353</ele>
        <time>2015-04-06T08:01:29Z</time>
      </trkpt>
      <trkpt lat="43.63585" lon="6.81397">
        <ele>352</ele>
        <time>2015-04-06T08:01:35Z</time>
      </trkpt>
      <trkpt lat="43.63586" lon="6.81397">
        <ele>352</ele>
        <time>2015-04-06T08:01:39Z</time>
      </trkpt>
      <trkpt lat="43.63582" lon="6.81402">
        <ele>351</ele>
        <time>2015-04-06T08:01:44Z</time>
      </trkpt>
      <trkpt lat="43.63574" lon="6.8141">
        <ele>351</ele>
        <time>2015-04-06T08:01:49Z</time>
      </trkpt>
      <trkpt lat="43.6357" lon="6.81438">
        <ele>346</ele>
        <time>2015-04-06T08:01:58Z</time>
      </trkpt>
      <trkpt lat="43.63568" lon="6.81442">
        <ele>345</ele>
        <time>2015-04-06T08:02:00Z</time>
      </trkpt>
      <trkpt lat="43.63567" lon="6.81442">
        <ele>345</ele>
        <time>2015-04-06T08:02:04Z</time>
      </trkpt>
      <trkpt lat="43.63566" lon="6.81442">
        <ele>345</ele>
        <time>2015-04-06T08:02:09Z</time>
      </trkpt>
      <trkpt lat="43.63566" lon="6.81443">
        <ele>344</ele>
        <time>2015-04-06T08:02:14Z</time>
      </trkpt>
      <trkpt lat="43.6356" lon="6.81459">
        <ele>342</ele>
        <time>2015-04-06T08:02:23Z</time>
      </trkpt>
      <trkpt lat="43.63558" lon="6.81463">
        <ele>342</ele>
        <time>2015-04-06T08:02:24Z</time>
      </trkpt>
      <trkpt lat="43.63545" lon="6.81483">
        <ele>339</ele>
        <time>2015-04-06T08:02:29Z</time>
      </trkpt>
      <trkpt lat="43.63534" lon="6.81505">
        <ele>335</ele>
        <time>2015-04-06T08:02:34Z</time>
      </trkpt>
      <trkpt lat="43.63537" lon="6.81514">
        <ele>335</ele>
        <time>2015-04-06T08:02:39Z</time>
      </trkpt>
      <trkpt lat="43.63538" lon="6.8152">
        <ele>332</ele>
        <time>2015-04-06T08:02:47Z</time>
      </trkpt>
      <trkpt lat="43.63538" lon="6.81531">
        <ele>332</ele>
        <time>2015-04-06T08:02:53Z</time>
      </trkpt>
      <trkpt lat="43.63539" lon="6.81533">
        <ele>332</ele>
        <time>2015-04-06T08:02:54Z</time>
      </trkpt>
      <trkpt lat="43.63537" lon="6.81535">
        <ele>333</ele>
        <time>2015-04-06T08:03:00Z</time>
      </trkpt>
      <trkpt lat="43.63536" lon="6.81535">
        <ele>333</ele>
        <time>2015-04-06T08:03:05Z</time>
      </trkpt>
      <trkpt lat="43.63536" lon="6.81535">
        <ele>334</ele>
        <time>2015-04-06T08:03:09Z</time>
      </trkpt>
      <trkpt lat="43.63537" lon="6.81536">
        <ele>333</ele>
        <time>2015-04-06T08:03:15Z</time>
      </trkpt>
      <trkpt lat="43.63535" lon="6.81542">
        <ele>334</ele>
        <time>2015-04-06T08:03:22Z</time>
      </trkpt>
      <trkpt lat="43.63535" lon="6.81541">
        <ele>334</ele>
        <time>2015-04-06T08:03:25Z</time>
      </trkpt>
      <trkpt lat="43.63535" lon="6.81541">
        <ele>335</ele>
        <time>2015-04-06T08:03:30Z</time>
      </trkpt>
      <trkpt lat="43.63535" lon="6.81541">
        <ele>334</ele>
        <time>2015-04-06T08:03:35Z</time>
      </trkpt>
      <trkpt lat="43.63535" lon="6.81542">
        <ele>334</ele>
        <time>2015-04-06T08:03:40Z</time>
      </trkpt>
      <trkpt lat="43.63535" lon="6.81542">
        <ele>334</ele>
        <time>2015-04-06T08:03:45Z</time>
      </trkpt>
      <trkpt lat="43.63532" lon="6.81556">
        <ele>328</ele>
        <time>2015-04-06T08:03:52Z</time>
      </trkpt>
      <trkpt lat="43.63531" lon="6.81567">
        <ele>325</ele>
        <time>2015-04-06T08:03:55Z</time>
      </trkpt>
      <trkpt lat="43.63535" lon="6.81594">
        <ele>320</ele>
        <time>2015-04-06T08:04:03Z</time>
      </trkpt>
      <trkpt lat="43.63534" lon="6.81601">
        <ele>320</ele>
        <time>2015-04-06T08:04:07Z</time>
      </trkpt>
      <trkpt lat="43.63534" lon="6.81603">
        <ele>320</ele>
        <time>2015-04-06T08:04:10Z</time>
      </trkpt>
      <trkpt lat="43.63535" lon="6.81607">
        <ele>320</ele>
        <time>2015-04-06T08:04:15Z</time>
      </trkpt>
      <trkpt lat="43.63534" lon="6.81615">
        <ele>322</ele>
        <time>2015-04-06T08:04:23Z</time>
      </trkpt>
      <trkpt lat="43.63524" lon="6.81613">
        <ele>319</ele>
        <time>2015-04-06T08:04:29Z</time>
      </trkpt>
      <trkpt lat="43.63523" lon="6.81611">
        <ele>319</ele>
        <time>2015-04-06T08:04:30Z</time>
      </trkpt>
      <trkpt lat="43.63521" lon="6.81621">
        <ele>313</ele>
        <time>2015-04-06T08:04:39Z</time>
      </trkpt>
      <trkpt lat="43.63521" lon="6.81624">
        <ele>313</ele>
        <time>2015-04-06T08:04:40Z</time>
      </trkpt>
      <trkpt lat="43.63509" lon="6.81625">
        <ele>314</ele>
        <time>2015-04-06T08:04:45Z</time>
      </trkpt>
      <trkpt lat="43.635" lon="6.81604">
        <ele>313</ele>
        <time>2015-04-06T08:04:51Z</time>
      </trkpt>
      <trkpt lat="43.63491" lon="6.81608">
        <ele>303</ele>
        <time>2015-04-06T08:04:59Z</time>
      </trkpt>
      <trkpt lat="43.6349" lon="6.81611">
        <ele>302</ele>
        <time>2015-04-06T08:05:00Z</time>
      </trkpt>
      <trkpt lat="43.63485" lon="6.81621">
        <ele>302</ele>
        <time>2015-04-06T08:05:05Z</time>
      </trkpt>
      <trkpt lat="43.63479" lon="6.8161">
        <ele>297</ele>
        <time>2015-04-06T08:05:12Z</time>
      </trkpt>
      <trkpt lat="43.63471" lon="6.81599">
        <ele>294</ele>
        <time>2015-04-06T08:05:17Z</time>
      </trkpt>
      <trkpt lat="43.63462" lon="6.81584">
        <ele>291</ele>
        <time>2015-04-06T08:05:22Z</time>
      </trkpt>
      <trkpt lat="43.6346" lon="6.81576">
        <ele>288</ele>
        <time>2015-04-06T08:05:25Z</time>
      </trkpt>
      <trkpt lat="43.6346" lon="6.81566">
        <ele>284</ele>
        <time>2015-04-06T08:05:30Z</time>
      </trkpt>
      <trkpt lat="43.63459" lon="6.8157">
        <ele>280</ele>
        <time>2015-04-06T08:05:35Z</time>
      </trkpt>
      <trkpt lat="43.63451" lon="6.81578">
        <ele>280</ele>
        <time>2015-04-06T08:05:44Z</time>
      </trkpt>
      <trkpt lat="43.63451" lon="6.81578">
        <ele>280</ele>
        <time>2015-04-06T08:05:45Z</time>
      </trkpt>
      <trkpt lat="43.63451" lon="6.81577">
        <ele>280</ele>
        <time>2015-04-06T08:05:50Z</time>
      </trkpt>
      <trkpt lat="43.63446" lon="6.81568">
        <ele>278</ele>
        <time>2015-04-06T08:05:59Z</time>
      </trkpt>
      <trkpt lat="43.63446" lon="6.81568">
        <ele>278</ele>
        <time>2015-04-06T08:06:00Z</time>
      </trkpt>
      <trkpt lat="43.63446" lon="6.81569">
        <ele>278</ele>
        <time>2015-04-06T08:06:05Z</time>
      </trkpt>
      <trkpt lat="43.63446" lon="6.81569">
        <ele>279</ele>
        <time>2015-04-06T08:06:10Z</time>
      </trkpt>
      <trkpt lat="43.63446" lon="6.81569">
        <ele>279</ele>
        <time>2015-04-06T08:06:15Z</time>
      </trkpt>
      <trkpt lat="43.63446" lon="6.81569">
        <ele>279</ele>
        <time>2015-04-06T08:06:20Z</time>
      </trkpt>
      <trkpt lat="43.63446" lon="6.81569">
        <ele>279</ele>
        <time>2015-04-06T08:06:25Z</time>
      </trkpt>
      <trkpt lat="43.63446" lon="6.81569">
        <ele>279</ele>
        <time>2015-04-06T08:06:30Z</time>
      </trkpt>
      <trkpt lat="43.63446" lon="6.81569">
        <ele>279</ele>
        <time>2015-04-06T08:06:35Z</time>
      </trkpt>
      <trkpt lat="43.63446" lon="6.81569">
        <ele>279</ele>
        <time>2015-04-06T08:06:40Z</time>
      </trkpt>
      <trkpt lat="43.63446" lon="6.81569">
        <ele>279</ele>
        <time>2015-04-06T08:06:45Z</time>
      </trkpt>
      <trkpt lat="43.63446" lon="6.81569">
        <ele>279</ele>
        <time>2015-04-06T08:06:50Z</time>
      </trkpt>
      <trkpt lat="43.63446" lon="6.81569">
        <ele>279</ele>
        <time>2015-04-06T08:06:55Z</time>
      </trkpt>
      <trkpt lat="43.63446" lon="6.81569">
        <ele>279</ele>
        <time>2015-04-06T08:07:00Z</time>
      </trkpt>
      <trkpt lat="43.63446" lon="6.81569">
        <ele>279</ele>
        <time>2015-04-06T08:07:05Z</time>
      </trkpt>
      <trkpt lat="43.63446" lon="6.81568">
        <ele>279</ele>
        <time>2015-04-06T08:07:10Z</time>
      </trkpt>
      <trkpt lat="43.63441" lon="6.81568">
        <ele>275</ele>
        <time>2015-04-06T08:07:18Z</time>
      </trkpt>
      <trkpt lat="43.63441" lon="6.81572">
        <ele>275</ele>
        <time>2015-04-06T08:07:20Z</time>
      </trkpt>
      <trkpt lat="43.63438" lon="6.81576">
        <ele>276</ele>
        <time>2015-04-06T08:07:27Z</time>
      </trkpt>
      <trkpt lat="43.63439" lon="6.81574">
        <ele>276</ele>
        <time>2015-04-06T08:07:30Z</time>
      </trkpt>
      <trkpt lat="43.63437" lon="6.81566">
        <ele>276</ele>
        <time>2015-04-06T08:07:36Z</time>
      </trkpt>
      <trkpt lat="43.63433" lon="6.8156">
        <ele>276</ele>
        <time>2015-04-06T08:07:40Z</time>
      </trkpt>
      <trkpt lat="43.63432" lon="6.81567">
        <ele>273</ele>
        <time>2015-04-06T08:07:46Z</time>
      </trkpt>
      <trkpt lat="43.63429" lon="6.81574">
        <ele>271</ele>
        <time>2015-04-06T08:07:53Z</time>
      </trkpt>
      <trkpt lat="43.63429" lon="6.81572">
        <ele>271</ele>
        <time>2015-04-06T08:07:55Z</time>
      </trkpt>
      <trkpt lat="43.63429" lon="6.81571">
        <ele>271</ele>
        <time>2015-04-06T08:08:00Z</time>
      </trkpt>
      <trkpt lat="43.63427" lon="6.81569">
        <ele>270</ele>
        <time>2015-04-06T08:08:05Z</time>
      </trkpt>
      <trkpt lat="43.63424" lon="6.81572">
        <ele>266</ele>
        <time>2015-04-06T08:08:12Z</time>
      </trkpt>
      <trkpt lat="43.63422" lon="6.81572">
        <ele>266</ele>
        <time>2015-04-06T08:08:15Z</time>
      </trkpt>
      <trkpt lat="43.63417" lon="6.81562">
        <ele>261</ele>
        <time>2015-04-06T08:08:20Z</time>
      </trkpt>
      <trkpt lat="43.63412" lon="6.81549">
        <ele>257</ele>
        <time>2015-04-06T08:08:25Z</time>
      </trkpt>
      <trkpt lat="43.63411" lon="6.81543">
        <ele>255</ele>
        <time>2015-04-06T08:08:30Z</time>
      </trkpt>
      <trkpt lat="43.63408" lon="6.81544">
        <ele>254</ele>
        <time>2015-04-06T08:08:35Z</time>
      </trkpt>
      <trkpt lat="43.63408" lon="6.81534">
        <ele>255</ele>
        <time>2015-04-06T08:08:42Z</time>
      </trkpt>
      <trkpt lat="43.63406" lon="6.81529">
        <ele>257</ele>
        <time>2015-04-06T08:08:45Z</time>
      </trkpt>
      <trkpt lat="43.63403" lon="6.8153">
        <ele>254</ele>
        <time>2015-04-06T08:08:50Z</time>
      </trkpt>
      <trkpt lat="43.63401" lon="6.81533">
        <ele>252</ele>
        <time>2015-04-06T08:08:55Z</time>
      </trkpt>
      <trkpt lat="43.634" lon="6.81527">
        <ele>250</ele>
        <time>2015-04-06T08:09:00Z</time>
      </trkpt>
      <trkpt lat="43.63398" lon="6.81524">
        <ele>251</ele>
        <time>2015-04-06T08:09:05Z</time>
      </trkpt>
      <trkpt lat="43.63396" lon="6.81522">
        <ele>249</ele>
        <time>2015-04-06T08:09:11Z</time>
      </trkpt>
      <trkpt lat="43.63393" lon="6.81512">
        <ele>247</ele>
        <time>2015-04-06T08:09:17Z</time>
      </trkpt>
      <trkpt lat="43.63391" lon="6.81516">
        <ele>243</ele>
        <time>2015-04-06T08:09:20Z</time>
      </trkpt>
      <trkpt lat="43.63389" lon="6.81527">
        <ele>240</ele>
        <time>2015-04-06T08:09:26Z</time>
      </trkpt>
      <trkpt lat="43.63389" lon="6.81525">
        <ele>239</ele>
        <time>2015-04-06T08:09:31Z</time>
      </trkpt>
      <trkpt lat="43.63388" lon="6.81519">
        <ele>240</ele>
        <time>2015-04-06T08:09:36Z</time>
      </trkpt>
      <trkpt lat="43.63384" lon="6.81514">
        <ele>239</ele>
        <time>2015-04-06T08:09:43Z</time>
      </trkpt>
      <trkpt lat="43.63384" lon="6.81514">
        <ele>239</ele>
        <time>2015-04-06T08:09:45Z</time>
      </trkpt>
      <trkpt lat="43.63384" lon="6.81514">
        <ele>239</ele>
        <time>2015-04-06T08:09:50Z</time>
      </trkpt>
      <trkpt lat="43.63384" lon="6.81514">
        <ele>238</ele>
        <time>2015-04-06T08:09:55Z</time>
      </trkpt>
      <trkpt lat="43.63384" lon="6.81515">
        <ele>238</ele>
        <time>2015-04-06T08:10:00Z</time>
      </trkpt>
      <trkpt lat="43.63384" lon="6.81515">
        <ele>238</ele>
        <time>2015-04-06T08:10:05Z</time>
      </trkpt>
      <trkpt lat="43.63384" lon="6.81515">
        <ele>238</ele>
        <time>2015-04-06T08:10:10Z</time>
      </trkpt>
      <trkpt lat="43.63384" lon="6.81515">
        <ele>239</ele>
        <time>2015-04-06T08:10:15Z</time>
      </trkpt>
      <trkpt lat="43.63384" lon="6.81515">
        <ele>239</ele>
        <time>2015-04-06T08:10:20Z</time>
      </trkpt>
      <trkpt lat="43.63384" lon="6.81515">
        <ele>239</ele>
        <time>2015-04-06T08:10:29Z</time>
      </trkpt>
      <trkpt lat="43.63384" lon="6.81515">
        <ele>238</ele>
        <time>2015-04-06T08:10:33Z</time>
      </trkpt>
      <trkpt lat="43.63384" lon="6.81515">
        <ele>238</ele>
        <time>2015-04-06T08:10:35Z</time>
      </trkpt>
      <trkpt lat="43.63384" lon="6.81515">
        <ele>238</ele>
        <time>2015-04-06T08:10:40Z</time>
      </trkpt>
      <trkpt lat="43.63384" lon="6.81515">
        <ele>238</ele>
        <time>2015-04-06T08:10:45Z</time>
      </trkpt>
      <trkpt lat="43.63384" lon="6.81515">
        <ele>238</ele>
        <time>2015-04-06T08:10:52Z</time>
      </trkpt>
      <trkpt lat="43.63384" lon="6.81515">
        <ele>238</ele>
        <time>2015-04-06T08:10:58Z</time>
      </trkpt>
      <trkpt lat="43.63384" lon="6.81515">
        <ele>238</ele>
        <time>2015-04-06T08:11:02Z</time>
      </trkpt>
      <trkpt lat="43.63384" lon="6.81515">
        <ele>238</ele>
        <time>2015-04-06T08:11:05Z</time>
      </trkpt>
      <trkpt lat="43.63384" lon="6.81515">
        <ele>238</ele>
        <time>2015-04-06T08:11:10Z</time>
      </trkpt>
      <trkpt lat="43.63385" lon="6.81513">
        <ele>238</ele>
        <time>2015-04-06T08:11:15Z</time>
      </trkpt>
      <trkpt lat="43.63387" lon="6.815">
        <ele>238</ele>
        <time>2015-04-06T08:11:20Z</time>
      </trkpt>
      <trkpt lat="43.63393" lon="6.81487">
        <ele>239</ele>
        <time>2015-04-06T08:11:25Z</time>
      </trkpt>
      <trkpt lat="43.63403" lon="6.81475">
        <ele>239</ele>
        <time>2015-04-06T08:11:32Z</time>
      </trkpt>
      <trkpt lat="43.63399" lon="6.81468">
        <ele>239</ele>
        <time>2015-04-06T08:11:35Z</time>
      </trkpt>
      <trkpt lat="43.63389" lon="6.81464">
        <ele>238</ele>
        <time>2015-04-06T08:11:40Z</time>
      </trkpt>
      <trkpt lat="43.63382" lon="6.81464">
        <ele>238</ele>
        <time>2015-04-06T08:11:45Z</time>
      </trkpt>
      <trkpt lat="43.6338" lon="6.81463">
        <ele>241</ele>
        <time>2015-04-06T08:11:50Z</time>
      </trkpt>
      <trkpt lat="43.63374" lon="6.81464">
        <ele>240</ele>
        <time>2015-04-06T08:11:56Z</time>
      </trkpt>
      <trkpt lat="43.63371" lon="6.81462">
        <ele>239</ele>
        <time>2015-04-06T08:12:00Z</time>
      </trkpt>
      <trkpt lat="43.63371" lon="6.81461">
        <ele>239</ele>
        <time>2015-04-06T08:12:05Z</time>
      </trkpt>
      <trkpt lat="43.63365" lon="6.81461">
        <ele>237</ele>
        <time>2015-04-06T08:12:10Z</time>
      </trkpt>
      <trkpt lat="43.63348" lon="6.81463">
        <ele>230</ele>
        <time>2015-04-06T08:12:19Z</time>
      </trkpt>
      <trkpt lat="43.63342" lon="6.81459">
        <ele>227</ele>
        <time>2015-04-06T08:12:24Z</time>
      </trkpt>
      <trkpt lat="43.63341" lon="6.81459">
        <ele>224</ele>
        <time>2015-04-06T08:12:25Z</time>
      </trkpt>
      <trkpt lat="43.63333" lon="6.81457">
        <ele>221</ele>
        <time>2015-04-06T08:12:32Z</time>
      </trkpt>
      <trkpt lat="43.63326" lon="6.81448">
        <ele>219</ele>
        <time>2015-04-06T08:12:39Z</time>
      </trkpt>
      <trkpt lat="43.63324" lon="6.8144">
        <ele>218</ele>
        <time>2015-04-06T08:12:42Z</time>
      </trkpt>
      <trkpt lat="43.63322" lon="6.81439">
        <ele>218</ele>
        <time>2015-04-06T08:12:45Z</time>
      </trkpt>
      <trkpt lat="43.63321" lon="6.81441">
        <ele>218</ele>
        <time>2015-04-06T08:12:50Z</time>
      </trkpt>
      <trkpt lat="43.63317" lon="6.81427">
        <ele>215</ele>
        <time>2015-04-06T08:12:58Z</time>
      </trkpt>
      <trkpt lat="43.63316" lon="6.81421">
        <ele>215</ele>
        <time>2015-04-06T08:13:00Z</time>
      </trkpt>
      <trkpt lat="43.63315" lon="6.81421">
        <ele>215</ele>
        <time>2015-04-06T08:13:05Z</time>
      </trkpt>
      <trkpt lat="43.63315" lon="6.81421">
        <ele>215</ele>
        <time>2015-04-06T08:13:10Z</time>
      </trkpt>
      <trkpt lat="43.63312" lon="6.81414">
        <ele>212</ele>
        <time>2015-04-06T08:13:16Z</time>
      </trkpt>
      <trkpt lat="43.63308" lon="6.81399">
        <ele>209</ele>
        <time>2015-04-06T08:13:20Z</time>
      </trkpt>
      <trkpt lat="43.63307" lon="6.81391">
        <ele>208</ele>
        <time>2015-04-06T08:13:25Z</time>
      </trkpt>
      <trkpt lat="43.63304" lon="6.81386">
        <ele>206</ele>
        <time>2015-04-06T08:13:31Z</time>
      </trkpt>
      <trkpt lat="43.63302" lon="6.81389">
        <ele>206</ele>
        <time>2015-04-06T08:13:35Z</time>
      </trkpt>
      <trkpt lat="43.63302" lon="6.8139">
        <ele>206</ele>
        <time>2015-04-06T08:13:40Z</time>
      </trkpt>
      <trkpt lat="43.63302" lon="6.81399">
        <ele>205</ele>
        <time>2015-04-06T08:13:45Z</time>
      </trkpt>
      <trkpt lat="43.63302" lon="6.81417">
        <ele>203</ele>
        <time>2015-04-06T08:13:50Z</time>
      </trkpt>
      <trkpt lat="43.63302" lon="6.81416">
        <ele>203</ele>
        <time>2015-04-06T08:13:55Z</time>
      </trkpt>
      <trkpt lat="43.63302" lon="6.81416">
        <ele>203</ele>
        <time>2015-04-06T08:14:00Z</time>
      </trkpt>
      <trkpt lat="43.63301" lon="6.81416">
        <ele>203</ele>
        <time>2015-04-06T08:14:05Z</time>
      </trkpt>
      <trkpt lat="43.63301" lon="6.81426">
        <ele>199</ele>
        <time>2015-04-06T08:14:11Z</time>
      </trkpt>
      <trkpt lat="43.633" lon="6.81454">
        <ele>191</ele>
        <time>2015-04-06T08:14:18Z</time>
      </trkpt>
      <trkpt lat="43.63302" lon="6.81473">
        <ele>188</ele>
        <time>2015-04-06T08:14:22Z</time>
      </trkpt>
      <trkpt lat="43.63293" lon="6.81493">
        <ele>185</ele>
        <time>2015-04-06T08:14:26Z</time>
      </trkpt>
      <trkpt lat="43.63289" lon="6.81504">
        <ele>185</ele>
        <time>2015-04-06T08:14:31Z</time>
      </trkpt>
      <trkpt lat="43.63304" lon="6.81507">
        <ele>185</ele>
        <time>2015-04-06T08:14:35Z</time>
      </trkpt>
      <trkpt lat="43.63305" lon="6.8155">
        <ele>183</ele>
        <time>2015-04-06T08:14:41Z</time>
      </trkpt>
      <trkpt lat="43.63298" lon="6.81578">
        <ele>182</ele>
        <time>2015-04-06T08:14:46Z</time>
      </trkpt>
      <trkpt lat="43.63291" lon="6.81599">
        <ele>180</ele>
        <time>2015-04-06T08:14:50Z</time>
      </trkpt>
      <trkpt lat="43.63283" lon="6.81625">
        <ele>173</ele>
        <time>2015-04-06T08:14:57Z</time>
      </trkpt>
      <trkpt lat="43.63279" lon="6.81627">
        <ele>169</ele>
        <time>2015-04-06T08:15:00Z</time>
      </trkpt>
      <trkpt lat="43.63279" lon="6.81609">
        <ele>163</ele>
        <time>2015-04-06T08:15:05Z</time>
      </trkpt>
      <trkpt lat="43.63261" lon="6.81639">
        <ele>161</ele>
        <time>2015-04-06T08:15:10Z</time>
      </trkpt>
      <trkpt lat="43.63234" lon="6.81626">
        <ele>162</ele>
        <time>2015-04-06T08:15:19Z</time>
      </trkpt>
      <trkpt lat="43.63231" lon="6.81625">
        <ele>161</ele>
        <time>2015-04-06T08:15:20Z</time>
      </trkpt>
      <trkpt lat="43.63206" lon="6.81638">
        <ele>160</ele>
        <time>2015-04-06T08:15:28Z</time>
      </trkpt>
      <trkpt lat="43.632" lon="6.81641">
        <ele>160</ele>
        <time>2015-04-06T08:15:30Z</time>
      </trkpt>
      <trkpt lat="43.63177" lon="6.81661">
        <ele>156</ele>
        <time>2015-04-06T08:15:38Z</time>
      </trkpt>
      <trkpt lat="43.63163" lon="6.81673">
        <ele>154</ele>
        <time>2015-04-06T08:15:44Z</time>
      </trkpt>
      <trkpt lat="43.63161" lon="6.81675">
        <ele>152</ele>
        <time>2015-04-06T08:15:46Z</time>
      </trkpt>
      <trkpt lat="43.63163" lon="6.81676">
        <ele>152</ele>
        <time>2015-04-06T08:15:50Z</time>
      </trkpt>
      <trkpt lat="43.63157" lon="6.81681">
        <ele>153</ele>
        <time>2015-04-06T08:15:56Z</time>
      </trkpt>
      <trkpt lat="43.63147" lon="6.81689">
        <ele>149</ele>
        <time>2015-04-06T08:16:00Z</time>
      </trkpt>
      <trkpt lat="43.63134" lon="6.81711">
        <ele>146</ele>
        <time>2015-04-06T08:16:05Z</time>
      </trkpt>
      <trkpt lat="43.63108" lon="6.81752">
        <ele>141</ele>
        <time>2015-04-06T08:16:14Z</time>
      </trkpt>
      <trkpt lat="43.63108" lon="6.81765">
        <ele>138</ele>
        <time>2015-04-06T08:16:17Z</time>
      </trkpt>
      <trkpt lat="43.63104" lon="6.81791">
        <ele>136</ele>
        <time>2015-04-06T08:16:23Z</time>
      </trkpt>
      <trkpt lat="43.63097" lon="6.81821">
        <ele>137</ele>
        <time>2015-04-06T08:16:27Z</time>
      </trkpt>
      <trkpt lat="43.63091" lon="6.81833">
        <ele>136</ele>
        <time>2015-04-06T08:16:29Z</time>
      </trkpt>
      <trkpt lat="43.63073" lon="6.81845">
        <ele>134</ele>
        <time>2015-04-06T08:16:34Z</time>
      </trkpt>
      <trkpt lat="43.63053" lon="6.81856">
        <ele>134</ele>
        <time>2015-04-06T08:16:39Z</time>
      </trkpt>
      <trkpt lat="43.63033" lon="6.81863">
        <ele>134</ele>
        <time>2015-04-06T08:16:45Z</time>
      </trkpt>
      <trkpt lat="43.63017" lon="6.81863">
        <ele>138</ele>
        <time>2015-04-06T08:16:52Z</time>
      </trkpt>
      <trkpt lat="43.63012" lon="6.81864">
        <ele>139</ele>
        <time>2015-04-06T08:16:54Z</time>
      </trkpt>
      <trkpt lat="43.63" lon="6.8186">
        <ele>140</ele>
        <time>2015-04-06T08:16:59Z</time>
      </trkpt>
      <trkpt lat="43.62986" lon="6.81855">
        <ele>140</ele>
        <time>2015-04-06T08:17:04Z</time>
      </trkpt>
      <trkpt lat="43.62969" lon="6.81865">
        <ele>139</ele>
        <time>2015-04-06T08:17:11Z</time>
      </trkpt>
      <trkpt lat="43.62958" lon="6.81877">
        <ele>142</ele>
        <time>2015-04-06T08:17:16Z</time>
      </trkpt>
      <trkpt lat="43.62952" lon="6.81884">
        <ele>142</ele>
        <time>2015-04-06T08:17:19Z</time>
      </trkpt>
      <trkpt lat="43.62933" lon="6.8191">
        <ele>142</ele>
        <time>2015-04-06T08:17:28Z</time>
      </trkpt>
      <trkpt lat="43.62931" lon="6.81912">
        <ele>140</ele>
        <time>2015-04-06T08:17:29Z</time>
      </trkpt>
      <trkpt lat="43.62921" lon="6.81929">
        <ele>140</ele>
        <time>2015-04-06T08:17:34Z</time>
      </trkpt>
      <trkpt lat="43.62914" lon="6.81946">
        <ele>139</ele>
        <time>2015-04-06T08:17:39Z</time>
      </trkpt>
      <trkpt lat="43.62905" lon="6.81971">
        <ele>140</ele>
        <time>2015-04-06T08:17:46Z</time>
      </trkpt>
      <trkpt lat="43.62894" lon="6.81988">
        <ele>143</ele>
        <time>2015-04-06T08:17:51Z</time>
      </trkpt>
      <trkpt lat="43.62888" lon="6.82">
        <ele>142</ele>
        <time>2015-04-06T08:17:54Z</time>
      </trkpt>
      <trkpt lat="43.62877" lon="6.82019">
        <ele>141</ele>
        <time>2015-04-06T08:17:59Z</time>
      </trkpt>
      <trkpt lat="43.6286" lon="6.82021">
        <ele>141</ele>
        <time>2015-04-06T08:18:04Z</time>
      </trkpt>
      <trkpt lat="43.62826" lon="6.82043">
        <ele>139</ele>
        <time>2015-04-06T08:18:13Z</time>
      </trkpt>
      <trkpt lat="43.62821" lon="6.82046">
        <ele>139</ele>
        <time>2015-04-06T08:18:14Z</time>
      </trkpt>
      <trkpt lat="43.62798" lon="6.82053">
        <ele>140</ele>
        <time>2015-04-06T08:18:19Z</time>
      </trkpt>
      <trkpt lat="43.62762" lon="6.82091">
        <ele>136</ele>
        <time>2015-04-06T08:18:26Z</time>
      </trkpt>
      <trkpt lat="43.62749" lon="6.82114">
        <ele>135</ele>
        <time>2015-04-06T08:18:29Z</time>
      </trkpt>
      <trkpt lat="43.62735" lon="6.82141">
        <ele>135</ele>
        <time>2015-04-06T08:18:34Z</time>
      </trkpt>
      <trkpt lat="43.62721" lon="6.82156">
        <ele>132</ele>
        <time>2015-04-06T08:18:39Z</time>
      </trkpt>
      <trkpt lat="43.62701" lon="6.82164">
        <ele>130</ele>
        <time>2015-04-06T08:18:44Z</time>
      </trkpt>
      <trkpt lat="43.62678" lon="6.82207">
        <ele>130</ele>
        <time>2015-04-06T08:18:53Z</time>
      </trkpt>
      <trkpt lat="43.62676" lon="6.82211">
        <ele>129</ele>
        <time>2015-04-06T08:18:54Z</time>
      </trkpt>
      <trkpt lat="43.6264" lon="6.82245">
        <ele>126</ele>
        <time>2015-04-06T08:19:02Z</time>
      </trkpt>
      <trkpt lat="43.6262" lon="6.82292">
        <ele>125</ele>
        <time>2015-04-06T08:19:07Z</time>
      </trkpt>
      <trkpt lat="43.62594" lon="6.82321">
        <ele>122</ele>
        <time>2015-04-06T08:19:12Z</time>
      </trkpt>
      <trkpt lat="43.62584" lon="6.82331">
        <ele>122</ele>
        <time>2015-04-06T08:19:14Z</time>
      </trkpt>
      <trkpt lat="43.62564" lon="6.82362">
        <ele>121</ele>
        <time>2015-04-06T08:19:19Z</time>
      </trkpt>
      <trkpt lat="43.6255" lon="6.82385">
        <ele>120</ele>
        <time>2015-04-06T08:19:24Z</time>
      </trkpt>
      <trkpt lat="43.62543" lon="6.82409">
        <ele>120</ele>
        <time>2015-04-06T08:19:29Z</time>
      </trkpt>
      <trkpt lat="43.62538" lon="6.82432">
        <ele>121</ele>
        <time>2015-04-06T08:19:34Z</time>
      </trkpt>
      <trkpt lat="43.62528" lon="6.82455">
        <ele>120</ele>
        <time>2015-04-06T08:19:39Z</time>
      </trkpt>
      <trkpt lat="43.62514" lon="6.82496">
        <ele>121</ele>
        <time>2015-04-06T08:19:48Z</time>
      </trkpt>
      <trkpt lat="43.62514" lon="6.82506">
        <ele>121</ele>
        <time>2015-04-06T08:19:50Z</time>
      </trkpt>
      <trkpt lat="43.62517" lon="6.82526">
        <ele>122</ele>
        <time>2015-04-06T08:19:54Z</time>
      </trkpt>
      <trkpt lat="43.6252" lon="6.8255">
        <ele>125</ele>
        <time>2015-04-06T08:19:59Z</time>
      </trkpt>
      <trkpt lat="43.62516" lon="6.82574">
        <ele>126</ele>
        <time>2015-04-06T08:20:04Z</time>
      </trkpt>
      <trkpt lat="43.62507" lon="6.82603">
        <ele>128</ele>
        <time>2015-04-06T08:20:11Z</time>
      </trkpt>
      <trkpt lat="43.62501" lon="6.82618">
        <ele>132</ele>
        <time>2015-04-06T08:20:17Z</time>
      </trkpt>
      <trkpt lat="43.62497" lon="6.82629">
        <ele>134</ele>
        <time>2015-04-06T08:20:20Z</time>
      </trkpt>
      <trkpt lat="43.62493" lon="6.82647">
        <ele>134</ele>
        <time>2015-04-06T08:20:24Z</time>
      </trkpt>
      <trkpt lat="43.62487" lon="6.82668">
        <ele>135</ele>
        <time>2015-04-06T08:20:29Z</time>
      </trkpt>
      <trkpt lat="43.62484" lon="6.82693">
        <ele>137</ele>
        <time>2015-04-06T08:20:35Z</time>
      </trkpt>
      <trkpt lat="43.62481" lon="6.8271">
        <ele>138</ele>
        <time>2015-04-06T08:20:39Z</time>
      </trkpt>
      <trkpt lat="43.62482" lon="6.82733">
        <ele>137</ele>
        <time>2015-04-06T08:20:44Z</time>
      </trkpt>
      <trkpt lat="43.62484" lon="6.82761">
        <ele>138</ele>
        <time>2015-04-06T08:20:50Z</time>
      </trkpt>
      <trkpt lat="43.62483" lon="6.82787">
        <ele>138</ele>
        <time>2015-04-06T08:20:56Z</time>
      </trkpt>
      <trkpt lat="43.62484" lon="6.82799">
        <ele>138</ele>
        <time>2015-04-06T08:20:59Z</time>
      </trkpt>
      <trkpt lat="43.62487" lon="6.82819">
        <ele>141</ele>
        <time>2015-04-06T08:21:04Z</time>
      </trkpt>
      <trkpt lat="43.6249" lon="6.8284">
        <ele>140</ele>
        <time>2015-04-06T08:21:09Z</time>
      </trkpt>
      <trkpt lat="43.62493" lon="6.8287">
        <ele>141</ele>
        <time>2015-04-06T08:21:16Z</time>
      </trkpt>
      <trkpt lat="43.62494" lon="6.82895">
        <ele>142</ele>
        <time>2015-04-06T08:21:22Z</time>
      </trkpt>
      <trkpt lat="43.62495" lon="6.82903">
        <ele>143</ele>
        <time>2015-04-06T08:21:24Z</time>
      </trkpt>
      <trkpt lat="43.62497" lon="6.82922">
        <ele>144</ele>
        <time>2015-04-06T08:21:29Z</time>
      </trkpt>
      <trkpt lat="43.62498" lon="6.82942">
        <ele>147</ele>
        <time>2015-04-06T08:21:34Z</time>
      </trkpt>
      <trkpt lat="43.62499" lon="6.82962">
        <ele>149</ele>
        <time>2015-04-06T08:21:39Z</time>
      </trkpt>
      <trkpt lat="43.62502" lon="6.82988">
        <ele>151</ele>
        <time>2015-04-06T08:21:45Z</time>
      </trkpt>
      <trkpt lat="43.62503" lon="6.83005">
        <ele>152</ele>
        <time>2015-04-06T08:21:49Z</time>
      </trkpt>
      <trkpt lat="43.62506" lon="6.8303">
        <ele>154</ele>
        <time>2015-04-06T08:21:55Z</time>
      </trkpt>
      <trkpt lat="43.62507" lon="6.83047">
        <ele>156</ele>
        <time>2015-04-06T08:21:59Z</time>
      </trkpt>
      <trkpt lat="43.62509" lon="6.83066">
        <ele>157</ele>
        <time>2015-04-06T08:22:04Z</time>
      </trkpt>
      <trkpt lat="43.62511" lon="6.83086">
        <ele>158</ele>
        <time>2015-04-06T08:22:09Z</time>
      </trkpt>
      <trkpt lat="43.62514" lon="6.83106">
        <ele>158</ele>
        <time>2015-04-06T08:22:14Z</time>
      </trkpt>
      <trkpt lat="43.62515" lon="6.83126">
        <ele>159</ele>
        <time>2015-04-06T08:22:19Z</time>
      </trkpt>
      <trkpt lat="43.62515" lon="6.83146">
        <ele>161</ele>
        <time>2015-04-06T08:22:24Z</time>
      </trkpt>
      <trkpt lat="43.62516" lon="6.83165">
        <ele>162</ele>
        <time>2015-04-06T08:22:29Z</time>
      </trkpt>
      <trkpt lat="43.62518" lon="6.83184">
        <ele>162</ele>
        <time>2015-04-06T08:22:34Z</time>
      </trkpt>
      <trkpt lat="43.62522" lon="6.83203">
        <ele>163</ele>
        <time>2015-04-06T08:22:39Z</time>
      </trkpt>
      <trkpt lat="43.62529" lon="6.8322">
        <ele>164</ele>
        <time>2015-04-06T08:22:44Z</time>
      </trkpt>
      <trkpt lat="43.62541" lon="6.83244">
        <ele>165</ele>
        <time>2015-04-06T08:22:51Z</time>
      </trkpt>
      <trkpt lat="43.62545" lon="6.83258">
        <ele>165</ele>
        <time>2015-04-06T08:22:55Z</time>
      </trkpt>
      <trkpt lat="43.62549" lon="6.83272">
        <ele>165</ele>
        <time>2015-04-06T08:22:59Z</time>
      </trkpt>
      <trkpt lat="43.62552" lon="6.83291">
        <ele>166</ele>
        <time>2015-04-06T08:23:04Z</time>
      </trkpt>
      <trkpt lat="43.62555" lon="6.8331">
        <ele>167</ele>
        <time>2015-04-06T08:23:09Z</time>
      </trkpt>
      <trkpt lat="43.6256" lon="6.83327">
        <ele>166</ele>
        <time>2015-04-06T08:23:14Z</time>
      </trkpt>
      <trkpt lat="43.62562" lon="6.83342">
        <ele>166</ele>
        <time>2015-04-06T08:23:19Z</time>
      </trkpt>
      <trkpt lat="43.62562" lon="6.83341">
        <ele>166</ele>
        <time>2015-04-06T08:23:24Z</time>
      </trkpt>
      <trkpt lat="43.62563" lon="6.83341">
        <ele>166</ele>
        <time>2015-04-06T08:23:29Z</time>
      </trkpt>
      <trkpt lat="43.62563" lon="6.83341">
        <ele>166</ele>
        <time>2015-04-06T08:23:34Z</time>
      </trkpt>
      <trkpt lat="43.62563" lon="6.83341">
        <ele>166</ele>
        <time>2015-04-06T08:23:39Z</time>
      </trkpt>
      <trkpt lat="43.62563" lon="6.83341">
        <ele>166</ele>
        <time>2015-04-06T08:23:44Z</time>
      </trkpt>
      <trkpt lat="43.62563" lon="6.83341">
        <ele>166</ele>
        <time>2015-04-06T08:23:49Z</time>
      </trkpt>
      <trkpt lat="43.62563" lon="6.83341">
        <ele>166</ele>
        <time>2015-04-06T08:23:54Z</time>
      </trkpt>
      <trkpt lat="43.62568" lon="6.83349">
        <ele>166</ele>
        <time>2015-04-06T08:24:00Z</time>
      </trkpt>
      <trkpt lat="43.62575" lon="6.83363">
        <ele>166</ele>
        <time>2015-04-06T08:24:05Z</time>
      </trkpt>
      <trkpt lat="43.62584" lon="6.83376">
        <ele>168</ele>
        <time>2015-04-06T08:24:11Z</time>
      </trkpt>
      <trkpt lat="43.6259" lon="6.83386">
        <ele>168</ele>
        <time>2015-04-06T08:24:15Z</time>
      </trkpt>
      <trkpt lat="43.62596" lon="6.83395">
        <ele>168</ele>
        <time>2015-04-06T08:24:19Z</time>
      </trkpt>
      <trkpt lat="43.62605" lon="6.83411">
        <ele>170</ele>
        <time>2015-04-06T08:24:26Z</time>
      </trkpt>
      <trkpt lat="43.62609" lon="6.83417">
        <ele>171</ele>
        <time>2015-04-06T08:24:29Z</time>
      </trkpt>
      <trkpt lat="43.62618" lon="6.83434">
        <ele>172</ele>
        <time>2015-04-06T08:24:36Z</time>
      </trkpt>
      <trkpt lat="43.62622" lon="6.8344">
        <ele>173</ele>
        <time>2015-04-06T08:24:39Z</time>
      </trkpt>
      <trkpt lat="43.62633" lon="6.83457">
        <ele>173</ele>
        <time>2015-04-06T08:24:46Z</time>
      </trkpt>
      <trkpt lat="43.6264" lon="6.83469">
        <ele>174</ele>
        <time>2015-04-06T08:24:50Z</time>
      </trkpt>
      <trkpt lat="43.62647" lon="6.83482">
        <ele>173</ele>
        <time>2015-04-06T08:24:54Z</time>
      </trkpt>
      <trkpt lat="43.6266" lon="6.83501">
        <ele>175</ele>
        <time>2015-04-06T08:25:00Z</time>
      </trkpt>
      <trkpt lat="43.62669" lon="6.83513">
        <ele>176</ele>
        <time>2015-04-06T08:25:04Z</time>
      </trkpt>
      <trkpt lat="43.62686" lon="6.83534">
        <ele>178</ele>
        <time>2015-04-06T08:25:11Z</time>
      </trkpt>
      <trkpt lat="43.62695" lon="6.83546">
        <ele>180</ele>
        <time>2015-04-06T08:25:15Z</time>
      </trkpt>
      <trkpt lat="43.62704" lon="6.83557">
        <ele>181</ele>
        <time>2015-04-06T08:25:19Z</time>
      </trkpt>
      <trkpt lat="43.62726" lon="6.83582">
        <ele>182</ele>
        <time>2015-04-06T08:25:28Z</time>
      </trkpt>
      <trkpt lat="43.62733" lon="6.8359">
        <ele>182</ele>
        <time>2015-04-06T08:25:31Z</time>
      </trkpt>
      <trkpt lat="43.62741" lon="6.83599">
        <ele>183</ele>
        <time>2015-04-06T08:25:34Z</time>
      </trkpt>
      <trkpt lat="43.62757" lon="6.8362">
        <ele>185</ele>
        <time>2015-04-06T08:25:41Z</time>
      </trkpt>
      <trkpt lat="43.62767" lon="6.8363">
        <ele>186</ele>
        <time>2015-04-06T08:25:45Z</time>
      </trkpt>
      <trkpt lat="43.62775" lon="6.83643">
        <ele>187</ele>
        <time>2015-04-06T08:25:49Z</time>
      </trkpt>
      <trkpt lat="43.62793" lon="6.8366">
        <ele>188</ele>
        <time>2015-04-06T08:25:55Z</time>
      </trkpt>
      <trkpt lat="43.6281" lon="6.83666">
        <ele>187</ele>
        <time>2015-04-06T08:25:59Z</time>
      </trkpt>
      <trkpt lat="43.62833" lon="6.83681">
        <ele>188</ele>
        <time>2015-04-06T08:26:04Z</time>
      </trkpt>
      <trkpt lat="43.62852" lon="6.83709">
        <ele>188</ele>
        <time>2015-04-06T08:26:11Z</time>
      </trkpt>
      <trkpt lat="43.62859" lon="6.83725">
        <ele>188</ele>
        <time>2015-04-06T08:26:15Z</time>
      </trkpt>
      <trkpt lat="43.62865" lon="6.83739">
        <ele>189</ele>
        <time>2015-04-06T08:26:19Z</time>
      </trkpt>
      <trkpt lat="43.62874" lon="6.83757">
        <ele>190</ele>
        <time>2015-04-06T08:26:24Z</time>
      </trkpt>
      <trkpt lat="43.62881" lon="6.83774">
        <ele>190</ele>
        <time>2015-04-06T08:26:29Z</time>
      </trkpt>
      <trkpt lat="43.62888" lon="6.83792">
        <ele>191</ele>
        <time>2015-04-06T08:26:34Z</time>
      </trkpt>
      <trkpt lat="43.62894" lon="6.83809">
        <ele>191</ele>
        <time>2015-04-06T08:26:39Z</time>
      </trkpt>
      <trkpt lat="43.62905" lon="6.83826">
        <ele>193</ele>
        <time>2015-04-06T08:26:45Z</time>
      </trkpt>
      <trkpt lat="43.62918" lon="6.83841">
        <ele>196</ele>
        <time>2015-04-06T08:26:51Z</time>
      </trkpt>
      <trkpt lat="43.62925" lon="6.83854">
        <ele>198</ele>
        <time>2015-04-06T08:26:55Z</time>
      </trkpt>
      <trkpt lat="43.62932" lon="6.83866">
        <ele>198</ele>
        <time>2015-04-06T08:26:59Z</time>
      </trkpt>
      <trkpt lat="43.62941" lon="6.8388">
        <ele>198</ele>
        <time>2015-04-06T08:27:04Z</time>
      </trkpt>
      <trkpt lat="43.62963" lon="6.83893">
        <ele>198</ele>
        <time>2015-04-06T08:27:12Z</time>
      </trkpt>
      <trkpt lat="43.62972" lon="6.83898">
        <ele>198</ele>
        <time>2015-04-06T08:27:15Z</time>
      </trkpt>
      <trkpt lat="43.62983" lon="6.83905">
        <ele>199</ele>
        <time>2015-04-06T08:27:19Z</time>
      </trkpt>
      <trkpt lat="43.62998" lon="6.83915">
        <ele>199</ele>
        <time>2015-04-06T08:27:24Z</time>
      </trkpt>
      <trkpt lat="43.63016" lon="6.83924">
        <ele>200</ele>
        <time>2015-04-06T08:27:30Z</time>
      </trkpt>
      <trkpt lat="43.63028" lon="6.83932">
        <ele>200</ele>
        <time>2015-04-06T08:27:34Z</time>
      </trkpt>
      <trkpt lat="43.63044" lon="6.8394">
        <ele>200</ele>
        <time>2015-04-06T08:27:39Z</time>
      </trkpt>
      <trkpt lat="43.63066" lon="6.83952">
        <ele>199</ele>
        <time>2015-04-06T08:27:44Z</time>
      </trkpt>
      <trkpt lat="43.63093" lon="6.83963">
        <ele>201</ele>
        <time>2015-04-06T08:27:49Z</time>
      </trkpt>
      <trkpt lat="43.63114" lon="6.83982">
        <ele>201</ele>
        <time>2015-04-06T08:27:54Z</time>
      </trkpt>
      <trkpt lat="43.63125" lon="6.84002">
        <ele>202</ele>
        <time>2015-04-06T08:27:59Z</time>
      </trkpt>
      <trkpt lat="43.63131" lon="6.84019">
        <ele>202</ele>
        <time>2015-04-06T08:28:04Z</time>
      </trkpt>
      <trkpt lat="43.63136" lon="6.84036">
        <ele>201</ele>
        <time>2015-04-06T08:28:09Z</time>
      </trkpt>
      <trkpt lat="43.63142" lon="6.84054">
        <ele>203</ele>
        <time>2015-04-06T08:28:14Z</time>
      </trkpt>
      <trkpt lat="43.63148" lon="6.84072">
        <ele>204</ele>
        <time>2015-04-06T08:28:19Z</time>
      </trkpt>
      <trkpt lat="43.63154" lon="6.84091">
        <ele>205</ele>
        <time>2015-04-06T08:28:25Z</time>
      </trkpt>
      <trkpt lat="43.6314" lon="6.84104">
        <ele>205</ele>
        <time>2015-04-06T08:28:33Z</time>
      </trkpt>
      <trkpt lat="43.63138" lon="6.84104">
        <ele>204</ele>
        <time>2015-04-06T08:28:34Z</time>
      </trkpt>
      <trkpt lat="43.63127" lon="6.84106">
        <ele>203</ele>
        <time>2015-04-06T08:28:39Z</time>
      </trkpt>
      <trkpt lat="43.63113" lon="6.84108">
        <ele>207</ele>
        <time>2015-04-06T08:28:46Z</time>
      </trkpt>
      <trkpt lat="43.631" lon="6.84102">
        <ele>209</ele>
        <time>2015-04-06T08:28:52Z</time>
      </trkpt>
      <trkpt lat="43.63094" lon="6.84098">
        <ele>210</ele>
        <time>2015-04-06T08:28:55Z</time>
      </trkpt>
      <trkpt lat="43.63083" lon="6.84094">
        <ele>212</ele>
        <time>2015-04-06T08:29:00Z</time>
      </trkpt>
      <trkpt lat="43.63066" lon="6.84086">
        <ele>219</ele>
        <time>2015-04-06T08:29:08Z</time>
      </trkpt>
      <trkpt lat="43.63053" lon="6.84087">
        <ele>218</ele>
        <time>2015-04-06T08:29:13Z</time>
      </trkpt>
      <trkpt lat="43.63036" lon="6.84094">
        <ele>218</ele>
        <time>2015-04-06T08:29:22Z</time>
      </trkpt>
      <trkpt lat="43.63036" lon="6.84095">
        <ele>218</ele>
        <time>2015-04-06T08:29:23Z</time>
      </trkpt>
      <trkpt lat="43.63036" lon="6.84095">
        <ele>218</ele>
        <time>2015-04-06T08:29:28Z</time>
      </trkpt>
      <trkpt lat="43.63036" lon="6.84095">
        <ele>217</ele>
        <time>2015-04-06T08:29:33Z</time>
      </trkpt>
      <trkpt lat="43.63036" lon="6.84095">
        <ele>217</ele>
        <time>2015-04-06T08:29:38Z</time>
      </trkpt>
      <trkpt lat="43.63036" lon="6.84095">
        <ele>217</ele>
        <time>2015-04-06T08:29:43Z</time>
      </trkpt>
      <trkpt lat="43.63036" lon="6.84095">
        <ele>217</ele>
        <time>2015-04-06T08:29:48Z</time>
      </trkpt>
      <trkpt lat="43.63034" lon="6.84099">
        <ele>217</ele>
        <time>2015-04-06T08:29:54Z</time>
      </trkpt>
      <trkpt lat="43.63028" lon="6.84114">
        <ele>216</ele>
        <time>2015-04-06T08:29:59Z</time>
      </trkpt>
      <trkpt lat="43.63022" lon="6.84127">
        <ele>217</ele>
        <time>2015-04-06T08:30:03Z</time>
      </trkpt>
      <trkpt lat="43.63013" lon="6.8414">
        <ele>218</ele>
        <time>2015-04-06T08:30:08Z</time>
      </trkpt>
      <trkpt lat="43.62999" lon="6.84144">
        <ele>218</ele>
        <time>2015-04-06T08:30:13Z</time>
      </trkpt>
      <trkpt lat="43.62981" lon="6.84143">
        <ele>218</ele>
        <time>2015-04-06T08:30:18Z</time>
      </trkpt>
      <trkpt lat="43.62974" lon="6.84156">
        <ele>218</ele>
        <time>2015-04-06T08:30:27Z</time>
      </trkpt>
      <trkpt lat="43.62977" lon="6.84157">
        <ele>219</ele>
        <time>2015-04-06T08:30:28Z</time>
      </trkpt>
      <trkpt lat="43.6299" lon="6.84162">
        <ele>221</ele>
        <time>2015-04-06T08:30:33Z</time>
      </trkpt>
      <trkpt lat="43.63001" lon="6.84173">
        <ele>220</ele>
        <time>2015-04-06T08:30:39Z</time>
      </trkpt>
      <trkpt lat="43.63011" lon="6.8418">
        <ele>220</ele>
        <time>2015-04-06T08:30:44Z</time>
      </trkpt>
      <trkpt lat="43.63024" lon="6.84181">
        <ele>222</ele>
        <time>2015-04-06T08:30:50Z</time>
      </trkpt>
      <trkpt lat="43.63034" lon="6.84174">
        <ele>221</ele>
        <time>2015-04-06T08:30:55Z</time>
      </trkpt>
      <trkpt lat="43.63039" lon="6.84169">
        <ele>221</ele>
        <time>2015-04-06T08:30:58Z</time>
      </trkpt>
      <trkpt lat="43.63053" lon="6.8416">
        <ele>223</ele>
        <time>2015-04-06T08:31:06Z</time>
      </trkpt>
      <trkpt lat="43.63059" lon="6.84158">
        <ele>223</ele>
        <time>2015-04-06T08:31:09Z</time>
      </trkpt>
      <trkpt lat="43.63072" lon="6.84169">
        <ele>227</ele>
        <time>2015-04-06T08:31:17Z</time>
      </trkpt>
      <trkpt lat="43.63077" lon="6.84177">
        <ele>229</ele>
        <time>2015-04-06T08:31:21Z</time>
      </trkpt>
      <trkpt lat="43.63079" lon="6.84182">
        <ele>230</ele>
        <time>2015-04-06T08:31:23Z</time>
      </trkpt>
      <trkpt lat="43.63083" lon="6.84189">
        <ele>231</ele>
        <time>2015-04-06T08:31:29Z</time>
      </trkpt>
      <trkpt lat="43.63087" lon="6.84194">
        <ele>231</ele>
        <time>2015-04-06T08:31:33Z</time>
      </trkpt>
      <trkpt lat="43.63089" lon="6.84203">
        <ele>233</ele>
        <time>2015-04-06T08:31:39Z</time>
      </trkpt>
      <trkpt lat="43.63081" lon="6.84208">
        <ele>236</ele>
        <time>2015-04-06T08:31:47Z</time>
      </trkpt>
      <trkpt lat="43.63082" lon="6.84211">
        <ele>236</ele>
        <time>2015-04-06T08:31:49Z</time>
      </trkpt>
      <trkpt lat="43.63086" lon="6.84215">
        <ele>236</ele>
        <time>2015-04-06T08:31:53Z</time>
      </trkpt>
      <trkpt lat="43.63087" lon="6.84215">
        <ele>236</ele>
        <time>2015-04-06T08:31:58Z</time>
      </trkpt>
      <trkpt lat="43.63088" lon="6.84218">
        <ele>236</ele>
        <time>2015-04-06T08:32:03Z</time>
      </trkpt>
      <trkpt lat="43.63089" lon="6.84224">
        <ele>238</ele>
        <time>2015-04-06T08:32:08Z</time>
      </trkpt>
      <trkpt lat="43.63093" lon="6.8423">
        <ele>239</ele>
        <time>2015-04-06T08:32:13Z</time>
      </trkpt>
      <trkpt lat="43.63093" lon="6.84239">
        <ele>240</ele>
        <time>2015-04-06T08:32:20Z</time>
      </trkpt>
      <trkpt lat="43.63091" lon="6.84242">
        <ele>241</ele>
        <time>2015-04-06T08:32:24Z</time>
      </trkpt>
      <trkpt lat="43.63091" lon="6.84244">
        <ele>240</ele>
        <time>2015-04-06T08:32:29Z</time>
      </trkpt>
      <trkpt lat="43.63088" lon="6.84245">
        <ele>240</ele>
        <time>2015-04-06T08:32:33Z</time>
      </trkpt>
      <trkpt lat="43.63085" lon="6.84252">
        <ele>240</ele>
        <time>2015-04-06T08:32:39Z</time>
      </trkpt>
      <trkpt lat="43.63085" lon="6.84258">
        <ele>241</ele>
        <time>2015-04-06T08:32:43Z</time>
      </trkpt>
      <trkpt lat="43.63084" lon="6.8427">
        <ele>242</ele>
        <time>2015-04-06T08:32:52Z</time>
      </trkpt>
      <trkpt lat="43.63084" lon="6.84272">
        <ele>242</ele>
        <time>2015-04-06T08:32:54Z</time>
      </trkpt>
      <trkpt lat="43.63084" lon="6.84273">
        <ele>242</ele>
        <time>2015-04-06T08:32:58Z</time>
      </trkpt>
      <trkpt lat="43.63086" lon="6.84271">
        <ele>242</ele>
        <time>2015-04-06T08:33:06Z</time>
      </trkpt>
      <trkpt lat="43.63086" lon="6.84269">
        <ele>241</ele>
        <time>2015-04-06T08:33:09Z</time>
      </trkpt>
      <trkpt lat="43.63086" lon="6.84269">
        <ele>241</ele>
        <time>2015-04-06T08:33:13Z</time>
      </trkpt>
      <trkpt lat="43.63086" lon="6.84269">
        <ele>241</ele>
        <time>2015-04-06T08:33:18Z</time>
      </trkpt>
      <trkpt lat="43.63086" lon="6.84269">
        <ele>240</ele>
        <time>2015-04-06T08:33:23Z</time>
      </trkpt>
      <trkpt lat="43.63085" lon="6.84269">
        <ele>240</ele>
        <time>2015-04-06T08:33:28Z</time>
      </trkpt>
      <trkpt lat="43.63084" lon="6.8427">
        <ele>240</ele>
        <time>2015-04-06T08:33:33Z</time>
      </trkpt>
      <trkpt lat="43.63083" lon="6.84271">
        <ele>240</ele>
        <time>2015-04-06T08:33:38Z</time>
      </trkpt>
      <trkpt lat="43.63083" lon="6.84272">
        <ele>240</ele>
        <time>2015-04-06T08:33:43Z</time>
      </trkpt>
      <trkpt lat="43.63083" lon="6.84272">
        <ele>240</ele>
        <time>2015-04-06T08:33:48Z</time>
      </trkpt>
      <trkpt lat="43.63084" lon="6.84272">
        <ele>241</ele>
        <time>2015-04-06T08:33:53Z</time>
      </trkpt>
      <trkpt lat="43.63083" lon="6.84273">
        <ele>239</ele>
        <time>2015-04-06T08:33:58Z</time>
      </trkpt>
      <trkpt lat="43.63083" lon="6.84273">
        <ele>240</ele>
        <time>2015-04-06T08:34:03Z</time>
      </trkpt>
      <trkpt lat="43.63083" lon="6.84272">
        <ele>240</ele>
        <time>2015-04-06T08:34:08Z</time>
      </trkpt>
      <trkpt lat="43.63083" lon="6.84272">
        <ele>240</ele>
        <time>2015-04-06T08:34:13Z</time>
      </trkpt>
      <trkpt lat="43.63083" lon="6.84272">
        <ele>240</ele>
        <time>2015-04-06T08:34:18Z</time>
      </trkpt>
      <trkpt lat="43.63083" lon="6.84272">
        <ele>240</ele>
        <time>2015-04-06T08:34:23Z</time>
      </trkpt>
      <trkpt lat="43.63083" lon="6.84272">
        <ele>240</ele>
        <time>2015-04-06T08:34:28Z</time>
      </trkpt>
      <trkpt lat="43.63083" lon="6.84272">
        <ele>240</ele>
        <time>2015-04-06T08:34:33Z</time>
      </trkpt>
      <trkpt lat="43.63083" lon="6.84272">
        <ele>240</ele>
        <time>2015-04-06T08:34:38Z</time>
      </trkpt>
      <trkpt lat="43.63083" lon="6.84272">
        <ele>240</ele>
        <time>2015-04-06T08:34:43Z</time>
      </trkpt>
      <trkpt lat="43.63083" lon="6.84272">
        <ele>240</ele>
        <time>2015-04-06T08:34:48Z</time>
      </trkpt>
      <trkpt lat="43.63083" lon="6.84272">
        <ele>240</ele>
        <time>2015-04-06T08:34:53Z</time>
      </trkpt>
      <trkpt lat="43.63083" lon="6.84272">
        <ele>240</ele>
        <time>2015-04-06T08:34:58Z</time>
      </trkpt>
      <trkpt lat="43.63083" lon="6.84272">
        <ele>240</ele>
        <time>2015-04-06T08:35:03Z</time>
      </trkpt>
      <trkpt lat="43.63083" lon="6.84272">
        <ele>240</ele>
        <time>2015-04-06T08:35:08Z</time>
      </trkpt>
      <trkpt lat="43.63083" lon="6.84272">
        <ele>240</ele>
        <time>2015-04-06T08:35:13Z</time>
      </trkpt>
      <trkpt lat="43.63083" lon="6.84272">
        <ele>240</ele>
        <time>2015-04-06T08:35:18Z</time>
      </trkpt>
      <trkpt lat="43.63083" lon="6.84272">
        <ele>240</ele>
        <time>2015-04-06T08:35:23Z</time>
      </trkpt>
      <trkpt lat="43.63083" lon="6.84272">
        <ele>240</ele>
        <time>2015-04-06T08:35:28Z</time>
      </trkpt>
      <trkpt lat="43.63083" lon="6.84272">
        <ele>240</ele>
        <time>2015-04-06T08:35:33Z</time>
      </trkpt>
      <trkpt lat="43.63083" lon="6.84272">
        <ele>240</ele>
        <time>2015-04-06T08:35:38Z</time>
      </trkpt>
      <trkpt lat="43.63083" lon="6.84273">
        <ele>240</ele>
        <time>2015-04-06T08:35:43Z</time>
      </trkpt>
      <trkpt lat="43.63082" lon="6.84273">
        <ele>241</ele>
        <time>2015-04-06T08:35:48Z</time>
      </trkpt>
      <trkpt lat="43.63082" lon="6.84273">
        <ele>241</ele>
        <time>2015-04-06T08:35:53Z</time>
      </trkpt>
      <trkpt lat="43.63082" lon="6.84273">
        <ele>241</ele>
        <time>2015-04-06T08:35:58Z</time>
      </trkpt>
      <trkpt lat="43.63082" lon="6.84273">
        <ele>241</ele>
        <time>2015-04-06T08:36:03Z</time>
      </trkpt>
      <trkpt lat="43.63082" lon="6.84273">
        <ele>241</ele>
        <time>2015-04-06T08:36:08Z</time>
      </trkpt>
      <trkpt lat="43.63082" lon="6.84273">
        <ele>241</ele>
        <time>2015-04-06T08:36:13Z</time>
      </trkpt>
      <trkpt lat="43.63082" lon="6.84273">
        <ele>241</ele>
        <time>2015-04-06T08:36:18Z</time>
      </trkpt>
      <trkpt lat="43.63082" lon="6.84273">
        <ele>241</ele>
        <time>2015-04-06T08:36:23Z</time>
      </trkpt>
      <trkpt lat="43.63082" lon="6.84273">
        <ele>241</ele>
        <time>2015-04-06T08:36:28Z</time>
      </trkpt>
      <trkpt lat="43.63082" lon="6.84273">
        <ele>241</ele>
        <time>2015-04-06T08:36:33Z</time>
      </trkpt>
      <trkpt lat="43.63082" lon="6.84274">
        <ele>241</ele>
        <time>2015-04-06T08:36:38Z</time>
      </trkpt>
      <trkpt lat="43.63082" lon="6.84274">
        <ele>240</ele>
        <time>2015-04-06T08:36:45Z</time>
      </trkpt>
      <trkpt lat="43.63082" lon="6.84274">
        <ele>240</ele>
        <time>2015-04-06T08:36:48Z</time>
      </trkpt>
      <trkpt lat="43.63082" lon="6.84274">
        <ele>240</ele>
        <time>2015-04-06T08:36:53Z</time>
      </trkpt>
      <trkpt lat="43.63082" lon="6.84274">
        <ele>240</ele>
        <time>2015-04-06T08:36:58Z</time>
      </trkpt>
      <trkpt lat="43.63082" lon="6.84274">
        <ele>240</ele>
        <time>2015-04-06T08:37:03Z</time>
      </trkpt>
      <trkpt lat="43.63082" lon="6.84274">
        <ele>240</ele>
        <time>2015-04-06T08:37:08Z</time>
      </trkpt>
      <trkpt lat="43.63082" lon="6.84274">
        <ele>240</ele>
        <time>2015-04-06T08:37:13Z</time>
      </trkpt>
      <trkpt lat="43.63082" lon="6.84274">
        <ele>240</ele>
        <time>2015-04-06T08:37:21Z</time>
      </trkpt>
      <trkpt lat="43.63082" lon="6.84274">
        <ele>240</ele>
        <time>2015-04-06T08:37:23Z</time>
      </trkpt>
      <trkpt lat="43.63082" lon="6.84274">
        <ele>240</ele>
        <time>2015-04-06T08:37:28Z</time>
      </trkpt>
      <trkpt lat="43.63082" lon="6.84274">
        <ele>240</ele>
        <time>2015-04-06T08:37:33Z</time>
      </trkpt>
      <trkpt lat="43.63082" lon="6.84274">
        <ele>240</ele>
        <time>2015-04-06T08:37:38Z</time>
      </trkpt>
      <trkpt lat="43.63082" lon="6.84274">
        <ele>240</ele>
        <time>2015-04-06T08:37:43Z</time>
      </trkpt>
      <trkpt lat="43.63082" lon="6.84274">
        <ele>240</ele>
        <time>2015-04-06T08:37:48Z</time>
      </trkpt>
      <trkpt lat="43.63082" lon="6.84274">
        <ele>240</ele>
        <time>2015-04-06T08:37:53Z</time>
      </trkpt>
      <trkpt lat="43.63082" lon="6.84274">
        <ele>240</ele>
        <time>2015-04-06T08:37:58Z</time>
      </trkpt>
      <trkpt lat="43.63082" lon="6.84274">
        <ele>240</ele>
        <time>2015-04-06T08:38:03Z</time>
      </trkpt>
      <trkpt lat="43.63082" lon="6.84274">
        <ele>240</ele>
        <time>2015-04-06T08:38:11Z</time>
      </trkpt>
      <trkpt lat="43.63082" lon="6.84274">
        <ele>240</ele>
        <time>2015-04-06T08:38:13Z</time>
      </trkpt>
      <trkpt lat="43.63082" lon="6.84274">
        <ele>240</ele>
        <time>2015-04-06T08:38:21Z</time>
      </trkpt>
      <trkpt lat="43.63082" lon="6.84274">
        <ele>240</ele>
        <time>2015-04-06T08:38:23Z</time>
      </trkpt>
      <trkpt lat="43.63082" lon="6.84274">
        <ele>240</ele>
        <time>2015-04-06T08:38:28Z</time>
      </trkpt>
      <trkpt lat="43.63082" lon="6.84274">
        <ele>240</ele>
        <time>2015-04-06T08:38:33Z</time>
      </trkpt>
      <trkpt lat="43.63082" lon="6.84274">
        <ele>240</ele>
        <time>2015-04-06T08:38:38Z</time>
      </trkpt>
      <trkpt lat="43.63082" lon="6.84274">
        <ele>240</ele>
        <time>2015-04-06T08:38:43Z</time>
      </trkpt>
      <trkpt lat="43.63082" lon="6.84274">
        <ele>240</ele>
        <time>2015-04-06T08:38:48Z</time>
      </trkpt>
      <trkpt lat="43.63082" lon="6.84274">
        <ele>240</ele>
        <time>2015-04-06T08:38:53Z</time>
      </trkpt>
      <trkpt lat="43.63082" lon="6.84274">
        <ele>240</ele>
        <time>2015-04-06T08:38:58Z</time>
      </trkpt>
      <trkpt lat="43.63082" lon="6.84274">
        <ele>240</ele>
        <time>2015-04-06T08:39:03Z</time>
      </trkpt>
      <trkpt lat="43.63082" lon="6.84274">
        <ele>240</ele>
        <time>2015-04-06T08:39:08Z</time>
      </trkpt>
      <trkpt lat="43.63082" lon="6.84274">
        <ele>240</ele>
        <time>2015-04-06T08:39:13Z</time>
      </trkpt>
      <trkpt lat="43.63082" lon="6.84274">
        <ele>240</ele>
        <time>2015-04-06T08:39:18Z</time>
      </trkpt>
      <trkpt lat="43.63082" lon="6.84274">
        <ele>240</ele>
        <time>2015-04-06T08:39:23Z</time>
      </trkpt>
      <trkpt lat="43.63082" lon="6.84274">
        <ele>240</ele>
        <time>2015-04-06T08:39:28Z</time>
      </trkpt>
      <trkpt lat="43.63082" lon="6.84274">
        <ele>240</ele>
        <time>2015-04-06T08:39:33Z</time>
      </trkpt>
      <trkpt lat="43.63082" lon="6.84274">
        <ele>240</ele>
        <time>2015-04-06T08:39:38Z</time>
      </trkpt>
      <trkpt lat="43.63082" lon="6.84274">
        <ele>240</ele>
        <time>2015-04-06T08:39:44Z</time>
      </trkpt>
      <trkpt lat="43.63082" lon="6.84274">
        <ele>241</ele>
        <time>2015-04-06T08:39:48Z</time>
      </trkpt>
      <trkpt lat="43.63082" lon="6.84274">
        <ele>241</ele>
        <time>2015-04-06T08:39:53Z</time>
      </trkpt>
      <trkpt lat="43.63082" lon="6.84274">
        <ele>241</ele>
        <time>2015-04-06T08:39:58Z</time>
      </trkpt>
      <trkpt lat="43.63082" lon="6.84274">
        <ele>241</ele>
        <time>2015-04-06T08:40:03Z</time>
      </trkpt>
      <trkpt lat="43.63082" lon="6.84274">
        <ele>241</ele>
        <time>2015-04-06T08:40:08Z</time>
      </trkpt>
      <trkpt lat="43.63082" lon="6.84274">
        <ele>241</ele>
        <time>2015-04-06T08:40:13Z</time>
      </trkpt>
      <trkpt lat="43.63082" lon="6.84274">
        <ele>241</ele>
        <time>2015-04-06T08:40:18Z</time>
      </trkpt>
      <trkpt lat="43.63082" lon="6.84274">
        <ele>241</ele>
        <time>2015-04-06T08:40:23Z</time>
      </trkpt>
      <trkpt lat="43.63082" lon="6.84274">
        <ele>241</ele>
        <time>2015-04-06T08:40:28Z</time>
      </trkpt>
      <trkpt lat="43.63082" lon="6.84274">
        <ele>241</ele>
        <time>2015-04-06T08:40:33Z</time>
      </trkpt>
      <trkpt lat="43.63082" lon="6.84272">
        <ele>241</ele>
        <time>2015-04-06T08:40:38Z</time>
      </trkpt>
      <trkpt lat="43.63083" lon="6.84273">
        <ele>241</ele>
        <time>2015-04-06T08:40:43Z</time>
      </trkpt>
      <trkpt lat="43.63084" lon="6.84279">
        <ele>244</ele>
        <time>2015-04-06T08:40:49Z</time>
      </trkpt>
      <trkpt lat="43.63083" lon="6.84287">
        <ele>244</ele>
        <time>2015-04-06T08:40:53Z</time>
      </trkpt>
      <trkpt lat="43.63086" lon="6.84299">
        <ele>243</ele>
        <time>2015-04-06T08:40:58Z</time>
      </trkpt>
      <trkpt lat="43.63077" lon="6.84317">
        <ele>246</ele>
        <time>2015-04-06T08:41:07Z</time>
      </trkpt>
      <trkpt lat="43.63075" lon="6.84319">
        <ele>246</ele>
        <time>2015-04-06T08:41:08Z</time>
      </trkpt>
      <trkpt lat="43.63067" lon="6.84328">
        <ele>246</ele>
        <time>2015-04-06T08:41:15Z</time>
      </trkpt>
      <trkpt lat="43.63067" lon="6.84329">
        <ele>246</ele>
        <time>2015-04-06T08:41:18Z</time>
      </trkpt>
      <trkpt lat="43.63067" lon="6.8433">
        <ele>246</ele>
        <time>2015-04-06T08:41:23Z</time>
      </trkpt>
      <trkpt lat="43.63045" lon="6.84354">
        <ele>240</ele>
        <time>2015-04-06T08:41:31Z</time>
      </trkpt>
      <trkpt lat="43.6304" lon="6.84377">
        <ele>239</ele>
        <time>2015-04-06T08:41:33Z</time>
      </trkpt>
      <trkpt lat="43.6306" lon="6.84424">
        <ele>237</ele>
        <time>2015-04-06T08:41:39Z</time>
      </trkpt>
      <trkpt lat="43.63096" lon="6.84453">
        <ele>234</ele>
        <time>2015-04-06T08:41:47Z</time>
      </trkpt>
      <trkpt lat="43.63097" lon="6.8445">
        <ele>235</ele>
        <time>2015-04-06T08:41:48Z</time>
      </trkpt>
      <trkpt lat="43.63111" lon="6.84464">
        <ele>233</ele>
        <time>2015-04-06T08:41:56Z</time>
      </trkpt>
      <trkpt lat="43.63112" lon="6.84465">
        <ele>233</ele>
        <time>2015-04-06T08:41:58Z</time>
      </trkpt>
      <trkpt lat="43.63116" lon="6.8447">
        <ele>233</ele>
        <time>2015-04-06T08:42:05Z</time>
      </trkpt>
      <trkpt lat="43.63128" lon="6.84482">
        <ele>233</ele>
        <time>2015-04-06T08:42:10Z</time>
      </trkpt>
      <trkpt lat="43.6314" lon="6.84492">
        <ele>233</ele>
        <time>2015-04-06T08:42:14Z</time>
      </trkpt>
      <trkpt lat="43.63152" lon="6.84503">
        <ele>233</ele>
        <time>2015-04-06T08:42:18Z</time>
      </trkpt>
      <trkpt lat="43.6317" lon="6.84518">
        <ele>234</ele>
        <time>2015-04-06T08:42:23Z</time>
      </trkpt>
      <trkpt lat="43.63185" lon="6.8453">
        <ele>236</ele>
        <time>2015-04-06T08:42:28Z</time>
      </trkpt>
      <trkpt lat="43.63214" lon="6.84549">
        <ele>238</ele>
        <time>2015-04-06T08:42:36Z</time>
      </trkpt>
      <trkpt lat="43.6322" lon="6.84558">
        <ele>238</ele>
        <time>2015-04-06T08:42:38Z</time>
      </trkpt>
      <trkpt lat="43.63232" lon="6.84578">
        <ele>237</ele>
        <time>2015-04-06T08:42:43Z</time>
      </trkpt>
      <trkpt lat="43.63248" lon="6.846">
        <ele>236</ele>
        <time>2015-04-06T08:42:48Z</time>
      </trkpt>
      <trkpt lat="43.63257" lon="6.84624">
        <ele>237</ele>
        <time>2015-04-06T08:42:53Z</time>
      </trkpt>
      <trkpt lat="43.63253" lon="6.8465">
        <ele>237</ele>
        <time>2015-04-06T08:42:58Z</time>
      </trkpt>
      <trkpt lat="43.6323" lon="6.84667">
        <ele>234</ele>
        <time>2015-04-06T08:43:04Z</time>
      </trkpt>
      <trkpt lat="43.63206" lon="6.84689">
        <ele>235</ele>
        <time>2015-04-06T08:43:10Z</time>
      </trkpt>
      <trkpt lat="43.6319" lon="6.84717">
        <ele>234</ele>
        <time>2015-04-06T08:43:17Z</time>
      </trkpt>
      <trkpt lat="43.63189" lon="6.84722">
        <ele>233</ele>
        <time>2015-04-06T08:43:18Z</time>
      </trkpt>
      <trkpt lat="43.63184" lon="6.84746">
        <ele>232</ele>
        <time>2015-04-06T08:43:23Z</time>
      </trkpt>
      <trkpt lat="43.63189" lon="6.84772">
        <ele>232</ele>
        <time>2015-04-06T08:43:28Z</time>
      </trkpt>
      <trkpt lat="43.632" lon="6.84801">
        <ele>232</ele>
        <time>2015-04-06T08:43:33Z</time>
      </trkpt>
      <trkpt lat="43.63217" lon="6.84843">
        <ele>234</ele>
        <time>2015-04-06T08:43:40Z</time>
      </trkpt>
      <trkpt lat="43.63229" lon="6.84867">
        <ele>234</ele>
        <time>2015-04-06T08:43:44Z</time>
      </trkpt>
      <trkpt lat="43.63246" lon="6.849">
        <ele>235</ele>
        <time>2015-04-06T08:43:50Z</time>
      </trkpt>
      <trkpt lat="43.63257" lon="6.84915">
        <ele>235</ele>
        <time>2015-04-06T08:43:53Z</time>
      </trkpt>
      <trkpt lat="43.63283" lon="6.8495">
        <ele>235</ele>
        <time>2015-04-06T08:44:00Z</time>
      </trkpt>
      <trkpt lat="43.63291" lon="6.84967">
        <ele>235</ele>
        <time>2015-04-06T08:44:03Z</time>
      </trkpt>
      <trkpt lat="43.63301" lon="6.84993">
        <ele>235</ele>
        <time>2015-04-06T08:44:08Z</time>
      </trkpt>
      <trkpt lat="43.633" lon="6.85">
        <ele>235</ele>
        <time>2015-04-06T08:44:14Z</time>
      </trkpt>
      <trkpt lat="43.63299" lon="6.85001">
        <ele>235</ele>
        <time>2015-04-06T08:44:18Z</time>
      </trkpt>
      <trkpt lat="43.63299" lon="6.85001">
        <ele>235</ele>
        <time>2015-04-06T08:44:23Z</time>
      </trkpt>
      <trkpt lat="43.63299" lon="6.85001">
        <ele>235</ele>
        <time>2015-04-06T08:44:28Z</time>
      </trkpt>
      <trkpt lat="43.63299" lon="6.85001">
        <ele>235</ele>
        <time>2015-04-06T08:44:34Z</time>
      </trkpt>
      <trkpt lat="43.63299" lon="6.85">
        <ele>235</ele>
        <time>2015-04-06T08:44:38Z</time>
      </trkpt>
      <trkpt lat="43.6329" lon="6.84995">
        <ele>233</ele>
        <time>2015-04-06T08:44:43Z</time>
      </trkpt>
      <trkpt lat="43.6323" lon="6.84974">
        <ele>231</ele>
        <time>2015-04-06T08:44:52Z</time>
      </trkpt>
      <trkpt lat="43.63219" lon="6.84961">
        <ele>232</ele>
        <time>2015-04-06T08:44:54Z</time>
      </trkpt>
      <trkpt lat="43.6319" lon="6.8493">
        <ele>233</ele>
        <time>2015-04-06T08:44:59Z</time>
      </trkpt>
      <trkpt lat="43.63172" lon="6.84908">
        <ele>231</ele>
        <time>2015-04-06T08:45:03Z</time>
      </trkpt>
      <trkpt lat="43.6315" lon="6.84883">
        <ele>229</ele>
        <time>2015-04-06T08:45:08Z</time>
      </trkpt>
      <trkpt lat="43.63101" lon="6.84843">
        <ele>225</ele>
        <time>2015-04-06T08:45:17Z</time>
      </trkpt>
      <trkpt lat="43.63094" lon="6.84841">
        <ele>225</ele>
        <time>2015-04-06T08:45:18Z</time>
      </trkpt>
      <trkpt lat="43.63057" lon="6.8483">
        <ele>222</ele>
        <time>2015-04-06T08:45:23Z</time>
      </trkpt>
      <trkpt lat="43.62993" lon="6.84849">
        <ele>219</ele>
        <time>2015-04-06T08:45:31Z</time>
      </trkpt>
      <trkpt lat="43.62967" lon="6.84865">
        <ele>217</ele>
        <time>2015-04-06T08:45:35Z</time>
      </trkpt>
      <trkpt lat="43.62938" lon="6.84903">
        <ele>216</ele>
        <time>2015-04-06T08:45:42Z</time>
      </trkpt>
      <trkpt lat="43.62925" lon="6.84922">
        <ele>217</ele>
        <time>2015-04-06T08:45:45Z</time>
      </trkpt>
      <trkpt lat="43.62898" lon="6.84955">
        <ele>218</ele>
        <time>2015-04-06T08:45:51Z</time>
      </trkpt>
      <trkpt lat="43.6289" lon="6.84966">
        <ele>220</ele>
        <time>2015-04-06T08:45:53Z</time>
      </trkpt>
      <trkpt lat="43.62876" lon="6.84999">
        <ele>220</ele>
        <time>2015-04-06T08:45:58Z</time>
      </trkpt>
      <trkpt lat="43.62867" lon="6.85034">
        <ele>222</ele>
        <time>2015-04-06T08:46:06Z</time>
      </trkpt>
      <trkpt lat="43.62865" lon="6.8504">
        <ele>222</ele>
        <time>2015-04-06T08:46:08Z</time>
      </trkpt>
      <trkpt lat="43.62855" lon="6.85057">
        <ele>223</ele>
        <time>2015-04-06T08:46:14Z</time>
      </trkpt>
      <trkpt lat="43.62848" lon="6.8507">
        <ele>224</ele>
        <time>2015-04-06T08:46:18Z</time>
      </trkpt>
      <trkpt lat="43.62841" lon="6.85087">
        <ele>225</ele>
        <time>2015-04-06T08:46:23Z</time>
      </trkpt>
      <trkpt lat="43.62836" lon="6.85103">
        <ele>227</ele>
        <time>2015-04-06T08:46:28Z</time>
      </trkpt>
      <trkpt lat="43.62833" lon="6.85121">
        <ele>228</ele>
        <time>2015-04-06T08:46:33Z</time>
      </trkpt>
      <trkpt lat="43.62829" lon="6.85142">
        <ele>227</ele>
        <time>2015-04-06T08:46:39Z</time>
      </trkpt>
      <trkpt lat="43.62827" lon="6.85156">
        <ele>227</ele>
        <time>2015-04-06T08:46:43Z</time>
      </trkpt>
      <trkpt lat="43.62821" lon="6.85168">
        <ele>228</ele>
        <time>2015-04-06T08:46:48Z</time>
      </trkpt>
      <trkpt lat="43.62813" lon="6.85185">
        <ele>228</ele>
        <time>2015-04-06T08:46:55Z</time>
      </trkpt>
      <trkpt lat="43.62813" lon="6.85195">
        <ele>230</ele>
        <time>2015-04-06T08:46:58Z</time>
      </trkpt>
      <trkpt lat="43.62815" lon="6.85213">
        <ele>230</ele>
        <time>2015-04-06T08:47:04Z</time>
      </trkpt>
      <trkpt lat="43.62814" lon="6.85226">
        <ele>229</ele>
        <time>2015-04-06T08:47:08Z</time>
      </trkpt>
      <trkpt lat="43.6281" lon="6.85245">
        <ele>229</ele>
        <time>2015-04-06T08:47:15Z</time>
      </trkpt>
      <trkpt lat="43.62809" lon="6.85252">
        <ele>229</ele>
        <time>2015-04-06T08:47:18Z</time>
      </trkpt>
      <trkpt lat="43.62808" lon="6.85263">
        <ele>230</ele>
        <time>2015-04-06T08:47:23Z</time>
      </trkpt>
      <trkpt lat="43.62806" lon="6.85288">
        <ele>233</ele>
        <time>2015-04-06T08:47:31Z</time>
      </trkpt>
      <trkpt lat="43.62805" lon="6.85298">
        <ele>234</ele>
        <time>2015-04-06T08:47:34Z</time>
      </trkpt>
      <trkpt lat="43.62803" lon="6.85312">
        <ele>235</ele>
        <time>2015-04-06T08:47:38Z</time>
      </trkpt>
      <trkpt lat="43.628" lon="6.85324">
        <ele>236</ele>
        <time>2015-04-06T08:47:45Z</time>
      </trkpt>
      <trkpt lat="43.62801" lon="6.85324">
        <ele>236</ele>
        <time>2015-04-06T08:47:48Z</time>
      </trkpt>
      <trkpt lat="43.62801" lon="6.85324">
        <ele>236</ele>
        <time>2015-04-06T08:47:53Z</time>
      </trkpt>
      <trkpt lat="43.62801" lon="6.85324">
        <ele>236</ele>
        <time>2015-04-06T08:47:58Z</time>
      </trkpt>
      <trkpt lat="43.62801" lon="6.85324">
        <ele>236</ele>
        <time>2015-04-06T08:48:03Z</time>
      </trkpt>
      <trkpt lat="43.62801" lon="6.85324">
        <ele>236</ele>
        <time>2015-04-06T08:48:08Z</time>
      </trkpt>
      <trkpt lat="43.62801" lon="6.85324">
        <ele>236</ele>
        <time>2015-04-06T08:48:13Z</time>
      </trkpt>
      <trkpt lat="43.62784" lon="6.85335">
        <ele>235</ele>
        <time>2015-04-06T08:48:22Z</time>
      </trkpt>
      <trkpt lat="43.62773" lon="6.85341">
        <ele>234</ele>
        <time>2015-04-06T08:48:25Z</time>
      </trkpt>
      <trkpt lat="43.62762" lon="6.85351">
        <ele>233</ele>
        <time>2015-04-06T08:48:28Z</time>
      </trkpt>
      <trkpt lat="43.62742" lon="6.85379">
        <ele>232</ele>
        <time>2015-04-06T08:48:35Z</time>
      </trkpt>
      <trkpt lat="43.62731" lon="6.85392">
        <ele>229</ele>
        <time>2015-04-06T08:48:41Z</time>
      </trkpt>
      <trkpt lat="43.62721" lon="6.85401">
        <ele>230</ele>
        <time>2015-04-06T08:48:46Z</time>
      </trkpt>
      <trkpt lat="43.62717" lon="6.85404">
        <ele>231</ele>
        <time>2015-04-06T08:48:48Z</time>
      </trkpt>
      <trkpt lat="43.62707" lon="6.85416">
        <ele>233</ele>
        <time>2015-04-06T08:48:55Z</time>
      </trkpt>
      <trkpt lat="43.62704" lon="6.85422">
        <ele>232</ele>
        <time>2015-04-06T08:48:58Z</time>
      </trkpt>
      <trkpt lat="43.62692" lon="6.85433">
        <ele>233</ele>
        <time>2015-04-06T08:49:03Z</time>
      </trkpt>
      <trkpt lat="43.62675" lon="6.85447">
        <ele>234</ele>
        <time>2015-04-06T08:49:09Z</time>
      </trkpt>
      <trkpt lat="43.62655" lon="6.85475">
        <ele>233</ele>
        <time>2015-04-06T08:49:16Z</time>
      </trkpt>
      <trkpt lat="43.62647" lon="6.85482">
        <ele>233</ele>
        <time>2015-04-06T08:49:19Z</time>
      </trkpt>
      <trkpt lat="43.62637" lon="6.85487">
        <ele>233</ele>
        <time>2015-04-06T08:49:24Z</time>
      </trkpt>
      <trkpt lat="43.62633" lon="6.855">
        <ele>234</ele>
        <time>2015-04-06T08:49:28Z</time>
      </trkpt>
      <trkpt lat="43.62625" lon="6.85516">
        <ele>235</ele>
        <time>2015-04-06T08:49:33Z</time>
      </trkpt>
      <trkpt lat="43.62622" lon="6.85526">
        <ele>235</ele>
        <time>2015-04-06T08:49:38Z</time>
      </trkpt>
      <trkpt lat="43.62623" lon="6.85525">
        <ele>235</ele>
        <time>2015-04-06T08:49:43Z</time>
      </trkpt>
      <trkpt lat="43.62623" lon="6.85525">
        <ele>235</ele>
        <time>2015-04-06T08:49:48Z</time>
      </trkpt>
      <trkpt lat="43.62623" lon="6.85525">
        <ele>235</ele>
        <time>2015-04-06T08:49:53Z</time>
      </trkpt>
      <trkpt lat="43.6262" lon="6.85532">
        <ele>236</ele>
        <time>2015-04-06T08:49:59Z</time>
      </trkpt>
      <trkpt lat="43.62614" lon="6.8555">
        <ele>234</ele>
        <time>2015-04-06T08:50:04Z</time>
      </trkpt>
      <trkpt lat="43.6261" lon="6.85583">
        <ele>232</ele>
        <time>2015-04-06T08:50:09Z</time>
      </trkpt>
      <trkpt lat="43.62599" lon="6.85626">
        <ele>231</ele>
        <time>2015-04-06T08:50:16Z</time>
      </trkpt>
      <trkpt lat="43.62599" lon="6.85637">
        <ele>230</ele>
        <time>2015-04-06T08:50:18Z</time>
      </trkpt>
      <trkpt lat="43.62595" lon="6.85665">
        <ele>228</ele>
        <time>2015-04-06T08:50:23Z</time>
      </trkpt>
      <trkpt lat="43.62591" lon="6.85703">
        <ele>225</ele>
        <time>2015-04-06T08:50:29Z</time>
      </trkpt>
      <trkpt lat="43.62596" lon="6.85732">
        <ele>223</ele>
        <time>2015-04-06T08:50:34Z</time>
      </trkpt>
      <trkpt lat="43.62584" lon="6.85756">
        <ele>217</ele>
        <time>2015-04-06T08:50:38Z</time>
      </trkpt>
      <trkpt lat="43.62584" lon="6.85801">
        <ele>215</ele>
        <time>2015-04-06T08:50:43Z</time>
      </trkpt>
      <trkpt lat="43.6259" lon="6.85843">
        <ele>214</ele>
        <time>2015-04-06T08:50:48Z</time>
      </trkpt>
      <trkpt lat="43.62596" lon="6.85882">
        <ele>214</ele>
        <time>2015-04-06T08:50:54Z</time>
      </trkpt>
      <trkpt lat="43.62603" lon="6.85909">
        <ele>213</ele>
        <time>2015-04-06T08:50:58Z</time>
      </trkpt>
      <trkpt lat="43.62615" lon="6.85939">
        <ele>213</ele>
        <time>2015-04-06T08:51:03Z</time>
      </trkpt>
      <trkpt lat="43.62626" lon="6.85955">
        <ele>213</ele>
        <time>2015-04-06T08:51:10Z</time>
      </trkpt>
      <trkpt lat="43.62628" lon="6.85957">
        <ele>214</ele>
        <time>2015-04-06T08:51:13Z</time>
      </trkpt>
      <trkpt lat="43.62633" lon="6.85962">
        <ele>214</ele>
        <time>2015-04-06T08:51:19Z</time>
      </trkpt>
      <trkpt lat="43.62638" lon="6.85968">
        <ele>214</ele>
        <time>2015-04-06T08:51:23Z</time>
      </trkpt>
      <trkpt lat="43.62639" lon="6.85974">
        <ele>215</ele>
        <time>2015-04-06T08:51:28Z</time>
      </trkpt>
      <trkpt lat="43.62639" lon="6.85974">
        <ele>214</ele>
        <time>2015-04-06T08:51:33Z</time>
      </trkpt>
      <trkpt lat="43.6264" lon="6.85974">
        <ele>214</ele>
        <time>2015-04-06T08:51:38Z</time>
      </trkpt>
      <trkpt lat="43.6264" lon="6.85974">
        <ele>214</ele>
        <time>2015-04-06T08:51:43Z</time>
      </trkpt>
      <trkpt lat="43.62644" lon="6.8598">
        <ele>215</ele>
        <time>2015-04-06T08:51:48Z</time>
      </trkpt>
      <trkpt lat="43.62651" lon="6.85996">
        <ele>216</ele>
        <time>2015-04-06T08:51:53Z</time>
      </trkpt>
      <trkpt lat="43.62661" lon="6.86016">
        <ele>216</ele>
        <time>2015-04-06T08:51:58Z</time>
      </trkpt>
      <trkpt lat="43.62678" lon="6.86039">
        <ele>217</ele>
        <time>2015-04-06T08:52:05Z</time>
      </trkpt>
      <trkpt lat="43.62684" lon="6.8605">
        <ele>217</ele>
        <time>2015-04-06T08:52:08Z</time>
      </trkpt>
      <trkpt lat="43.62691" lon="6.86067">
        <ele>217</ele>
        <time>2015-04-06T08:52:13Z</time>
      </trkpt>
      <trkpt lat="43.62675" lon="6.86091">
        <ele>214</ele>
        <time>2015-04-06T08:52:18Z</time>
      </trkpt>
      <trkpt lat="43.62663" lon="6.86122">
        <ele>212</ele>
        <time>2015-04-06T08:52:23Z</time>
      </trkpt>
      <trkpt lat="43.62657" lon="6.8614">
        <ele>214</ele>
        <time>2015-04-06T08:52:28Z</time>
      </trkpt>
      <trkpt lat="43.62646" lon="6.86144">
        <ele>213</ele>
        <time>2015-04-06T08:52:33Z</time>
      </trkpt>
      <trkpt lat="43.62622" lon="6.86143">
        <ele>213</ele>
        <time>2015-04-06T08:52:41Z</time>
      </trkpt>
      <trkpt lat="43.62624" lon="6.86143">
        <ele>213</ele>
        <time>2015-04-06T08:52:43Z</time>
      </trkpt>
      <trkpt lat="43.62624" lon="6.86143">
        <ele>213</ele>
        <time>2015-04-06T08:52:48Z</time>
      </trkpt>
      <trkpt lat="43.62624" lon="6.86143">
        <ele>213</ele>
        <time>2015-04-06T08:52:53Z</time>
      </trkpt>
      <trkpt lat="43.62624" lon="6.86143">
        <ele>213</ele>
        <time>2015-04-06T08:52:58Z</time>
      </trkpt>
      <trkpt lat="43.62624" lon="6.86143">
        <ele>213</ele>
        <time>2015-04-06T08:53:03Z</time>
      </trkpt>
      <trkpt lat="43.62613" lon="6.86142">
        <ele>215</ele>
        <time>2015-04-06T08:53:09Z</time>
      </trkpt>
      <trkpt lat="43.62603" lon="6.86145">
        <ele>214</ele>
        <time>2015-04-06T08:53:13Z</time>
      </trkpt>
      <trkpt lat="43.62579" lon="6.86153">
        <ele>213</ele>
        <time>2015-04-06T08:53:22Z</time>
      </trkpt>
      <trkpt lat="43.62576" lon="6.86156">
        <ele>213</ele>
        <time>2015-04-06T08:53:23Z</time>
      </trkpt>
      <trkpt lat="43.6256" lon="6.86162">
        <ele>214</ele>
        <time>2015-04-06T08:53:28Z</time>
      </trkpt>
      <trkpt lat="43.62547" lon="6.86174">
        <ele>211</ele>
        <time>2015-04-06T08:53:33Z</time>
      </trkpt>
      <trkpt lat="43.62533" lon="6.8618">
        <ele>209</ele>
        <time>2015-04-06T08:53:38Z</time>
      </trkpt>
      <trkpt lat="43.62509" lon="6.862">
        <ele>209</ele>
        <time>2015-04-06T08:53:43Z</time>
      </trkpt>
      <trkpt lat="43.6249" lon="6.86228">
        <ele>209</ele>
        <time>2015-04-06T08:53:48Z</time>
      </trkpt>
      <trkpt lat="43.62454" lon="6.86289">
        <ele>206</ele>
        <time>2015-04-06T08:53:57Z</time>
      </trkpt>
      <trkpt lat="43.62427" lon="6.86263">
        <ele>205</ele>
        <time>2015-04-06T08:54:02Z</time>
      </trkpt>
      <trkpt lat="43.6242" lon="6.86258">
        <ele>205</ele>
        <time>2015-04-06T08:54:03Z</time>
      </trkpt>
      <trkpt lat="43.62387" lon="6.86232">
        <ele>205</ele>
        <time>2015-04-06T08:54:08Z</time>
      </trkpt>
      <trkpt lat="43.62362" lon="6.86192">
        <ele>203</ele>
        <time>2015-04-06T08:54:14Z</time>
      </trkpt>
      <trkpt lat="43.62349" lon="6.86149">
        <ele>203</ele>
        <time>2015-04-06T08:54:20Z</time>
      </trkpt>
      <trkpt lat="43.62338" lon="6.86126">
        <ele>206</ele>
        <time>2015-04-06T08:54:24Z</time>
      </trkpt>
      <trkpt lat="43.62326" lon="6.86105">
        <ele>206</ele>
        <time>2015-04-06T08:54:28Z</time>
      </trkpt>
      <trkpt lat="43.62299" lon="6.86075">
        <ele>208</ele>
        <time>2015-04-06T08:54:36Z</time>
      </trkpt>
      <trkpt lat="43.62285" lon="6.86066">
        <ele>208</ele>
        <time>2015-04-06T08:54:40Z</time>
      </trkpt>
      <trkpt lat="43.62272" lon="6.86061">
        <ele>207</ele>
        <time>2015-04-06T08:54:44Z</time>
      </trkpt>
      <trkpt lat="43.62262" lon="6.8606">
        <ele>207</ele>
        <time>2015-04-06T08:54:48Z</time>
      </trkpt>
      <trkpt lat="43.62243" lon="6.86064">
        <ele>207</ele>
        <time>2015-04-06T08:54:57Z</time>
      </trkpt>
      <trkpt lat="43.62239" lon="6.86065">
        <ele>207</ele>
        <time>2015-04-06T08:54:59Z</time>
      </trkpt>
      <trkpt lat="43.62232" lon="6.86066">
        <ele>207</ele>
        <time>2015-04-06T08:55:03Z</time>
      </trkpt>
      <trkpt lat="43.62222" lon="6.86067">
        <ele>209</ele>
        <time>2015-04-06T08:55:08Z</time>
      </trkpt>
      <trkpt lat="43.62213" lon="6.86069">
        <ele>208</ele>
        <time>2015-04-06T08:55:13Z</time>
      </trkpt>
      <trkpt lat="43.62204" lon="6.86073">
        <ele>209</ele>
        <time>2015-04-06T08:55:18Z</time>
      </trkpt>
      <trkpt lat="43.62195" lon="6.8608">
        <ele>210</ele>
        <time>2015-04-06T08:55:23Z</time>
      </trkpt>
      <trkpt lat="43.62186" lon="6.86089">
        <ele>212</ele>
        <time>2015-04-06T08:55:29Z</time>
      </trkpt>
      <trkpt lat="43.62177" lon="6.86096">
        <ele>213</ele>
        <time>2015-04-06T08:55:35Z</time>
      </trkpt>
      <trkpt lat="43.62171" lon="6.86103">
        <ele>213</ele>
        <time>2015-04-06T08:55:39Z</time>
      </trkpt>
      <trkpt lat="43.62166" lon="6.8611">
        <ele>213</ele>
        <time>2015-04-06T08:55:43Z</time>
      </trkpt>
      <trkpt lat="43.62154" lon="6.86125">
        <ele>214</ele>
        <time>2015-04-06T08:55:51Z</time>
      </trkpt>
      <trkpt lat="43.62147" lon="6.86129">
        <ele>216</ele>
        <time>2015-04-06T08:55:55Z</time>
      </trkpt>
      <trkpt lat="43.62141" lon="6.86129">
        <ele>217</ele>
        <time>2015-04-06T08:55:58Z</time>
      </trkpt>
      <trkpt lat="43.6213" lon="6.86125">
        <ele>220</ele>
        <time>2015-04-06T08:56:03Z</time>
      </trkpt>
      <trkpt lat="43.6211" lon="6.8612">
        <ele>220</ele>
        <time>2015-04-06T08:56:09Z</time>
      </trkpt>
      <trkpt lat="43.62092" lon="6.86121">
        <ele>220</ele>
        <time>2015-04-06T08:56:14Z</time>
      </trkpt>
      <trkpt lat="43.62067" lon="6.86121">
        <ele>223</ele>
        <time>2015-04-06T08:56:22Z</time>
      </trkpt>
      <trkpt lat="43.62061" lon="6.86122">
        <ele>223</ele>
        <time>2015-04-06T08:56:24Z</time>
      </trkpt>
      <trkpt lat="43.62041" lon="6.86109">
        <ele>223</ele>
        <time>2015-04-06T08:56:32Z</time>
      </trkpt>
      <trkpt lat="43.62035" lon="6.86105">
        <ele>223</ele>
        <time>2015-04-06T08:56:34Z</time>
      </trkpt>
      <trkpt lat="43.62025" lon="6.86084">
        <ele>224</ele>
        <time>2015-04-06T08:56:40Z</time>
      </trkpt>
      <trkpt lat="43.62007" lon="6.86084">
        <ele>226</ele>
        <time>2015-04-06T08:56:46Z</time>
      </trkpt>
      <trkpt lat="43.62003" lon="6.86089">
        <ele>226</ele>
        <time>2015-04-06T08:56:48Z</time>
      </trkpt>
      <trkpt lat="43.61995" lon="6.86104">
        <ele>227</ele>
        <time>2015-04-06T08:56:54Z</time>
      </trkpt>
      <trkpt lat="43.61988" lon="6.86114">
        <ele>227</ele>
        <time>2015-04-06T08:56:58Z</time>
      </trkpt>
      <trkpt lat="43.61983" lon="6.86129">
        <ele>228</ele>
        <time>2015-04-06T08:57:04Z</time>
      </trkpt>
      <trkpt lat="43.61984" lon="6.86154">
        <ele>229</ele>
        <time>2015-04-06T08:57:12Z</time>
      </trkpt>
      <trkpt lat="43.61983" lon="6.8616">
        <ele>230</ele>
        <time>2015-04-06T08:57:14Z</time>
      </trkpt>
      <trkpt lat="43.61978" lon="6.86171">
        <ele>230</ele>
        <time>2015-04-06T08:57:18Z</time>
      </trkpt>
      <trkpt lat="43.61971" lon="6.8618">
        <ele>231</ele>
        <time>2015-04-06T08:57:24Z</time>
      </trkpt>
      <trkpt lat="43.61962" lon="6.86196">
        <ele>230</ele>
        <time>2015-04-06T08:57:32Z</time>
      </trkpt>
      <trkpt lat="43.61958" lon="6.862">
        <ele>230</ele>
        <time>2015-04-06T08:57:34Z</time>
      </trkpt>
      <trkpt lat="43.61953" lon="6.86217">
        <ele>231</ele>
        <time>2015-04-06T08:57:40Z</time>
      </trkpt>
      <trkpt lat="43.61949" lon="6.86227">
        <ele>230</ele>
        <time>2015-04-06T08:57:44Z</time>
      </trkpt>
      <trkpt lat="43.61948" lon="6.86239">
        <ele>231</ele>
        <time>2015-04-06T08:57:48Z</time>
      </trkpt>
      <trkpt lat="43.61954" lon="6.86257">
        <ele>231</ele>
        <time>2015-04-06T08:57:54Z</time>
      </trkpt>
      <trkpt lat="43.61959" lon="6.86276">
        <ele>233</ele>
        <time>2015-04-06T08:58:00Z</time>
      </trkpt>
      <trkpt lat="43.6196" lon="6.86289">
        <ele>233</ele>
        <time>2015-04-06T08:58:04Z</time>
      </trkpt>
      <trkpt lat="43.6195" lon="6.86314">
        <ele>230</ele>
        <time>2015-04-06T08:58:12Z</time>
      </trkpt>
      <trkpt lat="43.61949" lon="6.86317">
        <ele>229</ele>
        <time>2015-04-06T08:58:13Z</time>
      </trkpt>
      <trkpt lat="43.61941" lon="6.86342">
        <ele>229</ele>
        <time>2015-04-06T08:58:20Z</time>
      </trkpt>
      <trkpt lat="43.61936" lon="6.86354">
        <ele>229</ele>
        <time>2015-04-06T08:58:24Z</time>
      </trkpt>
      <trkpt lat="43.61932" lon="6.86364">
        <ele>230</ele>
        <time>2015-04-06T08:58:28Z</time>
      </trkpt>
      <trkpt lat="43.61923" lon="6.86385">
        <ele>233</ele>
        <time>2015-04-06T08:58:36Z</time>
      </trkpt>
      <trkpt lat="43.61921" lon="6.86391">
        <ele>233</ele>
        <time>2015-04-06T08:58:38Z</time>
      </trkpt>
      <trkpt lat="43.61917" lon="6.86403">
        <ele>234</ele>
        <time>2015-04-06T08:58:43Z</time>
      </trkpt>
      <trkpt lat="43.61914" lon="6.86416">
        <ele>236</ele>
        <time>2015-04-06T08:58:48Z</time>
      </trkpt>
      <trkpt lat="43.61914" lon="6.86438">
        <ele>238</ele>
        <time>2015-04-06T08:58:56Z</time>
      </trkpt>
      <trkpt lat="43.61914" lon="6.86444">
        <ele>237</ele>
        <time>2015-04-06T08:58:58Z</time>
      </trkpt>
      <trkpt lat="43.61908" lon="6.86456">
        <ele>237</ele>
        <time>2015-04-06T08:59:03Z</time>
      </trkpt>
      <trkpt lat="43.61904" lon="6.86475">
        <ele>240</ele>
        <time>2015-04-06T08:59:10Z</time>
      </trkpt>
      <trkpt lat="43.61901" lon="6.86485">
        <ele>241</ele>
        <time>2015-04-06T08:59:14Z</time>
      </trkpt>
      <trkpt lat="43.61902" lon="6.86496">
        <ele>243</ele>
        <time>2015-04-06T08:59:18Z</time>
      </trkpt>
      <trkpt lat="43.61905" lon="6.86512">
        <ele>243</ele>
        <time>2015-04-06T08:59:24Z</time>
      </trkpt>
      <trkpt lat="43.61908" lon="6.86532">
        <ele>245</ele>
        <time>2015-04-06T08:59:32Z</time>
      </trkpt>
      <trkpt lat="43.61907" lon="6.86532">
        <ele>245</ele>
        <time>2015-04-06T08:59:36Z</time>
      </trkpt>
      <trkpt lat="43.61907" lon="6.86532">
        <ele>245</ele>
        <time>2015-04-06T08:59:38Z</time>
      </trkpt>
      <trkpt lat="43.61907" lon="6.86532">
        <ele>246</ele>
        <time>2015-04-06T08:59:44Z</time>
      </trkpt>
      <trkpt lat="43.61907" lon="6.86533">
        <ele>246</ele>
        <time>2015-04-06T08:59:48Z</time>
      </trkpt>
      <trkpt lat="43.61907" lon="6.86533">
        <ele>246</ele>
        <time>2015-04-06T08:59:53Z</time>
      </trkpt>
      <trkpt lat="43.61907" lon="6.86533">
        <ele>246</ele>
        <time>2015-04-06T08:59:58Z</time>
      </trkpt>
      <trkpt lat="43.61907" lon="6.86533">
        <ele>246</ele>
        <time>2015-04-06T09:00:04Z</time>
      </trkpt>
      <trkpt lat="43.61907" lon="6.86533">
        <ele>246</ele>
        <time>2015-04-06T09:00:08Z</time>
      </trkpt>
      <trkpt lat="43.61908" lon="6.86532">
        <ele>245</ele>
        <time>2015-04-06T09:00:14Z</time>
      </trkpt>
      <trkpt lat="43.61908" lon="6.86532">
        <ele>245</ele>
        <time>2015-04-06T09:00:18Z</time>
      </trkpt>
      <trkpt lat="43.61908" lon="6.86532">
        <ele>245</ele>
        <time>2015-04-06T09:00:26Z</time>
      </trkpt>
      <trkpt lat="43.61908" lon="6.86532">
        <ele>245</ele>
        <time>2015-04-06T09:00:28Z</time>
      </trkpt>
      <trkpt lat="43.61908" lon="6.86532">
        <ele>246</ele>
        <time>2015-04-06T09:00:34Z</time>
      </trkpt>
      <trkpt lat="43.61908" lon="6.86532">
        <ele>246</ele>
        <time>2015-04-06T09:00:38Z</time>
      </trkpt>
      <trkpt lat="43.61908" lon="6.86532">
        <ele>246</ele>
        <time>2015-04-06T09:00:44Z</time>
      </trkpt>
      <trkpt lat="43.61908" lon="6.86532">
        <ele>246</ele>
        <time>2015-04-06T09:00:48Z</time>
      </trkpt>
      <trkpt lat="43.61908" lon="6.86532">
        <ele>245</ele>
        <time>2015-04-06T09:00:53Z</time>
      </trkpt>
      <trkpt lat="43.61908" lon="6.86531">
        <ele>245</ele>
        <time>2015-04-06T09:00:58Z</time>
      </trkpt>
      <trkpt lat="43.61908" lon="6.86531">
        <ele>245</ele>
        <time>2015-04-06T09:01:04Z</time>
      </trkpt>
      <trkpt lat="43.61908" lon="6.86531">
        <ele>245</ele>
        <time>2015-04-06T09:01:08Z</time>
      </trkpt>
      <trkpt lat="43.61908" lon="6.86531">
        <ele>245</ele>
        <time>2015-04-06T09:01:13Z</time>
      </trkpt>
      <trkpt lat="43.61908" lon="6.86531">
        <ele>245</ele>
        <time>2015-04-06T09:01:18Z</time>
      </trkpt>
      <trkpt lat="43.61908" lon="6.86531">
        <ele>245</ele>
        <time>2015-04-06T09:01:23Z</time>
      </trkpt>
      <trkpt lat="43.61908" lon="6.86531">
        <ele>245</ele>
        <time>2015-04-06T09:01:28Z</time>
      </trkpt>
      <trkpt lat="43.61908" lon="6.86531">
        <ele>245</ele>
        <time>2015-04-06T09:01:33Z</time>
      </trkpt>
      <trkpt lat="43.61908" lon="6.86531">
        <ele>245</ele>
        <time>2015-04-06T09:01:38Z</time>
      </trkpt>
      <trkpt lat="43.61908" lon="6.86531">
        <ele>245</ele>
        <time>2015-04-06T09:01:44Z</time>
      </trkpt>
      <trkpt lat="43.61908" lon="6.86531">
        <ele>245</ele>
        <time>2015-04-06T09:01:48Z</time>
      </trkpt>
      <trkpt lat="43.61908" lon="6.86531">
        <ele>245</ele>
        <time>2015-04-06T09:01:54Z</time>
      </trkpt>
      <trkpt lat="43.61908" lon="6.86531">
        <ele>245</ele>
        <time>2015-04-06T09:01:58Z</time>
      </trkpt>
      <trkpt lat="43.61908" lon="6.86531">
        <ele>245</ele>
        <time>2015-04-06T09:02:04Z</time>
      </trkpt>
      <trkpt lat="43.61908" lon="6.86531">
        <ele>245</ele>
        <time>2015-04-06T09:02:08Z</time>
      </trkpt>
      <trkpt lat="43.61908" lon="6.86531">
        <ele>245</ele>
        <time>2015-04-06T09:02:14Z</time>
      </trkpt>
      <trkpt lat="43.61908" lon="6.86531">
        <ele>245</ele>
        <time>2015-04-06T09:02:19Z</time>
      </trkpt>
      <trkpt lat="43.61908" lon="6.86531">
        <ele>245</ele>
        <time>2015-04-06T09:02:23Z</time>
      </trkpt>
      <trkpt lat="43.61908" lon="6.86531">
        <ele>245</ele>
        <time>2015-04-06T09:02:29Z</time>
      </trkpt>
      <trkpt lat="43.61908" lon="6.86531">
        <ele>245</ele>
        <time>2015-04-06T09:02:33Z</time>
      </trkpt>
      <trkpt lat="43.61908" lon="6.86531">
        <ele>245</ele>
        <time>2015-04-06T09:02:38Z</time>
      </trkpt>
      <trkpt lat="43.61908" lon="6.86531">
        <ele>245</ele>
        <time>2015-04-06T09:02:43Z</time>
      </trkpt>
      <trkpt lat="43.61908" lon="6.86531">
        <ele>245</ele>
        <time>2015-04-06T09:02:50Z</time>
      </trkpt>
      <trkpt lat="43.61908" lon="6.86531">
        <ele>245</ele>
        <time>2015-04-06T09:02:53Z</time>
      </trkpt>
      <trkpt lat="43.61908" lon="6.86531">
        <ele>245</ele>
        <time>2015-04-06T09:02:58Z</time>
      </trkpt>
      <trkpt lat="43.61908" lon="6.86531">
        <ele>245</ele>
        <time>2015-04-06T09:03:05Z</time>
      </trkpt>
      <trkpt lat="43.61908" lon="6.86531">
        <ele>245</ele>
        <time>2015-04-06T09:03:09Z</time>
      </trkpt>
      <trkpt lat="43.61908" lon="6.86531">
        <ele>245</ele>
        <time>2015-04-06T09:03:15Z</time>
      </trkpt>
      <trkpt lat="43.61908" lon="6.86531">
        <ele>245</ele>
        <time>2015-04-06T09:03:21Z</time>
      </trkpt>
      <trkpt lat="43.61908" lon="6.86531">
        <ele>245</ele>
        <time>2015-04-06T09:03:24Z</time>
      </trkpt>
      <trkpt lat="43.61908" lon="6.86531">
        <ele>245</ele>
        <time>2015-04-06T09:03:28Z</time>
      </trkpt>
      <trkpt lat="43.61908" lon="6.86531">
        <ele>245</ele>
        <time>2015-04-06T09:03:34Z</time>
      </trkpt>
      <trkpt lat="43.61908" lon="6.86531">
        <ele>245</ele>
        <time>2015-04-06T09:03:40Z</time>
      </trkpt>
      <trkpt lat="43.6191" lon="6.86534">
        <ele>245</ele>
        <time>2015-04-06T09:03:46Z</time>
      </trkpt>
      <trkpt lat="43.61914" lon="6.86539">
        <ele>245</ele>
        <time>2015-04-06T09:03:48Z</time>
      </trkpt>
      <trkpt lat="43.61921" lon="6.86558">
        <ele>245</ele>
        <time>2015-04-06T09:03:54Z</time>
      </trkpt>
      <trkpt lat="43.61936" lon="6.86572">
        <ele>247</ele>
        <time>2015-04-06T09:04:00Z</time>
      </trkpt>
      <trkpt lat="43.61957" lon="6.86565">
        <ele>248</ele>
        <time>2015-04-06T09:04:07Z</time>
      </trkpt>
      <trkpt lat="43.6196" lon="6.86563">
        <ele>248</ele>
        <time>2015-04-06T09:04:08Z</time>
      </trkpt>
      <trkpt lat="43.61978" lon="6.86558">
        <ele>248</ele>
        <time>2015-04-06T09:04:14Z</time>
      </trkpt>
      <trkpt lat="43.61991" lon="6.86568">
        <ele>248</ele>
        <time>2015-04-06T09:04:19Z</time>
      </trkpt>
      <trkpt lat="43.62002" lon="6.86579">
        <ele>248</ele>
        <time>2015-04-06T09:04:24Z</time>
      </trkpt>
      <trkpt lat="43.62011" lon="6.86594">
        <ele>248</ele>
        <time>2015-04-06T09:04:29Z</time>
      </trkpt>
      <trkpt lat="43.62011" lon="6.8661">
        <ele>246</ele>
        <time>2015-04-06T09:04:33Z</time>
      </trkpt>
      <trkpt lat="43.62006" lon="6.86634">
        <ele>246</ele>
        <time>2015-04-06T09:04:38Z</time>
      </trkpt>
      <trkpt lat="43.61984" lon="6.8667">
        <ele>245</ele>
        <time>2015-04-06T09:04:47Z</time>
      </trkpt>
      <trkpt lat="43.61976" lon="6.86689">
        <ele>245</ele>
        <time>2015-04-06T09:04:51Z</time>
      </trkpt>
      <trkpt lat="43.61972" lon="6.86697">
        <ele>244</ele>
        <time>2015-04-06T09:04:53Z</time>
      </trkpt>
      <trkpt lat="43.61958" lon="6.86732">
        <ele>244</ele>
        <time>2015-04-06T09:05:01Z</time>
      </trkpt>
      <trkpt lat="43.61955" lon="6.8674">
        <ele>244</ele>
        <time>2015-04-06T09:05:03Z</time>
      </trkpt>
      <trkpt lat="43.61944" lon="6.86768">
        <ele>245</ele>
        <time>2015-04-06T09:05:11Z</time>
      </trkpt>
      <trkpt lat="43.6194" lon="6.86775">
        <ele>245</ele>
        <time>2015-04-06T09:05:13Z</time>
      </trkpt>
      <trkpt lat="43.61929" lon="6.86796">
        <ele>244</ele>
        <time>2015-04-06T09:05:19Z</time>
      </trkpt>
      <trkpt lat="43.61926" lon="6.8681">
        <ele>246</ele>
        <time>2015-04-06T09:05:23Z</time>
      </trkpt>
      <trkpt lat="43.61922" lon="6.86829">
        <ele>247</ele>
        <time>2015-04-06T09:05:28Z</time>
      </trkpt>
      <trkpt lat="43.61923" lon="6.86839">
        <ele>248</ele>
        <time>2015-04-06T09:05:33Z</time>
      </trkpt>
      <trkpt lat="43.61919" lon="6.86852">
        <ele>249</ele>
        <time>2015-04-06T09:05:39Z</time>
      </trkpt>
      <trkpt lat="43.61914" lon="6.86864">
        <ele>249</ele>
        <time>2015-04-06T09:05:45Z</time>
      </trkpt>
      <trkpt lat="43.61911" lon="6.8687">
        <ele>249</ele>
        <time>2015-04-06T09:05:48Z</time>
      </trkpt>
      <trkpt lat="43.61906" lon="6.86889">
        <ele>252</ele>
        <time>2015-04-06T09:05:57Z</time>
      </trkpt>
      <trkpt lat="43.61904" lon="6.86894">
        <ele>253</ele>
        <time>2015-04-06T09:06:01Z</time>
      </trkpt>
      <trkpt lat="43.61904" lon="6.86894">
        <ele>253</ele>
        <time>2015-04-06T09:06:03Z</time>
      </trkpt>
      <trkpt lat="43.61905" lon="6.86894">
        <ele>253</ele>
        <time>2015-04-06T09:06:08Z</time>
      </trkpt>
      <trkpt lat="43.61904" lon="6.86894">
        <ele>253</ele>
        <time>2015-04-06T09:06:13Z</time>
      </trkpt>
      <trkpt lat="43.61904" lon="6.86894">
        <ele>253</ele>
        <time>2015-04-06T09:06:18Z</time>
      </trkpt>
      <trkpt lat="43.61904" lon="6.86894">
        <ele>253</ele>
        <time>2015-04-06T09:06:23Z</time>
      </trkpt>
      <trkpt lat="43.61904" lon="6.86894">
        <ele>253</ele>
        <time>2015-04-06T09:06:28Z</time>
      </trkpt>
      <trkpt lat="43.61904" lon="6.86894">
        <ele>253</ele>
        <time>2015-04-06T09:06:33Z</time>
      </trkpt>
      <trkpt lat="43.61904" lon="6.86897">
        <ele>253</ele>
        <time>2015-04-06T09:06:39Z</time>
      </trkpt>
      <trkpt lat="43.619" lon="6.86913">
        <ele>253</ele>
        <time>2015-04-06T09:06:45Z</time>
      </trkpt>
      <trkpt lat="43.61897" lon="6.86922">
        <ele>252</ele>
        <time>2015-04-06T09:06:49Z</time>
      </trkpt>
      <trkpt lat="43.61895" lon="6.86932">
        <ele>252</ele>
        <time>2015-04-06T09:06:53Z</time>
      </trkpt>
      <trkpt lat="43.61888" lon="6.86952">
        <ele>252</ele>
        <time>2015-04-06T09:07:01Z</time>
      </trkpt>
      <trkpt lat="43.61885" lon="6.86963">
        <ele>253</ele>
        <time>2015-04-06T09:07:05Z</time>
      </trkpt>
      <trkpt lat="43.61881" lon="6.86975">
        <ele>255</ele>
        <time>2015-04-06T09:07:10Z</time>
      </trkpt>
      <trkpt lat="43.6188" lon="6.86984">
        <ele>256</ele>
        <time>2015-04-06T09:07:13Z</time>
      </trkpt>
      <trkpt lat="43.61883" lon="6.86998">
        <ele>257</ele>
        <time>2015-04-06T09:07:19Z</time>
      </trkpt>
      <trkpt lat="43.61886" lon="6.87013">
        <ele>258</ele>
        <time>2015-04-06T09:07:25Z</time>
      </trkpt>
      <trkpt lat="43.61885" lon="6.87024">
        <ele>259</ele>
        <time>2015-04-06T09:07:31Z</time>
      </trkpt>
      <trkpt lat="43.61886" lon="6.87034">
        <ele>261</ele>
        <time>2015-04-06T09:07:36Z</time>
      </trkpt>
      <trkpt lat="43.61886" lon="6.87038">
        <ele>261</ele>
        <time>2015-04-06T09:07:38Z</time>
      </trkpt>
      <trkpt lat="43.61888" lon="6.87048">
        <ele>262</ele>
        <time>2015-04-06T09:07:43Z</time>
      </trkpt>
      <trkpt lat="43.6189" lon="6.87062">
        <ele>264</ele>
        <time>2015-04-06T09:07:51Z</time>
      </trkpt>
      <trkpt lat="43.61893" lon="6.87064">
        <ele>264</ele>
        <time>2015-04-06T09:07:53Z</time>
      </trkpt>
      <trkpt lat="43.61902" lon="6.87072">
        <ele>264</ele>
        <time>2015-04-06T09:07:59Z</time>
      </trkpt>
      <trkpt lat="43.61909" lon="6.87081">
        <ele>265</ele>
        <time>2015-04-06T09:08:03Z</time>
      </trkpt>
      <trkpt lat="43.61923" lon="6.87094">
        <ele>265</ele>
        <time>2015-04-06T09:08:10Z</time>
      </trkpt>
      <trkpt lat="43.6194" lon="6.87098">
        <ele>266</ele>
        <time>2015-04-06T09:08:17Z</time>
      </trkpt>
      <trkpt lat="43.61948" lon="6.87098">
        <ele>266</ele>
        <time>2015-04-06T09:08:20Z</time>
      </trkpt>
      <trkpt lat="43.61964" lon="6.87093">
        <ele>267</ele>
        <time>2015-04-06T09:08:26Z</time>
      </trkpt>
      <trkpt lat="43.61974" lon="6.87091">
        <ele>268</ele>
        <time>2015-04-06T09:08:30Z</time>
      </trkpt>
      <trkpt lat="43.61982" lon="6.8709">
        <ele>267</ele>
        <time>2015-04-06T09:08:33Z</time>
      </trkpt>
      <trkpt lat="43.62007" lon="6.87085">
        <ele>266</ele>
        <time>2015-04-06T09:08:42Z</time>
      </trkpt>
      <trkpt lat="43.6201" lon="6.87085">
        <ele>266</ele>
        <time>2015-04-06T09:08:43Z</time>
      </trkpt>
      <trkpt lat="43.62024" lon="6.87088">
        <ele>265</ele>
        <time>2015-04-06T09:08:51Z</time>
      </trkpt>
      <trkpt lat="43.62024" lon="6.87088">
        <ele>265</ele>
        <time>2015-04-06T09:08:53Z</time>
      </trkpt>
      <trkpt lat="43.62024" lon="6.87088">
        <ele>265</ele>
        <time>2015-04-06T09:08:58Z</time>
      </trkpt>
      <trkpt lat="43.62031" lon="6.87092">
        <ele>263</ele>
        <time>2015-04-06T09:09:03Z</time>
      </trkpt>
      <trkpt lat="43.62036" lon="6.87098">
        <ele>260</ele>
        <time>2015-04-06T09:09:12Z</time>
      </trkpt>
      <trkpt lat="43.62036" lon="6.87098">
        <ele>260</ele>
        <time>2015-04-06T09:09:14Z</time>
      </trkpt>
      <trkpt lat="43.62036" lon="6.87099">
        <ele>260</ele>
        <time>2015-04-06T09:09:20Z</time>
      </trkpt>
      <trkpt lat="43.62036" lon="6.87111">
        <ele>259</ele>
        <time>2015-04-06T09:09:25Z</time>
      </trkpt>
      <trkpt lat="43.62049" lon="6.87121">
        <ele>256</ele>
        <time>2015-04-06T09:09:32Z</time>
      </trkpt>
      <trkpt lat="43.62056" lon="6.87127">
        <ele>256</ele>
        <time>2015-04-06T09:09:34Z</time>
      </trkpt>
      <trkpt lat="43.62075" lon="6.87146">
        <ele>254</ele>
        <time>2015-04-06T09:09:39Z</time>
      </trkpt>
      <trkpt lat="43.62087" lon="6.87164">
        <ele>255</ele>
        <time>2015-04-06T09:09:45Z</time>
      </trkpt>
      <trkpt lat="43.62087" lon="6.87171">
        <ele>255</ele>
        <time>2015-04-06T09:09:51Z</time>
      </trkpt>
      <trkpt lat="43.62088" lon="6.87171">
        <ele>255</ele>
        <time>2015-04-06T09:09:53Z</time>
      </trkpt>
      <trkpt lat="43.62088" lon="6.87171">
        <ele>255</ele>
        <time>2015-04-06T09:09:58Z</time>
      </trkpt>
      <trkpt lat="43.62088" lon="6.87171">
        <ele>255</ele>
        <time>2015-04-06T09:10:03Z</time>
      </trkpt>
      <trkpt lat="43.62088" lon="6.87171">
        <ele>255</ele>
        <time>2015-04-06T09:10:07Z</time>
      </trkpt>
      <trkpt lat="43.62088" lon="6.87171">
        <ele>255</ele>
        <time>2015-04-06T09:10:12Z</time>
      </trkpt>
      <trkpt lat="43.62072" lon="6.87198">
        <ele>252</ele>
        <time>2015-04-06T09:10:20Z</time>
      </trkpt>
      <trkpt lat="43.62073" lon="6.87211">
        <ele>252</ele>
        <time>2015-04-06T09:10:22Z</time>
      </trkpt>
      <trkpt lat="43.62071" lon="6.87239">
        <ele>254</ele>
        <time>2015-04-06T09:10:28Z</time>
      </trkpt>
      <trkpt lat="43.62072" lon="6.87265">
        <ele>254</ele>
        <time>2015-04-06T09:10:33Z</time>
      </trkpt>
      <trkpt lat="43.62072" lon="6.87287">
        <ele>253</ele>
        <time>2015-04-06T09:10:38Z</time>
      </trkpt>
      <trkpt lat="43.62075" lon="6.87315">
        <ele>251</ele>
        <time>2015-04-06T09:10:43Z</time>
      </trkpt>
      <trkpt lat="43.62084" lon="6.87345">
        <ele>252</ele>
        <time>2015-04-06T09:10:48Z</time>
      </trkpt>
      <trkpt lat="43.62098" lon="6.8737">
        <ele>251</ele>
        <time>2015-04-06T09:10:53Z</time>
      </trkpt>
      <trkpt lat="43.62123" lon="6.87406">
        <ele>252</ele>
        <time>2015-04-06T09:11:01Z</time>
      </trkpt>
      <trkpt lat="43.62126" lon="6.87409">
        <ele>252</ele>
        <time>2015-04-06T09:11:02Z</time>
      </trkpt>
      <trkpt lat="43.62136" lon="6.8742">
        <ele>253</ele>
        <time>2015-04-06T09:11:07Z</time>
      </trkpt>
      <trkpt lat="43.62149" lon="6.87435">
        <ele>256</ele>
        <time>2015-04-06T09:11:12Z</time>
      </trkpt>
      <trkpt lat="43.62163" lon="6.87449">
        <ele>255</ele>
        <time>2015-04-06T09:11:17Z</time>
      </trkpt>
      <trkpt lat="43.62179" lon="6.87463">
        <ele>255</ele>
        <time>2015-04-06T09:11:22Z</time>
      </trkpt>
      <trkpt lat="43.62185" lon="6.87469">
        <ele>253</ele>
        <time>2015-04-06T09:11:30Z</time>
      </trkpt>
      <trkpt lat="43.62185" lon="6.87469">
        <ele>253</ele>
        <time>2015-04-06T09:11:32Z</time>
      </trkpt>
      <trkpt lat="43.62184" lon="6.8747">
        <ele>253</ele>
        <time>2015-04-06T09:11:38Z</time>
      </trkpt>
      <trkpt lat="43.62183" lon="6.8747">
        <ele>253</ele>
        <time>2015-04-06T09:11:43Z</time>
      </trkpt>
      <trkpt lat="43.62187" lon="6.87474">
        <ele>253</ele>
        <time>2015-04-06T09:11:51Z</time>
      </trkpt>
      <trkpt lat="43.62192" lon="6.87477">
        <ele>254</ele>
        <time>2015-04-06T09:11:53Z</time>
      </trkpt>
      <trkpt lat="43.62216" lon="6.87495">
        <ele>254</ele>
        <time>2015-04-06T09:12:02Z</time>
      </trkpt>
      <trkpt lat="43.62218" lon="6.87495">
        <ele>254</ele>
        <time>2015-04-06T09:12:03Z</time>
      </trkpt>
      <trkpt lat="43.62235" lon="6.87499">
        <ele>253</ele>
        <time>2015-04-06T09:12:12Z</time>
      </trkpt>
      <trkpt lat="43.62237" lon="6.87498">
        <ele>253</ele>
        <time>2015-04-06T09:12:13Z</time>
      </trkpt>
      <trkpt lat="43.62242" lon="6.87497">
        <ele>254</ele>
        <time>2015-04-06T09:12:18Z</time>
      </trkpt>
      <trkpt lat="43.62246" lon="6.87497">
        <ele>252</ele>
        <time>2015-04-06T09:12:23Z</time>
      </trkpt>
      <trkpt lat="43.6225" lon="6.87496">
        <ele>252</ele>
        <time>2015-04-06T09:12:28Z</time>
      </trkpt>
      <trkpt lat="43.62261" lon="6.87496">
        <ele>252</ele>
        <time>2015-04-06T09:12:34Z</time>
      </trkpt>
      <trkpt lat="43.62269" lon="6.87496">
        <ele>253</ele>
        <time>2015-04-06T09:12:38Z</time>
      </trkpt>
      <trkpt lat="43.62284" lon="6.87499">
        <ele>254</ele>
        <time>2015-04-06T09:12:45Z</time>
      </trkpt>
      <trkpt lat="43.62292" lon="6.87501">
        <ele>255</ele>
        <time>2015-04-06T09:12:49Z</time>
      </trkpt>
      <trkpt lat="43.62302" lon="6.87503">
        <ele>256</ele>
        <time>2015-04-06T09:12:54Z</time>
      </trkpt>
      <trkpt lat="43.6231" lon="6.87502">
        <ele>258</ele>
        <time>2015-04-06T09:12:58Z</time>
      </trkpt>
      <trkpt lat="43.62323" lon="6.875">
        <ele>258</ele>
        <time>2015-04-06T09:13:04Z</time>
      </trkpt>
      <trkpt lat="43.62333" lon="6.87502">
        <ele>258</ele>
        <time>2015-04-06T09:13:08Z</time>
      </trkpt>
      <trkpt lat="43.62347" lon="6.87508">
        <ele>258</ele>
        <time>2015-04-06T09:13:13Z</time>
      </trkpt>
      <trkpt lat="43.62361" lon="6.87517">
        <ele>259</ele>
        <time>2015-04-06T09:13:18Z</time>
      </trkpt>
      <trkpt lat="43.62373" lon="6.87528">
        <ele>260</ele>
        <time>2015-04-06T09:13:23Z</time>
      </trkpt>
      <trkpt lat="43.62384" lon="6.87535">
        <ele>261</ele>
        <time>2015-04-06T09:13:28Z</time>
      </trkpt>
      <trkpt lat="43.62405" lon="6.87541">
        <ele>262</ele>
        <time>2015-04-06T09:13:36Z</time>
      </trkpt>
      <trkpt lat="43.6241" lon="6.87543">
        <ele>263</ele>
        <time>2015-04-06T09:13:38Z</time>
      </trkpt>
      <trkpt lat="43.62433" lon="6.87542">
        <ele>264</ele>
        <time>2015-04-06T09:13:47Z</time>
      </trkpt>
      <trkpt lat="43.62445" lon="6.87547">
        <ele>264</ele>
        <time>2015-04-06T09:13:52Z</time>
      </trkpt>
      <trkpt lat="43.62448" lon="6.87558">
        <ele>263</ele>
        <time>2015-04-06T09:13:55Z</time>
      </trkpt>
      <trkpt lat="43.62451" lon="6.87568">
        <ele>263</ele>
        <time>2015-04-06T09:13:58Z</time>
      </trkpt>
      <trkpt lat="43.62465" lon="6.87577">
        <ele>264</ele>
        <time>2015-04-06T09:14:05Z</time>
      </trkpt>
      <trkpt lat="43.62475" lon="6.8758">
        <ele>265</ele>
        <time>2015-04-06T09:14:09Z</time>
      </trkpt>
      <trkpt lat="43.6249" lon="6.87589">
        <ele>268</ele>
        <time>2015-04-06T09:14:15Z</time>
      </trkpt>
      <trkpt lat="43.625" lon="6.87596">
        <ele>271</ele>
        <time>2015-04-06T09:14:19Z</time>
      </trkpt>
      <trkpt lat="43.62509" lon="6.87604">
        <ele>271</ele>
        <time>2015-04-06T09:14:23Z</time>
      </trkpt>
      <trkpt lat="43.62521" lon="6.87619">
        <ele>270</ele>
        <time>2015-04-06T09:14:29Z</time>
      </trkpt>
      <trkpt lat="43.62527" lon="6.87628">
        <ele>270</ele>
        <time>2015-04-06T09:14:33Z</time>
      </trkpt>
      <trkpt lat="43.62536" lon="6.87637">
        <ele>269</ele>
        <time>2015-04-06T09:14:38Z</time>
      </trkpt>
      <trkpt lat="43.62544" lon="6.87646">
        <ele>269</ele>
        <time>2015-04-06T09:14:43Z</time>
      </trkpt>
      <trkpt lat="43.62554" lon="6.87661">
        <ele>270</ele>
        <time>2015-04-06T09:14:51Z</time>
      </trkpt>
      <trkpt lat="43.62563" lon="6.87669">
        <ele>269</ele>
        <time>2015-04-06T09:14:57Z</time>
      </trkpt>
      <trkpt lat="43.62565" lon="6.87671">
        <ele>269</ele>
        <time>2015-04-06T09:14:58Z</time>
      </trkpt>
      <trkpt lat="43.62576" lon="6.8769">
        <ele>271</ele>
        <time>2015-04-06T09:15:05Z</time>
      </trkpt>
      <trkpt lat="43.62573" lon="6.87697">
        <ele>271</ele>
        <time>2015-04-06T09:15:08Z</time>
      </trkpt>
      <trkpt lat="43.62559" lon="6.87719">
        <ele>272</ele>
        <time>2015-04-06T09:15:16Z</time>
      </trkpt>
      <trkpt lat="43.62556" lon="6.87725">
        <ele>273</ele>
        <time>2015-04-06T09:15:18Z</time>
      </trkpt>
      <trkpt lat="43.62544" lon="6.8775">
        <ele>276</ele>
        <time>2015-04-06T09:15:26Z</time>
      </trkpt>
      <trkpt lat="43.62541" lon="6.87755">
        <ele>276</ele>
        <time>2015-04-06T09:15:28Z</time>
      </trkpt>
      <trkpt lat="43.62532" lon="6.87771">
        <ele>277</ele>
        <time>2015-04-06T09:15:33Z</time>
      </trkpt>
      <trkpt lat="43.62526" lon="6.87791">
        <ele>277</ele>
        <time>2015-04-06T09:15:38Z</time>
      </trkpt>
      <trkpt lat="43.6252" lon="6.87811">
        <ele>277</ele>
        <time>2015-04-06T09:15:43Z</time>
      </trkpt>
      <trkpt lat="43.62512" lon="6.87837">
        <ele>277</ele>
        <time>2015-04-06T09:15:49Z</time>
      </trkpt>
      <trkpt lat="43.62507" lon="6.87855">
        <ele>278</ele>
        <time>2015-04-06T09:15:53Z</time>
      </trkpt>
      <trkpt lat="43.62501" lon="6.87877">
        <ele>278</ele>
        <time>2015-04-06T09:15:58Z</time>
      </trkpt>
      <trkpt lat="43.62497" lon="6.87899">
        <ele>278</ele>
        <time>2015-04-06T09:16:03Z</time>
      </trkpt>
      <trkpt lat="43.62494" lon="6.8792">
        <ele>279</ele>
        <time>2015-04-06T09:16:08Z</time>
      </trkpt>
      <trkpt lat="43.62494" lon="6.87935">
        <ele>278</ele>
        <time>2015-04-06T09:16:13Z</time>
      </trkpt>
      <trkpt lat="43.62492" lon="6.8795">
        <ele>279</ele>
        <time>2015-04-06T09:16:18Z</time>
      </trkpt>
      <trkpt lat="43.62491" lon="6.87973">
        <ele>280</ele>
        <time>2015-04-06T09:16:24Z</time>
      </trkpt>
      <trkpt lat="43.6249" lon="6.87989">
        <ele>280</ele>
        <time>2015-04-06T09:16:28Z</time>
      </trkpt>
      <trkpt lat="43.62486" lon="6.88013">
        <ele>281</ele>
        <time>2015-04-06T09:16:34Z</time>
      </trkpt>
      <trkpt lat="43.62486" lon="6.88029">
        <ele>281</ele>
        <time>2015-04-06T09:16:38Z</time>
      </trkpt>
      <trkpt lat="43.62483" lon="6.88052">
        <ele>281</ele>
        <time>2015-04-06T09:16:43Z</time>
      </trkpt>
      <trkpt lat="43.6248" lon="6.88079">
        <ele>280</ele>
        <time>2015-04-06T09:16:49Z</time>
      </trkpt>
      <trkpt lat="43.62477" lon="6.88097">
        <ele>279</ele>
        <time>2015-04-06T09:16:53Z</time>
      </trkpt>
      <trkpt lat="43.62474" lon="6.88123">
        <ele>279</ele>
        <time>2015-04-06T09:16:58Z</time>
      </trkpt>
      <trkpt lat="43.62464" lon="6.88165">
        <ele>277</ele>
        <time>2015-04-06T09:17:06Z</time>
      </trkpt>
      <trkpt lat="43.62462" lon="6.88176">
        <ele>277</ele>
        <time>2015-04-06T09:17:08Z</time>
      </trkpt>
      <trkpt lat="43.62452" lon="6.88212">
        <ele>276</ele>
        <time>2015-04-06T09:17:15Z</time>
      </trkpt>
      <trkpt lat="43.6245" lon="6.88227">
        <ele>275</ele>
        <time>2015-04-06T09:17:18Z</time>
      </trkpt>
      <trkpt lat="43.62456" lon="6.88253">
        <ele>274</ele>
        <time>2015-04-06T09:17:23Z</time>
      </trkpt>
      <trkpt lat="43.6246" lon="6.8828">
        <ele>273</ele>
        <time>2015-04-06T09:17:28Z</time>
      </trkpt>
      <trkpt lat="43.62464" lon="6.88314">
        <ele>272</ele>
        <time>2015-04-06T09:17:33Z</time>
      </trkpt>
      <trkpt lat="43.6247" lon="6.88354">
        <ele>270</ele>
        <time>2015-04-06T09:17:38Z</time>
      </trkpt>
      <trkpt lat="43.62484" lon="6.88408">
        <ele>268</ele>
        <time>2015-04-06T09:17:44Z</time>
      </trkpt>
      <trkpt lat="43.62492" lon="6.88451">
        <ele>267</ele>
        <time>2015-04-06T09:17:48Z</time>
      </trkpt>
      <trkpt lat="43.62493" lon="6.88504">
        <ele>267</ele>
        <time>2015-04-06T09:17:53Z</time>
      </trkpt>
      <trkpt lat="43.62493" lon="6.88545">
        <ele>266</ele>
        <time>2015-04-06T09:17:58Z</time>
      </trkpt>
      <trkpt lat="43.62498" lon="6.88584">
        <ele>268</ele>
        <time>2015-04-06T09:18:05Z</time>
      </trkpt>
      <trkpt lat="43.625" lon="6.88601">
        <ele>268</ele>
        <time>2015-04-06T09:18:08Z</time>
      </trkpt>
      <trkpt lat="43.62504" lon="6.88633">
        <ele>268</ele>
        <time>2015-04-06T09:18:13Z</time>
      </trkpt>
      <trkpt lat="43.62512" lon="6.88661">
        <ele>267</ele>
        <time>2015-04-06T09:18:18Z</time>
      </trkpt>
      <trkpt lat="43.62515" lon="6.8868">
        <ele>267</ele>
        <time>2015-04-06T09:18:24Z</time>
      </trkpt>
      <trkpt lat="43.62515" lon="6.88681">
        <ele>267</ele>
        <time>2015-04-06T09:18:28Z</time>
      </trkpt>
      <trkpt lat="43.62514" lon="6.8868">
        <ele>267</ele>
        <time>2015-04-06T09:18:33Z</time>
      </trkpt>
      <trkpt lat="43.62514" lon="6.8868">
        <ele>267</ele>
        <time>2015-04-06T09:18:38Z</time>
      </trkpt>
      <trkpt lat="43.62514" lon="6.8868">
        <ele>266</ele>
        <time>2015-04-06T09:18:43Z</time>
      </trkpt>
      <trkpt lat="43.62515" lon="6.8868">
        <ele>266</ele>
        <time>2015-04-06T09:18:48Z</time>
      </trkpt>
      <trkpt lat="43.62515" lon="6.8868">
        <ele>266</ele>
        <time>2015-04-06T09:18:52Z</time>
      </trkpt>
      <trkpt lat="43.62515" lon="6.8868">
        <ele>266</ele>
        <time>2015-04-06T09:18:57Z</time>
      </trkpt>
      <trkpt lat="43.62522" lon="6.8871">
        <ele>266</ele>
        <time>2015-04-06T09:19:05Z</time>
      </trkpt>
      <trkpt lat="43.62534" lon="6.8874">
        <ele>264</ele>
        <time>2015-04-06T09:19:09Z</time>
      </trkpt>
      <trkpt lat="43.62537" lon="6.8876">
        <ele>265</ele>
        <time>2015-04-06T09:19:13Z</time>
      </trkpt>
      <trkpt lat="43.62545" lon="6.88806">
        <ele>265</ele>
        <time>2015-04-06T09:19:20Z</time>
      </trkpt>
      <trkpt lat="43.62547" lon="6.88824">
        <ele>266</ele>
        <time>2015-04-06T09:19:23Z</time>
      </trkpt>
      <trkpt lat="43.62549" lon="6.88865">
        <ele>264</ele>
        <time>2015-04-06T09:19:29Z</time>
      </trkpt>
      <trkpt lat="43.62549" lon="6.88891">
        <ele>264</ele>
        <time>2015-04-06T09:19:32Z</time>
      </trkpt>
      <trkpt lat="43.62546" lon="6.88932">
        <ele>263</ele>
        <time>2015-04-06T09:19:38Z</time>
      </trkpt>
      <trkpt lat="43.6254" lon="6.88966">
        <ele>261</ele>
        <time>2015-04-06T09:19:43Z</time>
      </trkpt>
      <trkpt lat="43.62524" lon="6.89008">
        <ele>260</ele>
        <time>2015-04-06T09:19:47Z</time>
      </trkpt>
      <trkpt lat="43.62498" lon="6.89051">
        <ele>260</ele>
        <time>2015-04-06T09:19:54Z</time>
      </trkpt>
      <trkpt lat="43.62491" lon="6.89063">
        <ele>260</ele>
        <time>2015-04-06T09:19:57Z</time>
      </trkpt>
      <trkpt lat="43.62476" lon="6.89086">
        <ele>260</ele>
        <time>2015-04-06T09:20:03Z</time>
      </trkpt>
      <trkpt lat="43.62445" lon="6.89141">
        <ele>258</ele>
        <time>2015-04-06T09:20:12Z</time>
      </trkpt>
      <trkpt lat="43.62441" lon="6.89149">
        <ele>256</ele>
        <time>2015-04-06T09:20:12Z</time>
      </trkpt>
      <trkpt lat="43.62423" lon="6.89192">
        <ele>253</ele>
        <time>2015-04-06T09:20:18Z</time>
      </trkpt>
      <trkpt lat="43.62401" lon="6.89237">
        <ele>250</ele>
        <time>2015-04-06T09:20:23Z</time>
      </trkpt>
      <trkpt lat="43.62373" lon="6.89277">
        <ele>247</ele>
        <time>2015-04-06T09:20:28Z</time>
      </trkpt>
      <trkpt lat="43.62344" lon="6.89324">
        <ele>242</ele>
        <time>2015-04-06T09:20:33Z</time>
      </trkpt>
      <trkpt lat="43.62315" lon="6.89384">
        <ele>236</ele>
        <time>2015-04-06T09:20:39Z</time>
      </trkpt>
      <trkpt lat="43.62297" lon="6.89427">
        <ele>233</ele>
        <time>2015-04-06T09:20:42Z</time>
      </trkpt>
      <trkpt lat="43.62278" lon="6.89488">
        <ele>229</ele>
        <time>2015-04-06T09:20:47Z</time>
      </trkpt>
      <trkpt lat="43.62266" lon="6.8955">
        <ele>225</ele>
        <time>2015-04-06T09:20:53Z</time>
      </trkpt>
      <trkpt lat="43.6224" lon="6.89599">
        <ele>219</ele>
        <time>2015-04-06T09:20:58Z</time>
      </trkpt>
      <trkpt lat="43.62211" lon="6.89632">
        <ele>217</ele>
        <time>2015-04-06T09:21:02Z</time>
      </trkpt>
      <trkpt lat="43.62197" lon="6.89655">
        <ele>215</ele>
        <time>2015-04-06T09:21:07Z</time>
      </trkpt>
      <trkpt lat="43.62178" lon="6.89665">
        <ele>214</ele>
        <time>2015-04-06T09:21:14Z</time>
      </trkpt>
      <trkpt lat="43.6215" lon="6.89667">
        <ele>212</ele>
        <time>2015-04-06T09:21:21Z</time>
      </trkpt>
      <trkpt lat="43.62139" lon="6.89667">
        <ele>213</ele>
        <time>2015-04-06T09:21:24Z</time>
      </trkpt>
      <trkpt lat="43.62109" lon="6.89672">
        <ele>211</ele>
        <time>2015-04-06T09:21:32Z</time>
      </trkpt>
      <trkpt lat="43.62104" lon="6.89673">
        <ele>211</ele>
        <time>2015-04-06T09:21:33Z</time>
      </trkpt>
      <trkpt lat="43.62081" lon="6.89677">
        <ele>209</ele>
        <time>2015-04-06T09:21:38Z</time>
      </trkpt>
      <trkpt lat="43.62053" lon="6.89685">
        <ele>207</ele>
        <time>2015-04-06T09:21:44Z</time>
      </trkpt>
      <trkpt lat="43.62037" lon="6.89686">
        <ele>206</ele>
        <time>2015-04-06T09:21:49Z</time>
      </trkpt>
      <trkpt lat="43.62019" lon="6.89693">
        <ele>205</ele>
        <time>2015-04-06T09:21:53Z</time>
      </trkpt>
      <trkpt lat="43.61998" lon="6.89702">
        <ele>203</ele>
        <time>2015-04-06T09:22:00Z</time>
      </trkpt>
      <trkpt lat="43.61985" lon="6.89708">
        <ele>203</ele>
        <time>2015-04-06T09:22:03Z</time>
      </trkpt>
      <trkpt lat="43.61938" lon="6.89735">
        <ele>201</ele>
        <time>2015-04-06T09:22:11Z</time>
      </trkpt>
      <trkpt lat="43.61934" lon="6.89734">
        <ele>200</ele>
        <time>2015-04-06T09:22:12Z</time>
      </trkpt>
      <trkpt lat="43.61908" lon="6.89734">
        <ele>199</ele>
        <time>2015-04-06T09:22:20Z</time>
      </trkpt>
      <trkpt lat="43.61905" lon="6.89734">
        <ele>198</ele>
        <time>2015-04-06T09:22:23Z</time>
      </trkpt>
      <trkpt lat="43.61905" lon="6.89734">
        <ele>199</ele>
        <time>2015-04-06T09:22:27Z</time>
      </trkpt>
      <trkpt lat="43.61904" lon="6.89735">
        <ele>198</ele>
        <time>2015-04-06T09:22:33Z</time>
      </trkpt>
      <trkpt lat="43.61903" lon="6.89736">
        <ele>197</ele>
        <time>2015-04-06T09:22:38Z</time>
      </trkpt>
      <trkpt lat="43.61898" lon="6.89741">
        <ele>196</ele>
        <time>2015-04-06T09:22:43Z</time>
      </trkpt>
      <trkpt lat="43.61881" lon="6.89746">
        <ele>195</ele>
        <time>2015-04-06T09:22:48Z</time>
      </trkpt>
      <trkpt lat="43.61852" lon="6.89748">
        <ele>191</ele>
        <time>2015-04-06T09:22:54Z</time>
      </trkpt>
      <trkpt lat="43.61834" lon="6.89759">
        <ele>191</ele>
        <time>2015-04-06T09:22:58Z</time>
      </trkpt>
      <trkpt lat="43.61805" lon="6.89764">
        <ele>188</ele>
        <time>2015-04-06T09:23:05Z</time>
      </trkpt>
      <trkpt lat="43.61789" lon="6.89762">
        <ele>188</ele>
        <time>2015-04-06T09:23:09Z</time>
      </trkpt>
      <trkpt lat="43.61758" lon="6.8977">
        <ele>187</ele>
        <time>2015-04-06T09:23:16Z</time>
      </trkpt>
      <trkpt lat="43.6175" lon="6.89777">
        <ele>187</ele>
        <time>2015-04-06T09:23:19Z</time>
      </trkpt>
      <trkpt lat="43.61745" lon="6.8981">
        <ele>184</ele>
        <time>2015-04-06T09:23:26Z</time>
      </trkpt>
      <trkpt lat="43.61746" lon="6.89827">
        <ele>184</ele>
        <time>2015-04-06T09:23:29Z</time>
      </trkpt>
      <trkpt lat="43.61745" lon="6.89855">
        <ele>185</ele>
        <time>2015-04-06T09:23:34Z</time>
      </trkpt>
      <trkpt lat="43.61733" lon="6.89871">
        <ele>183</ele>
        <time>2015-04-06T09:23:38Z</time>
      </trkpt>
      <trkpt lat="43.6172" lon="6.89886">
        <ele>185</ele>
        <time>2015-04-06T09:23:43Z</time>
      </trkpt>
      <trkpt lat="43.61707" lon="6.89897">
        <ele>187</ele>
        <time>2015-04-06T09:23:48Z</time>
      </trkpt>
      <trkpt lat="43.61688" lon="6.89891">
        <ele>188</ele>
        <time>2015-04-06T09:23:54Z</time>
      </trkpt>
      <trkpt lat="43.61664" lon="6.89868">
        <ele>189</ele>
        <time>2015-04-06T09:24:01Z</time>
      </trkpt>
      <trkpt lat="43.61658" lon="6.89859">
        <ele>189</ele>
        <time>2015-04-06T09:24:03Z</time>
      </trkpt>
      <trkpt lat="43.61641" lon="6.89844">
        <ele>188</ele>
        <time>2015-04-06T09:24:08Z</time>
      </trkpt>
      <trkpt lat="43.61619" lon="6.89831">
        <ele>188</ele>
        <time>2015-04-06T09:24:13Z</time>
      </trkpt>
      <trkpt lat="43.61597" lon="6.89822">
        <ele>189</ele>
        <time>2015-04-06T09:24:18Z</time>
      </trkpt>
      <trkpt lat="43.61574" lon="6.89818">
        <ele>189</ele>
        <time>2015-04-06T09:24:23Z</time>
      </trkpt>
      <trkpt lat="43.61551" lon="6.89819">
        <ele>187</ele>
        <time>2015-04-06T09:24:28Z</time>
      </trkpt>
      <trkpt lat="43.61528" lon="6.89821">
        <ele>185</ele>
        <time>2015-04-06T09:24:33Z</time>
      </trkpt>
      <trkpt lat="43.61499" lon="6.89826">
        <ele>186</ele>
        <time>2015-04-06T09:24:39Z</time>
      </trkpt>
      <trkpt lat="43.61481" lon="6.89841">
        <ele>185</ele>
        <time>2015-04-06T09:24:43Z</time>
      </trkpt>
      <trkpt lat="43.6147" lon="6.89873">
        <ele>184</ele>
        <time>2015-04-06T09:24:48Z</time>
      </trkpt>
      <trkpt lat="43.61443" lon="6.89898">
        <ele>184</ele>
        <time>2015-04-06T09:24:55Z</time>
      </trkpt>
      <trkpt lat="43.6143" lon="6.89897">
        <ele>185</ele>
        <time>2015-04-06T09:24:58Z</time>
      </trkpt>
      <trkpt lat="43.61398" lon="6.89883">
        <ele>185</ele>
        <time>2015-04-06T09:25:07Z</time>
      </trkpt>
      <trkpt lat="43.61395" lon="6.89881">
        <ele>185</ele>
        <time>2015-04-06T09:25:08Z</time>
      </trkpt>
      <trkpt lat="43.61383" lon="6.89874">
        <ele>186</ele>
        <time>2015-04-06T09:25:13Z</time>
      </trkpt>
      <trkpt lat="43.61386" lon="6.89874">
        <ele>186</ele>
        <time>2015-04-06T09:25:18Z</time>
      </trkpt>
      <trkpt lat="43.61386" lon="6.89874">
        <ele>186</ele>
        <time>2015-04-06T09:25:23Z</time>
      </trkpt>
      <trkpt lat="43.61386" lon="6.89874">
        <ele>186</ele>
        <time>2015-04-06T09:25:28Z</time>
      </trkpt>
      <trkpt lat="43.61386" lon="6.89874">
        <ele>186</ele>
        <time>2015-04-06T09:25:33Z</time>
      </trkpt>
      <trkpt lat="43.61386" lon="6.89874">
        <ele>186</ele>
        <time>2015-04-06T09:25:38Z</time>
      </trkpt>
      <trkpt lat="43.61386" lon="6.89874">
        <ele>186</ele>
        <time>2015-04-06T09:25:43Z</time>
      </trkpt>
      <trkpt lat="43.61386" lon="6.89874">
        <ele>186</ele>
        <time>2015-04-06T09:25:48Z</time>
      </trkpt>
      <trkpt lat="43.61386" lon="6.89874">
        <ele>185</ele>
        <time>2015-04-06T09:25:53Z</time>
      </trkpt>
      <trkpt lat="43.61372" lon="6.89868">
        <ele>186</ele>
        <time>2015-04-06T09:25:58Z</time>
      </trkpt>
      <trkpt lat="43.61346" lon="6.89864">
        <ele>185</ele>
        <time>2015-04-06T09:26:04Z</time>
      </trkpt>
      <trkpt lat="43.61325" lon="6.89865">
        <ele>184</ele>
        <time>2015-04-06T09:26:09Z</time>
      </trkpt>
      <trkpt lat="43.613" lon="6.8988">
        <ele>182</ele>
        <time>2015-04-06T09:26:14Z</time>
      </trkpt>
      <trkpt lat="43.61275" lon="6.89901">
        <ele>178</ele>
        <time>2015-04-06T09:26:19Z</time>
      </trkpt>
      <trkpt lat="43.61259" lon="6.89925">
        <ele>179</ele>
        <time>2015-04-06T09:26:23Z</time>
      </trkpt>
      <trkpt lat="43.61235" lon="6.89971">
        <ele>178</ele>
        <time>2015-04-06T09:26:30Z</time>
      </trkpt>
      <trkpt lat="43.61224" lon="6.8999">
        <ele>177</ele>
        <time>2015-04-06T09:26:33Z</time>
      </trkpt>
      <trkpt lat="43.61212" lon="6.90018">
        <ele>176</ele>
        <time>2015-04-06T09:26:38Z</time>
      </trkpt>
      <trkpt lat="43.61222" lon="6.90043">
        <ele>175</ele>
        <time>2015-04-06T09:26:43Z</time>
      </trkpt>
      <trkpt lat="43.6125" lon="6.90054">
        <ele>172</ele>
        <time>2015-04-06T09:26:48Z</time>
      </trkpt>
      <trkpt lat="43.61274" lon="6.90091">
        <ele>170</ele>
        <time>2015-04-06T09:26:54Z</time>
      </trkpt>
      <trkpt lat="43.61278" lon="6.90111">
        <ele>171</ele>
        <time>2015-04-06T09:26:58Z</time>
      </trkpt>
      <trkpt lat="43.61279" lon="6.90154">
        <ele>173</ele>
        <time>2015-04-06T09:27:04Z</time>
      </trkpt>
      <trkpt lat="43.61277" lon="6.90171">
        <ele>172</ele>
        <time>2015-04-06T09:27:07Z</time>
      </trkpt>
      <trkpt lat="43.61277" lon="6.90198">
        <ele>172</ele>
        <time>2015-04-06T09:27:14Z</time>
      </trkpt>
      <trkpt lat="43.61278" lon="6.90206">
        <ele>173</ele>
        <time>2015-04-06T09:27:17Z</time>
      </trkpt>
      <trkpt lat="43.61279" lon="6.90219">
        <ele>173</ele>
        <time>2015-04-06T09:27:23Z</time>
      </trkpt>
      <trkpt lat="43.61279" lon="6.90218">
        <ele>173</ele>
        <time>2015-04-06T09:27:27Z</time>
      </trkpt>
      <trkpt lat="43.6128" lon="6.90219">
        <ele>172</ele>
        <time>2015-04-06T09:27:32Z</time>
      </trkpt>
      <trkpt lat="43.6128" lon="6.90218">
        <ele>172</ele>
        <time>2015-04-06T09:27:37Z</time>
      </trkpt>
      <trkpt lat="43.6128" lon="6.90218">
        <ele>172</ele>
        <time>2015-04-06T09:27:44Z</time>
      </trkpt>
      <trkpt lat="43.6128" lon="6.90218">
        <ele>172</ele>
        <time>2015-04-06T09:27:48Z</time>
      </trkpt>
      <trkpt lat="43.6128" lon="6.9022">
        <ele>171</ele>
        <time>2015-04-06T09:27:53Z</time>
      </trkpt>
      <trkpt lat="43.61282" lon="6.90253">
        <ele>172</ele>
        <time>2015-04-06T09:27:58Z</time>
      </trkpt>
      <trkpt lat="43.61295" lon="6.90296">
        <ele>171</ele>
        <time>2015-04-06T09:28:03Z</time>
      </trkpt>
      <trkpt lat="43.61286" lon="6.9032">
        <ele>170</ele>
        <time>2015-04-06T09:28:08Z</time>
      </trkpt>
      <trkpt lat="43.61268" lon="6.90343">
        <ele>171</ele>
        <time>2015-04-06T09:28:13Z</time>
      </trkpt>
      <trkpt lat="43.61257" lon="6.90382">
        <ele>171</ele>
        <time>2015-04-06T09:28:19Z</time>
      </trkpt>
      <trkpt lat="43.61261" lon="6.90408">
        <ele>170</ele>
        <time>2015-04-06T09:28:23Z</time>
      </trkpt>
      <trkpt lat="43.61281" lon="6.90427">
        <ele>168</ele>
        <time>2015-04-06T09:28:28Z</time>
      </trkpt>
      <trkpt lat="43.61303" lon="6.90445">
        <ele>167</ele>
        <time>2015-04-06T09:28:33Z</time>
      </trkpt>
      <trkpt lat="43.61325" lon="6.90462">
        <ele>165</ele>
        <time>2015-04-06T09:28:38Z</time>
      </trkpt>
      <trkpt lat="43.61348" lon="6.90475">
        <ele>164</ele>
        <time>2015-04-06T09:28:43Z</time>
      </trkpt>
      <trkpt lat="43.61345" lon="6.90507">
        <ele>163</ele>
        <time>2015-04-06T09:28:48Z</time>
      </trkpt>
      <trkpt lat="43.61319" lon="6.90516">
        <ele>161</ele>
        <time>2015-04-06T09:28:53Z</time>
      </trkpt>
      <trkpt lat="43.61282" lon="6.90527">
        <ele>159</ele>
        <time>2015-04-06T09:28:59Z</time>
      </trkpt>
      <trkpt lat="43.61281" lon="6.90555">
        <ele>156</ele>
        <time>2015-04-06T09:29:03Z</time>
      </trkpt>
      <trkpt lat="43.61279" lon="6.90596">
        <ele>155</ele>
        <time>2015-04-06T09:29:08Z</time>
      </trkpt>
      <trkpt lat="43.61257" lon="6.90644">
        <ele>152</ele>
        <time>2015-04-06T09:29:14Z</time>
      </trkpt>
      <trkpt lat="43.61251" lon="6.90688">
        <ele>148</ele>
        <time>2015-04-06T09:29:18Z</time>
      </trkpt>
      <trkpt lat="43.61243" lon="6.90763">
        <ele>144</ele>
        <time>2015-04-06T09:29:26Z</time>
      </trkpt>
      <trkpt lat="43.61246" lon="6.90771">
        <ele>144</ele>
        <time>2015-04-06T09:29:28Z</time>
      </trkpt>
      <trkpt lat="43.61243" lon="6.90798">
        <ele>141</ele>
        <time>2015-04-06T09:29:33Z</time>
      </trkpt>
      <trkpt lat="43.61219" lon="6.90824">
        <ele>138</ele>
        <time>2015-04-06T09:29:38Z</time>
      </trkpt>
      <trkpt lat="43.61198" lon="6.90849">
        <ele>135</ele>
        <time>2015-04-06T09:29:44Z</time>
      </trkpt>
      <trkpt lat="43.61184" lon="6.90841">
        <ele>132</ele>
        <time>2015-04-06T09:29:48Z</time>
      </trkpt>
      <trkpt lat="43.61173" lon="6.90817">
        <ele>129</ele>
        <time>2015-04-06T09:29:54Z</time>
      </trkpt>
      <trkpt lat="43.61187" lon="6.90797">
        <ele>125</ele>
        <time>2015-04-06T09:29:59Z</time>
      </trkpt>
      <trkpt lat="43.61183" lon="6.9078">
        <ele>124</ele>
        <time>2015-04-06T09:30:03Z</time>
      </trkpt>
      <trkpt lat="43.61175" lon="6.90764">
        <ele>125</ele>
        <time>2015-04-06T09:30:09Z</time>
      </trkpt>
      <trkpt lat="43.61175" lon="6.90748">
        <ele>125</ele>
        <time>2015-04-06T09:30:13Z</time>
      </trkpt>
      <trkpt lat="43.61172" lon="6.9072">
        <ele>125</ele>
        <time>2015-04-06T09:30:18Z</time>
      </trkpt>
      <trkpt lat="43.61177" lon="6.9069">
        <ele>125</ele>
        <time>2015-04-06T09:30:23Z</time>
      </trkpt>
      <trkpt lat="43.61178" lon="6.90655">
        <ele>124</ele>
        <time>2015-04-06T09:30:28Z</time>
      </trkpt>
      <trkpt lat="43.61171" lon="6.90627">
        <ele>122</ele>
        <time>2015-04-06T09:30:33Z</time>
      </trkpt>
      <trkpt lat="43.61183" lon="6.90578">
        <ele>122</ele>
        <time>2015-04-06T09:30:41Z</time>
      </trkpt>
      <trkpt lat="43.61182" lon="6.90545">
        <ele>120</ele>
        <time>2015-04-06T09:30:47Z</time>
      </trkpt>
      <trkpt lat="43.61179" lon="6.90542">
        <ele>119</ele>
        <time>2015-04-06T09:30:48Z</time>
      </trkpt>
      <trkpt lat="43.61153" lon="6.90533">
        <ele>117</ele>
        <time>2015-04-06T09:30:54Z</time>
      </trkpt>
      <trkpt lat="43.61145" lon="6.9051">
        <ele>115</ele>
        <time>2015-04-06T09:30:58Z</time>
      </trkpt>
      <trkpt lat="43.61152" lon="6.90482">
        <ele>116</ele>
        <time>2015-04-06T09:31:03Z</time>
      </trkpt>
      <trkpt lat="43.61159" lon="6.90455">
        <ele>114</ele>
        <time>2015-04-06T09:31:08Z</time>
      </trkpt>
      <trkpt lat="43.61153" lon="6.90422">
        <ele>113</ele>
        <time>2015-04-06T09:31:13Z</time>
      </trkpt>
      <trkpt lat="43.61139" lon="6.90396">
        <ele>114</ele>
        <time>2015-04-06T09:31:18Z</time>
      </trkpt>
      <trkpt lat="43.61128" lon="6.90365">
        <ele>112</ele>
        <time>2015-04-06T09:31:23Z</time>
      </trkpt>
      <trkpt lat="43.6113" lon="6.90327">
        <ele>111</ele>
        <time>2015-04-06T09:31:28Z</time>
      </trkpt>
      <trkpt lat="43.61133" lon="6.90291">
        <ele>111</ele>
        <time>2015-04-06T09:31:33Z</time>
      </trkpt>
      <trkpt lat="43.61143" lon="6.90263">
        <ele>112</ele>
        <time>2015-04-06T09:31:38Z</time>
      </trkpt>
      <trkpt lat="43.61164" lon="6.90222">
        <ele>110</ele>
        <time>2015-04-06T09:31:45Z</time>
      </trkpt>
      <trkpt lat="43.61161" lon="6.90203">
        <ele>110</ele>
        <time>2015-04-06T09:31:48Z</time>
      </trkpt>
      <trkpt lat="43.61128" lon="6.90181">
        <ele>112</ele>
        <time>2015-04-06T09:31:56Z</time>
      </trkpt>
      <trkpt lat="43.61119" lon="6.90184">
        <ele>112</ele>
        <time>2015-04-06T09:31:58Z</time>
      </trkpt>
      <trkpt lat="43.61085" lon="6.90172">
        <ele>111</ele>
        <time>2015-04-06T09:32:05Z</time>
      </trkpt>
      <trkpt lat="43.6107" lon="6.90161">
        <ele>110</ele>
        <time>2015-04-06T09:32:08Z</time>
      </trkpt>
      <trkpt lat="43.61048" lon="6.90144">
        <ele>110</ele>
        <time>2015-04-06T09:32:13Z</time>
      </trkpt>
      <trkpt lat="43.6103" lon="6.90119">
        <ele>108</ele>
        <time>2015-04-06T09:32:18Z</time>
      </trkpt>
      <trkpt lat="43.61009" lon="6.90097">
        <ele>106</ele>
        <time>2015-04-06T09:32:23Z</time>
      </trkpt>
      <trkpt lat="43.60988" lon="6.90063">
        <ele>105</ele>
        <time>2015-04-06T09:32:29Z</time>
      </trkpt>
      <trkpt lat="43.60965" lon="6.90046">
        <ele>104</ele>
        <time>2015-04-06T09:32:34Z</time>
      </trkpt>
      <trkpt lat="43.60958" lon="6.90014">
        <ele>102</ele>
        <time>2015-04-06T09:32:38Z</time>
      </trkpt>
      <trkpt lat="43.60964" lon="6.89948">
        <ele>99</ele>
        <time>2015-04-06T09:32:45Z</time>
      </trkpt>
      <trkpt lat="43.6097" lon="6.89921">
        <ele>97</ele>
        <time>2015-04-06T09:32:48Z</time>
      </trkpt>
      <trkpt lat="43.60997" lon="6.8986">
        <ele>94</ele>
        <time>2015-04-06T09:32:55Z</time>
      </trkpt>
      <trkpt lat="43.61003" lon="6.89836">
        <ele>92</ele>
        <time>2015-04-06T09:32:58Z</time>
      </trkpt>
      <trkpt lat="43.6101" lon="6.89767">
        <ele>85</ele>
        <time>2015-04-06T09:33:05Z</time>
      </trkpt>
      <trkpt lat="43.61025" lon="6.89705">
        <ele>81</ele>
        <time>2015-04-06T09:33:11Z</time>
      </trkpt>
      <trkpt lat="43.61031" lon="6.89686">
        <ele>79</ele>
        <time>2015-04-06T09:33:13Z</time>
      </trkpt>
      <trkpt lat="43.61055" lon="6.89649">
        <ele>74</ele>
        <time>2015-04-06T09:33:18Z</time>
      </trkpt>
      <trkpt lat="43.61097" lon="6.89637">
        <ele>68</ele>
        <time>2015-04-06T09:33:24Z</time>
      </trkpt>
      <trkpt lat="43.61116" lon="6.89611">
        <ele>65</ele>
        <time>2015-04-06T09:33:30Z</time>
      </trkpt>
      <trkpt lat="43.611" lon="6.89611">
        <ele>62</ele>
        <time>2015-04-06T09:33:33Z</time>
      </trkpt>
      <trkpt lat="43.61069" lon="6.89602">
        <ele>58</ele>
        <time>2015-04-06T09:33:38Z</time>
      </trkpt>
      <trkpt lat="43.6108" lon="6.89573">
        <ele>49</ele>
        <time>2015-04-06T09:33:46Z</time>
      </trkpt>
      <trkpt lat="43.61086" lon="6.89568">
        <ele>49</ele>
        <time>2015-04-06T09:33:47Z</time>
      </trkpt>
      <trkpt lat="43.61101" lon="6.89536">
        <ele>41</ele>
        <time>2015-04-06T09:33:56Z</time>
      </trkpt>
      <trkpt lat="43.61085" lon="6.8954">
        <ele>39</ele>
        <time>2015-04-06T09:33:59Z</time>
      </trkpt>
      <trkpt lat="43.61066" lon="6.89544">
        <ele>35</ele>
        <time>2015-04-06T09:34:02Z</time>
      </trkpt>
      <trkpt lat="43.61032" lon="6.89551">
        <ele>31</ele>
        <time>2015-04-06T09:34:07Z</time>
      </trkpt>
      <trkpt lat="43.60996" lon="6.89577">
        <ele>30</ele>
        <time>2015-04-06T09:34:14Z</time>
      </trkpt>
      <trkpt lat="43.60976" lon="6.89593">
        <ele>31</ele>
        <time>2015-04-06T09:34:18Z</time>
      </trkpt>
      <trkpt lat="43.60958" lon="6.89611">
        <ele>29</ele>
        <time>2015-04-06T09:34:23Z</time>
      </trkpt>
      <trkpt lat="43.6094" lon="6.8964">
        <ele>28</ele>
        <time>2015-04-06T09:34:28Z</time>
      </trkpt>
      <trkpt lat="43.60916" lon="6.89701">
        <ele>26</ele>
        <time>2015-04-06T09:34:37Z</time>
      </trkpt>
      <trkpt lat="43.60914" lon="6.89709">
        <ele>27</ele>
        <time>2015-04-06T09:34:38Z</time>
      </trkpt>
      <trkpt lat="43.60902" lon="6.89742">
        <ele>28</ele>
        <time>2015-04-06T09:34:43Z</time>
      </trkpt>
      <trkpt lat="43.6089" lon="6.89771">
        <ele>29</ele>
        <time>2015-04-06T09:34:48Z</time>
      </trkpt>
      <trkpt lat="43.60856" lon="6.89809">
        <ele>25</ele>
        <time>2015-04-06T09:34:57Z</time>
      </trkpt>
      <trkpt lat="43.60852" lon="6.89812">
        <ele>25</ele>
        <time>2015-04-06T09:34:58Z</time>
      </trkpt>
      <trkpt lat="43.60824" lon="6.89832">
        <ele>23</ele>
        <time>2015-04-06T09:35:05Z</time>
      </trkpt>
      <trkpt lat="43.60811" lon="6.89842">
        <ele>24</ele>
        <time>2015-04-06T09:35:09Z</time>
      </trkpt>
      <trkpt lat="43.60799" lon="6.89855">
        <ele>24</ele>
        <time>2015-04-06T09:35:15Z</time>
      </trkpt>
      <trkpt lat="43.608" lon="6.89855">
        <ele>24</ele>
        <time>2015-04-06T09:35:18Z</time>
      </trkpt>
      <trkpt lat="43.608" lon="6.89857">
        <ele>25</ele>
        <time>2015-04-06T09:35:23Z</time>
      </trkpt>
      <trkpt lat="43.608" lon="6.89857">
        <ele>25</ele>
        <time>2015-04-06T09:35:28Z</time>
      </trkpt>
      <trkpt lat="43.608" lon="6.89857">
        <ele>25</ele>
        <time>2015-04-06T09:35:34Z</time>
      </trkpt>
      <trkpt lat="43.608" lon="6.89857">
        <ele>25</ele>
        <time>2015-04-06T09:35:38Z</time>
      </trkpt>
      <trkpt lat="43.608" lon="6.89857">
        <ele>25</ele>
        <time>2015-04-06T09:35:43Z</time>
      </trkpt>
      <trkpt lat="43.608" lon="6.89857">
        <ele>25</ele>
        <time>2015-04-06T09:35:48Z</time>
      </trkpt>
      <trkpt lat="43.608" lon="6.89857">
        <ele>25</ele>
        <time>2015-04-06T09:35:53Z</time>
      </trkpt>
      <trkpt lat="43.608" lon="6.89857">
        <ele>25</ele>
        <time>2015-04-06T09:36:00Z</time>
      </trkpt>
      <trkpt lat="43.608" lon="6.89857">
        <ele>25</ele>
        <time>2015-04-06T09:36:03Z</time>
      </trkpt>
      <trkpt lat="43.608" lon="6.89857">
        <ele>25</ele>
        <time>2015-04-06T09:36:10Z</time>
      </trkpt>
      <trkpt lat="43.608" lon="6.89857">
        <ele>25</ele>
        <time>2015-04-06T09:36:12Z</time>
      </trkpt>
      <trkpt lat="43.608" lon="6.89857">
        <ele>25</ele>
        <time>2015-04-06T09:36:17Z</time>
      </trkpt>
      <trkpt lat="43.608" lon="6.89857">
        <ele>25</ele>
        <time>2015-04-06T09:36:22Z</time>
      </trkpt>
      <trkpt lat="43.608" lon="6.89857">
        <ele>25</ele>
        <time>2015-04-06T09:36:27Z</time>
      </trkpt>
      <trkpt lat="43.608" lon="6.89857">
        <ele>25</ele>
        <time>2015-04-06T09:36:32Z</time>
      </trkpt>
      <trkpt lat="43.608" lon="6.89857">
        <ele>25</ele>
        <time>2015-04-06T09:36:37Z</time>
      </trkpt>
      <trkpt lat="43.608" lon="6.89857">
        <ele>25</ele>
        <time>2015-04-06T09:36:42Z</time>
      </trkpt>
      <trkpt lat="43.608" lon="6.89857">
        <ele>25</ele>
        <time>2015-04-06T09:36:47Z</time>
      </trkpt>
      <trkpt lat="43.60799" lon="6.89869">
        <ele>24</ele>
        <time>2015-04-06T09:36:55Z</time>
      </trkpt>
      <trkpt lat="43.60795" lon="6.89879">
        <ele>24</ele>
        <time>2015-04-06T09:36:57Z</time>
      </trkpt>
      <trkpt lat="43.60781" lon="6.89917">
        <ele>26</ele>
        <time>2015-04-06T09:37:03Z</time>
      </trkpt>
      <trkpt lat="43.6076" lon="6.89959">
        <ele>24</ele>
        <time>2015-04-06T09:37:10Z</time>
      </trkpt>
      <trkpt lat="43.60748" lon="6.89977">
        <ele>24</ele>
        <time>2015-04-06T09:37:13Z</time>
      </trkpt>
      <trkpt lat="43.60732" lon="6.90009">
        <ele>25</ele>
        <time>2015-04-06T09:37:18Z</time>
      </trkpt>
      <trkpt lat="43.60715" lon="6.90039">
        <ele>26</ele>
        <time>2015-04-06T09:37:23Z</time>
      </trkpt>
      <trkpt lat="43.60699" lon="6.90069">
        <ele>27</ele>
        <time>2015-04-06T09:37:28Z</time>
      </trkpt>
      <trkpt lat="43.60687" lon="6.90093">
        <ele>27</ele>
        <time>2015-04-06T09:37:32Z</time>
      </trkpt>
      <trkpt lat="43.60661" lon="6.90138">
        <ele>27</ele>
        <time>2015-04-06T09:37:40Z</time>
      </trkpt>
      <trkpt lat="43.60658" lon="6.90165">
        <ele>26</ele>
        <time>2015-04-06T09:37:44Z</time>
      </trkpt>
      <trkpt lat="43.60657" lon="6.90185">
        <ele>26</ele>
        <time>2015-04-06T09:37:47Z</time>
      </trkpt>
      <trkpt lat="43.60657" lon="6.90219">
        <ele>26</ele>
        <time>2015-04-06T09:37:52Z</time>
      </trkpt>
      <trkpt lat="43.60661" lon="6.90253">
        <ele>26</ele>
        <time>2015-04-06T09:37:57Z</time>
      </trkpt>
      <trkpt lat="43.60662" lon="6.90292">
        <ele>29</ele>
        <time>2015-04-06T09:38:03Z</time>
      </trkpt>
      <trkpt lat="43.60644" lon="6.90318">
        <ele>27</ele>
        <time>2015-04-06T09:38:09Z</time>
      </trkpt>
      <trkpt lat="43.60635" lon="6.90333">
        <ele>27</ele>
        <time>2015-04-06T09:38:14Z</time>
      </trkpt>
      <trkpt lat="43.60632" lon="6.9034">
        <ele>28</ele>
        <time>2015-04-06T09:38:17Z</time>
      </trkpt>
      <trkpt lat="43.60625" lon="6.90356">
        <ele>32</ele>
        <time>2015-04-06T09:38:23Z</time>
      </trkpt>
      <trkpt lat="43.60616" lon="6.90374">
        <ele>33</ele>
        <time>2015-04-06T09:38:29Z</time>
      </trkpt>
      <trkpt lat="43.60607" lon="6.90392">
        <ele>34</ele>
        <time>2015-04-06T09:38:36Z</time>
      </trkpt>
      <trkpt lat="43.60606" lon="6.90395">
        <ele>35</ele>
        <time>2015-04-06T09:38:38Z</time>
      </trkpt>
      <trkpt lat="43.60599" lon="6.90406">
        <ele>36</ele>
        <time>2015-04-06T09:38:43Z</time>
      </trkpt>
      <trkpt lat="43.60592" lon="6.90419">
        <ele>37</ele>
        <time>2015-04-06T09:38:47Z</time>
      </trkpt>
      <trkpt lat="43.60585" lon="6.90432">
        <ele>39</ele>
        <time>2015-04-06T09:38:52Z</time>
      </trkpt>
      <trkpt lat="43.60574" lon="6.90457">
        <ele>42</ele>
        <time>2015-04-06T09:39:01Z</time>
      </trkpt>
      <trkpt lat="43.6057" lon="6.90468">
        <ele>43</ele>
        <time>2015-04-06T09:39:05Z</time>
      </trkpt>
      <trkpt lat="43.60567" lon="6.90474">
        <ele>43</ele>
        <time>2015-04-06T09:39:07Z</time>
      </trkpt>
      <trkpt lat="43.60557" lon="6.90493">
        <ele>43</ele>
        <time>2015-04-06T09:39:14Z</time>
      </trkpt>
      <trkpt lat="43.60553" lon="6.90506">
        <ele>44</ele>
        <time>2015-04-06T09:39:18Z</time>
      </trkpt>
      <trkpt lat="43.60546" lon="6.90521">
        <ele>45</ele>
        <time>2015-04-06T09:39:24Z</time>
      </trkpt>
      <trkpt lat="43.60539" lon="6.90536">
        <ele>46</ele>
        <time>2015-04-06T09:39:29Z</time>
      </trkpt>
      <trkpt lat="43.60533" lon="6.90547">
        <ele>47</ele>
        <time>2015-04-06T09:39:33Z</time>
      </trkpt>
      <trkpt lat="43.60526" lon="6.9056">
        <ele>47</ele>
        <time>2015-04-06T09:39:38Z</time>
      </trkpt>
      <trkpt lat="43.60518" lon="6.90574">
        <ele>49</ele>
        <time>2015-04-06T09:39:42Z</time>
      </trkpt>
      <trkpt lat="43.60511" lon="6.90589">
        <ele>49</ele>
        <time>2015-04-06T09:39:47Z</time>
      </trkpt>
      <trkpt lat="43.60503" lon="6.90613">
        <ele>49</ele>
        <time>2015-04-06T09:39:55Z</time>
      </trkpt>
      <trkpt lat="43.60494" lon="6.90637">
        <ele>49</ele>
        <time>2015-04-06T09:40:01Z</time>
      </trkpt>
      <trkpt lat="43.60489" lon="6.90651">
        <ele>51</ele>
        <time>2015-04-06T09:40:05Z</time>
      </trkpt>
      <trkpt lat="43.60487" lon="6.90658">
        <ele>52</ele>
        <time>2015-04-06T09:40:08Z</time>
      </trkpt>
      <trkpt lat="43.60479" lon="6.90673">
        <ele>53</ele>
        <time>2015-04-06T09:40:13Z</time>
      </trkpt>
      <trkpt lat="43.60472" lon="6.9069">
        <ele>53</ele>
        <time>2015-04-06T09:40:19Z</time>
      </trkpt>
      <trkpt lat="43.60464" lon="6.9071">
        <ele>55</ele>
        <time>2015-04-06T09:40:26Z</time>
      </trkpt>
      <trkpt lat="43.60461" lon="6.90716">
        <ele>55</ele>
        <time>2015-04-06T09:40:28Z</time>
      </trkpt>
      <trkpt lat="43.60452" lon="6.90738">
        <ele>57</ele>
        <time>2015-04-06T09:40:35Z</time>
      </trkpt>
      <trkpt lat="43.60445" lon="6.90754">
        <ele>57</ele>
        <time>2015-04-06T09:40:40Z</time>
      </trkpt>
      <trkpt lat="43.60441" lon="6.90764">
        <ele>57</ele>
        <time>2015-04-06T09:40:42Z</time>
      </trkpt>
      <trkpt lat="43.60436" lon="6.9078">
        <ele>58</ele>
        <time>2015-04-06T09:40:48Z</time>
      </trkpt>
      <trkpt lat="43.6043" lon="6.90798">
        <ele>58</ele>
        <time>2015-04-06T09:40:53Z</time>
      </trkpt>
      <trkpt lat="43.60425" lon="6.90818">
        <ele>59</ele>
        <time>2015-04-06T09:40:58Z</time>
      </trkpt>
      <trkpt lat="43.60419" lon="6.90842">
        <ele>60</ele>
        <time>2015-04-06T09:41:03Z</time>
      </trkpt>
      <trkpt lat="43.60413" lon="6.90868">
        <ele>61</ele>
        <time>2015-04-06T09:41:08Z</time>
      </trkpt>
      <trkpt lat="43.60407" lon="6.90902">
        <ele>59</ele>
        <time>2015-04-06T09:41:14Z</time>
      </trkpt>
      <trkpt lat="43.60404" lon="6.90931">
        <ele>59</ele>
        <time>2015-04-06T09:41:22Z</time>
      </trkpt>
      <trkpt lat="43.60402" lon="6.90935">
        <ele>58</ele>
        <time>2015-04-06T09:41:23Z</time>
      </trkpt>
      <trkpt lat="43.60396" lon="6.90941">
        <ele>57</ele>
        <time>2015-04-06T09:41:27Z</time>
      </trkpt>
      <trkpt lat="43.60398" lon="6.90972">
        <ele>55</ele>
        <time>2015-04-06T09:41:34Z</time>
      </trkpt>
      <trkpt lat="43.60398" lon="6.90987">
        <ele>53</ele>
        <time>2015-04-06T09:41:38Z</time>
      </trkpt>
      <trkpt lat="43.60399" lon="6.90985">
        <ele>52</ele>
        <time>2015-04-06T09:41:42Z</time>
      </trkpt>
      <trkpt lat="43.60399" lon="6.90984">
        <ele>52</ele>
        <time>2015-04-06T09:41:47Z</time>
      </trkpt>
      <trkpt lat="43.60399" lon="6.90985">
        <ele>52</ele>
        <time>2015-04-06T09:41:53Z</time>
      </trkpt>
      <trkpt lat="43.604" lon="6.90985">
        <ele>52</ele>
        <time>2015-04-06T09:41:57Z</time>
      </trkpt>
      <trkpt lat="43.604" lon="6.90985">
        <ele>52</ele>
        <time>2015-04-06T09:42:02Z</time>
      </trkpt>
      <trkpt lat="43.604" lon="6.90985">
        <ele>52</ele>
        <time>2015-04-06T09:42:07Z</time>
      </trkpt>
      <trkpt lat="43.604" lon="6.90985">
        <ele>52</ele>
        <time>2015-04-06T09:42:12Z</time>
      </trkpt>
      <trkpt lat="43.604" lon="6.90986">
        <ele>52</ele>
        <time>2015-04-06T09:42:18Z</time>
      </trkpt>
      <trkpt lat="43.604" lon="6.90986">
        <ele>52</ele>
        <time>2015-04-06T09:42:22Z</time>
      </trkpt>
      <trkpt lat="43.60401" lon="6.90986">
        <ele>52</ele>
        <time>2015-04-06T09:42:27Z</time>
      </trkpt>
      <trkpt lat="43.60401" lon="6.90986">
        <ele>52</ele>
        <time>2015-04-06T09:42:32Z</time>
      </trkpt>
      <trkpt lat="43.60401" lon="6.90986">
        <ele>52</ele>
        <time>2015-04-06T09:42:38Z</time>
      </trkpt>
      <trkpt lat="43.60401" lon="6.90986">
        <ele>52</ele>
        <time>2015-04-06T09:42:43Z</time>
      </trkpt>
      <trkpt lat="43.60401" lon="6.90986">
        <ele>52</ele>
        <time>2015-04-06T09:42:48Z</time>
      </trkpt>
      <trkpt lat="43.60401" lon="6.90986">
        <ele>52</ele>
        <time>2015-04-06T09:42:52Z</time>
      </trkpt>
      <trkpt lat="43.60401" lon="6.90986">
        <ele>52</ele>
        <time>2015-04-06T09:42:57Z</time>
      </trkpt>
      <trkpt lat="43.60401" lon="6.90986">
        <ele>52</ele>
        <time>2015-04-06T09:43:03Z</time>
      </trkpt>
      <trkpt lat="43.60401" lon="6.90986">
        <ele>52</ele>
        <time>2015-04-06T09:43:07Z</time>
      </trkpt>
      <trkpt lat="43.60401" lon="6.90986">
        <ele>52</ele>
        <time>2015-04-06T09:43:13Z</time>
      </trkpt>
      <trkpt lat="43.60401" lon="6.90986">
        <ele>52</ele>
        <time>2015-04-06T09:43:17Z</time>
      </trkpt>
      <trkpt lat="43.60401" lon="6.90986">
        <ele>52</ele>
        <time>2015-04-06T09:43:26Z</time>
      </trkpt>
      <trkpt lat="43.60402" lon="6.90985">
        <ele>51</ele>
        <time>2015-04-06T09:43:28Z</time>
      </trkpt>
      <trkpt lat="43.60405" lon="6.90976">
        <ele>51</ele>
        <time>2015-04-06T09:43:33Z</time>
      </trkpt>
      <trkpt lat="43.60407" lon="6.90967">
        <ele>51</ele>
        <time>2015-04-06T09:43:39Z</time>
      </trkpt>
      <trkpt lat="43.60406" lon="6.90947">
        <ele>53</ele>
        <time>2015-04-06T09:43:44Z</time>
      </trkpt>
      <trkpt lat="43.60408" lon="6.90935">
        <ele>53</ele>
        <time>2015-04-06T09:43:47Z</time>
      </trkpt>
      <trkpt lat="43.6041" lon="6.90916">
        <ele>54</ele>
        <time>2015-04-06T09:43:52Z</time>
      </trkpt>
      <trkpt lat="43.60412" lon="6.90892">
        <ele>54</ele>
        <time>2015-04-06T09:43:58Z</time>
      </trkpt>
      <trkpt lat="43.60416" lon="6.90869">
        <ele>54</ele>
        <time>2015-04-06T09:44:03Z</time>
      </trkpt>
      <trkpt lat="43.6042" lon="6.90848">
        <ele>54</ele>
        <time>2015-04-06T09:44:07Z</time>
      </trkpt>
      <trkpt lat="43.60426" lon="6.90821">
        <ele>54</ele>
        <time>2015-04-06T09:44:14Z</time>
      </trkpt>
      <trkpt lat="43.60431" lon="6.90802">
        <ele>54</ele>
        <time>2015-04-06T09:44:17Z</time>
      </trkpt>
      <trkpt lat="43.60437" lon="6.9078">
        <ele>55</ele>
        <time>2015-04-06T09:44:23Z</time>
      </trkpt>
      <trkpt lat="43.60446" lon="6.9076">
        <ele>55</ele>
        <time>2015-04-06T09:44:28Z</time>
      </trkpt>
      <trkpt lat="43.60448" lon="6.90756">
        <ele>55</ele>
        <time>2015-04-06T09:44:33Z</time>
      </trkpt>
      <trkpt lat="43.60448" lon="6.90757">
        <ele>54</ele>
        <time>2015-04-06T09:44:37Z</time>
      </trkpt>
      <trkpt lat="43.60448" lon="6.90757">
        <ele>54</ele>
        <time>2015-04-06T09:44:42Z</time>
      </trkpt>
      <trkpt lat="43.60448" lon="6.90757">
        <ele>54</ele>
        <time>2015-04-06T09:44:47Z</time>
      </trkpt>
      <trkpt lat="43.60448" lon="6.90757">
        <ele>54</ele>
        <time>2015-04-06T09:44:53Z</time>
      </trkpt>
      <trkpt lat="43.60448" lon="6.90757">
        <ele>54</ele>
        <time>2015-04-06T09:44:58Z</time>
      </trkpt>
      <trkpt lat="43.60447" lon="6.90756">
        <ele>53</ele>
        <time>2015-04-06T09:45:02Z</time>
      </trkpt>
      <trkpt lat="43.60442" lon="6.90763">
        <ele>54</ele>
        <time>2015-04-06T09:45:07Z</time>
      </trkpt>
      <trkpt lat="43.60437" lon="6.9078">
        <ele>53</ele>
        <time>2015-04-06T09:45:12Z</time>
      </trkpt>
      <trkpt lat="43.60432" lon="6.90798">
        <ele>54</ele>
        <time>2015-04-06T09:45:18Z</time>
      </trkpt>
      <trkpt lat="43.60423" lon="6.90823">
        <ele>53</ele>
        <time>2015-04-06T09:45:24Z</time>
      </trkpt>
      <trkpt lat="43.60419" lon="6.90834">
        <ele>53</ele>
        <time>2015-04-06T09:45:27Z</time>
      </trkpt>
      <trkpt lat="43.60415" lon="6.90854">
        <ele>53</ele>
        <time>2015-04-06T09:45:32Z</time>
      </trkpt>
      <trkpt lat="43.60409" lon="6.90889">
        <ele>53</ele>
        <time>2015-04-06T09:45:41Z</time>
      </trkpt>
      <trkpt lat="43.60408" lon="6.90898">
        <ele>53</ele>
        <time>2015-04-06T09:45:43Z</time>
      </trkpt>
      <trkpt lat="43.60405" lon="6.90932">
        <ele>52</ele>
        <time>2015-04-06T09:45:49Z</time>
      </trkpt>
      <trkpt lat="43.604" lon="6.90942">
        <ele>52</ele>
        <time>2015-04-06T09:45:52Z</time>
      </trkpt>
      <trkpt lat="43.60399" lon="6.90966">
        <ele>51</ele>
        <time>2015-04-06T09:46:01Z</time>
      </trkpt>
      <trkpt lat="43.60401" lon="6.90978">
        <ele>51</ele>
        <time>2015-04-06T09:46:03Z</time>
      </trkpt>
      <trkpt lat="43.60388" lon="6.91029">
        <ele>48</ele>
        <time>2015-04-06T09:46:09Z</time>
      </trkpt>
      <trkpt lat="43.60372" lon="6.91054">
        <ele>47</ele>
        <time>2015-04-06T09:46:15Z</time>
      </trkpt>
      <trkpt lat="43.6036" lon="6.91042">
        <ele>46</ele>
        <time>2015-04-06T09:46:18Z</time>
      </trkpt>
      <trkpt lat="43.60343" lon="6.91015">
        <ele>42</ele>
        <time>2015-04-06T09:46:22Z</time>
      </trkpt>
      <trkpt lat="43.60322" lon="6.91014">
        <ele>43</ele>
        <time>2015-04-06T09:46:27Z</time>
      </trkpt>
      <trkpt lat="43.60306" lon="6.91018">
        <ele>45</ele>
        <time>2015-04-06T09:46:32Z</time>
      </trkpt>
      <trkpt lat="43.60279" lon="6.91026">
        <ele>46</ele>
        <time>2015-04-06T09:46:39Z</time>
      </trkpt>
      <trkpt lat="43.60267" lon="6.9104">
        <ele>46</ele>
        <time>2015-04-06T09:46:43Z</time>
      </trkpt>
      <trkpt lat="43.60264" lon="6.9106">
        <ele>43</ele>
        <time>2015-04-06T09:46:47Z</time>
      </trkpt>
      <trkpt lat="43.60251" lon="6.91091">
        <ele>42</ele>
        <time>2015-04-06T09:46:52Z</time>
      </trkpt>
      <trkpt lat="43.60216" lon="6.91113">
        <ele>41</ele>
        <time>2015-04-06T09:46:57Z</time>
      </trkpt>
      <trkpt lat="43.60185" lon="6.91146">
        <ele>37</ele>
        <time>2015-04-06T09:47:03Z</time>
      </trkpt>
      <trkpt lat="43.60156" lon="6.91161">
        <ele>34</ele>
        <time>2015-04-06T09:47:08Z</time>
      </trkpt>
      <trkpt lat="43.60142" lon="6.91152">
        <ele>34</ele>
        <time>2015-04-06T09:47:13Z</time>
      </trkpt>
      <trkpt lat="43.60122" lon="6.91172">
        <ele>32</ele>
        <time>2015-04-06T09:47:18Z</time>
      </trkpt>
      <trkpt lat="43.60109" lon="6.91193">
        <ele>32</ele>
        <time>2015-04-06T09:47:22Z</time>
      </trkpt>
      <trkpt lat="43.60098" lon="6.91218">
        <ele>32</ele>
        <time>2015-04-06T09:47:27Z</time>
      </trkpt>
      <trkpt lat="43.60081" lon="6.91237">
        <ele>34</ele>
        <time>2015-04-06T09:47:32Z</time>
      </trkpt>
      <trkpt lat="43.60056" lon="6.91251">
        <ele>32</ele>
        <time>2015-04-06T09:47:37Z</time>
      </trkpt>
      <trkpt lat="43.60031" lon="6.91265">
        <ele>31</ele>
        <time>2015-04-06T09:47:42Z</time>
      </trkpt>
      <trkpt lat="43.60008" lon="6.91273">
        <ele>31</ele>
        <time>2015-04-06T09:47:47Z</time>
      </trkpt>
      <trkpt lat="43.59985" lon="6.91268">
        <ele>29</ele>
        <time>2015-04-06T09:47:52Z</time>
      </trkpt>
      <trkpt lat="43.59961" lon="6.9126">
        <ele>29</ele>
        <time>2015-04-06T09:47:57Z</time>
      </trkpt>
      <trkpt lat="43.59937" lon="6.91248">
        <ele>27</ele>
        <time>2015-04-06T09:48:03Z</time>
      </trkpt>
      <trkpt lat="43.59912" lon="6.91242">
        <ele>27</ele>
        <time>2015-04-06T09:48:08Z</time>
      </trkpt>
      <trkpt lat="43.59909" lon="6.91237">
        <ele>24</ele>
        <time>2015-04-06T09:48:12Z</time>
      </trkpt>
      <trkpt lat="43.59907" lon="6.91238">
        <ele>24</ele>
        <time>2015-04-06T09:48:17Z</time>
      </trkpt>
      <trkpt lat="43.59899" lon="6.91252">
        <ele>24</ele>
        <time>2015-04-06T09:48:22Z</time>
      </trkpt>
      <trkpt lat="43.59889" lon="6.91257">
        <ele>22</ele>
        <time>2015-04-06T09:48:28Z</time>
      </trkpt>
      <trkpt lat="43.59872" lon="6.91258">
        <ele>20</ele>
        <time>2015-04-06T09:48:34Z</time>
      </trkpt>
      <trkpt lat="43.59869" lon="6.91271">
        <ele>20</ele>
        <time>2015-04-06T09:48:38Z</time>
      </trkpt>
      <trkpt lat="43.59865" lon="6.91291">
        <ele>23</ele>
        <time>2015-04-06T09:48:42Z</time>
      </trkpt>
      <trkpt lat="43.59862" lon="6.91309">
        <ele>24</ele>
        <time>2015-04-06T09:48:47Z</time>
      </trkpt>
      <trkpt lat="43.5986" lon="6.91311">
        <ele>24</ele>
        <time>2015-04-06T09:48:53Z</time>
      </trkpt>
      <trkpt lat="43.59855" lon="6.91318">
        <ele>21</ele>
        <time>2015-04-06T09:48:58Z</time>
      </trkpt>
      <trkpt lat="43.59833" lon="6.91341">
        <ele>19</ele>
        <time>2015-04-06T09:49:07Z</time>
      </trkpt>
      <trkpt lat="43.5983" lon="6.91343">
        <ele>19</ele>
        <time>2015-04-06T09:49:07Z</time>
      </trkpt>
      <trkpt lat="43.59814" lon="6.91349">
        <ele>20</ele>
        <time>2015-04-06T09:49:12Z</time>
      </trkpt>
      <trkpt lat="43.59797" lon="6.91348">
        <ele>20</ele>
        <time>2015-04-06T09:49:18Z</time>
      </trkpt>
      <trkpt lat="43.59779" lon="6.91353">
        <ele>20</ele>
        <time>2015-04-06T09:49:23Z</time>
      </trkpt>
      <trkpt lat="43.59761" lon="6.91364">
        <ele>20</ele>
        <time>2015-04-06T09:49:27Z</time>
      </trkpt>
      <trkpt lat="43.59739" lon="6.91374">
        <ele>18</ele>
        <time>2015-04-06T09:49:34Z</time>
      </trkpt>
      <trkpt lat="43.59722" lon="6.91375">
        <ele>17</ele>
        <time>2015-04-06T09:49:37Z</time>
      </trkpt>
      <trkpt lat="43.59692" lon="6.91401">
        <ele>14</ele>
        <time>2015-04-06T09:49:46Z</time>
      </trkpt>
      <trkpt lat="43.59687" lon="6.91411">
        <ele>16</ele>
        <time>2015-04-06T09:49:48Z</time>
      </trkpt>
      <trkpt lat="43.59656" lon="6.91448">
        <ele>14</ele>
        <time>2015-04-06T09:49:56Z</time>
      </trkpt>
      <trkpt lat="43.59651" lon="6.91452">
        <ele>15</ele>
        <time>2015-04-06T09:49:58Z</time>
      </trkpt>
      <trkpt lat="43.59629" lon="6.91472">
        <ele>15</ele>
        <time>2015-04-06T09:50:02Z</time>
      </trkpt>
      <trkpt lat="43.59613" lon="6.91498">
        <ele>17</ele>
        <time>2015-04-06T09:50:07Z</time>
      </trkpt>
      <trkpt lat="43.59601" lon="6.91528">
        <ele>17</ele>
        <time>2015-04-06T09:50:12Z</time>
      </trkpt>
      <trkpt lat="43.59591" lon="6.91555">
        <ele>15</ele>
        <time>2015-04-06T09:50:17Z</time>
      </trkpt>
      <trkpt lat="43.59569" lon="6.91603">
        <ele>16</ele>
        <time>2015-04-06T09:50:25Z</time>
      </trkpt>
      <trkpt lat="43.59551" lon="6.9162">
        <ele>16</ele>
        <time>2015-04-06T09:50:30Z</time>
      </trkpt>
      <trkpt lat="43.59541" lon="6.91623">
        <ele>18</ele>
        <time>2015-04-06T09:50:32Z</time>
      </trkpt>
      <trkpt lat="43.59512" lon="6.91646">
        <ele>15</ele>
        <time>2015-04-06T09:50:39Z</time>
      </trkpt>
      <trkpt lat="43.59504" lon="6.91658">
        <ele>15</ele>
        <time>2015-04-06T09:50:42Z</time>
      </trkpt>
      <trkpt lat="43.59483" lon="6.91678">
        <ele>15</ele>
        <time>2015-04-06T09:50:48Z</time>
      </trkpt>
      <trkpt lat="43.59462" lon="6.91699">
        <ele>16</ele>
        <time>2015-04-06T09:50:55Z</time>
      </trkpt>
      <trkpt lat="43.59455" lon="6.91704">
        <ele>15</ele>
        <time>2015-04-06T09:50:57Z</time>
      </trkpt>
      <trkpt lat="43.59439" lon="6.91698">
        <ele>15</ele>
        <time>2015-04-06T09:51:04Z</time>
      </trkpt>
      <trkpt lat="43.59428" lon="6.91708">
        <ele>13</ele>
        <time>2015-04-06T09:51:09Z</time>
      </trkpt>
      <trkpt lat="43.59419" lon="6.91718">
        <ele>13</ele>
        <time>2015-04-06T09:51:12Z</time>
      </trkpt>
      <trkpt lat="43.594" lon="6.91732">
        <ele>14</ele>
        <time>2015-04-06T09:51:18Z</time>
      </trkpt>
      <trkpt lat="43.59382" lon="6.91746">
        <ele>14</ele>
        <time>2015-04-06T09:51:23Z</time>
      </trkpt>
      <trkpt lat="43.59367" lon="6.91766">
        <ele>16</ele>
        <time>2015-04-06T09:51:27Z</time>
      </trkpt>
      <trkpt lat="43.59363" lon="6.91797">
        <ele>17</ele>
        <time>2015-04-06T09:51:34Z</time>
      </trkpt>
      <trkpt lat="43.59367" lon="6.91811">
        <ele>18</ele>
        <time>2015-04-06T09:51:37Z</time>
      </trkpt>
      <trkpt lat="43.59389" lon="6.91798">
        <ele>17</ele>
        <time>2015-04-06T09:51:44Z</time>
      </trkpt>
      <trkpt lat="43.59395" lon="6.91784">
        <ele>16</ele>
        <time>2015-04-06T09:51:50Z</time>
      </trkpt>
      <trkpt lat="43.59394" lon="6.91784">
        <ele>17</ele>
        <time>2015-04-06T09:51:52Z</time>
      </trkpt>
      <trkpt lat="43.59393" lon="6.91784">
        <ele>17</ele>
        <time>2015-04-06T09:51:57Z</time>
      </trkpt>
      <trkpt lat="43.59394" lon="6.91783">
        <ele>17</ele>
        <time>2015-04-06T09:52:02Z</time>
      </trkpt>
      <trkpt lat="43.59394" lon="6.91783">
        <ele>17</ele>
        <time>2015-04-06T09:52:08Z</time>
      </trkpt>
      <trkpt lat="43.59394" lon="6.91783">
        <ele>17</ele>
        <time>2015-04-06T09:52:13Z</time>
      </trkpt>
      <trkpt lat="43.59394" lon="6.91782">
        <ele>17</ele>
        <time>2015-04-06T09:52:17Z</time>
      </trkpt>
      <trkpt lat="43.59395" lon="6.9178">
        <ele>16</ele>
        <time>2015-04-06T09:52:22Z</time>
      </trkpt>
      <trkpt lat="43.59395" lon="6.9178">
        <ele>16</ele>
        <time>2015-04-06T09:52:27Z</time>
      </trkpt>
      <trkpt lat="43.59395" lon="6.91779">
        <ele>17</ele>
        <time>2015-04-06T09:52:32Z</time>
      </trkpt>
      <trkpt lat="43.59395" lon="6.91779">
        <ele>18</ele>
        <time>2015-04-06T09:52:38Z</time>
      </trkpt>
      <trkpt lat="43.59395" lon="6.91778">
        <ele>18</ele>
        <time>2015-04-06T09:52:43Z</time>
      </trkpt>
      <trkpt lat="43.59395" lon="6.91778">
        <ele>18</ele>
        <time>2015-04-06T09:52:47Z</time>
      </trkpt>
      <trkpt lat="43.59396" lon="6.91779">
        <ele>18</ele>
        <time>2015-04-06T09:52:52Z</time>
      </trkpt>
      <trkpt lat="43.59396" lon="6.91778">
        <ele>18</ele>
        <time>2015-04-06T09:52:57Z</time>
      </trkpt>
      <trkpt lat="43.59397" lon="6.91777">
        <ele>18</ele>
        <time>2015-04-06T09:53:03Z</time>
      </trkpt>
      <trkpt lat="43.59397" lon="6.91777">
        <ele>17</ele>
        <time>2015-04-06T09:53:08Z</time>
      </trkpt>
      <trkpt lat="43.59397" lon="6.91777">
        <ele>17</ele>
        <time>2015-04-06T09:53:12Z</time>
      </trkpt>
      <trkpt lat="43.59397" lon="6.91777">
        <ele>17</ele>
        <time>2015-04-06T09:53:17Z</time>
      </trkpt>
      <trkpt lat="43.59397" lon="6.91777">
        <ele>17</ele>
        <time>2015-04-06T09:53:22Z</time>
      </trkpt>
      <trkpt lat="43.59397" lon="6.91777">
        <ele>17</ele>
        <time>2015-04-06T09:53:28Z</time>
      </trkpt>
      <trkpt lat="43.59397" lon="6.91777">
        <ele>17</ele>
        <time>2015-04-06T09:53:33Z</time>
      </trkpt>
      <trkpt lat="43.59397" lon="6.91777">
        <ele>17</ele>
        <time>2015-04-06T09:53:37Z</time>
      </trkpt>
      <trkpt lat="43.59397" lon="6.91778">
        <ele>18</ele>
        <time>2015-04-06T09:53:42Z</time>
      </trkpt>
      <trkpt lat="43.59397" lon="6.91778">
        <ele>18</ele>
        <time>2015-04-06T09:53:47Z</time>
      </trkpt>
      <trkpt lat="43.59397" lon="6.91778">
        <ele>18</ele>
        <time>2015-04-06T09:53:52Z</time>
      </trkpt>
      <trkpt lat="43.59397" lon="6.91778">
        <ele>18</ele>
        <time>2015-04-06T09:53:57Z</time>
      </trkpt>
      <trkpt lat="43.59397" lon="6.91778">
        <ele>18</ele>
        <time>2015-04-06T09:54:02Z</time>
      </trkpt>
      <trkpt lat="43.59397" lon="6.91778">
        <ele>18</ele>
        <time>2015-04-06T09:54:07Z</time>
      </trkpt>
      <trkpt lat="43.59397" lon="6.91778">
        <ele>18</ele>
        <time>2015-04-06T09:54:12Z</time>
      </trkpt>
      <trkpt lat="43.59397" lon="6.91777">
        <ele>18</ele>
        <time>2015-04-06T09:54:17Z</time>
      </trkpt>
      <trkpt lat="43.59398" lon="6.91778">
        <ele>20</ele>
        <time>2015-04-06T09:54:23Z</time>
      </trkpt>
      <trkpt lat="43.59399" lon="6.91778">
        <ele>23</ele>
        <time>2015-04-06T09:54:28Z</time>
      </trkpt>
      <trkpt lat="43.59399" lon="6.91778">
        <ele>24</ele>
        <time>2015-04-06T09:54:32Z</time>
      </trkpt>
      <trkpt lat="43.59399" lon="6.91778">
        <ele>24</ele>
        <time>2015-04-06T09:54:37Z</time>
      </trkpt>
      <trkpt lat="43.59399" lon="6.91778">
        <ele>22</ele>
        <time>2015-04-06T09:54:43Z</time>
      </trkpt>
      <trkpt lat="43.59399" lon="6.91779">
        <ele>23</ele>
        <time>2015-04-06T09:54:48Z</time>
      </trkpt>
      <trkpt lat="43.59398" lon="6.91779">
        <ele>24</ele>
        <time>2015-04-06T09:54:52Z</time>
      </trkpt>
      <trkpt lat="43.59399" lon="6.9178">
        <ele>24</ele>
        <time>2015-04-06T09:54:57Z</time>
      </trkpt>
      <trkpt lat="43.59397" lon="6.9178">
        <ele>24</ele>
        <time>2015-04-06T09:55:03Z</time>
      </trkpt>
      <trkpt lat="43.59396" lon="6.91781">
        <ele>24</ele>
        <time>2015-04-06T09:55:07Z</time>
      </trkpt>
      <trkpt lat="43.59395" lon="6.91781">
        <ele>24</ele>
        <time>2015-04-06T09:55:12Z</time>
      </trkpt>
      <trkpt lat="43.59395" lon="6.91781">
        <ele>25</ele>
        <time>2015-04-06T09:55:18Z</time>
      </trkpt>
      <trkpt lat="43.59395" lon="6.91781">
        <ele>25</ele>
        <time>2015-04-06T09:55:23Z</time>
      </trkpt>
      <trkpt lat="43.59395" lon="6.91781">
        <ele>25</ele>
        <time>2015-04-06T09:55:27Z</time>
      </trkpt>
      <trkpt lat="43.59395" lon="6.91781">
        <ele>25</ele>
        <time>2015-04-06T09:55:32Z</time>
      </trkpt>
      <trkpt lat="43.59395" lon="6.91781">
        <ele>24</ele>
        <time>2015-04-06T09:55:37Z</time>
      </trkpt>
      <trkpt lat="43.59394" lon="6.91781">
        <ele>24</ele>
        <time>2015-04-06T09:55:42Z</time>
      </trkpt>
      <trkpt lat="43.59394" lon="6.91781">
        <ele>23</ele>
        <time>2015-04-06T09:55:47Z</time>
      </trkpt>
      <trkpt lat="43.59395" lon="6.91781">
        <ele>23</ele>
        <time>2015-04-06T09:55:52Z</time>
      </trkpt>
      <trkpt lat="43.59395" lon="6.91781">
        <ele>23</ele>
        <time>2015-04-06T09:55:57Z</time>
      </trkpt>
      <trkpt lat="43.59395" lon="6.91783">
        <ele>23</ele>
        <time>2015-04-06T09:56:03Z</time>
      </trkpt>
      <trkpt lat="43.59395" lon="6.91784">
        <ele>24</ele>
        <time>2015-04-06T09:56:07Z</time>
      </trkpt>
      <trkpt lat="43.59396" lon="6.91784">
        <ele>24</ele>
        <time>2015-04-06T09:56:12Z</time>
      </trkpt>
      <trkpt lat="43.59396" lon="6.91784">
        <ele>25</ele>
        <time>2015-04-06T09:56:17Z</time>
      </trkpt>
      <trkpt lat="43.59396" lon="6.91784">
        <ele>25</ele>
        <time>2015-04-06T09:56:22Z</time>
      </trkpt>
      <trkpt lat="43.59396" lon="6.91784">
        <ele>25</ele>
        <time>2015-04-06T09:56:28Z</time>
      </trkpt>
      <trkpt lat="43.59396" lon="6.91784">
        <ele>25</ele>
        <time>2015-04-06T09:56:32Z</time>
      </trkpt>
      <trkpt lat="43.59396" lon="6.91784">
        <ele>25</ele>
        <time>2015-04-06T09:56:38Z</time>
      </trkpt>
      <trkpt lat="43.59396" lon="6.91784">
        <ele>25</ele>
        <time>2015-04-06T09:56:43Z</time>
      </trkpt>
      <trkpt lat="43.59396" lon="6.91785">
        <ele>25</ele>
        <time>2015-04-06T09:56:47Z</time>
      </trkpt>
      <trkpt lat="43.59396" lon="6.91785">
        <ele>25</ele>
        <time>2015-04-06T09:56:54Z</time>
      </trkpt>
      <trkpt lat="43.59396" lon="6.91785">
        <ele>25</ele>
        <time>2015-04-06T09:56:57Z</time>
      </trkpt>
      <trkpt lat="43.59396" lon="6.91785">
        <ele>23</ele>
        <time>2015-04-06T09:57:02Z</time>
      </trkpt>
      <trkpt lat="43.59396" lon="6.91784">
        <ele>24</ele>
        <time>2015-04-06T09:57:07Z</time>
      </trkpt>
      <trkpt lat="43.59396" lon="6.91784">
        <ele>24</ele>
        <time>2015-04-06T09:57:12Z</time>
      </trkpt>
      <trkpt lat="43.59396" lon="6.91785">
        <ele>24</ele>
        <time>2015-04-06T09:57:17Z</time>
      </trkpt>
      <trkpt lat="43.59396" lon="6.91785">
        <ele>24</ele>
        <time>2015-04-06T09:57:22Z</time>
      </trkpt>
      <trkpt lat="43.59396" lon="6.91785">
        <ele>24</ele>
        <time>2015-04-06T09:57:27Z</time>
      </trkpt>
      <trkpt lat="43.59396" lon="6.91785">
        <ele>24</ele>
        <time>2015-04-06T09:57:34Z</time>
      </trkpt>
      <trkpt lat="43.59396" lon="6.91785">
        <ele>24</ele>
        <time>2015-04-06T09:57:37Z</time>
      </trkpt>
      <trkpt lat="43.59396" lon="6.91785">
        <ele>24</ele>
        <time>2015-04-06T09:57:42Z</time>
      </trkpt>
      <trkpt lat="43.59396" lon="6.91785">
        <ele>24</ele>
        <time>2015-04-06T09:57:47Z</time>
      </trkpt>
      <trkpt lat="43.59396" lon="6.91785">
        <ele>24</ele>
        <time>2015-04-06T09:57:52Z</time>
      </trkpt>
      <trkpt lat="43.59396" lon="6.91785">
        <ele>24</ele>
        <time>2015-04-06T09:57:57Z</time>
      </trkpt>
      <trkpt lat="43.59396" lon="6.91785">
        <ele>24</ele>
        <time>2015-04-06T09:58:02Z</time>
      </trkpt>
      <trkpt lat="43.59396" lon="6.91785">
        <ele>24</ele>
        <time>2015-04-06T09:58:07Z</time>
      </trkpt>
      <trkpt lat="43.59396" lon="6.91785">
        <ele>24</ele>
        <time>2015-04-06T09:58:14Z</time>
      </trkpt>
      <trkpt lat="43.59396" lon="6.91785">
        <ele>24</ele>
        <time>2015-04-06T09:58:17Z</time>
      </trkpt>
      <trkpt lat="43.59396" lon="6.91785">
        <ele>24</ele>
        <time>2015-04-06T09:58:22Z</time>
      </trkpt>
      <trkpt lat="43.59396" lon="6.91785">
        <ele>24</ele>
        <time>2015-04-06T09:58:27Z</time>
      </trkpt>
      <trkpt lat="43.59396" lon="6.91785">
        <ele>24</ele>
        <time>2015-04-06T09:58:32Z</time>
      </trkpt>
      <trkpt lat="43.59396" lon="6.91785">
        <ele>24</ele>
        <time>2015-04-06T09:58:40Z</time>
      </trkpt>
      <trkpt lat="43.59396" lon="6.91785">
        <ele>24</ele>
        <time>2015-04-06T09:58:43Z</time>
      </trkpt>
      <trkpt lat="43.59396" lon="6.91785">
        <ele>24</ele>
        <time>2015-04-06T09:58:47Z</time>
      </trkpt>
      <trkpt lat="43.59396" lon="6.91785">
        <ele>24</ele>
        <time>2015-04-06T09:58:52Z</time>
      </trkpt>
      <trkpt lat="43.59395" lon="6.91786">
        <ele>24</ele>
        <time>2015-04-06T09:58:57Z</time>
      </trkpt>
      <trkpt lat="43.59383" lon="6.91799">
        <ele>21</ele>
        <time>2015-04-06T09:59:02Z</time>
      </trkpt>
      <trkpt lat="43.59367" lon="6.91811">
        <ele>17</ele>
        <time>2015-04-06T09:59:07Z</time>
      </trkpt>
      <trkpt lat="43.59326" lon="6.91842">
        <ele>15</ele>
        <time>2015-04-06T09:59:15Z</time>
      </trkpt>
      <trkpt lat="43.5931" lon="6.91873">
        <ele>16</ele>
        <time>2015-04-06T09:59:19Z</time>
      </trkpt>
      <trkpt lat="43.593" lon="6.91893">
        <ele>17</ele>
        <time>2015-04-06T09:59:22Z</time>
      </trkpt>
      <trkpt lat="43.59282" lon="6.91931">
        <ele>16</ele>
        <time>2015-04-06T09:59:29Z</time>
      </trkpt>
      <trkpt lat="43.59272" lon="6.91956">
        <ele>16</ele>
        <time>2015-04-06T09:59:34Z</time>
      </trkpt>
      <trkpt lat="43.59264" lon="6.9198">
        <ele>16</ele>
        <time>2015-04-06T09:59:37Z</time>
      </trkpt>
      <trkpt lat="43.59255" lon="6.92007">
        <ele>16</ele>
        <time>2015-04-06T09:59:42Z</time>
      </trkpt>
      <trkpt lat="43.59247" lon="6.9203">
        <ele>17</ele>
        <time>2015-04-06T09:59:48Z</time>
      </trkpt>
      <trkpt lat="43.59238" lon="6.92054">
        <ele>19</ele>
        <time>2015-04-06T09:59:52Z</time>
      </trkpt>
      <trkpt lat="43.59232" lon="6.92079">
        <ele>19</ele>
        <time>2015-04-06T09:59:57Z</time>
      </trkpt>
      <trkpt lat="43.59229" lon="6.92105">
        <ele>19</ele>
        <time>2015-04-06T10:00:02Z</time>
      </trkpt>
      <trkpt lat="43.59227" lon="6.92132">
        <ele>19</ele>
        <time>2015-04-06T10:00:07Z</time>
      </trkpt>
      <trkpt lat="43.59223" lon="6.92164">
        <ele>20</ele>
        <time>2015-04-06T10:00:13Z</time>
      </trkpt>
      <trkpt lat="43.5922" lon="6.92185">
        <ele>21</ele>
        <time>2015-04-06T10:00:17Z</time>
      </trkpt>
      <trkpt lat="43.59216" lon="6.92217">
        <ele>22</ele>
        <time>2015-04-06T10:00:23Z</time>
      </trkpt>
      <trkpt lat="43.59215" lon="6.92238">
        <ele>22</ele>
        <time>2015-04-06T10:00:27Z</time>
      </trkpt>
      <trkpt lat="43.59223" lon="6.92267">
        <ele>22</ele>
        <time>2015-04-06T10:00:32Z</time>
      </trkpt>
      <trkpt lat="43.59257" lon="6.923">
        <ele>23</ele>
        <time>2015-04-06T10:00:40Z</time>
      </trkpt>
      <trkpt lat="43.59266" lon="6.92307">
        <ele>23</ele>
        <time>2015-04-06T10:00:42Z</time>
      </trkpt>
      <trkpt lat="43.59289" lon="6.92333">
        <ele>25</ele>
        <time>2015-04-06T10:00:48Z</time>
      </trkpt>
      <trkpt lat="43.59306" lon="6.92358">
        <ele>24</ele>
        <time>2015-04-06T10:00:54Z</time>
      </trkpt>
      <trkpt lat="43.59316" lon="6.92381">
        <ele>24</ele>
        <time>2015-04-06T10:00:57Z</time>
      </trkpt>
      <trkpt lat="43.59338" lon="6.92433">
        <ele>24</ele>
        <time>2015-04-06T10:01:06Z</time>
      </trkpt>
      <trkpt lat="43.59344" lon="6.92443">
        <ele>24</ele>
        <time>2015-04-06T10:01:08Z</time>
      </trkpt>
      <trkpt lat="43.59355" lon="6.92463">
        <ele>25</ele>
        <time>2015-04-06T10:01:12Z</time>
      </trkpt>
      <trkpt lat="43.59374" lon="6.92483">
        <ele>24</ele>
        <time>2015-04-06T10:01:17Z</time>
      </trkpt>
      <trkpt lat="43.59394" lon="6.92511">
        <ele>24</ele>
        <time>2015-04-06T10:01:23Z</time>
      </trkpt>
      <trkpt lat="43.5941" lon="6.92532">
        <ele>23</ele>
        <time>2015-04-06T10:01:27Z</time>
      </trkpt>
      <trkpt lat="43.59433" lon="6.92554">
        <ele>22</ele>
        <time>2015-04-06T10:01:33Z</time>
      </trkpt>
      <trkpt lat="43.59446" lon="6.92586">
        <ele>22</ele>
        <time>2015-04-06T10:01:37Z</time>
      </trkpt>
      <trkpt lat="43.59455" lon="6.92618">
        <ele>21</ele>
        <time>2015-04-06T10:01:43Z</time>
      </trkpt>
      <trkpt lat="43.59459" lon="6.92638">
        <ele>21</ele>
        <time>2015-04-06T10:01:47Z</time>
      </trkpt>
      <trkpt lat="43.59458" lon="6.92642">
        <ele>20</ele>
        <time>2015-04-06T10:01:52Z</time>
      </trkpt>
      <trkpt lat="43.59459" lon="6.92657">
        <ele>21</ele>
        <time>2015-04-06T10:01:58Z</time>
      </trkpt>
      <trkpt lat="43.59476" lon="6.92665">
        <ele>22</ele>
        <time>2015-04-06T10:02:02Z</time>
      </trkpt>
      <trkpt lat="43.59498" lon="6.92662">
        <ele>21</ele>
        <time>2015-04-06T10:02:07Z</time>
      </trkpt>
      <trkpt lat="43.5953" lon="6.92679">
        <ele>22</ele>
        <time>2015-04-06T10:02:14Z</time>
      </trkpt>
      <trkpt lat="43.59544" lon="6.92687">
        <ele>22</ele>
        <time>2015-04-06T10:02:17Z</time>
      </trkpt>
      <trkpt lat="43.59567" lon="6.927">
        <ele>22</ele>
        <time>2015-04-06T10:02:23Z</time>
      </trkpt>
      <trkpt lat="43.5959" lon="6.92712">
        <ele>22</ele>
        <time>2015-04-06T10:02:27Z</time>
      </trkpt>
      <trkpt lat="43.59614" lon="6.92725">
        <ele>22</ele>
        <time>2015-04-06T10:02:32Z</time>
      </trkpt>
      <trkpt lat="43.59641" lon="6.92737">
        <ele>22</ele>
        <time>2015-04-06T10:02:39Z</time>
      </trkpt>
      <trkpt lat="43.5966" lon="6.92744">
        <ele>22</ele>
        <time>2015-04-06T10:02:42Z</time>
      </trkpt>
      <trkpt lat="43.59683" lon="6.92752">
        <ele>22</ele>
        <time>2015-04-06T10:02:47Z</time>
      </trkpt>
      <trkpt lat="43.59707" lon="6.92759">
        <ele>23</ele>
        <time>2015-04-06T10:02:52Z</time>
      </trkpt>
      <trkpt lat="43.59734" lon="6.92779">
        <ele>24</ele>
        <time>2015-04-06T10:03:00Z</time>
      </trkpt>
      <trkpt lat="43.59732" lon="6.92799">
        <ele>23</ele>
        <time>2015-04-06T10:03:02Z</time>
      </trkpt>
      <trkpt lat="43.59774" lon="6.92844">
        <ele>23</ele>
        <time>2015-04-06T10:03:16Z</time>
      </trkpt>
      <trkpt lat="43.59798" lon="6.92857">
        <ele>25</ele>
        <time>2015-04-06T10:03:21Z</time>
      </trkpt>
      <trkpt lat="43.59822" lon="6.9287">
        <ele>24</ele>
        <time>2015-04-06T10:03:26Z</time>
      </trkpt>
      <trkpt lat="43.59845" lon="6.92881">
        <ele>25</ele>
        <time>2015-04-06T10:03:32Z</time>
      </trkpt>
      <trkpt lat="43.59875" lon="6.92895">
        <ele>26</ele>
        <time>2015-04-06T10:03:38Z</time>
      </trkpt>
      <trkpt lat="43.59897" lon="6.92906">
        <ele>26</ele>
        <time>2015-04-06T10:03:43Z</time>
      </trkpt>
      <trkpt lat="43.59909" lon="6.92913">
        <ele>26</ele>
        <time>2015-04-06T10:03:46Z</time>
      </trkpt>
      <trkpt lat="43.5993" lon="6.92923">
        <ele>26</ele>
        <time>2015-04-06T10:03:51Z</time>
      </trkpt>
      <trkpt lat="43.59967" lon="6.92941">
        <ele>26</ele>
        <time>2015-04-06T10:03:59Z</time>
      </trkpt>
      <trkpt lat="43.59977" lon="6.92945">
        <ele>27</ele>
        <time>2015-04-06T10:04:01Z</time>
      </trkpt>
      <trkpt lat="43.60003" lon="6.92958">
        <ele>28</ele>
        <time>2015-04-06T10:04:06Z</time>
      </trkpt>
      <trkpt lat="43.60034" lon="6.92973">
        <ele>28</ele>
        <time>2015-04-06T10:04:12Z</time>
      </trkpt>
      <trkpt lat="43.60062" lon="6.92987">
        <ele>29</ele>
        <time>2015-04-06T10:04:19Z</time>
      </trkpt>
      <trkpt lat="43.60065" lon="6.92993">
        <ele>29</ele>
        <time>2015-04-06T10:04:21Z</time>
      </trkpt>
      <trkpt lat="43.60075" lon="6.93024">
        <ele>30</ele>
        <time>2015-04-06T10:04:30Z</time>
      </trkpt>
      <trkpt lat="43.60078" lon="6.9303">
        <ele>30</ele>
        <time>2015-04-06T10:04:32Z</time>
      </trkpt>
      <trkpt lat="43.60084" lon="6.93043">
        <ele>31</ele>
        <time>2015-04-06T10:04:36Z</time>
      </trkpt>
      <trkpt lat="43.60091" lon="6.93055">
        <ele>30</ele>
        <time>2015-04-06T10:04:41Z</time>
      </trkpt>
      <trkpt lat="43.60096" lon="6.9307">
        <ele>30</ele>
        <time>2015-04-06T10:04:46Z</time>
      </trkpt>
      <trkpt lat="43.601" lon="6.93094">
        <ele>30</ele>
        <time>2015-04-06T10:04:51Z</time>
      </trkpt>
      <trkpt lat="43.60107" lon="6.93124">
        <ele>29</ele>
        <time>2015-04-06T10:04:57Z</time>
      </trkpt>
      <trkpt lat="43.60113" lon="6.93132">
        <ele>31</ele>
        <time>2015-04-06T10:05:03Z</time>
      </trkpt>
      <trkpt lat="43.60113" lon="6.93131">
        <ele>30</ele>
        <time>2015-04-06T10:05:06Z</time>
      </trkpt>
      <trkpt lat="43.60113" lon="6.93131">
        <ele>30</ele>
        <time>2015-04-06T10:05:11Z</time>
      </trkpt>
      <trkpt lat="43.60113" lon="6.93131">
        <ele>30</ele>
        <time>2015-04-06T10:05:17Z</time>
      </trkpt>
      <trkpt lat="43.60113" lon="6.93131">
        <ele>30</ele>
        <time>2015-04-06T10:05:21Z</time>
      </trkpt>
      <trkpt lat="43.60113" lon="6.93131">
        <ele>30</ele>
        <time>2015-04-06T10:05:26Z</time>
      </trkpt>
      <trkpt lat="43.60113" lon="6.93131">
        <ele>30</ele>
        <time>2015-04-06T10:05:31Z</time>
      </trkpt>
      <trkpt lat="43.60124" lon="6.93134">
        <ele>30</ele>
        <time>2015-04-06T10:05:36Z</time>
      </trkpt>
      <trkpt lat="43.60135" lon="6.93146">
        <ele>31</ele>
        <time>2015-04-06T10:05:42Z</time>
      </trkpt>
      <trkpt lat="43.60144" lon="6.93155">
        <ele>32</ele>
        <time>2015-04-06T10:05:47Z</time>
      </trkpt>
      <trkpt lat="43.60148" lon="6.93161">
        <ele>33</ele>
        <time>2015-04-06T10:05:51Z</time>
      </trkpt>
      <trkpt lat="43.60158" lon="6.93171">
        <ele>34</ele>
        <time>2015-04-06T10:05:58Z</time>
      </trkpt>
      <trkpt lat="43.60163" lon="6.93175">
        <ele>35</ele>
        <time>2015-04-06T10:06:01Z</time>
      </trkpt>
      <trkpt lat="43.60178" lon="6.93182">
        <ele>35</ele>
        <time>2015-04-06T10:06:09Z</time>
      </trkpt>
      <trkpt lat="43.60182" lon="6.93184">
        <ele>35</ele>
        <time>2015-04-06T10:06:11Z</time>
      </trkpt>
      <trkpt lat="43.60193" lon="6.93188">
        <ele>36</ele>
        <time>2015-04-06T10:06:16Z</time>
      </trkpt>
      <trkpt lat="43.60203" lon="6.93193">
        <ele>37</ele>
        <time>2015-04-06T10:06:21Z</time>
      </trkpt>
      <trkpt lat="43.60214" lon="6.932">
        <ele>38</ele>
        <time>2015-04-06T10:06:26Z</time>
      </trkpt>
      <trkpt lat="43.60225" lon="6.93213">
        <ele>39</ele>
        <time>2015-04-06T10:06:32Z</time>
      </trkpt>
      <trkpt lat="43.60229" lon="6.93236">
        <ele>39</ele>
        <time>2015-04-06T10:06:39Z</time>
      </trkpt>
      <trkpt lat="43.60228" lon="6.93246">
        <ele>40</ele>
        <time>2015-04-06T10:06:42Z</time>
      </trkpt>
      <trkpt lat="43.60224" lon="6.93259">
        <ele>41</ele>
        <time>2015-04-06T10:06:46Z</time>
      </trkpt>
      <trkpt lat="43.6022" lon="6.93274">
        <ele>42</ele>
        <time>2015-04-06T10:06:51Z</time>
      </trkpt>
      <trkpt lat="43.6022" lon="6.93291">
        <ele>43</ele>
        <time>2015-04-06T10:06:56Z</time>
      </trkpt>
      <trkpt lat="43.60225" lon="6.93305">
        <ele>43</ele>
        <time>2015-04-06T10:07:01Z</time>
      </trkpt>
      <trkpt lat="43.60232" lon="6.93317">
        <ele>44</ele>
        <time>2015-04-06T10:07:06Z</time>
      </trkpt>
      <trkpt lat="43.60238" lon="6.93327">
        <ele>46</ele>
        <time>2015-04-06T10:07:11Z</time>
      </trkpt>
      <trkpt lat="43.60246" lon="6.93334">
        <ele>46</ele>
        <time>2015-04-06T10:07:16Z</time>
      </trkpt>
      <trkpt lat="43.60256" lon="6.9334">
        <ele>47</ele>
        <time>2015-04-06T10:07:21Z</time>
      </trkpt>
      <trkpt lat="43.60275" lon="6.93348">
        <ele>45</ele>
        <time>2015-04-06T10:07:30Z</time>
      </trkpt>
      <trkpt lat="43.60278" lon="6.93348">
        <ele>45</ele>
        <time>2015-04-06T10:07:31Z</time>
      </trkpt>
      <trkpt lat="43.60292" lon="6.93349">
        <ele>45</ele>
        <time>2015-04-06T10:07:36Z</time>
      </trkpt>
      <trkpt lat="43.60313" lon="6.93357">
        <ele>46</ele>
        <time>2015-04-06T10:07:44Z</time>
      </trkpt>
      <trkpt lat="43.60317" lon="6.93359">
        <ele>45</ele>
        <time>2015-04-06T10:07:46Z</time>
      </trkpt>
      <trkpt lat="43.6033" lon="6.93368">
        <ele>47</ele>
        <time>2015-04-06T10:07:51Z</time>
      </trkpt>
      <trkpt lat="43.60343" lon="6.93382">
        <ele>49</ele>
        <time>2015-04-06T10:07:56Z</time>
      </trkpt>
      <trkpt lat="43.60367" lon="6.93403">
        <ele>50</ele>
        <time>2015-04-06T10:08:05Z</time>
      </trkpt>
      <trkpt lat="43.6037" lon="6.93404">
        <ele>51</ele>
        <time>2015-04-06T10:08:06Z</time>
      </trkpt>
      <trkpt lat="43.60386" lon="6.93402">
        <ele>53</ele>
        <time>2015-04-06T10:08:11Z</time>
      </trkpt>
      <trkpt lat="43.60402" lon="6.93404">
        <ele>54</ele>
        <time>2015-04-06T10:08:16Z</time>
      </trkpt>
      <trkpt lat="43.60414" lon="6.93419">
        <ele>54</ele>
        <time>2015-04-06T10:08:21Z</time>
      </trkpt>
      <trkpt lat="43.60435" lon="6.93431">
        <ele>55</ele>
        <time>2015-04-06T10:08:28Z</time>
      </trkpt>
      <trkpt lat="43.60446" lon="6.93433">
        <ele>57</ele>
        <time>2015-04-06T10:08:31Z</time>
      </trkpt>
      <trkpt lat="43.60467" lon="6.93443">
        <ele>59</ele>
        <time>2015-04-06T10:08:36Z</time>
      </trkpt>
      <trkpt lat="43.60486" lon="6.93453">
        <ele>60</ele>
        <time>2015-04-06T10:08:41Z</time>
      </trkpt>
      <trkpt lat="43.60504" lon="6.93464">
        <ele>62</ele>
        <time>2015-04-06T10:08:46Z</time>
      </trkpt>
      <trkpt lat="43.60533" lon="6.93479">
        <ele>62</ele>
        <time>2015-04-06T10:08:54Z</time>
      </trkpt>
      <trkpt lat="43.60553" lon="6.93494">
        <ele>63</ele>
        <time>2015-04-06T10:09:00Z</time>
      </trkpt>
      <trkpt lat="43.60556" lon="6.935">
        <ele>63</ele>
        <time>2015-04-06T10:09:02Z</time>
      </trkpt>
      <trkpt lat="43.6057" lon="6.93513">
        <ele>63</ele>
        <time>2015-04-06T10:09:08Z</time>
      </trkpt>
      <trkpt lat="43.60579" lon="6.93518">
        <ele>64</ele>
        <time>2015-04-06T10:09:11Z</time>
      </trkpt>
      <trkpt lat="43.60606" lon="6.93532">
        <ele>65</ele>
        <time>2015-04-06T10:09:20Z</time>
      </trkpt>
      <trkpt lat="43.60615" lon="6.93541">
        <ele>64</ele>
        <time>2015-04-06T10:09:23Z</time>
      </trkpt>
      <trkpt lat="43.60623" lon="6.93552">
        <ele>64</ele>
        <time>2015-04-06T10:09:26Z</time>
      </trkpt>
      <trkpt lat="43.60635" lon="6.93571">
        <ele>65</ele>
        <time>2015-04-06T10:09:31Z</time>
      </trkpt>
      <trkpt lat="43.60646" lon="6.93589">
        <ele>62</ele>
        <time>2015-04-06T10:09:36Z</time>
      </trkpt>
      <trkpt lat="43.60666" lon="6.93615">
        <ele>61</ele>
        <time>2015-04-06T10:09:44Z</time>
      </trkpt>
      <trkpt lat="43.60672" lon="6.9362">
        <ele>61</ele>
        <time>2015-04-06T10:09:46Z</time>
      </trkpt>
      <trkpt lat="43.60697" lon="6.93639">
        <ele>60</ele>
        <time>2015-04-06T10:09:54Z</time>
      </trkpt>
      <trkpt lat="43.60702" lon="6.93645">
        <ele>60</ele>
        <time>2015-04-06T10:09:56Z</time>
      </trkpt>
      <trkpt lat="43.60719" lon="6.93657">
        <ele>60</ele>
        <time>2015-04-06T10:10:01Z</time>
      </trkpt>
      <trkpt lat="43.60741" lon="6.93679">
        <ele>61</ele>
        <time>2015-04-06T10:10:07Z</time>
      </trkpt>
      <trkpt lat="43.60765" lon="6.93701">
        <ele>57</ele>
        <time>2015-04-06T10:10:14Z</time>
      </trkpt>
      <trkpt lat="43.60776" lon="6.9371">
        <ele>55</ele>
        <time>2015-04-06T10:10:17Z</time>
      </trkpt>
      <trkpt lat="43.60787" lon="6.93722">
        <ele>56</ele>
        <time>2015-04-06T10:10:21Z</time>
      </trkpt>
      <trkpt lat="43.60805" lon="6.93744">
        <ele>56</ele>
        <time>2015-04-06T10:10:26Z</time>
      </trkpt>
      <trkpt lat="43.60825" lon="6.93772">
        <ele>54</ele>
        <time>2015-04-06T10:10:32Z</time>
      </trkpt>
      <trkpt lat="43.60841" lon="6.93804">
        <ele>52</ele>
        <time>2015-04-06T10:10:38Z</time>
      </trkpt>
      <trkpt lat="43.60851" lon="6.9382">
        <ele>53</ele>
        <time>2015-04-06T10:10:41Z</time>
      </trkpt>
      <trkpt lat="43.60873" lon="6.93842">
        <ele>54</ele>
        <time>2015-04-06T10:10:46Z</time>
      </trkpt>
      <trkpt lat="43.6088" lon="6.93905">
        <ele>53</ele>
        <time>2015-04-06T10:10:55Z</time>
      </trkpt>
      <trkpt lat="43.60877" lon="6.93912">
        <ele>53</ele>
        <time>2015-04-06T10:10:56Z</time>
      </trkpt>
      <trkpt lat="43.60854" lon="6.93949">
        <ele>52</ele>
        <time>2015-04-06T10:11:02Z</time>
      </trkpt>
      <trkpt lat="43.60837" lon="6.93976">
        <ele>52</ele>
        <time>2015-04-06T10:11:06Z</time>
      </trkpt>
      <trkpt lat="43.60819" lon="6.94013">
        <ele>54</ele>
        <time>2015-04-06T10:11:12Z</time>
      </trkpt>
      <trkpt lat="43.60814" lon="6.94041">
        <ele>55</ele>
        <time>2015-04-06T10:11:16Z</time>
      </trkpt>
      <trkpt lat="43.6081" lon="6.94072">
        <ele>56</ele>
        <time>2015-04-06T10:11:21Z</time>
      </trkpt>
      <trkpt lat="43.60808" lon="6.94091">
        <ele>58</ele>
        <time>2015-04-06T10:11:26Z</time>
      </trkpt>
      <trkpt lat="43.60807" lon="6.9409">
        <ele>59</ele>
        <time>2015-04-06T10:11:31Z</time>
      </trkpt>
      <trkpt lat="43.60808" lon="6.9409">
        <ele>60</ele>
        <time>2015-04-06T10:11:36Z</time>
      </trkpt>
      <trkpt lat="43.60807" lon="6.94089">
        <ele>60</ele>
        <time>2015-04-06T10:11:41Z</time>
      </trkpt>
      <trkpt lat="43.60808" lon="6.94088">
        <ele>60</ele>
        <time>2015-04-06T10:11:48Z</time>
      </trkpt>
      <trkpt lat="43.60808" lon="6.94088">
        <ele>60</ele>
        <time>2015-04-06T10:11:51Z</time>
      </trkpt>
      <trkpt lat="43.60808" lon="6.94088">
        <ele>60</ele>
        <time>2015-04-06T10:11:56Z</time>
      </trkpt>
      <trkpt lat="43.60807" lon="6.94098">
        <ele>62</ele>
        <time>2015-04-06T10:12:01Z</time>
      </trkpt>
      <trkpt lat="43.60808" lon="6.94131">
        <ele>61</ele>
        <time>2015-04-06T10:12:06Z</time>
      </trkpt>
      <trkpt lat="43.60808" lon="6.94161">
        <ele>61</ele>
        <time>2015-04-06T10:12:11Z</time>
      </trkpt>
      <trkpt lat="43.60801" lon="6.94204">
        <ele>59</ele>
        <time>2015-04-06T10:12:18Z</time>
      </trkpt>
      <trkpt lat="43.608" lon="6.94219">
        <ele>58</ele>
        <time>2015-04-06T10:12:21Z</time>
      </trkpt>
      <trkpt lat="43.60807" lon="6.94242">
        <ele>58</ele>
        <time>2015-04-06T10:12:26Z</time>
      </trkpt>
      <trkpt lat="43.60822" lon="6.94254">
        <ele>62</ele>
        <time>2015-04-06T10:12:31Z</time>
      </trkpt>
      <trkpt lat="43.60837" lon="6.94259">
        <ele>63</ele>
        <time>2015-04-06T10:12:36Z</time>
      </trkpt>
      <trkpt lat="43.60858" lon="6.94274">
        <ele>63</ele>
        <time>2015-04-06T10:12:44Z</time>
      </trkpt>
      <trkpt lat="43.60864" lon="6.94278">
        <ele>63</ele>
        <time>2015-04-06T10:12:46Z</time>
      </trkpt>
      <trkpt lat="43.60882" lon="6.94291">
        <ele>67</ele>
        <time>2015-04-06T10:12:52Z</time>
      </trkpt>
      <trkpt lat="43.60896" lon="6.94299">
        <ele>67</ele>
        <time>2015-04-06T10:12:57Z</time>
      </trkpt>
      <trkpt lat="43.60906" lon="6.94306">
        <ele>72</ele>
        <time>2015-04-06T10:13:01Z</time>
      </trkpt>
      <trkpt lat="43.60922" lon="6.94312">
        <ele>71</ele>
        <time>2015-04-06T10:13:06Z</time>
      </trkpt>
      <trkpt lat="43.60937" lon="6.94324">
        <ele>72</ele>
        <time>2015-04-06T10:13:11Z</time>
      </trkpt>
      <trkpt lat="43.6095" lon="6.94335">
        <ele>71</ele>
        <time>2015-04-06T10:13:16Z</time>
      </trkpt>
      <trkpt lat="43.60967" lon="6.94344">
        <ele>71</ele>
        <time>2015-04-06T10:13:21Z</time>
      </trkpt>
      <trkpt lat="43.60996" lon="6.94358">
        <ele>71</ele>
        <time>2015-04-06T10:13:26Z</time>
      </trkpt>
      <trkpt lat="43.61023" lon="6.94374">
        <ele>70</ele>
        <time>2015-04-06T10:13:33Z</time>
      </trkpt>
      <trkpt lat="43.61034" lon="6.94377">
        <ele>71</ele>
        <time>2015-04-06T10:13:36Z</time>
      </trkpt>
      <trkpt lat="43.61053" lon="6.94383">
        <ele>73</ele>
        <time>2015-04-06T10:13:41Z</time>
      </trkpt>
      <trkpt lat="43.6107" lon="6.94394">
        <ele>71</ele>
        <time>2015-04-06T10:13:46Z</time>
      </trkpt>
      <trkpt lat="43.61093" lon="6.94411">
        <ele>70</ele>
        <time>2015-04-06T10:13:51Z</time>
      </trkpt>
      <trkpt lat="43.61123" lon="6.9443">
        <ele>67</ele>
        <time>2015-04-06T10:13:58Z</time>
      </trkpt>
      <trkpt lat="43.61135" lon="6.94438">
        <ele>67</ele>
        <time>2015-04-06T10:14:01Z</time>
      </trkpt>
      <trkpt lat="43.61161" lon="6.94454">
        <ele>68</ele>
        <time>2015-04-06T10:14:07Z</time>
      </trkpt>
      <trkpt lat="43.61199" lon="6.94476">
        <ele>68</ele>
        <time>2015-04-06T10:14:15Z</time>
      </trkpt>
      <trkpt lat="43.61204" lon="6.94479">
        <ele>68</ele>
        <time>2015-04-06T10:14:16Z</time>
      </trkpt>
      <trkpt lat="43.61229" lon="6.94491">
        <ele>69</ele>
        <time>2015-04-06T10:14:21Z</time>
      </trkpt>
      <trkpt lat="43.61251" lon="6.94506">
        <ele>68</ele>
        <time>2015-04-06T10:14:26Z</time>
      </trkpt>
      <trkpt lat="43.61271" lon="6.94518">
        <ele>67</ele>
        <time>2015-04-06T10:14:31Z</time>
      </trkpt>
      <trkpt lat="43.61293" lon="6.94528">
        <ele>67</ele>
        <time>2015-04-06T10:14:36Z</time>
      </trkpt>
      <trkpt lat="43.61317" lon="6.94527">
        <ele>68</ele>
        <time>2015-04-06T10:14:41Z</time>
      </trkpt>
      <trkpt lat="43.61359" lon="6.94534">
        <ele>69</ele>
        <time>2015-04-06T10:14:50Z</time>
      </trkpt>
      <trkpt lat="43.61363" lon="6.94535">
        <ele>68</ele>
        <time>2015-04-06T10:14:51Z</time>
      </trkpt>
      <trkpt lat="43.6138" lon="6.94545">
        <ele>69</ele>
        <time>2015-04-06T10:14:56Z</time>
      </trkpt>
      <trkpt lat="43.61394" lon="6.94558">
        <ele>70</ele>
        <time>2015-04-06T10:15:01Z</time>
      </trkpt>
      <trkpt lat="43.61406" lon="6.94569">
        <ele>70</ele>
        <time>2015-04-06T10:15:06Z</time>
      </trkpt>
      <trkpt lat="43.6142" lon="6.94575">
        <ele>73</ele>
        <time>2015-04-06T10:15:11Z</time>
      </trkpt>
      <trkpt lat="43.61434" lon="6.94572">
        <ele>71</ele>
        <time>2015-04-06T10:15:16Z</time>
      </trkpt>
      <trkpt lat="43.61448" lon="6.94558">
        <ele>72</ele>
        <time>2015-04-06T10:15:21Z</time>
      </trkpt>
      <trkpt lat="43.6146" lon="6.94547">
        <ele>75</ele>
        <time>2015-04-06T10:15:26Z</time>
      </trkpt>
      <trkpt lat="43.61471" lon="6.94535">
        <ele>74</ele>
        <time>2015-04-06T10:15:31Z</time>
      </trkpt>
      <trkpt lat="43.61483" lon="6.94521">
        <ele>75</ele>
        <time>2015-04-06T10:15:36Z</time>
      </trkpt>
      <trkpt lat="43.61502" lon="6.94515">
        <ele>74</ele>
        <time>2015-04-06T10:15:41Z</time>
      </trkpt>
      <trkpt lat="43.6153" lon="6.94517">
        <ele>70</ele>
        <time>2015-04-06T10:15:49Z</time>
      </trkpt>
      <trkpt lat="43.61536" lon="6.94519">
        <ele>70</ele>
        <time>2015-04-06T10:15:51Z</time>
      </trkpt>
      <trkpt lat="43.61553" lon="6.94521">
        <ele>71</ele>
        <time>2015-04-06T10:15:56Z</time>
      </trkpt>
      <trkpt lat="43.61569" lon="6.94527">
        <ele>70</ele>
        <time>2015-04-06T10:16:01Z</time>
      </trkpt>
      <trkpt lat="43.61577" lon="6.94551">
        <ele>67</ele>
        <time>2015-04-06T10:16:06Z</time>
      </trkpt>
      <trkpt lat="43.61605" lon="6.94567">
        <ele>65</ele>
        <time>2015-04-06T10:16:14Z</time>
      </trkpt>
      <trkpt lat="43.61604" lon="6.94583">
        <ele>65</ele>
        <time>2015-04-06T10:16:17Z</time>
      </trkpt>
      <trkpt lat="43.61609" lon="6.94613">
        <ele>63</ele>
        <time>2015-04-06T10:16:23Z</time>
      </trkpt>
      <trkpt lat="43.6161" lon="6.94625">
        <ele>62</ele>
        <time>2015-04-06T10:16:26Z</time>
      </trkpt>
      <trkpt lat="43.6161" lon="6.94645">
        <ele>61</ele>
        <time>2015-04-06T10:16:31Z</time>
      </trkpt>
      <trkpt lat="43.61607" lon="6.94663">
        <ele>61</ele>
        <time>2015-04-06T10:16:36Z</time>
      </trkpt>
      <trkpt lat="43.61605" lon="6.94682">
        <ele>63</ele>
        <time>2015-04-06T10:16:41Z</time>
      </trkpt>
      <trkpt lat="43.61602" lon="6.94702">
        <ele>65</ele>
        <time>2015-04-06T10:16:47Z</time>
      </trkpt>
      <trkpt lat="43.61602" lon="6.94717">
        <ele>66</ele>
        <time>2015-04-06T10:16:51Z</time>
      </trkpt>
      <trkpt lat="43.61602" lon="6.94735">
        <ele>65</ele>
        <time>2015-04-06T10:16:56Z</time>
      </trkpt>
      <trkpt lat="43.61607" lon="6.94746">
        <ele>67</ele>
        <time>2015-04-06T10:17:01Z</time>
      </trkpt>
      <trkpt lat="43.61612" lon="6.94762">
        <ele>67</ele>
        <time>2015-04-06T10:17:06Z</time>
      </trkpt>
      <trkpt lat="43.61618" lon="6.94783">
        <ele>65</ele>
        <time>2015-04-06T10:17:13Z</time>
      </trkpt>
      <trkpt lat="43.61619" lon="6.94793">
        <ele>66</ele>
        <time>2015-04-06T10:17:16Z</time>
      </trkpt>
      <trkpt lat="43.61621" lon="6.94809">
        <ele>63</ele>
        <time>2015-04-06T10:17:21Z</time>
      </trkpt>
      <trkpt lat="43.61634" lon="6.94824">
        <ele>64</ele>
        <time>2015-04-06T10:17:29Z</time>
      </trkpt>
      <trkpt lat="43.61635" lon="6.94825">
        <ele>63</ele>
        <time>2015-04-06T10:17:31Z</time>
      </trkpt>
      <trkpt lat="43.6164" lon="6.94831">
        <ele>63</ele>
        <time>2015-04-06T10:17:36Z</time>
      </trkpt>
      <trkpt lat="43.61649" lon="6.94843">
        <ele>63</ele>
        <time>2015-04-06T10:17:41Z</time>
      </trkpt>
      <trkpt lat="43.6166" lon="6.9485">
        <ele>67</ele>
        <time>2015-04-06T10:17:50Z</time>
      </trkpt>
      <trkpt lat="43.61663" lon="6.94853">
        <ele>67</ele>
        <time>2015-04-06T10:17:55Z</time>
      </trkpt>
      <trkpt lat="43.61664" lon="6.94854">
        <ele>67</ele>
        <time>2015-04-06T10:17:59Z</time>
      </trkpt>
      <trkpt lat="43.61665" lon="6.94854">
        <ele>68</ele>
        <time>2015-04-06T10:18:01Z</time>
      </trkpt>
      <trkpt lat="43.61666" lon="6.94856">
        <ele>68</ele>
        <time>2015-04-06T10:18:06Z</time>
      </trkpt>
      <trkpt lat="43.61671" lon="6.9486">
        <ele>66</ele>
        <time>2015-04-06T10:18:11Z</time>
      </trkpt>
      <trkpt lat="43.61677" lon="6.9487">
        <ele>68</ele>
        <time>2015-04-06T10:18:20Z</time>
      </trkpt>
      <trkpt lat="43.6168" lon="6.94876">
        <ele>71</ele>
        <time>2015-04-06T10:18:24Z</time>
      </trkpt>
      <trkpt lat="43.61681" lon="6.94879">
        <ele>71</ele>
        <time>2015-04-06T10:18:26Z</time>
      </trkpt>
      <trkpt lat="43.61683" lon="6.9489">
        <ele>73</ele>
        <time>2015-04-06T10:18:31Z</time>
      </trkpt>
      <trkpt lat="43.61684" lon="6.94897">
        <ele>73</ele>
        <time>2015-04-06T10:18:36Z</time>
      </trkpt>
      <trkpt lat="43.61684" lon="6.94898">
        <ele>74</ele>
        <time>2015-04-06T10:18:41Z</time>
      </trkpt>
      <trkpt lat="43.61684" lon="6.94899">
        <ele>74</ele>
        <time>2015-04-06T10:18:46Z</time>
      </trkpt>
      <trkpt lat="43.61684" lon="6.94899">
        <ele>74</ele>
        <time>2015-04-06T10:18:52Z</time>
      </trkpt>
      <trkpt lat="43.61684" lon="6.949">
        <ele>74</ele>
        <time>2015-04-06T10:18:56Z</time>
      </trkpt>
      <trkpt lat="43.61687" lon="6.94916">
        <ele>68</ele>
        <time>2015-04-06T10:19:05Z</time>
      </trkpt>
      <trkpt lat="43.61687" lon="6.94917">
        <ele>69</ele>
        <time>2015-04-06T10:19:08Z</time>
      </trkpt>
      <trkpt lat="43.61687" lon="6.94918">
        <ele>68</ele>
        <time>2015-04-06T10:19:11Z</time>
      </trkpt>
      <trkpt lat="43.61687" lon="6.94918">
        <ele>69</ele>
        <time>2015-04-06T10:19:16Z</time>
      </trkpt>
      <trkpt lat="43.61687" lon="6.94918">
        <ele>69</ele>
        <time>2015-04-06T10:19:21Z</time>
      </trkpt>
      <trkpt lat="43.61687" lon="6.94918">
        <ele>69</ele>
        <time>2015-04-06T10:19:26Z</time>
      </trkpt>
      <trkpt lat="43.61688" lon="6.94918">
        <ele>69</ele>
        <time>2015-04-06T10:19:31Z</time>
      </trkpt>
      <trkpt lat="43.61689" lon="6.94918">
        <ele>69</ele>
        <time>2015-04-06T10:19:36Z</time>
      </trkpt>
      <trkpt lat="43.61689" lon="6.94918">
        <ele>69</ele>
        <time>2015-04-06T10:19:41Z</time>
      </trkpt>
      <trkpt lat="43.61689" lon="6.94918">
        <ele>69</ele>
        <time>2015-04-06T10:19:46Z</time>
      </trkpt>
      <trkpt lat="43.61689" lon="6.94919">
        <ele>68</ele>
        <time>2015-04-06T10:19:51Z</time>
      </trkpt>
      <trkpt lat="43.61693" lon="6.94921">
        <ele>68</ele>
        <time>2015-04-06T10:19:56Z</time>
      </trkpt>
      <trkpt lat="43.61695" lon="6.94925">
        <ele>66</ele>
        <time>2015-04-06T10:20:05Z</time>
      </trkpt>
      <trkpt lat="43.61695" lon="6.94926">
        <ele>67</ele>
        <time>2015-04-06T10:20:06Z</time>
      </trkpt>
      <trkpt lat="43.61694" lon="6.94927">
        <ele>67</ele>
        <time>2015-04-06T10:20:13Z</time>
      </trkpt>
      <trkpt lat="43.61694" lon="6.94928">
        <ele>66</ele>
        <time>2015-04-06T10:20:16Z</time>
      </trkpt>
      <trkpt lat="43.61695" lon="6.94929">
        <ele>68</ele>
        <time>2015-04-06T10:20:22Z</time>
      </trkpt>
      <trkpt lat="43.61697" lon="6.94933">
        <ele>69</ele>
        <time>2015-04-06T10:20:26Z</time>
      </trkpt>
      <trkpt lat="43.61701" lon="6.94951">
        <ele>71</ele>
        <time>2015-04-06T10:20:31Z</time>
      </trkpt>
      <trkpt lat="43.61702" lon="6.94976">
        <ele>70</ele>
        <time>2015-04-06T10:20:39Z</time>
      </trkpt>
      <trkpt lat="43.61701" lon="6.94982">
        <ele>68</ele>
        <time>2015-04-06T10:20:41Z</time>
      </trkpt>
      <trkpt lat="43.61696" lon="6.9501">
        <ele>70</ele>
        <time>2015-04-06T10:20:49Z</time>
      </trkpt>
      <trkpt lat="43.61695" lon="6.95017">
        <ele>70</ele>
        <time>2015-04-06T10:20:51Z</time>
      </trkpt>
      <trkpt lat="43.6169" lon="6.95042">
        <ele>69</ele>
        <time>2015-04-06T10:20:57Z</time>
      </trkpt>
      <trkpt lat="43.61699" lon="6.95065">
        <ele>68</ele>
        <time>2015-04-06T10:21:04Z</time>
      </trkpt>
      <trkpt lat="43.617" lon="6.95068">
        <ele>69</ele>
        <time>2015-04-06T10:21:06Z</time>
      </trkpt>
      <trkpt lat="43.61702" lon="6.95081">
        <ele>69</ele>
        <time>2015-04-06T10:21:13Z</time>
      </trkpt>
      <trkpt lat="43.61702" lon="6.95097">
        <ele>71</ele>
        <time>2015-04-06T10:21:20Z</time>
      </trkpt>
      <trkpt lat="43.61702" lon="6.95099">
        <ele>71</ele>
        <time>2015-04-06T10:21:21Z</time>
      </trkpt>
      <trkpt lat="43.61703" lon="6.95102">
        <ele>70</ele>
        <time>2015-04-06T10:21:26Z</time>
      </trkpt>
      <trkpt lat="43.61705" lon="6.95107">
        <ele>70</ele>
        <time>2015-04-06T10:21:34Z</time>
      </trkpt>
      <trkpt lat="43.61708" lon="6.95113">
        <ele>70</ele>
        <time>2015-04-06T10:21:39Z</time>
      </trkpt>
      <trkpt lat="43.6171" lon="6.95115">
        <ele>70</ele>
        <time>2015-04-06T10:21:41Z</time>
      </trkpt>
      <trkpt lat="43.61713" lon="6.95121">
        <ele>72</ele>
        <time>2015-04-06T10:21:46Z</time>
      </trkpt>
      <trkpt lat="43.61721" lon="6.95128">
        <ele>74</ele>
        <time>2015-04-06T10:21:55Z</time>
      </trkpt>
      <trkpt lat="43.61722" lon="6.95127">
        <ele>75</ele>
        <time>2015-04-06T10:21:56Z</time>
      </trkpt>
      <trkpt lat="43.61725" lon="6.95123">
        <ele>77</ele>
        <time>2015-04-06T10:22:02Z</time>
      </trkpt>
      <trkpt lat="43.6173" lon="6.95119">
        <ele>78</ele>
        <time>2015-04-06T10:22:06Z</time>
      </trkpt>
      <trkpt lat="43.61738" lon="6.9511">
        <ele>78</ele>
        <time>2015-04-06T10:22:11Z</time>
      </trkpt>
      <trkpt lat="43.61797" lon="6.95051">
        <ele>81</ele>
        <time>2015-04-06T10:22:32Z</time>
      </trkpt>
      <trkpt lat="43.61809" lon="6.95041">
        <ele>82</ele>
        <time>2015-04-06T10:22:35Z</time>
      </trkpt>
      <trkpt lat="43.61829" lon="6.95025">
        <ele>81</ele>
        <time>2015-04-06T10:22:40Z</time>
      </trkpt>
      <trkpt lat="43.61844" lon="6.95006">
        <ele>78</ele>
        <time>2015-04-06T10:22:45Z</time>
      </trkpt>
      <trkpt lat="43.6185" lon="6.94985">
        <ele>79</ele>
        <time>2015-04-06T10:22:49Z</time>
      </trkpt>
      <trkpt lat="43.61857" lon="6.94964">
        <ele>79</ele>
        <time>2015-04-06T10:22:53Z</time>
      </trkpt>
      <trkpt lat="43.61861" lon="6.94942">
        <ele>82</ele>
        <time>2015-04-06T10:22:58Z</time>
      </trkpt>
      <trkpt lat="43.61861" lon="6.94914">
        <ele>78</ele>
        <time>2015-04-06T10:23:06Z</time>
      </trkpt>
      <trkpt lat="43.61862" lon="6.94908">
        <ele>77</ele>
        <time>2015-04-06T10:23:08Z</time>
      </trkpt>
      <trkpt lat="43.61863" lon="6.94877">
        <ele>79</ele>
        <time>2015-04-06T10:23:17Z</time>
      </trkpt>
      <trkpt lat="43.61865" lon="6.9487">
        <ele>79</ele>
        <time>2015-04-06T10:23:19Z</time>
      </trkpt>
      <trkpt lat="43.61866" lon="6.94856">
        <ele>79</ele>
        <time>2015-04-06T10:23:24Z</time>
      </trkpt>
      <trkpt lat="43.61867" lon="6.94845">
        <ele>80</ele>
        <time>2015-04-06T10:23:28Z</time>
      </trkpt>
      <trkpt lat="43.61872" lon="6.94835">
        <ele>82</ele>
        <time>2015-04-06T10:23:33Z</time>
      </trkpt>
      <trkpt lat="43.61881" lon="6.94832">
        <ele>85</ele>
        <time>2015-04-06T10:23:38Z</time>
      </trkpt>
      <trkpt lat="43.6189" lon="6.9483">
        <ele>85</ele>
        <time>2015-04-06T10:23:43Z</time>
      </trkpt>
      <trkpt lat="43.61904" lon="6.94827">
        <ele>88</ele>
        <time>2015-04-06T10:23:51Z</time>
      </trkpt>
      <trkpt lat="43.61908" lon="6.94826">
        <ele>89</ele>
        <time>2015-04-06T10:23:53Z</time>
      </trkpt>
      <trkpt lat="43.61917" lon="6.94823">
        <ele>90</ele>
        <time>2015-04-06T10:23:58Z</time>
      </trkpt>
      <trkpt lat="43.61929" lon="6.94823">
        <ele>90</ele>
        <time>2015-04-06T10:24:05Z</time>
      </trkpt>
      <trkpt lat="43.61934" lon="6.94825">
        <ele>89</ele>
        <time>2015-04-06T10:24:08Z</time>
      </trkpt>
      <trkpt lat="43.6194" lon="6.94833">
        <ele>88</ele>
        <time>2015-04-06T10:24:13Z</time>
      </trkpt>
      <trkpt lat="43.61947" lon="6.94852">
        <ele>86</ele>
        <time>2015-04-06T10:24:22Z</time>
      </trkpt>
      <trkpt lat="43.61948" lon="6.94854">
        <ele>87</ele>
        <time>2015-04-06T10:24:23Z</time>
      </trkpt>
      <trkpt lat="43.61954" lon="6.94871">
        <ele>86</ele>
        <time>2015-04-06T10:24:30Z</time>
      </trkpt>
      <trkpt lat="43.61965" lon="6.94889">
        <ele>88</ele>
        <time>2015-04-06T10:24:37Z</time>
      </trkpt>
      <trkpt lat="43.61969" lon="6.94899">
        <ele>88</ele>
        <time>2015-04-06T10:24:40Z</time>
      </trkpt>
      <trkpt lat="43.61975" lon="6.94915">
        <ele>85</ele>
        <time>2015-04-06T10:24:45Z</time>
      </trkpt>
      <trkpt lat="43.61978" lon="6.94925">
        <ele>85</ele>
        <time>2015-04-06T10:24:48Z</time>
      </trkpt>
      <trkpt lat="43.61991" lon="6.94962">
        <ele>94</ele>
        <time>2015-04-06T10:24:57Z</time>
      </trkpt>
      <trkpt lat="43.61992" lon="6.94966">
        <ele>94</ele>
        <time>2015-04-06T10:24:58Z</time>
      </trkpt>
      <trkpt lat="43.61999" lon="6.9499">
        <ele>95</ele>
        <time>2015-04-06T10:25:03Z</time>
      </trkpt>
      <trkpt lat="43.62011" lon="6.95028">
        <ele>95</ele>
        <time>2015-04-06T10:25:10Z</time>
      </trkpt>
      <trkpt lat="43.62016" lon="6.95045">
        <ele>96</ele>
        <time>2015-04-06T10:25:13Z</time>
      </trkpt>
      <trkpt lat="43.62033" lon="6.9508">
        <ele>97</ele>
        <time>2015-04-06T10:25:21Z</time>
      </trkpt>
      <trkpt lat="43.62036" lon="6.95113">
        <ele>100</ele>
        <time>2015-04-06T10:25:27Z</time>
      </trkpt>
      <trkpt lat="43.62034" lon="6.95135">
        <ele>101</ele>
        <time>2015-04-06T10:25:31Z</time>
      </trkpt>
      <trkpt lat="43.62032" lon="6.95162">
        <ele>103</ele>
        <time>2015-04-06T10:25:36Z</time>
      </trkpt>
      <trkpt lat="43.62031" lon="6.95173">
        <ele>103</ele>
        <time>2015-04-06T10:25:38Z</time>
      </trkpt>
      <trkpt lat="43.6203" lon="6.95202">
        <ele>102</ele>
        <time>2015-04-06T10:25:43Z</time>
      </trkpt>
      <trkpt lat="43.62036" lon="6.95238">
        <ele>104</ele>
        <time>2015-04-06T10:25:49Z</time>
      </trkpt>
      <trkpt lat="43.62044" lon="6.95254">
        <ele>103</ele>
        <time>2015-04-06T10:25:53Z</time>
      </trkpt>
      <trkpt lat="43.62065" lon="6.95288">
        <ele>100</ele>
        <time>2015-04-06T10:26:02Z</time>
      </trkpt>
      <trkpt lat="43.62067" lon="6.95291">
        <ele>100</ele>
        <time>2015-04-06T10:26:03Z</time>
      </trkpt>
      <trkpt lat="43.62086" lon="6.95305">
        <ele>99</ele>
        <time>2015-04-06T10:26:09Z</time>
      </trkpt>
      <trkpt lat="43.62099" lon="6.95313">
        <ele>101</ele>
        <time>2015-04-06T10:26:13Z</time>
      </trkpt>
      <trkpt lat="43.62115" lon="6.95324">
        <ele>99</ele>
        <time>2015-04-06T10:26:18Z</time>
      </trkpt>
      <trkpt lat="43.62132" lon="6.95335">
        <ele>101</ele>
        <time>2015-04-06T10:26:23Z</time>
      </trkpt>
      <trkpt lat="43.62159" lon="6.95359">
        <ele>104</ele>
        <time>2015-04-06T10:26:31Z</time>
      </trkpt>
      <trkpt lat="43.62165" lon="6.95365">
        <ele>104</ele>
        <time>2015-04-06T10:26:33Z</time>
      </trkpt>
      <trkpt lat="43.6218" lon="6.95386">
        <ele>104</ele>
        <time>2015-04-06T10:26:39Z</time>
      </trkpt>
      <trkpt lat="43.62199" lon="6.95416">
        <ele>104</ele>
        <time>2015-04-06T10:26:47Z</time>
      </trkpt>
      <trkpt lat="43.6221" lon="6.95434">
        <ele>105</ele>
        <time>2015-04-06T10:26:52Z</time>
      </trkpt>
      <trkpt lat="43.62221" lon="6.95452">
        <ele>104</ele>
        <time>2015-04-06T10:26:57Z</time>
      </trkpt>
      <trkpt lat="43.62225" lon="6.95459">
        <ele>104</ele>
        <time>2015-04-06T10:26:59Z</time>
      </trkpt>
      <trkpt lat="43.62233" lon="6.95473">
        <ele>104</ele>
        <time>2015-04-06T10:27:03Z</time>
      </trkpt>
      <trkpt lat="43.62247" lon="6.95501">
        <ele>104</ele>
        <time>2015-04-06T10:27:12Z</time>
      </trkpt>
      <trkpt lat="43.62248" lon="6.95504">
        <ele>103</ele>
        <time>2015-04-06T10:27:13Z</time>
      </trkpt>
      <trkpt lat="43.62254" lon="6.95519">
        <ele>105</ele>
        <time>2015-04-06T10:27:18Z</time>
      </trkpt>
      <trkpt lat="43.62263" lon="6.95533">
        <ele>107</ele>
        <time>2015-04-06T10:27:23Z</time>
      </trkpt>
      <trkpt lat="43.62273" lon="6.95548">
        <ele>107</ele>
        <time>2015-04-06T10:27:28Z</time>
      </trkpt>
      <trkpt lat="43.62277" lon="6.95548">
        <ele>109</ele>
        <time>2015-04-06T10:27:33Z</time>
      </trkpt>
      <trkpt lat="43.6228" lon="6.95548">
        <ele>109</ele>
        <time>2015-04-06T10:27:38Z</time>
      </trkpt>
      <trkpt lat="43.62283" lon="6.95546">
        <ele>109</ele>
        <time>2015-04-06T10:27:43Z</time>
      </trkpt>
      <trkpt lat="43.62284" lon="6.95546">
        <ele>110</ele>
        <time>2015-04-06T10:27:48Z</time>
      </trkpt>
      <trkpt lat="43.62285" lon="6.95546">
        <ele>110</ele>
        <time>2015-04-06T10:27:53Z</time>
      </trkpt>
      <trkpt lat="43.62285" lon="6.95546">
        <ele>110</ele>
        <time>2015-04-06T10:27:58Z</time>
      </trkpt>
      <trkpt lat="43.62286" lon="6.95545">
        <ele>109</ele>
        <time>2015-04-06T10:28:03Z</time>
      </trkpt>
      <trkpt lat="43.62287" lon="6.95544">
        <ele>109</ele>
        <time>2015-04-06T10:28:08Z</time>
      </trkpt>
      <trkpt lat="43.62287" lon="6.95544">
        <ele>109</ele>
        <time>2015-04-06T10:28:13Z</time>
      </trkpt>
      <trkpt lat="43.62287" lon="6.95544">
        <ele>109</ele>
        <time>2015-04-06T10:28:18Z</time>
      </trkpt>
      <trkpt lat="43.62287" lon="6.95544">
        <ele>109</ele>
        <time>2015-04-06T10:28:23Z</time>
      </trkpt>
      <trkpt lat="43.62287" lon="6.95544">
        <ele>109</ele>
        <time>2015-04-06T10:28:28Z</time>
      </trkpt>
      <trkpt lat="43.62287" lon="6.95544">
        <ele>109</ele>
        <time>2015-04-06T10:28:33Z</time>
      </trkpt>
      <trkpt lat="43.62287" lon="6.95544">
        <ele>109</ele>
        <time>2015-04-06T10:28:38Z</time>
      </trkpt>
      <trkpt lat="43.62287" lon="6.95544">
        <ele>109</ele>
        <time>2015-04-06T10:28:43Z</time>
      </trkpt>
      <trkpt lat="43.62287" lon="6.95544">
        <ele>109</ele>
        <time>2015-04-06T10:28:48Z</time>
      </trkpt>
      <trkpt lat="43.62287" lon="6.95544">
        <ele>109</ele>
        <time>2015-04-06T10:28:53Z</time>
      </trkpt>
      <trkpt lat="43.62287" lon="6.95544">
        <ele>109</ele>
        <time>2015-04-06T10:28:58Z</time>
      </trkpt>
      <trkpt lat="43.62287" lon="6.95544">
        <ele>109</ele>
        <time>2015-04-06T10:29:03Z</time>
      </trkpt>
      <trkpt lat="43.62287" lon="6.95544">
        <ele>109</ele>
        <time>2015-04-06T10:29:08Z</time>
      </trkpt>
      <trkpt lat="43.62287" lon="6.95544">
        <ele>109</ele>
        <time>2015-04-06T10:29:13Z</time>
      </trkpt>
      <trkpt lat="43.62287" lon="6.95544">
        <ele>109</ele>
        <time>2015-04-06T10:29:18Z</time>
      </trkpt>
      <trkpt lat="43.62287" lon="6.95544">
        <ele>109</ele>
        <time>2015-04-06T10:29:23Z</time>
      </trkpt>
      <trkpt lat="43.62287" lon="6.95544">
        <ele>109</ele>
        <time>2015-04-06T10:29:28Z</time>
      </trkpt>
      <trkpt lat="43.62287" lon="6.95544">
        <ele>109</ele>
        <time>2015-04-06T10:29:33Z</time>
      </trkpt>
      <trkpt lat="43.62287" lon="6.95544">
        <ele>109</ele>
        <time>2015-04-06T10:29:38Z</time>
      </trkpt>
      <trkpt lat="43.62287" lon="6.95544">
        <ele>109</ele>
        <time>2015-04-06T10:29:43Z</time>
      </trkpt>
      <trkpt lat="43.62288" lon="6.95544">
        <ele>109</ele>
        <time>2015-04-06T10:29:48Z</time>
      </trkpt>
      <trkpt lat="43.62288" lon="6.95543">
        <ele>110</ele>
        <time>2015-04-06T10:29:53Z</time>
      </trkpt>
      <trkpt lat="43.62296" lon="6.95539">
        <ele>107</ele>
        <time>2015-04-06T10:29:58Z</time>
      </trkpt>
      <trkpt lat="43.62308" lon="6.95531">
        <ele>107</ele>
        <time>2015-04-06T10:30:03Z</time>
      </trkpt>
      <trkpt lat="43.62311" lon="6.95518">
        <ele>109</ele>
        <time>2015-04-06T10:30:08Z</time>
      </trkpt>
      <trkpt lat="43.62308" lon="6.95503">
        <ele>107</ele>
        <time>2015-04-06T10:30:13Z</time>
      </trkpt>
      <trkpt lat="43.62311" lon="6.95477">
        <ele>111</ele>
        <time>2015-04-06T10:30:22Z</time>
      </trkpt>
      <trkpt lat="43.62313" lon="6.95472">
        <ele>111</ele>
        <time>2015-04-06T10:30:24Z</time>
      </trkpt>
      <trkpt lat="43.62315" lon="6.95461">
        <ele>113</ele>
        <time>2015-04-06T10:30:28Z</time>
      </trkpt>
      <trkpt lat="43.6232" lon="6.95448">
        <ele>115</ele>
        <time>2015-04-06T10:30:33Z</time>
      </trkpt>
      <trkpt lat="43.62323" lon="6.95433">
        <ele>115</ele>
        <time>2015-04-06T10:30:38Z</time>
      </trkpt>
      <trkpt lat="43.62332" lon="6.95413">
        <ele>112</ele>
        <time>2015-04-06T10:30:44Z</time>
      </trkpt>
      <trkpt lat="43.62336" lon="6.95396">
        <ele>110</ele>
        <time>2015-04-06T10:30:48Z</time>
      </trkpt>
      <trkpt lat="43.62342" lon="6.95361">
        <ele>106</ele>
        <time>2015-04-06T10:30:57Z</time>
      </trkpt>
      <trkpt lat="43.62343" lon="6.95351">
        <ele>105</ele>
        <time>2015-04-06T10:31:00Z</time>
      </trkpt>
      <trkpt lat="43.62345" lon="6.95343">
        <ele>105</ele>
        <time>2015-04-06T10:31:03Z</time>
      </trkpt>
      <trkpt lat="43.62349" lon="6.95326">
        <ele>108</ele>
        <time>2015-04-06T10:31:09Z</time>
      </trkpt>
      <trkpt lat="43.62356" lon="6.95321">
        <ele>110</ele>
        <time>2015-04-06T10:31:13Z</time>
      </trkpt>
      <trkpt lat="43.62367" lon="6.95323">
        <ele>109</ele>
        <time>2015-04-06T10:31:21Z</time>
      </trkpt>
      <trkpt lat="43.62373" lon="6.95323">
        <ele>109</ele>
        <time>2015-04-06T10:31:25Z</time>
      </trkpt>
      <trkpt lat="43.62378" lon="6.95323">
        <ele>109</ele>
        <time>2015-04-06T10:31:28Z</time>
      </trkpt>
      <trkpt lat="43.62386" lon="6.95325">
        <ele>110</ele>
        <time>2015-04-06T10:31:33Z</time>
      </trkpt>
      <trkpt lat="43.62396" lon="6.95329">
        <ele>112</ele>
        <time>2015-04-06T10:31:39Z</time>
      </trkpt>
      <trkpt lat="43.62402" lon="6.9533">
        <ele>110</ele>
        <time>2015-04-06T10:31:44Z</time>
      </trkpt>
      <trkpt lat="43.62413" lon="6.95327">
        <ele>111</ele>
        <time>2015-04-06T10:31:50Z</time>
      </trkpt>
      <trkpt lat="43.6242" lon="6.95327">
        <ele>112</ele>
        <time>2015-04-06T10:31:53Z</time>
      </trkpt>
      <trkpt lat="43.62434" lon="6.95331">
        <ele>113</ele>
        <time>2015-04-06T10:32:00Z</time>
      </trkpt>
      <trkpt lat="43.62437" lon="6.95331">
        <ele>114</ele>
        <time>2015-04-06T10:32:04Z</time>
      </trkpt>
      <trkpt lat="43.62442" lon="6.95331">
        <ele>114</ele>
        <time>2015-04-06T10:32:08Z</time>
      </trkpt>
      <trkpt lat="43.62457" lon="6.95328">
        <ele>116</ele>
        <time>2015-04-06T10:32:14Z</time>
      </trkpt>
      <trkpt lat="43.62469" lon="6.95327">
        <ele>118</ele>
        <time>2015-04-06T10:32:18Z</time>
      </trkpt>
      <trkpt lat="43.62483" lon="6.95326">
        <ele>118</ele>
        <time>2015-04-06T10:32:23Z</time>
      </trkpt>
      <trkpt lat="43.62496" lon="6.95322">
        <ele>119</ele>
        <time>2015-04-06T10:32:28Z</time>
      </trkpt>
      <trkpt lat="43.6251" lon="6.95323">
        <ele>118</ele>
        <time>2015-04-06T10:32:33Z</time>
      </trkpt>
      <trkpt lat="43.62525" lon="6.95325">
        <ele>118</ele>
        <time>2015-04-06T10:32:38Z</time>
      </trkpt>
      <trkpt lat="43.62543" lon="6.95329">
        <ele>116</ele>
        <time>2015-04-06T10:32:43Z</time>
      </trkpt>
      <trkpt lat="43.62563" lon="6.95334">
        <ele>120</ele>
        <time>2015-04-06T10:32:48Z</time>
      </trkpt>
      <trkpt lat="43.62596" lon="6.95347">
        <ele>121</ele>
        <time>2015-04-06T10:32:55Z</time>
      </trkpt>
      <trkpt lat="43.62609" lon="6.95352">
        <ele>120</ele>
        <time>2015-04-06T10:32:58Z</time>
      </trkpt>
      <trkpt lat="43.62627" lon="6.95363">
        <ele>119</ele>
        <time>2015-04-06T10:33:03Z</time>
      </trkpt>
      <trkpt lat="43.62651" lon="6.95376">
        <ele>117</ele>
        <time>2015-04-06T10:33:08Z</time>
      </trkpt>
      <trkpt lat="43.62663" lon="6.95402">
        <ele>115</ele>
        <time>2015-04-06T10:33:13Z</time>
      </trkpt>
      <trkpt lat="43.62679" lon="6.95436">
        <ele>114</ele>
        <time>2015-04-06T10:33:20Z</time>
      </trkpt>
      <trkpt lat="43.62686" lon="6.95454">
        <ele>114</ele>
        <time>2015-04-06T10:33:23Z</time>
      </trkpt>
      <trkpt lat="43.6269" lon="6.95493">
        <ele>111</ele>
        <time>2015-04-06T10:33:29Z</time>
      </trkpt>
      <trkpt lat="43.62693" lon="6.95528">
        <ele>112</ele>
        <time>2015-04-06T10:33:34Z</time>
      </trkpt>
      <trkpt lat="43.62698" lon="6.95572">
        <ele>112</ele>
        <time>2015-04-06T10:33:41Z</time>
      </trkpt>
      <trkpt lat="43.62698" lon="6.95591">
        <ele>114</ele>
        <time>2015-04-06T10:33:44Z</time>
      </trkpt>
      <trkpt lat="43.62701" lon="6.95631">
        <ele>116</ele>
        <time>2015-04-06T10:33:51Z</time>
      </trkpt>
      <trkpt lat="43.62702" lon="6.95641">
        <ele>116</ele>
        <time>2015-04-06T10:33:53Z</time>
      </trkpt>
      <trkpt lat="43.62713" lon="6.95658">
        <ele>116</ele>
        <time>2015-04-06T10:34:00Z</time>
      </trkpt>
      <trkpt lat="43.62737" lon="6.95656">
        <ele>113</ele>
        <time>2015-04-06T10:34:07Z</time>
      </trkpt>
      <trkpt lat="43.62744" lon="6.95654">
        <ele>113</ele>
        <time>2015-04-06T10:34:09Z</time>
      </trkpt>
      <trkpt lat="43.62769" lon="6.95655">
        <ele>111</ele>
        <time>2015-04-06T10:34:14Z</time>
      </trkpt>
      <trkpt lat="43.62782" lon="6.95637">
        <ele>109</ele>
        <time>2015-04-06T10:34:18Z</time>
      </trkpt>
      <trkpt lat="43.62793" lon="6.95607">
        <ele>106</ele>
        <time>2015-04-06T10:34:23Z</time>
      </trkpt>
      <trkpt lat="43.62807" lon="6.95576">
        <ele>105</ele>
        <time>2015-04-06T10:34:29Z</time>
      </trkpt>
      <trkpt lat="43.62835" lon="6.95566">
        <ele>106</ele>
        <time>2015-04-06T10:34:35Z</time>
      </trkpt>
      <trkpt lat="43.62856" lon="6.95563">
        <ele>107</ele>
        <time>2015-04-06T10:34:40Z</time>
      </trkpt>
      <trkpt lat="43.62871" lon="6.95561">
        <ele>109</ele>
        <time>2015-04-06T10:34:44Z</time>
      </trkpt>
      <trkpt lat="43.62889" lon="6.95559">
        <ele>112</ele>
        <time>2015-04-06T10:34:49Z</time>
      </trkpt>
      <trkpt lat="43.62902" lon="6.95556">
        <ele>113</ele>
        <time>2015-04-06T10:34:54Z</time>
      </trkpt>
      <trkpt lat="43.62915" lon="6.9555">
        <ele>110</ele>
        <time>2015-04-06T10:34:59Z</time>
      </trkpt>
      <trkpt lat="43.62921" lon="6.95538">
        <ele>110</ele>
        <time>2015-04-06T10:35:03Z</time>
      </trkpt>
      <trkpt lat="43.62921" lon="6.95506">
        <ele>109</ele>
        <time>2015-04-06T10:35:10Z</time>
      </trkpt>
      <trkpt lat="43.62919" lon="6.9549">
        <ele>109</ele>
        <time>2015-04-06T10:35:13Z</time>
      </trkpt>
      <trkpt lat="43.62926" lon="6.95477">
        <ele>109</ele>
        <time>2015-04-06T10:35:19Z</time>
      </trkpt>
      <trkpt lat="43.62928" lon="6.95479">
        <ele>109</ele>
        <time>2015-04-06T10:35:23Z</time>
      </trkpt>
      <trkpt lat="43.62928" lon="6.9548">
        <ele>109</ele>
        <time>2015-04-06T10:35:28Z</time>
      </trkpt>
      <trkpt lat="43.62928" lon="6.9548">
        <ele>109</ele>
        <time>2015-04-06T10:35:33Z</time>
      </trkpt>
      <trkpt lat="43.62928" lon="6.9548">
        <ele>109</ele>
        <time>2015-04-06T10:35:38Z</time>
      </trkpt>
      <trkpt lat="43.62928" lon="6.9548">
        <ele>109</ele>
        <time>2015-04-06T10:35:43Z</time>
      </trkpt>
      <trkpt lat="43.62928" lon="6.9548">
        <ele>109</ele>
        <time>2015-04-06T10:35:48Z</time>
      </trkpt>
      <trkpt lat="43.62928" lon="6.9548">
        <ele>109</ele>
        <time>2015-04-06T10:35:55Z</time>
      </trkpt>
      <trkpt lat="43.62929" lon="6.9548">
        <ele>110</ele>
        <time>2015-04-06T10:35:58Z</time>
      </trkpt>
      <trkpt lat="43.62936" lon="6.95471">
        <ele>110</ele>
        <time>2015-04-06T10:36:03Z</time>
      </trkpt>
      <trkpt lat="43.62939" lon="6.95451">
        <ele>111</ele>
        <time>2015-04-06T10:36:08Z</time>
      </trkpt>
      <trkpt lat="43.62939" lon="6.95434">
        <ele>110</ele>
        <time>2015-04-06T10:36:13Z</time>
      </trkpt>
      <trkpt lat="43.62935" lon="6.95409">
        <ele>111</ele>
        <time>2015-04-06T10:36:19Z</time>
      </trkpt>
      <trkpt lat="43.62934" lon="6.95392">
        <ele>113</ele>
        <time>2015-04-06T10:36:23Z</time>
      </trkpt>
      <trkpt lat="43.62932" lon="6.9537">
        <ele>112</ele>
        <time>2015-04-06T10:36:29Z</time>
      </trkpt>
      <trkpt lat="43.6293" lon="6.95348">
        <ele>112</ele>
        <time>2015-04-06T10:36:33Z</time>
      </trkpt>
      <trkpt lat="43.62933" lon="6.95311">
        <ele>113</ele>
        <time>2015-04-06T10:36:41Z</time>
      </trkpt>
      <trkpt lat="43.62934" lon="6.95302">
        <ele>113</ele>
        <time>2015-04-06T10:36:43Z</time>
      </trkpt>
      <trkpt lat="43.62935" lon="6.95283">
        <ele>116</ele>
        <time>2015-04-06T10:36:48Z</time>
      </trkpt>
      <trkpt lat="43.62939" lon="6.95264">
        <ele>113</ele>
        <time>2015-04-06T10:36:53Z</time>
      </trkpt>
      <trkpt lat="43.62953" lon="6.9526">
        <ele>114</ele>
        <time>2015-04-06T10:36:58Z</time>
      </trkpt>
      <trkpt lat="43.62971" lon="6.95257">
        <ele>114</ele>
        <time>2015-04-06T10:37:05Z</time>
      </trkpt>
      <trkpt lat="43.6298" lon="6.95254">
        <ele>116</ele>
        <time>2015-04-06T10:37:08Z</time>
      </trkpt>
      <trkpt lat="43.62995" lon="6.95245">
        <ele>117</ele>
        <time>2015-04-06T10:37:13Z</time>
      </trkpt>
      <trkpt lat="43.63019" lon="6.95236">
        <ele>119</ele>
        <time>2015-04-06T10:37:20Z</time>
      </trkpt>
      <trkpt lat="43.63029" lon="6.95231">
        <ele>119</ele>
        <time>2015-04-06T10:37:23Z</time>
      </trkpt>
      <trkpt lat="43.63048" lon="6.95215">
        <ele>118</ele>
        <time>2015-04-06T10:37:29Z</time>
      </trkpt>
      <trkpt lat="43.63062" lon="6.95207">
        <ele>119</ele>
        <time>2015-04-06T10:37:33Z</time>
      </trkpt>
      <trkpt lat="43.63083" lon="6.952">
        <ele>121</ele>
        <time>2015-04-06T10:37:39Z</time>
      </trkpt>
      <trkpt lat="43.63111" lon="6.95186">
        <ele>122</ele>
        <time>2015-04-06T10:37:47Z</time>
      </trkpt>
      <trkpt lat="43.63114" lon="6.95184">
        <ele>122</ele>
        <time>2015-04-06T10:37:48Z</time>
      </trkpt>
      <trkpt lat="43.63131" lon="6.95164">
        <ele>121</ele>
        <time>2015-04-06T10:37:54Z</time>
      </trkpt>
      <trkpt lat="43.63134" lon="6.95127">
        <ele>118</ele>
        <time>2015-04-06T10:38:01Z</time>
      </trkpt>
      <trkpt lat="43.63138" lon="6.95119">
        <ele>118</ele>
        <time>2015-04-06T10:38:03Z</time>
      </trkpt>
      <trkpt lat="43.63155" lon="6.95119">
        <ele>122</ele>
        <time>2015-04-06T10:38:08Z</time>
      </trkpt>
      <trkpt lat="43.6317" lon="6.9513">
        <ele>124</ele>
        <time>2015-04-06T10:38:13Z</time>
      </trkpt>
      <trkpt lat="43.63166" lon="6.95145">
        <ele>123</ele>
        <time>2015-04-06T10:38:20Z</time>
      </trkpt>
      <trkpt lat="43.63163" lon="6.9515">
        <ele>123</ele>
        <time>2015-04-06T10:38:23Z</time>
      </trkpt>
      <trkpt lat="43.63156" lon="6.95164">
        <ele>123</ele>
        <time>2015-04-06T10:38:29Z</time>
      </trkpt>
      <trkpt lat="43.63152" lon="6.9517">
        <ele>124</ele>
        <time>2015-04-06T10:38:33Z</time>
      </trkpt>
      <trkpt lat="43.63152" lon="6.9517">
        <ele>124</ele>
        <time>2015-04-06T10:38:38Z</time>
      </trkpt>
      <trkpt lat="43.63152" lon="6.95171">
        <ele>124</ele>
        <time>2015-04-06T10:38:43Z</time>
      </trkpt>
      <trkpt lat="43.63152" lon="6.95171">
        <ele>124</ele>
        <time>2015-04-06T10:38:48Z</time>
      </trkpt>
      <trkpt lat="43.63152" lon="6.95171">
        <ele>124</ele>
        <time>2015-04-06T10:38:53Z</time>
      </trkpt>
      <trkpt lat="43.63151" lon="6.95177">
        <ele>125</ele>
        <time>2015-04-06T10:38:58Z</time>
      </trkpt>
      <trkpt lat="43.63151" lon="6.95201">
        <ele>126</ele>
        <time>2015-04-06T10:39:04Z</time>
      </trkpt>
      <trkpt lat="43.6315" lon="6.95214">
        <ele>125</ele>
        <time>2015-04-06T10:39:08Z</time>
      </trkpt>
      <trkpt lat="43.63148" lon="6.95229">
        <ele>123</ele>
        <time>2015-04-06T10:39:13Z</time>
      </trkpt>
      <trkpt lat="43.6315" lon="6.95245">
        <ele>122</ele>
        <time>2015-04-06T10:39:18Z</time>
      </trkpt>
      <trkpt lat="43.63156" lon="6.95278">
        <ele>123</ele>
        <time>2015-04-06T10:39:26Z</time>
      </trkpt>
      <trkpt lat="43.63157" lon="6.95289">
        <ele>123</ele>
        <time>2015-04-06T10:39:28Z</time>
      </trkpt>
      <trkpt lat="43.63158" lon="6.95322">
        <ele>123</ele>
        <time>2015-04-06T10:39:36Z</time>
      </trkpt>
      <trkpt lat="43.6316" lon="6.95327">
        <ele>123</ele>
        <time>2015-04-06T10:39:38Z</time>
      </trkpt>
      <trkpt lat="43.63165" lon="6.9534">
        <ele>124</ele>
        <time>2015-04-06T10:39:43Z</time>
      </trkpt>
      <trkpt lat="43.63182" lon="6.95347">
        <ele>127</ele>
        <time>2015-04-06T10:39:52Z</time>
      </trkpt>
      <trkpt lat="43.63186" lon="6.95346">
        <ele>127</ele>
        <time>2015-04-06T10:39:54Z</time>
      </trkpt>
      <trkpt lat="43.63187" lon="6.95344">
        <ele>127</ele>
        <time>2015-04-06T10:39:59Z</time>
      </trkpt>
      <trkpt lat="43.63186" lon="6.95343">
        <ele>127</ele>
        <time>2015-04-06T10:40:03Z</time>
      </trkpt>
      <trkpt lat="43.63188" lon="6.95345">
        <ele>125</ele>
        <time>2015-04-06T10:40:08Z</time>
      </trkpt>
      <trkpt lat="43.63188" lon="6.95356">
        <ele>124</ele>
        <time>2015-04-06T10:40:17Z</time>
      </trkpt>
      <trkpt lat="43.63188" lon="6.95357">
        <ele>124</ele>
        <time>2015-04-06T10:40:18Z</time>
      </trkpt>
      <trkpt lat="43.63188" lon="6.95357">
        <ele>122</ele>
        <time>2015-04-06T10:40:23Z</time>
      </trkpt>
      <trkpt lat="43.63188" lon="6.95356">
        <ele>122</ele>
        <time>2015-04-06T10:40:28Z</time>
      </trkpt>
      <trkpt lat="43.63188" lon="6.95356">
        <ele>122</ele>
        <time>2015-04-06T10:40:33Z</time>
      </trkpt>
      <trkpt lat="43.63189" lon="6.95356">
        <ele>122</ele>
        <time>2015-04-06T10:40:38Z</time>
      </trkpt>
      <trkpt lat="43.63188" lon="6.95357">
        <ele>121</ele>
        <time>2015-04-06T10:40:43Z</time>
      </trkpt>
      <trkpt lat="43.63188" lon="6.95357">
        <ele>122</ele>
        <time>2015-04-06T10:40:48Z</time>
      </trkpt>
      <trkpt lat="43.63188" lon="6.95357">
        <ele>122</ele>
        <time>2015-04-06T10:40:53Z</time>
      </trkpt>
      <trkpt lat="43.63188" lon="6.95357">
        <ele>122</ele>
        <time>2015-04-06T10:40:58Z</time>
      </trkpt>
      <trkpt lat="43.63189" lon="6.95355">
        <ele>122</ele>
        <time>2015-04-06T10:41:04Z</time>
      </trkpt>
      <trkpt lat="43.63189" lon="6.95355">
        <ele>121</ele>
        <time>2015-04-06T10:41:08Z</time>
      </trkpt>
      <trkpt lat="43.6319" lon="6.95355">
        <ele>121</ele>
        <time>2015-04-06T10:41:13Z</time>
      </trkpt>
      <trkpt lat="43.63189" lon="6.95354">
        <ele>121</ele>
        <time>2015-04-06T10:41:18Z</time>
      </trkpt>
      <trkpt lat="43.6319" lon="6.95355">
        <ele>121</ele>
        <time>2015-04-06T10:41:23Z</time>
      </trkpt>
      <trkpt lat="43.6319" lon="6.95355">
        <ele>121</ele>
        <time>2015-04-06T10:41:28Z</time>
      </trkpt>
      <trkpt lat="43.6319" lon="6.95355">
        <ele>121</ele>
        <time>2015-04-06T10:41:33Z</time>
      </trkpt>
      <trkpt lat="43.6319" lon="6.95355">
        <ele>121</ele>
        <time>2015-04-06T10:41:38Z</time>
      </trkpt>
      <trkpt lat="43.6319" lon="6.95354">
        <ele>122</ele>
        <time>2015-04-06T10:41:44Z</time>
      </trkpt>
      <trkpt lat="43.63189" lon="6.95353">
        <ele>123</ele>
        <time>2015-04-06T10:41:48Z</time>
      </trkpt>
      <trkpt lat="43.6319" lon="6.95352">
        <ele>122</ele>
        <time>2015-04-06T10:41:53Z</time>
      </trkpt>
      <trkpt lat="43.6319" lon="6.95352">
        <ele>122</ele>
        <time>2015-04-06T10:41:58Z</time>
      </trkpt>
      <trkpt lat="43.6319" lon="6.95352">
        <ele>123</ele>
        <time>2015-04-06T10:42:03Z</time>
      </trkpt>
    </trkseg>
  </trk>
</gpx>